<?xml version="1.0" encoding="UTF-8" standalone="no" ?>
<gpx xmlns="http://www.topografix.com/GPX/1/1" xmlns:xsi="http://www.w3.org/2001/XMLSchema-instance" xsi:schemaLocation="http://www.topografix.com/GPX/1/1 http://www.topografix.com/GPX/1/1/gpx.xsd" version="1.1" creator="VisuGPX - https://www.visugpx.com">
  <metadata>
    <name>Péaule 26/07/2020</name>
    <desc><![CDATA[Sortie VTT Péaule du dimanche 26 juillet 2020]]></desc>
  </metadata>
  <trk>
    <name><![CDATA[Péaule Cyclisme]]></name>
    <trkseg>
      <trkpt lat="47.57997" lon="-2.35125">
        <ele>78</ele>
        <time>2020-07-26T06:32:26.000Z</time>
      </trkpt>
      <trkpt lat="47.5799" lon="-2.3513">
        <ele>78</ele>
        <time>2020-07-26T06:32:29.000Z</time>
      </trkpt>
      <trkpt lat="47.57988" lon="-2.35131">
        <ele>78.599998474121</ele>
        <time>2020-07-26T06:32:30.000Z</time>
      </trkpt>
      <trkpt lat="47.57982" lon="-2.35135">
        <ele>78.599998474121</ele>
        <time>2020-07-26T06:32:32.000Z</time>
      </trkpt>
      <trkpt lat="47.57961" lon="-2.35148">
        <ele>79</ele>
        <time>2020-07-26T06:32:39.000Z</time>
      </trkpt>
      <trkpt lat="47.57958" lon="-2.35149">
        <ele>79.400001525879</ele>
        <time>2020-07-26T06:32:40.000Z</time>
      </trkpt>
      <trkpt lat="47.57955" lon="-2.3515">
        <ele>79.800003051758</ele>
        <time>2020-07-26T06:32:41.000Z</time>
      </trkpt>
      <trkpt lat="47.57952" lon="-2.35152">
        <ele>80.199996948242</ele>
        <time>2020-07-26T06:32:42.000Z</time>
      </trkpt>
      <trkpt lat="47.57949" lon="-2.35154">
        <ele>80.599998474121</ele>
        <time>2020-07-26T06:32:43.000Z</time>
      </trkpt>
      <trkpt lat="47.57936" lon="-2.35162">
        <ele>81</ele>
        <time>2020-07-26T06:32:48.000Z</time>
      </trkpt>
      <trkpt lat="47.57933" lon="-2.35163">
        <ele>81.599998474121</ele>
        <time>2020-07-26T06:32:49.000Z</time>
      </trkpt>
      <trkpt lat="47.5793" lon="-2.35165">
        <ele>82</ele>
        <time>2020-07-26T06:32:50.000Z</time>
      </trkpt>
      <trkpt lat="47.57927" lon="-2.35166">
        <ele>82.400001525879</ele>
        <time>2020-07-26T06:32:51.000Z</time>
      </trkpt>
      <trkpt lat="47.57925" lon="-2.35168">
        <ele>82.800003051758</ele>
        <time>2020-07-26T06:32:52.000Z</time>
      </trkpt>
      <trkpt lat="47.57912" lon="-2.35176">
        <ele>83.199996948242</ele>
        <time>2020-07-26T06:32:57.000Z</time>
      </trkpt>
      <trkpt lat="47.57909" lon="-2.35178">
        <ele>83.800003051758</ele>
        <time>2020-07-26T06:32:58.000Z</time>
      </trkpt>
      <trkpt lat="47.57907" lon="-2.35179">
        <ele>84.199996948242</ele>
        <time>2020-07-26T06:32:59.000Z</time>
      </trkpt>
      <trkpt lat="47.57905" lon="-2.3518">
        <ele>84.599998474121</ele>
        <time>2020-07-26T06:33:00.000Z</time>
      </trkpt>
      <trkpt lat="47.57902" lon="-2.35182">
        <ele>85</ele>
        <time>2020-07-26T06:33:01.000Z</time>
      </trkpt>
      <trkpt lat="47.57889" lon="-2.35189">
        <ele>85</ele>
        <time>2020-07-26T06:33:06.000Z</time>
      </trkpt>
      <trkpt lat="47.57883" lon="-2.35193">
        <ele>85.400001525879</ele>
        <time>2020-07-26T06:33:08.000Z</time>
      </trkpt>
      <trkpt lat="47.57881" lon="-2.35195">
        <ele>85.800003051758</ele>
        <time>2020-07-26T06:33:09.000Z</time>
      </trkpt>
      <trkpt lat="47.57878" lon="-2.35197">
        <ele>86.400001525879</ele>
        <time>2020-07-26T06:33:10.000Z</time>
      </trkpt>
      <trkpt lat="47.57875" lon="-2.35198">
        <ele>86.800003051758</ele>
        <time>2020-07-26T06:33:11.000Z</time>
      </trkpt>
      <trkpt lat="47.57873" lon="-2.352">
        <ele>87.199996948242</ele>
        <time>2020-07-26T06:33:12.000Z</time>
      </trkpt>
      <trkpt lat="47.5787" lon="-2.35201">
        <ele>87.199996948242</ele>
        <time>2020-07-26T06:33:13.000Z</time>
      </trkpt>
      <trkpt lat="47.57848" lon="-2.35209">
        <ele>87.199996948242</ele>
        <time>2020-07-26T06:33:21.000Z</time>
      </trkpt>
      <trkpt lat="47.57846" lon="-2.35207">
        <ele>87.199996948242</ele>
        <time>2020-07-26T06:33:22.000Z</time>
      </trkpt>
      <trkpt lat="47.57845" lon="-2.35201">
        <ele>87.199996948242</ele>
        <time>2020-07-26T06:33:25.000Z</time>
      </trkpt>
      <trkpt lat="47.57841" lon="-2.35185">
        <ele>87.199996948242</ele>
        <time>2020-07-26T06:33:32.000Z</time>
      </trkpt>
      <trkpt lat="47.57833" lon="-2.35162">
        <ele>87.199996948242</ele>
        <time>2020-07-26T06:33:37.000Z</time>
      </trkpt>
      <trkpt lat="47.57819" lon="-2.35124">
        <ele>87.199996948242</ele>
        <time>2020-07-26T06:33:43.000Z</time>
      </trkpt>
      <trkpt lat="47.57806" lon="-2.35084">
        <ele>87.199996948242</ele>
        <time>2020-07-26T06:33:49.000Z</time>
      </trkpt>
      <trkpt lat="47.57796" lon="-2.35055">
        <ele>87.199996948242</ele>
        <time>2020-07-26T06:33:54.000Z</time>
      </trkpt>
      <trkpt lat="47.57788" lon="-2.3503">
        <ele>86.800003051758</ele>
        <time>2020-07-26T06:33:58.000Z</time>
      </trkpt>
      <trkpt lat="47.57786" lon="-2.35023">
        <ele>86.199996948242</ele>
        <time>2020-07-26T06:33:59.000Z</time>
      </trkpt>
      <trkpt lat="47.57784" lon="-2.35017">
        <ele>85.800003051758</ele>
        <time>2020-07-26T06:34:00.000Z</time>
      </trkpt>
      <trkpt lat="47.57781" lon="-2.3501">
        <ele>85</ele>
        <time>2020-07-26T06:34:01.000Z</time>
      </trkpt>
      <trkpt lat="47.57777" lon="-2.34995">
        <ele>85</ele>
        <time>2020-07-26T06:34:03.000Z</time>
      </trkpt>
      <trkpt lat="47.5777" lon="-2.34969">
        <ele>84.599998474121</ele>
        <time>2020-07-26T06:34:06.000Z</time>
      </trkpt>
      <trkpt lat="47.57768" lon="-2.3496">
        <ele>84.199996948242</ele>
        <time>2020-07-26T06:34:07.000Z</time>
      </trkpt>
      <trkpt lat="47.57765" lon="-2.34951">
        <ele>83.800003051758</ele>
        <time>2020-07-26T06:34:08.000Z</time>
      </trkpt>
      <trkpt lat="47.57762" lon="-2.34942">
        <ele>83.400001525879</ele>
        <time>2020-07-26T06:34:09.000Z</time>
      </trkpt>
      <trkpt lat="47.5776" lon="-2.34932">
        <ele>83</ele>
        <time>2020-07-26T06:34:10.000Z</time>
      </trkpt>
      <trkpt lat="47.57754" lon="-2.34911">
        <ele>82.599998474121</ele>
        <time>2020-07-26T06:34:12.000Z</time>
      </trkpt>
      <trkpt lat="47.57751" lon="-2.34901">
        <ele>82</ele>
        <time>2020-07-26T06:34:13.000Z</time>
      </trkpt>
      <trkpt lat="47.57748" lon="-2.34889">
        <ele>81.599998474121</ele>
        <time>2020-07-26T06:34:14.000Z</time>
      </trkpt>
      <trkpt lat="47.57745" lon="-2.34878">
        <ele>81</ele>
        <time>2020-07-26T06:34:15.000Z</time>
      </trkpt>
      <trkpt lat="47.57742" lon="-2.34867">
        <ele>80.599998474121</ele>
        <time>2020-07-26T06:34:16.000Z</time>
      </trkpt>
      <trkpt lat="47.57729" lon="-2.34822">
        <ele>80.199996948242</ele>
        <time>2020-07-26T06:34:20.000Z</time>
      </trkpt>
      <trkpt lat="47.57726" lon="-2.34811">
        <ele>79.800003051758</ele>
        <time>2020-07-26T06:34:21.000Z</time>
      </trkpt>
      <trkpt lat="47.57724" lon="-2.34802">
        <ele>79.400001525879</ele>
        <time>2020-07-26T06:34:22.000Z</time>
      </trkpt>
      <trkpt lat="47.57721" lon="-2.34792">
        <ele>79</ele>
        <time>2020-07-26T06:34:23.000Z</time>
      </trkpt>
      <trkpt lat="47.57719" lon="-2.34783">
        <ele>78.599998474121</ele>
        <time>2020-07-26T06:34:24.000Z</time>
      </trkpt>
      <trkpt lat="47.57706" lon="-2.34735">
        <ele>78.599998474121</ele>
        <time>2020-07-26T06:34:30.000Z</time>
      </trkpt>
      <trkpt lat="47.57692" lon="-2.34669">
        <ele>78.599998474121</ele>
        <time>2020-07-26T06:34:38.000Z</time>
      </trkpt>
      <trkpt lat="47.57682" lon="-2.34603">
        <ele>78.599998474121</ele>
        <time>2020-07-26T06:34:46.000Z</time>
      </trkpt>
      <trkpt lat="47.57676" lon="-2.34552">
        <ele>78.599998474121</ele>
        <time>2020-07-26T06:34:53.000Z</time>
      </trkpt>
      <trkpt lat="47.57669" lon="-2.34485">
        <ele>78.599998474121</ele>
        <time>2020-07-26T06:35:01.000Z</time>
      </trkpt>
      <trkpt lat="47.57658" lon="-2.34426">
        <ele>78.599998474121</ele>
        <time>2020-07-26T06:35:08.000Z</time>
      </trkpt>
      <trkpt lat="47.57638" lon="-2.34365">
        <ele>78.599998474121</ele>
        <time>2020-07-26T06:35:15.000Z</time>
      </trkpt>
      <trkpt lat="47.57612" lon="-2.34321">
        <ele>78.599998474121</ele>
        <time>2020-07-26T06:35:21.000Z</time>
      </trkpt>
      <trkpt lat="47.5758" lon="-2.34285">
        <ele>78.599998474121</ele>
        <time>2020-07-26T06:35:27.000Z</time>
      </trkpt>
      <trkpt lat="47.57542" lon="-2.34242">
        <ele>78.599998474121</ele>
        <time>2020-07-26T06:35:34.000Z</time>
      </trkpt>
      <trkpt lat="47.57502" lon="-2.34187">
        <ele>78.199996948242</ele>
        <time>2020-07-26T06:35:41.000Z</time>
      </trkpt>
      <trkpt lat="47.57496" lon="-2.34179">
        <ele>77.800003051758</ele>
        <time>2020-07-26T06:35:42.000Z</time>
      </trkpt>
      <trkpt lat="47.57491" lon="-2.3417">
        <ele>77.400001525879</ele>
        <time>2020-07-26T06:35:43.000Z</time>
      </trkpt>
      <trkpt lat="47.57486" lon="-2.34161">
        <ele>77</ele>
        <time>2020-07-26T06:35:44.000Z</time>
      </trkpt>
      <trkpt lat="47.57481" lon="-2.34151">
        <ele>76.400001525879</ele>
        <time>2020-07-26T06:35:45.000Z</time>
      </trkpt>
      <trkpt lat="47.57467" lon="-2.34122">
        <ele>76.400001525879</ele>
        <time>2020-07-26T06:35:48.000Z</time>
      </trkpt>
      <trkpt lat="47.57445" lon="-2.34058">
        <ele>76.400001525879</ele>
        <time>2020-07-26T06:35:54.000Z</time>
      </trkpt>
      <trkpt lat="47.57429" lon="-2.33982">
        <ele>76.400001525879</ele>
        <time>2020-07-26T06:36:01.000Z</time>
      </trkpt>
      <trkpt lat="47.57414" lon="-2.33905">
        <ele>76.400001525879</ele>
        <time>2020-07-26T06:36:09.000Z</time>
      </trkpt>
      <trkpt lat="47.574" lon="-2.33847">
        <ele>76.400001525879</ele>
        <time>2020-07-26T06:36:16.000Z</time>
      </trkpt>
      <trkpt lat="47.57395" lon="-2.33832">
        <ele>76.400001525879</ele>
        <time>2020-07-26T06:36:18.000Z</time>
      </trkpt>
      <trkpt lat="47.57384" lon="-2.33826">
        <ele>76.400001525879</ele>
        <time>2020-07-26T06:36:20.000Z</time>
      </trkpt>
      <trkpt lat="47.57368" lon="-2.33836">
        <ele>76.400001525879</ele>
        <time>2020-07-26T06:36:23.000Z</time>
      </trkpt>
      <trkpt lat="47.57358" lon="-2.33846">
        <ele>76.400001525879</ele>
        <time>2020-07-26T06:36:25.000Z</time>
      </trkpt>
      <trkpt lat="47.57337" lon="-2.33863">
        <ele>76.400001525879</ele>
        <time>2020-07-26T06:36:29.000Z</time>
      </trkpt>
      <trkpt lat="47.57299" lon="-2.33894">
        <ele>77</ele>
        <time>2020-07-26T06:36:37.000Z</time>
      </trkpt>
      <trkpt lat="47.57295" lon="-2.33896">
        <ele>77.400001525879</ele>
        <time>2020-07-26T06:36:38.000Z</time>
      </trkpt>
      <trkpt lat="47.57291" lon="-2.33899">
        <ele>77.800003051758</ele>
        <time>2020-07-26T06:36:39.000Z</time>
      </trkpt>
      <trkpt lat="47.57288" lon="-2.33903">
        <ele>78.199996948242</ele>
        <time>2020-07-26T06:36:40.000Z</time>
      </trkpt>
      <trkpt lat="47.57285" lon="-2.33905">
        <ele>78.599998474121</ele>
        <time>2020-07-26T06:36:41.000Z</time>
      </trkpt>
      <trkpt lat="47.57279" lon="-2.33911">
        <ele>79</ele>
        <time>2020-07-26T06:36:43.000Z</time>
      </trkpt>
      <trkpt lat="47.57275" lon="-2.33913">
        <ele>79.400001525879</ele>
        <time>2020-07-26T06:36:44.000Z</time>
      </trkpt>
      <trkpt lat="47.57272" lon="-2.33915">
        <ele>80</ele>
        <time>2020-07-26T06:36:45.000Z</time>
      </trkpt>
      <trkpt lat="47.57268" lon="-2.33917">
        <ele>80.400001525879</ele>
        <time>2020-07-26T06:36:46.000Z</time>
      </trkpt>
      <trkpt lat="47.57265" lon="-2.3392">
        <ele>80.800003051758</ele>
        <time>2020-07-26T06:36:47.000Z</time>
      </trkpt>
      <trkpt lat="47.57258" lon="-2.33925">
        <ele>80.800003051758</ele>
        <time>2020-07-26T06:36:49.000Z</time>
      </trkpt>
      <trkpt lat="47.57251" lon="-2.3393">
        <ele>81.199996948242</ele>
        <time>2020-07-26T06:36:51.000Z</time>
      </trkpt>
      <trkpt lat="47.57248" lon="-2.33932">
        <ele>81.800003051758</ele>
        <time>2020-07-26T06:36:52.000Z</time>
      </trkpt>
      <trkpt lat="47.57245" lon="-2.33935">
        <ele>82.199996948242</ele>
        <time>2020-07-26T06:36:53.000Z</time>
      </trkpt>
      <trkpt lat="47.57242" lon="-2.33938">
        <ele>83</ele>
        <time>2020-07-26T06:36:54.000Z</time>
      </trkpt>
      <trkpt lat="47.57236" lon="-2.33943">
        <ele>83</ele>
        <time>2020-07-26T06:36:56.000Z</time>
      </trkpt>
      <trkpt lat="47.57216" lon="-2.33959">
        <ele>83.400001525879</ele>
        <time>2020-07-26T06:37:02.000Z</time>
      </trkpt>
      <trkpt lat="47.57213" lon="-2.33962">
        <ele>84</ele>
        <time>2020-07-26T06:37:03.000Z</time>
      </trkpt>
      <trkpt lat="47.57209" lon="-2.33965">
        <ele>84.400001525879</ele>
        <time>2020-07-26T06:37:04.000Z</time>
      </trkpt>
      <trkpt lat="47.57206" lon="-2.33968">
        <ele>84.800003051758</ele>
        <time>2020-07-26T06:37:05.000Z</time>
      </trkpt>
      <trkpt lat="47.57202" lon="-2.33971">
        <ele>85.199996948242</ele>
        <time>2020-07-26T06:37:06.000Z</time>
      </trkpt>
      <trkpt lat="47.57171" lon="-2.33995">
        <ele>85.199996948242</ele>
        <time>2020-07-26T06:37:14.000Z</time>
      </trkpt>
      <trkpt lat="47.57145" lon="-2.34015">
        <ele>85.199996948242</ele>
        <time>2020-07-26T06:37:21.000Z</time>
      </trkpt>
      <trkpt lat="47.57125" lon="-2.3402">
        <ele>85.199996948242</ele>
        <time>2020-07-26T06:37:25.000Z</time>
      </trkpt>
      <trkpt lat="47.5712" lon="-2.3402">
        <ele>85.199996948242</ele>
        <time>2020-07-26T06:37:26.000Z</time>
      </trkpt>
      <trkpt lat="47.57104" lon="-2.34016">
        <ele>85.199996948242</ele>
        <time>2020-07-26T06:37:30.000Z</time>
      </trkpt>
      <trkpt lat="47.57098" lon="-2.3401">
        <ele>85.199996948242</ele>
        <time>2020-07-26T06:37:32.000Z</time>
      </trkpt>
      <trkpt lat="47.57097" lon="-2.34004">
        <ele>85.199996948242</ele>
        <time>2020-07-26T06:37:33.000Z</time>
      </trkpt>
      <trkpt lat="47.57087" lon="-2.33985">
        <ele>85.199996948242</ele>
        <time>2020-07-26T06:37:37.000Z</time>
      </trkpt>
      <trkpt lat="47.57067" lon="-2.33956">
        <ele>85.199996948242</ele>
        <time>2020-07-26T06:37:42.000Z</time>
      </trkpt>
      <trkpt lat="47.57063" lon="-2.3395">
        <ele>84.400001525879</ele>
        <time>2020-07-26T06:37:43.000Z</time>
      </trkpt>
      <trkpt lat="47.57059" lon="-2.33943">
        <ele>84</ele>
        <time>2020-07-26T06:37:44.000Z</time>
      </trkpt>
      <trkpt lat="47.57056" lon="-2.33936">
        <ele>83.599998474121</ele>
        <time>2020-07-26T06:37:45.000Z</time>
      </trkpt>
      <trkpt lat="47.57052" lon="-2.33929">
        <ele>83.199996948242</ele>
        <time>2020-07-26T06:37:46.000Z</time>
      </trkpt>
      <trkpt lat="47.57043" lon="-2.33914">
        <ele>83.199996948242</ele>
        <time>2020-07-26T06:37:48.000Z</time>
      </trkpt>
      <trkpt lat="47.57014" lon="-2.33871">
        <ele>82.599998474121</ele>
        <time>2020-07-26T06:37:54.000Z</time>
      </trkpt>
      <trkpt lat="47.57011" lon="-2.33864">
        <ele>82.199996948242</ele>
        <time>2020-07-26T06:37:55.000Z</time>
      </trkpt>
      <trkpt lat="47.57006" lon="-2.33857">
        <ele>81.800003051758</ele>
        <time>2020-07-26T06:37:56.000Z</time>
      </trkpt>
      <trkpt lat="47.57002" lon="-2.3385">
        <ele>81.400001525879</ele>
        <time>2020-07-26T06:37:57.000Z</time>
      </trkpt>
      <trkpt lat="47.56999" lon="-2.33844">
        <ele>81</ele>
        <time>2020-07-26T06:37:58.000Z</time>
      </trkpt>
      <trkpt lat="47.56982" lon="-2.33812">
        <ele>81</ele>
        <time>2020-07-26T06:38:03.000Z</time>
      </trkpt>
      <trkpt lat="47.56958" lon="-2.33768">
        <ele>81</ele>
        <time>2020-07-26T06:38:11.000Z</time>
      </trkpt>
      <trkpt lat="47.56943" lon="-2.33742">
        <ele>81</ele>
        <time>2020-07-26T06:38:17.000Z</time>
      </trkpt>
      <trkpt lat="47.56934" lon="-2.33729">
        <ele>81</ele>
        <time>2020-07-26T06:38:20.000Z</time>
      </trkpt>
      <trkpt lat="47.56924" lon="-2.33717">
        <ele>81</ele>
        <time>2020-07-26T06:38:23.000Z</time>
      </trkpt>
      <trkpt lat="47.56902" lon="-2.33693">
        <ele>81</ele>
        <time>2020-07-26T06:38:30.000Z</time>
      </trkpt>
      <trkpt lat="47.56892" lon="-2.33675">
        <ele>81</ele>
        <time>2020-07-26T06:38:35.000Z</time>
      </trkpt>
      <trkpt lat="47.5689" lon="-2.33666">
        <ele>81</ele>
        <time>2020-07-26T06:38:40.000Z</time>
      </trkpt>
      <trkpt lat="47.5689" lon="-2.33663">
        <ele>81</ele>
        <time>2020-07-26T06:38:41.000Z</time>
      </trkpt>
      <trkpt lat="47.56887" lon="-2.33659">
        <ele>81</ele>
        <time>2020-07-26T06:38:46.000Z</time>
      </trkpt>
      <trkpt lat="47.56885" lon="-2.33664">
        <ele>81</ele>
        <time>2020-07-26T06:38:52.000Z</time>
      </trkpt>
      <trkpt lat="47.56884" lon="-2.33669">
        <ele>81</ele>
        <time>2020-07-26T06:38:54.000Z</time>
      </trkpt>
      <trkpt lat="47.56883" lon="-2.33673">
        <ele>81</ele>
        <time>2020-07-26T06:38:56.000Z</time>
      </trkpt>
      <trkpt lat="47.56877" lon="-2.33676">
        <ele>81</ele>
        <time>2020-07-26T06:39:01.000Z</time>
      </trkpt>
      <trkpt lat="47.5687" lon="-2.33681">
        <ele>81</ele>
        <time>2020-07-26T06:39:07.000Z</time>
      </trkpt>
      <trkpt lat="47.56869" lon="-2.33684">
        <ele>81.400001525879</ele>
        <time>2020-07-26T06:39:08.000Z</time>
      </trkpt>
      <trkpt lat="47.56868" lon="-2.33685">
        <ele>81.800003051758</ele>
        <time>2020-07-26T06:39:09.000Z</time>
      </trkpt>
      <trkpt lat="47.56868" lon="-2.33685">
        <ele>82.199996948242</ele>
        <time>2020-07-26T06:39:10.000Z</time>
      </trkpt>
      <trkpt lat="47.56868" lon="-2.33687">
        <ele>82.599998474121</ele>
        <time>2020-07-26T06:39:11.000Z</time>
      </trkpt>
      <trkpt lat="47.56868" lon="-2.33688">
        <ele>83.199996948242</ele>
        <time>2020-07-26T06:39:12.000Z</time>
      </trkpt>
      <trkpt lat="47.56867" lon="-2.33691">
        <ele>83.199996948242</ele>
        <time>2020-07-26T06:39:13.000Z</time>
      </trkpt>
      <trkpt lat="47.56869" lon="-2.33699">
        <ele>83.199996948242</ele>
        <time>2020-07-26T06:39:20.000Z</time>
      </trkpt>
      <trkpt lat="47.56874" lon="-2.33721">
        <ele>83.199996948242</ele>
        <time>2020-07-26T06:40:08.000Z</time>
      </trkpt>
      <trkpt lat="47.56878" lon="-2.33723">
        <ele>83.199996948242</ele>
        <time>2020-07-26T06:40:10.000Z</time>
      </trkpt>
      <trkpt lat="47.56882" lon="-2.3373">
        <ele>83.199996948242</ele>
        <time>2020-07-26T06:40:15.000Z</time>
      </trkpt>
      <trkpt lat="47.56886" lon="-2.33729">
        <ele>83.199996948242</ele>
        <time>2020-07-26T06:40:19.000Z</time>
      </trkpt>
      <trkpt lat="47.56887" lon="-2.33727">
        <ele>83.199996948242</ele>
        <time>2020-07-26T06:40:20.000Z</time>
      </trkpt>
      <trkpt lat="47.56892" lon="-2.33727">
        <ele>83.199996948242</ele>
        <time>2020-07-26T06:40:23.000Z</time>
      </trkpt>
      <trkpt lat="47.56894" lon="-2.33728">
        <ele>83.199996948242</ele>
        <time>2020-07-26T06:40:24.000Z</time>
      </trkpt>
      <trkpt lat="47.56896" lon="-2.3374">
        <ele>83.199996948242</ele>
        <time>2020-07-26T06:40:27.000Z</time>
      </trkpt>
      <trkpt lat="47.56903" lon="-2.33758">
        <ele>83.199996948242</ele>
        <time>2020-07-26T06:40:32.000Z</time>
      </trkpt>
      <trkpt lat="47.56905" lon="-2.33762">
        <ele>83.199996948242</ele>
        <time>2020-07-26T06:40:33.000Z</time>
      </trkpt>
      <trkpt lat="47.56912" lon="-2.33767">
        <ele>83.199996948242</ele>
        <time>2020-07-26T06:40:36.000Z</time>
      </trkpt>
      <trkpt lat="47.56916" lon="-2.33772">
        <ele>83.199996948242</ele>
        <time>2020-07-26T06:40:38.000Z</time>
      </trkpt>
      <trkpt lat="47.56919" lon="-2.33782">
        <ele>83.199996948242</ele>
        <time>2020-07-26T06:40:42.000Z</time>
      </trkpt>
      <trkpt lat="47.56919" lon="-2.33789">
        <ele>83.199996948242</ele>
        <time>2020-07-26T06:40:45.000Z</time>
      </trkpt>
      <trkpt lat="47.56916" lon="-2.33792">
        <ele>83.199996948242</ele>
        <time>2020-07-26T06:40:48.000Z</time>
      </trkpt>
      <trkpt lat="47.56914" lon="-2.33788">
        <ele>83.199996948242</ele>
        <time>2020-07-26T06:40:52.000Z</time>
      </trkpt>
      <trkpt lat="47.56913" lon="-2.33784">
        <ele>83.199996948242</ele>
        <time>2020-07-26T06:40:54.000Z</time>
      </trkpt>
      <trkpt lat="47.56905" lon="-2.33774">
        <ele>83.199996948242</ele>
        <time>2020-07-26T06:40:59.000Z</time>
      </trkpt>
      <trkpt lat="47.56904" lon="-2.33774">
        <ele>83.199996948242</ele>
        <time>2020-07-26T06:41:00.000Z</time>
      </trkpt>
      <trkpt lat="47.569" lon="-2.33774">
        <ele>83.199996948242</ele>
        <time>2020-07-26T06:41:02.000Z</time>
      </trkpt>
      <trkpt lat="47.56896" lon="-2.33769">
        <ele>83.199996948242</ele>
        <time>2020-07-26T06:41:05.000Z</time>
      </trkpt>
      <trkpt lat="47.5689" lon="-2.33756">
        <ele>83.199996948242</ele>
        <time>2020-07-26T06:41:11.000Z</time>
      </trkpt>
      <trkpt lat="47.56886" lon="-2.33749">
        <ele>83.199996948242</ele>
        <time>2020-07-26T06:41:14.000Z</time>
      </trkpt>
      <trkpt lat="47.56882" lon="-2.33744">
        <ele>83.199996948242</ele>
        <time>2020-07-26T06:41:16.000Z</time>
      </trkpt>
      <trkpt lat="47.56868" lon="-2.33749">
        <ele>83.199996948242</ele>
        <time>2020-07-26T06:41:22.000Z</time>
      </trkpt>
      <trkpt lat="47.56867" lon="-2.33751">
        <ele>83.199996948242</ele>
        <time>2020-07-26T06:41:23.000Z</time>
      </trkpt>
      <trkpt lat="47.5687" lon="-2.33756">
        <ele>83.199996948242</ele>
        <time>2020-07-26T06:41:27.000Z</time>
      </trkpt>
      <trkpt lat="47.56875" lon="-2.33764">
        <ele>83.199996948242</ele>
        <time>2020-07-26T06:41:33.000Z</time>
      </trkpt>
      <trkpt lat="47.56873" lon="-2.33781">
        <ele>83.199996948242</ele>
        <time>2020-07-26T06:41:40.000Z</time>
      </trkpt>
      <trkpt lat="47.56872" lon="-2.33785">
        <ele>83.199996948242</ele>
        <time>2020-07-26T06:41:42.000Z</time>
      </trkpt>
      <trkpt lat="47.56874" lon="-2.33792">
        <ele>83.199996948242</ele>
        <time>2020-07-26T06:41:46.000Z</time>
      </trkpt>
      <trkpt lat="47.56877" lon="-2.33791">
        <ele>83.199996948242</ele>
        <time>2020-07-26T06:41:48.000Z</time>
      </trkpt>
      <trkpt lat="47.56882" lon="-2.33789">
        <ele>83.199996948242</ele>
        <time>2020-07-26T06:41:51.000Z</time>
      </trkpt>
      <trkpt lat="47.56885" lon="-2.3379">
        <ele>83.199996948242</ele>
        <time>2020-07-26T06:41:53.000Z</time>
      </trkpt>
      <trkpt lat="47.56891" lon="-2.33794">
        <ele>83.199996948242</ele>
        <time>2020-07-26T06:41:57.000Z</time>
      </trkpt>
      <trkpt lat="47.56892" lon="-2.33798">
        <ele>83.199996948242</ele>
        <time>2020-07-26T06:41:59.000Z</time>
      </trkpt>
      <trkpt lat="47.56897" lon="-2.33808">
        <ele>83.199996948242</ele>
        <time>2020-07-26T06:42:03.000Z</time>
      </trkpt>
      <trkpt lat="47.56895" lon="-2.33822">
        <ele>83.199996948242</ele>
        <time>2020-07-26T06:42:07.000Z</time>
      </trkpt>
      <trkpt lat="47.56887" lon="-2.3383">
        <ele>83.199996948242</ele>
        <time>2020-07-26T06:42:11.000Z</time>
      </trkpt>
      <trkpt lat="47.56881" lon="-2.33828">
        <ele>83.199996948242</ele>
        <time>2020-07-26T06:42:16.000Z</time>
      </trkpt>
      <trkpt lat="47.5688" lon="-2.33826">
        <ele>83.199996948242</ele>
        <time>2020-07-26T06:42:17.000Z</time>
      </trkpt>
      <trkpt lat="47.56877" lon="-2.33825">
        <ele>83.199996948242</ele>
        <time>2020-07-26T06:42:19.000Z</time>
      </trkpt>
      <trkpt lat="47.56874" lon="-2.33824">
        <ele>83.199996948242</ele>
        <time>2020-07-26T06:42:21.000Z</time>
      </trkpt>
      <trkpt lat="47.56871" lon="-2.33821">
        <ele>83.199996948242</ele>
        <time>2020-07-26T06:42:23.000Z</time>
      </trkpt>
      <trkpt lat="47.56869" lon="-2.33814">
        <ele>83.199996948242</ele>
        <time>2020-07-26T06:42:26.000Z</time>
      </trkpt>
      <trkpt lat="47.56866" lon="-2.33812">
        <ele>83.199996948242</ele>
        <time>2020-07-26T06:42:29.000Z</time>
      </trkpt>
      <trkpt lat="47.56864" lon="-2.33811">
        <ele>83.199996948242</ele>
        <time>2020-07-26T06:42:31.000Z</time>
      </trkpt>
      <trkpt lat="47.56851" lon="-2.33806">
        <ele>83.199996948242</ele>
        <time>2020-07-26T06:42:38.000Z</time>
      </trkpt>
      <trkpt lat="47.56844" lon="-2.33797">
        <ele>83.199996948242</ele>
        <time>2020-07-26T06:42:43.000Z</time>
      </trkpt>
      <trkpt lat="47.56844" lon="-2.33795">
        <ele>83.199996948242</ele>
        <time>2020-07-26T06:42:44.000Z</time>
      </trkpt>
      <trkpt lat="47.5684" lon="-2.33773">
        <ele>83.199996948242</ele>
        <time>2020-07-26T06:42:51.000Z</time>
      </trkpt>
      <trkpt lat="47.5684" lon="-2.33763">
        <ele>83.199996948242</ele>
        <time>2020-07-26T06:42:56.000Z</time>
      </trkpt>
      <trkpt lat="47.5684" lon="-2.33737">
        <ele>83.199996948242</ele>
        <time>2020-07-26T06:43:05.000Z</time>
      </trkpt>
      <trkpt lat="47.56831" lon="-2.33723">
        <ele>83.199996948242</ele>
        <time>2020-07-26T06:43:13.000Z</time>
      </trkpt>
      <trkpt lat="47.56826" lon="-2.33711">
        <ele>83.199996948242</ele>
        <time>2020-07-26T06:43:20.000Z</time>
      </trkpt>
      <trkpt lat="47.5682" lon="-2.33703">
        <ele>83.199996948242</ele>
        <time>2020-07-26T06:43:26.000Z</time>
      </trkpt>
      <trkpt lat="47.56818" lon="-2.33704">
        <ele>83.199996948242</ele>
        <time>2020-07-26T06:43:28.000Z</time>
      </trkpt>
      <trkpt lat="47.56815" lon="-2.33709">
        <ele>83.199996948242</ele>
        <time>2020-07-26T06:43:31.000Z</time>
      </trkpt>
      <trkpt lat="47.56815" lon="-2.33712">
        <ele>83.199996948242</ele>
        <time>2020-07-26T06:43:32.000Z</time>
      </trkpt>
      <trkpt lat="47.56814" lon="-2.33717">
        <ele>83.199996948242</ele>
        <time>2020-07-26T06:43:36.000Z</time>
      </trkpt>
      <trkpt lat="47.56817" lon="-2.33716">
        <ele>83.199996948242</ele>
        <time>2020-07-26T06:43:41.000Z</time>
      </trkpt>
      <trkpt lat="47.5682" lon="-2.33722">
        <ele>83.199996948242</ele>
        <time>2020-07-26T06:43:45.000Z</time>
      </trkpt>
      <trkpt lat="47.5682" lon="-2.33736">
        <ele>83.199996948242</ele>
        <time>2020-07-26T06:43:51.000Z</time>
      </trkpt>
      <trkpt lat="47.56816" lon="-2.33735">
        <ele>83.199996948242</ele>
        <time>2020-07-26T06:43:55.000Z</time>
      </trkpt>
      <trkpt lat="47.5681" lon="-2.33729">
        <ele>83.199996948242</ele>
        <time>2020-07-26T06:43:58.000Z</time>
      </trkpt>
      <trkpt lat="47.56805" lon="-2.33733">
        <ele>83.199996948242</ele>
        <time>2020-07-26T06:44:00.000Z</time>
      </trkpt>
      <trkpt lat="47.56801" lon="-2.33738">
        <ele>83.199996948242</ele>
        <time>2020-07-26T06:44:02.000Z</time>
      </trkpt>
      <trkpt lat="47.568" lon="-2.33749">
        <ele>83.199996948242</ele>
        <time>2020-07-26T06:44:06.000Z</time>
      </trkpt>
      <trkpt lat="47.56801" lon="-2.33755">
        <ele>83.199996948242</ele>
        <time>2020-07-26T06:44:08.000Z</time>
      </trkpt>
      <trkpt lat="47.56809" lon="-2.33766">
        <ele>83.199996948242</ele>
        <time>2020-07-26T06:44:13.000Z</time>
      </trkpt>
      <trkpt lat="47.56811" lon="-2.33771">
        <ele>83.199996948242</ele>
        <time>2020-07-26T06:44:15.000Z</time>
      </trkpt>
      <trkpt lat="47.56813" lon="-2.33781">
        <ele>83.199996948242</ele>
        <time>2020-07-26T06:44:18.000Z</time>
      </trkpt>
      <trkpt lat="47.56821" lon="-2.33789">
        <ele>83.199996948242</ele>
        <time>2020-07-26T06:44:24.000Z</time>
      </trkpt>
      <trkpt lat="47.56823" lon="-2.3379">
        <ele>83.199996948242</ele>
        <time>2020-07-26T06:44:25.000Z</time>
      </trkpt>
      <trkpt lat="47.56832" lon="-2.33795">
        <ele>83.199996948242</ele>
        <time>2020-07-26T06:44:29.000Z</time>
      </trkpt>
      <trkpt lat="47.56835" lon="-2.33796">
        <ele>83.199996948242</ele>
        <time>2020-07-26T06:44:30.000Z</time>
      </trkpt>
      <trkpt lat="47.56849" lon="-2.3381">
        <ele>83.199996948242</ele>
        <time>2020-07-26T06:44:37.000Z</time>
      </trkpt>
      <trkpt lat="47.56858" lon="-2.33822">
        <ele>83.199996948242</ele>
        <time>2020-07-26T06:44:41.000Z</time>
      </trkpt>
      <trkpt lat="47.56859" lon="-2.33826">
        <ele>83.199996948242</ele>
        <time>2020-07-26T06:44:42.000Z</time>
      </trkpt>
      <trkpt lat="47.56862" lon="-2.33831">
        <ele>83.199996948242</ele>
        <time>2020-07-26T06:44:44.000Z</time>
      </trkpt>
      <trkpt lat="47.56865" lon="-2.33834">
        <ele>83.199996948242</ele>
        <time>2020-07-26T06:44:46.000Z</time>
      </trkpt>
      <trkpt lat="47.56866" lon="-2.33837">
        <ele>83.199996948242</ele>
        <time>2020-07-26T06:44:47.000Z</time>
      </trkpt>
      <trkpt lat="47.56872" lon="-2.33847">
        <ele>83.199996948242</ele>
        <time>2020-07-26T06:44:51.000Z</time>
      </trkpt>
      <trkpt lat="47.56878" lon="-2.33846">
        <ele>83.199996948242</ele>
        <time>2020-07-26T06:44:54.000Z</time>
      </trkpt>
      <trkpt lat="47.56881" lon="-2.33844">
        <ele>83.199996948242</ele>
        <time>2020-07-26T06:44:56.000Z</time>
      </trkpt>
      <trkpt lat="47.56888" lon="-2.33838">
        <ele>83.199996948242</ele>
        <time>2020-07-26T06:45:00.000Z</time>
      </trkpt>
      <trkpt lat="47.569" lon="-2.33829">
        <ele>83.199996948242</ele>
        <time>2020-07-26T06:45:06.000Z</time>
      </trkpt>
      <trkpt lat="47.56902" lon="-2.33828">
        <ele>83.199996948242</ele>
        <time>2020-07-26T06:45:08.000Z</time>
      </trkpt>
      <trkpt lat="47.56905" lon="-2.33823">
        <ele>83.199996948242</ele>
        <time>2020-07-26T06:45:18.000Z</time>
      </trkpt>
      <trkpt lat="47.56907" lon="-2.33817">
        <ele>83.199996948242</ele>
        <time>2020-07-26T06:45:20.000Z</time>
      </trkpt>
      <trkpt lat="47.56915" lon="-2.33801">
        <ele>83.199996948242</ele>
        <time>2020-07-26T06:45:25.000Z</time>
      </trkpt>
      <trkpt lat="47.56919" lon="-2.33784">
        <ele>83.199996948242</ele>
        <time>2020-07-26T06:45:31.000Z</time>
      </trkpt>
      <trkpt lat="47.5692" lon="-2.33782">
        <ele>83.199996948242</ele>
        <time>2020-07-26T06:45:32.000Z</time>
      </trkpt>
      <trkpt lat="47.56923" lon="-2.3378">
        <ele>83.199996948242</ele>
        <time>2020-07-26T06:45:34.000Z</time>
      </trkpt>
      <trkpt lat="47.56924" lon="-2.33778">
        <ele>83.199996948242</ele>
        <time>2020-07-26T06:45:35.000Z</time>
      </trkpt>
      <trkpt lat="47.56925" lon="-2.33769">
        <ele>83.199996948242</ele>
        <time>2020-07-26T06:45:39.000Z</time>
      </trkpt>
      <trkpt lat="47.56924" lon="-2.33768">
        <ele>83.199996948242</ele>
        <time>2020-07-26T06:45:40.000Z</time>
      </trkpt>
      <trkpt lat="47.5692" lon="-2.33769">
        <ele>83.199996948242</ele>
        <time>2020-07-26T06:45:43.000Z</time>
      </trkpt>
      <trkpt lat="47.56911" lon="-2.33769">
        <ele>83.199996948242</ele>
        <time>2020-07-26T06:45:47.000Z</time>
      </trkpt>
      <trkpt lat="47.56908" lon="-2.33767">
        <ele>83.199996948242</ele>
        <time>2020-07-26T06:45:48.000Z</time>
      </trkpt>
      <trkpt lat="47.56901" lon="-2.33759">
        <ele>83.199996948242</ele>
        <time>2020-07-26T06:45:51.000Z</time>
      </trkpt>
      <trkpt lat="47.56902" lon="-2.33754">
        <ele>83.199996948242</ele>
        <time>2020-07-26T06:45:52.000Z</time>
      </trkpt>
      <trkpt lat="47.56909" lon="-2.33748">
        <ele>83.199996948242</ele>
        <time>2020-07-26T06:45:55.000Z</time>
      </trkpt>
      <trkpt lat="47.56912" lon="-2.3375">
        <ele>83.199996948242</ele>
        <time>2020-07-26T06:45:57.000Z</time>
      </trkpt>
      <trkpt lat="47.56919" lon="-2.33747">
        <ele>83.199996948242</ele>
        <time>2020-07-26T06:46:01.000Z</time>
      </trkpt>
      <trkpt lat="47.56921" lon="-2.33745">
        <ele>83.199996948242</ele>
        <time>2020-07-26T06:46:02.000Z</time>
      </trkpt>
      <trkpt lat="47.56923" lon="-2.33737">
        <ele>83.199996948242</ele>
        <time>2020-07-26T06:46:05.000Z</time>
      </trkpt>
      <trkpt lat="47.56923" lon="-2.33735">
        <ele>83.199996948242</ele>
        <time>2020-07-26T06:46:07.000Z</time>
      </trkpt>
      <trkpt lat="47.56921" lon="-2.33733">
        <ele>83.199996948242</ele>
        <time>2020-07-26T06:46:08.000Z</time>
      </trkpt>
      <trkpt lat="47.56915" lon="-2.33725">
        <ele>83.199996948242</ele>
        <time>2020-07-26T06:46:12.000Z</time>
      </trkpt>
      <trkpt lat="47.56904" lon="-2.33706">
        <ele>83.199996948242</ele>
        <time>2020-07-26T06:46:17.000Z</time>
      </trkpt>
      <trkpt lat="47.56892" lon="-2.33678">
        <ele>83.199996948242</ele>
        <time>2020-07-26T06:46:24.000Z</time>
      </trkpt>
      <trkpt lat="47.56887" lon="-2.33663">
        <ele>83.199996948242</ele>
        <time>2020-07-26T06:46:29.000Z</time>
      </trkpt>
      <trkpt lat="47.56887" lon="-2.33666">
        <ele>85.199996948242</ele>
        <time>2020-07-26T06:48:38.000Z</time>
      </trkpt>
      <trkpt lat="47.56892" lon="-2.33682">
        <ele>85.199996948242</ele>
        <time>2020-07-26T06:48:44.000Z</time>
      </trkpt>
      <trkpt lat="47.56897" lon="-2.33693">
        <ele>85.199996948242</ele>
        <time>2020-07-26T06:48:47.000Z</time>
      </trkpt>
      <trkpt lat="47.569" lon="-2.33698">
        <ele>85.199996948242</ele>
        <time>2020-07-26T06:48:49.000Z</time>
      </trkpt>
      <trkpt lat="47.5692" lon="-2.33718">
        <ele>85.199996948242</ele>
        <time>2020-07-26T06:48:57.000Z</time>
      </trkpt>
      <trkpt lat="47.56939" lon="-2.33744">
        <ele>85.199996948242</ele>
        <time>2020-07-26T06:49:03.000Z</time>
      </trkpt>
      <trkpt lat="47.56959" lon="-2.33775">
        <ele>85.199996948242</ele>
        <time>2020-07-26T06:49:09.000Z</time>
      </trkpt>
      <trkpt lat="47.56976" lon="-2.33806">
        <ele>85.199996948242</ele>
        <time>2020-07-26T06:49:15.000Z</time>
      </trkpt>
      <trkpt lat="47.56979" lon="-2.3381">
        <ele>85.199996948242</ele>
        <time>2020-07-26T06:49:16.000Z</time>
      </trkpt>
      <trkpt lat="47.56982" lon="-2.33815">
        <ele>85.199996948242</ele>
        <time>2020-07-26T06:49:17.000Z</time>
      </trkpt>
      <trkpt lat="47.56992" lon="-2.33833">
        <ele>85.199996948242</ele>
        <time>2020-07-26T06:49:21.000Z</time>
      </trkpt>
      <trkpt lat="47.57" lon="-2.33847">
        <ele>85.199996948242</ele>
        <time>2020-07-26T06:49:24.000Z</time>
      </trkpt>
      <trkpt lat="47.57011" lon="-2.33866">
        <ele>85.199996948242</ele>
        <time>2020-07-26T06:49:28.000Z</time>
      </trkpt>
      <trkpt lat="47.57033" lon="-2.33903">
        <ele>85.199996948242</ele>
        <time>2020-07-26T06:49:36.000Z</time>
      </trkpt>
      <trkpt lat="47.57052" lon="-2.3394">
        <ele>85.199996948242</ele>
        <time>2020-07-26T06:49:44.000Z</time>
      </trkpt>
      <trkpt lat="47.57064" lon="-2.33966">
        <ele>85.199996948242</ele>
        <time>2020-07-26T06:49:50.000Z</time>
      </trkpt>
      <trkpt lat="47.5708" lon="-2.33989">
        <ele>85.199996948242</ele>
        <time>2020-07-26T06:49:57.000Z</time>
      </trkpt>
      <trkpt lat="47.57089" lon="-2.33997">
        <ele>85.199996948242</ele>
        <time>2020-07-26T06:50:02.000Z</time>
      </trkpt>
      <trkpt lat="47.57091" lon="-2.34002">
        <ele>85.199996948242</ele>
        <time>2020-07-26T06:50:06.000Z</time>
      </trkpt>
      <trkpt lat="47.57091" lon="-2.34005">
        <ele>85.199996948242</ele>
        <time>2020-07-26T06:51:56.000Z</time>
      </trkpt>
      <trkpt lat="47.57091" lon="-2.34007">
        <ele>85.199996948242</ele>
        <time>2020-07-26T06:51:57.000Z</time>
      </trkpt>
      <trkpt lat="47.57095" lon="-2.3401">
        <ele>85.199996948242</ele>
        <time>2020-07-26T06:52:01.000Z</time>
      </trkpt>
      <trkpt lat="47.57096" lon="-2.34009">
        <ele>85.199996948242</ele>
        <time>2020-07-26T06:52:02.000Z</time>
      </trkpt>
      <trkpt lat="47.57101" lon="-2.34011">
        <ele>85.199996948242</ele>
        <time>2020-07-26T06:52:05.000Z</time>
      </trkpt>
      <trkpt lat="47.57102" lon="-2.34013">
        <ele>86</ele>
        <time>2020-07-26T06:52:06.000Z</time>
      </trkpt>
      <trkpt lat="47.57104" lon="-2.34016">
        <ele>86.400001525879</ele>
        <time>2020-07-26T06:52:07.000Z</time>
      </trkpt>
      <trkpt lat="47.57105" lon="-2.34018">
        <ele>86.800003051758</ele>
        <time>2020-07-26T06:52:08.000Z</time>
      </trkpt>
      <trkpt lat="47.57106" lon="-2.34019">
        <ele>87.199996948242</ele>
        <time>2020-07-26T06:52:09.000Z</time>
      </trkpt>
      <trkpt lat="47.57109" lon="-2.34023">
        <ele>87.199996948242</ele>
        <time>2020-07-26T06:52:12.000Z</time>
      </trkpt>
      <trkpt lat="47.57109" lon="-2.34027">
        <ele>87.199996948242</ele>
        <time>2020-07-26T06:52:14.000Z</time>
      </trkpt>
      <trkpt lat="47.57108" lon="-2.34033">
        <ele>87.199996948242</ele>
        <time>2020-07-26T06:52:17.000Z</time>
      </trkpt>
      <trkpt lat="47.57109" lon="-2.34037">
        <ele>87.199996948242</ele>
        <time>2020-07-26T06:52:18.000Z</time>
      </trkpt>
      <trkpt lat="47.57112" lon="-2.34045">
        <ele>87.199996948242</ele>
        <time>2020-07-26T06:52:21.000Z</time>
      </trkpt>
      <trkpt lat="47.5712" lon="-2.34074">
        <ele>87.199996948242</ele>
        <time>2020-07-26T06:52:27.000Z</time>
      </trkpt>
      <trkpt lat="47.57132" lon="-2.34108">
        <ele>87.199996948242</ele>
        <time>2020-07-26T06:52:34.000Z</time>
      </trkpt>
      <trkpt lat="47.57146" lon="-2.3415">
        <ele>87.199996948242</ele>
        <time>2020-07-26T06:52:41.000Z</time>
      </trkpt>
      <trkpt lat="47.57161" lon="-2.34188">
        <ele>87.199996948242</ele>
        <time>2020-07-26T06:52:46.000Z</time>
      </trkpt>
      <trkpt lat="47.57163" lon="-2.34207">
        <ele>87.199996948242</ele>
        <time>2020-07-26T06:52:52.000Z</time>
      </trkpt>
      <trkpt lat="47.57159" lon="-2.34209">
        <ele>87.199996948242</ele>
        <time>2020-07-26T06:52:57.000Z</time>
      </trkpt>
      <trkpt lat="47.57155" lon="-2.34207">
        <ele>87.199996948242</ele>
        <time>2020-07-26T06:53:01.000Z</time>
      </trkpt>
      <trkpt lat="47.57154" lon="-2.34207">
        <ele>87.199996948242</ele>
        <time>2020-07-26T06:53:02.000Z</time>
      </trkpt>
      <trkpt lat="47.57145" lon="-2.34214">
        <ele>87.199996948242</ele>
        <time>2020-07-26T06:53:07.000Z</time>
      </trkpt>
      <trkpt lat="47.5714" lon="-2.34224">
        <ele>87.199996948242</ele>
        <time>2020-07-26T06:53:12.000Z</time>
      </trkpt>
      <trkpt lat="47.57136" lon="-2.34233">
        <ele>87.199996948242</ele>
        <time>2020-07-26T06:53:18.000Z</time>
      </trkpt>
      <trkpt lat="47.57137" lon="-2.34237">
        <ele>87.199996948242</ele>
        <time>2020-07-26T06:53:20.000Z</time>
      </trkpt>
      <trkpt lat="47.57138" lon="-2.34246">
        <ele>87.199996948242</ele>
        <time>2020-07-26T06:53:24.000Z</time>
      </trkpt>
      <trkpt lat="47.57138" lon="-2.34248">
        <ele>87.199996948242</ele>
        <time>2020-07-26T06:53:25.000Z</time>
      </trkpt>
      <trkpt lat="47.5714" lon="-2.34253">
        <ele>87.199996948242</ele>
        <time>2020-07-26T06:53:28.000Z</time>
      </trkpt>
      <trkpt lat="47.57142" lon="-2.34256">
        <ele>87.199996948242</ele>
        <time>2020-07-26T06:53:29.000Z</time>
      </trkpt>
      <trkpt lat="47.57146" lon="-2.34261">
        <ele>87.199996948242</ele>
        <time>2020-07-26T06:53:31.000Z</time>
      </trkpt>
      <trkpt lat="47.5715" lon="-2.34264">
        <ele>87.199996948242</ele>
        <time>2020-07-26T06:53:33.000Z</time>
      </trkpt>
      <trkpt lat="47.57161" lon="-2.34272">
        <ele>87.199996948242</ele>
        <time>2020-07-26T06:53:38.000Z</time>
      </trkpt>
      <trkpt lat="47.57173" lon="-2.34276">
        <ele>87.199996948242</ele>
        <time>2020-07-26T06:53:44.000Z</time>
      </trkpt>
      <trkpt lat="47.57181" lon="-2.3428">
        <ele>87.199996948242</ele>
        <time>2020-07-26T06:53:48.000Z</time>
      </trkpt>
      <trkpt lat="47.57183" lon="-2.34282">
        <ele>87.199996948242</ele>
        <time>2020-07-26T06:53:49.000Z</time>
      </trkpt>
      <trkpt lat="47.57187" lon="-2.34299">
        <ele>87.199996948242</ele>
        <time>2020-07-26T06:53:54.000Z</time>
      </trkpt>
      <trkpt lat="47.5719" lon="-2.34311">
        <ele>87.199996948242</ele>
        <time>2020-07-26T06:53:59.000Z</time>
      </trkpt>
      <trkpt lat="47.57195" lon="-2.34331">
        <ele>87.199996948242</ele>
        <time>2020-07-26T06:54:06.000Z</time>
      </trkpt>
      <trkpt lat="47.572" lon="-2.34341">
        <ele>87.199996948242</ele>
        <time>2020-07-26T06:54:12.000Z</time>
      </trkpt>
      <trkpt lat="47.57209" lon="-2.34344">
        <ele>87.199996948242</ele>
        <time>2020-07-26T06:54:19.000Z</time>
      </trkpt>
      <trkpt lat="47.5721" lon="-2.34344">
        <ele>87.199996948242</ele>
        <time>2020-07-26T06:54:24.000Z</time>
      </trkpt>
      <trkpt lat="47.57207" lon="-2.34345">
        <ele>87.199996948242</ele>
        <time>2020-07-26T06:54:27.000Z</time>
      </trkpt>
      <trkpt lat="47.57205" lon="-2.34346">
        <ele>87.199996948242</ele>
        <time>2020-07-26T06:54:29.000Z</time>
      </trkpt>
      <trkpt lat="47.57205" lon="-2.34346">
        <ele>87.199996948242</ele>
        <time>2020-07-26T06:54:30.000Z</time>
      </trkpt>
      <trkpt lat="47.57213" lon="-2.34339">
        <ele>88.599998474121</ele>
        <time>2020-07-26T06:54:58.000Z</time>
      </trkpt>
      <trkpt lat="47.57216" lon="-2.34343">
        <ele>88.599998474121</ele>
        <time>2020-07-26T06:55:00.000Z</time>
      </trkpt>
      <trkpt lat="47.57221" lon="-2.34346">
        <ele>88.599998474121</ele>
        <time>2020-07-26T06:55:04.000Z</time>
      </trkpt>
      <trkpt lat="47.57222" lon="-2.34347">
        <ele>88.599998474121</ele>
        <time>2020-07-26T06:55:05.000Z</time>
      </trkpt>
      <trkpt lat="47.57223" lon="-2.34353">
        <ele>88.599998474121</ele>
        <time>2020-07-26T06:55:08.000Z</time>
      </trkpt>
      <trkpt lat="47.57222" lon="-2.34355">
        <ele>88.599998474121</ele>
        <time>2020-07-26T06:55:10.000Z</time>
      </trkpt>
      <trkpt lat="47.57219" lon="-2.34362">
        <ele>88.599998474121</ele>
        <time>2020-07-26T06:55:17.000Z</time>
      </trkpt>
      <trkpt lat="47.57214" lon="-2.3436">
        <ele>88.599998474121</ele>
        <time>2020-07-26T06:55:22.000Z</time>
      </trkpt>
      <trkpt lat="47.5721" lon="-2.34356">
        <ele>88.199996948242</ele>
        <time>2020-07-26T06:55:25.000Z</time>
      </trkpt>
      <trkpt lat="47.57208" lon="-2.34354">
        <ele>87.800003051758</ele>
        <time>2020-07-26T06:55:26.000Z</time>
      </trkpt>
      <trkpt lat="47.57208" lon="-2.34352">
        <ele>87.400001525879</ele>
        <time>2020-07-26T06:55:27.000Z</time>
      </trkpt>
      <trkpt lat="47.57207" lon="-2.34351">
        <ele>87</ele>
        <time>2020-07-26T06:55:28.000Z</time>
      </trkpt>
      <trkpt lat="47.57205" lon="-2.34348">
        <ele>86.599998474121</ele>
        <time>2020-07-26T06:55:29.000Z</time>
      </trkpt>
      <trkpt lat="47.57199" lon="-2.34338">
        <ele>86.599998474121</ele>
        <time>2020-07-26T06:55:32.000Z</time>
      </trkpt>
      <trkpt lat="47.57193" lon="-2.34314">
        <ele>86.599998474121</ele>
        <time>2020-07-26T06:55:37.000Z</time>
      </trkpt>
      <trkpt lat="47.5719" lon="-2.34302">
        <ele>86.599998474121</ele>
        <time>2020-07-26T06:55:42.000Z</time>
      </trkpt>
      <trkpt lat="47.57185" lon="-2.34303">
        <ele>86.599998474121</ele>
        <time>2020-07-26T06:55:47.000Z</time>
      </trkpt>
      <trkpt lat="47.57185" lon="-2.34307">
        <ele>86.599998474121</ele>
        <time>2020-07-26T06:55:49.000Z</time>
      </trkpt>
      <trkpt lat="47.57186" lon="-2.34311">
        <ele>86.599998474121</ele>
        <time>2020-07-26T06:55:51.000Z</time>
      </trkpt>
      <trkpt lat="47.57182" lon="-2.3432">
        <ele>86.599998474121</ele>
        <time>2020-07-26T06:55:56.000Z</time>
      </trkpt>
      <trkpt lat="47.57181" lon="-2.34331">
        <ele>86.599998474121</ele>
        <time>2020-07-26T06:56:01.000Z</time>
      </trkpt>
      <trkpt lat="47.57184" lon="-2.34332">
        <ele>86.599998474121</ele>
        <time>2020-07-26T06:56:02.000Z</time>
      </trkpt>
      <trkpt lat="47.57191" lon="-2.34337">
        <ele>86.599998474121</ele>
        <time>2020-07-26T06:56:07.000Z</time>
      </trkpt>
      <trkpt lat="47.57198" lon="-2.3435">
        <ele>86.599998474121</ele>
        <time>2020-07-26T06:56:13.000Z</time>
      </trkpt>
      <trkpt lat="47.57203" lon="-2.34355">
        <ele>86.599998474121</ele>
        <time>2020-07-26T06:56:15.000Z</time>
      </trkpt>
      <trkpt lat="47.57209" lon="-2.34359">
        <ele>86.599998474121</ele>
        <time>2020-07-26T06:56:18.000Z</time>
      </trkpt>
      <trkpt lat="47.57215" lon="-2.34364">
        <ele>86.599998474121</ele>
        <time>2020-07-26T06:56:22.000Z</time>
      </trkpt>
      <trkpt lat="47.57216" lon="-2.34366">
        <ele>86.599998474121</ele>
        <time>2020-07-26T06:56:23.000Z</time>
      </trkpt>
      <trkpt lat="47.57224" lon="-2.34369">
        <ele>86.599998474121</ele>
        <time>2020-07-26T06:56:27.000Z</time>
      </trkpt>
      <trkpt lat="47.57233" lon="-2.3437">
        <ele>86.599998474121</ele>
        <time>2020-07-26T06:56:32.000Z</time>
      </trkpt>
      <trkpt lat="47.57235" lon="-2.3437">
        <ele>86.599998474121</ele>
        <time>2020-07-26T06:56:33.000Z</time>
      </trkpt>
      <trkpt lat="47.5724" lon="-2.34365">
        <ele>86.599998474121</ele>
        <time>2020-07-26T06:56:37.000Z</time>
      </trkpt>
      <trkpt lat="47.5724" lon="-2.34363">
        <ele>86.599998474121</ele>
        <time>2020-07-26T06:56:38.000Z</time>
      </trkpt>
      <trkpt lat="47.57242" lon="-2.34355">
        <ele>86.599998474121</ele>
        <time>2020-07-26T06:56:41.000Z</time>
      </trkpt>
      <trkpt lat="47.57242" lon="-2.34351">
        <ele>86.599998474121</ele>
        <time>2020-07-26T06:56:42.000Z</time>
      </trkpt>
      <trkpt lat="47.57242" lon="-2.34349">
        <ele>86.599998474121</ele>
        <time>2020-07-26T06:56:43.000Z</time>
      </trkpt>
      <trkpt lat="47.57238" lon="-2.34343">
        <ele>86.599998474121</ele>
        <time>2020-07-26T06:56:47.000Z</time>
      </trkpt>
      <trkpt lat="47.57237" lon="-2.34342">
        <ele>86.599998474121</ele>
        <time>2020-07-26T06:56:48.000Z</time>
      </trkpt>
      <trkpt lat="47.57237" lon="-2.34342">
        <ele>86.599998474121</ele>
        <time>2020-07-26T06:56:49.000Z</time>
      </trkpt>
      <trkpt lat="47.57235" lon="-2.34337">
        <ele>86.599998474121</ele>
        <time>2020-07-26T06:56:57.000Z</time>
      </trkpt>
      <trkpt lat="47.57231" lon="-2.34332">
        <ele>86.599998474121</ele>
        <time>2020-07-26T06:57:00.000Z</time>
      </trkpt>
      <trkpt lat="47.57226" lon="-2.34318">
        <ele>86.599998474121</ele>
        <time>2020-07-26T06:57:05.000Z</time>
      </trkpt>
      <trkpt lat="47.57223" lon="-2.34316">
        <ele>86.599998474121</ele>
        <time>2020-07-26T06:57:06.000Z</time>
      </trkpt>
      <trkpt lat="47.57216" lon="-2.34312">
        <ele>86.599998474121</ele>
        <time>2020-07-26T06:57:10.000Z</time>
      </trkpt>
      <trkpt lat="47.57202" lon="-2.3429">
        <ele>86.599998474121</ele>
        <time>2020-07-26T06:57:16.000Z</time>
      </trkpt>
      <trkpt lat="47.57199" lon="-2.34288">
        <ele>86.599998474121</ele>
        <time>2020-07-26T06:57:17.000Z</time>
      </trkpt>
      <trkpt lat="47.57192" lon="-2.34286">
        <ele>86.599998474121</ele>
        <time>2020-07-26T06:57:20.000Z</time>
      </trkpt>
      <trkpt lat="47.57188" lon="-2.3428">
        <ele>86.599998474121</ele>
        <time>2020-07-26T06:57:23.000Z</time>
      </trkpt>
      <trkpt lat="47.57187" lon="-2.34277">
        <ele>86.599998474121</ele>
        <time>2020-07-26T06:57:24.000Z</time>
      </trkpt>
      <trkpt lat="47.57178" lon="-2.34253">
        <ele>86.599998474121</ele>
        <time>2020-07-26T06:57:29.000Z</time>
      </trkpt>
      <trkpt lat="47.57171" lon="-2.34221">
        <ele>86.599998474121</ele>
        <time>2020-07-26T06:57:35.000Z</time>
      </trkpt>
      <trkpt lat="47.57161" lon="-2.34187">
        <ele>86.599998474121</ele>
        <time>2020-07-26T06:57:41.000Z</time>
      </trkpt>
      <trkpt lat="47.57153" lon="-2.3416">
        <ele>86.599998474121</ele>
        <time>2020-07-26T06:57:47.000Z</time>
      </trkpt>
      <trkpt lat="47.57147" lon="-2.34129">
        <ele>86.599998474121</ele>
        <time>2020-07-26T06:57:54.000Z</time>
      </trkpt>
      <trkpt lat="47.57141" lon="-2.341">
        <ele>86.599998474121</ele>
        <time>2020-07-26T06:58:01.000Z</time>
      </trkpt>
      <trkpt lat="47.57131" lon="-2.34074">
        <ele>86.599998474121</ele>
        <time>2020-07-26T06:58:07.000Z</time>
      </trkpt>
      <trkpt lat="47.57121" lon="-2.3405">
        <ele>86.599998474121</ele>
        <time>2020-07-26T06:58:13.000Z</time>
      </trkpt>
      <trkpt lat="47.57111" lon="-2.34028">
        <ele>86.599998474121</ele>
        <time>2020-07-26T06:58:19.000Z</time>
      </trkpt>
      <trkpt lat="47.57098" lon="-2.3402">
        <ele>86.599998474121</ele>
        <time>2020-07-26T06:58:23.000Z</time>
      </trkpt>
      <trkpt lat="47.57072" lon="-2.3401">
        <ele>86.599998474121</ele>
        <time>2020-07-26T06:58:30.000Z</time>
      </trkpt>
      <trkpt lat="47.57043" lon="-2.33995">
        <ele>86.599998474121</ele>
        <time>2020-07-26T06:58:37.000Z</time>
      </trkpt>
      <trkpt lat="47.57035" lon="-2.3399">
        <ele>86.599998474121</ele>
        <time>2020-07-26T06:58:39.000Z</time>
      </trkpt>
      <trkpt lat="47.57019" lon="-2.33982">
        <ele>86.599998474121</ele>
        <time>2020-07-26T06:58:43.000Z</time>
      </trkpt>
      <trkpt lat="47.56992" lon="-2.3397">
        <ele>86.599998474121</ele>
        <time>2020-07-26T06:58:49.000Z</time>
      </trkpt>
      <trkpt lat="47.56966" lon="-2.33975">
        <ele>86.599998474121</ele>
        <time>2020-07-26T06:58:54.000Z</time>
      </trkpt>
      <trkpt lat="47.56934" lon="-2.3399">
        <ele>86.599998474121</ele>
        <time>2020-07-26T06:59:00.000Z</time>
      </trkpt>
      <trkpt lat="47.56899" lon="-2.34013">
        <ele>86.199996948242</ele>
        <time>2020-07-26T06:59:07.000Z</time>
      </trkpt>
      <trkpt lat="47.56895" lon="-2.34016">
        <ele>85.599998474121</ele>
        <time>2020-07-26T06:59:08.000Z</time>
      </trkpt>
      <trkpt lat="47.5689" lon="-2.34019">
        <ele>85.199996948242</ele>
        <time>2020-07-26T06:59:09.000Z</time>
      </trkpt>
      <trkpt lat="47.56885" lon="-2.34022">
        <ele>84.800003051758</ele>
        <time>2020-07-26T06:59:10.000Z</time>
      </trkpt>
      <trkpt lat="47.5688" lon="-2.34025">
        <ele>84.400001525879</ele>
        <time>2020-07-26T06:59:11.000Z</time>
      </trkpt>
      <trkpt lat="47.5687" lon="-2.34032">
        <ele>84.400001525879</ele>
        <time>2020-07-26T06:59:14.000Z</time>
      </trkpt>
      <trkpt lat="47.56865" lon="-2.34035">
        <ele>84</ele>
        <time>2020-07-26T06:59:16.000Z</time>
      </trkpt>
      <trkpt lat="47.56863" lon="-2.34036">
        <ele>83.599998474121</ele>
        <time>2020-07-26T06:59:17.000Z</time>
      </trkpt>
      <trkpt lat="47.56861" lon="-2.34037">
        <ele>83</ele>
        <time>2020-07-26T06:59:18.000Z</time>
      </trkpt>
      <trkpt lat="47.56858" lon="-2.34037">
        <ele>82.599998474121</ele>
        <time>2020-07-26T06:59:19.000Z</time>
      </trkpt>
      <trkpt lat="47.56856" lon="-2.34035">
        <ele>82.199996948242</ele>
        <time>2020-07-26T06:59:20.000Z</time>
      </trkpt>
      <trkpt lat="47.56851" lon="-2.34021">
        <ele>82.199996948242</ele>
        <time>2020-07-26T06:59:24.000Z</time>
      </trkpt>
      <trkpt lat="47.56842" lon="-2.34001">
        <ele>82.199996948242</ele>
        <time>2020-07-26T06:59:30.000Z</time>
      </trkpt>
      <trkpt lat="47.56835" lon="-2.33986">
        <ele>82.199996948242</ele>
        <time>2020-07-26T06:59:37.000Z</time>
      </trkpt>
      <trkpt lat="47.56835" lon="-2.33984">
        <ele>82.199996948242</ele>
        <time>2020-07-26T06:59:39.000Z</time>
      </trkpt>
      <trkpt lat="47.56834" lon="-2.33986">
        <ele>82.199996948242</ele>
        <time>2020-07-26T07:00:59.000Z</time>
      </trkpt>
      <trkpt lat="47.56834" lon="-2.33988">
        <ele>82.199996948242</ele>
        <time>2020-07-26T07:01:00.000Z</time>
      </trkpt>
      <trkpt lat="47.56841" lon="-2.34004">
        <ele>82.199996948242</ele>
        <time>2020-07-26T07:01:06.000Z</time>
      </trkpt>
      <trkpt lat="47.56852" lon="-2.34033">
        <ele>82.199996948242</ele>
        <time>2020-07-26T07:01:15.000Z</time>
      </trkpt>
      <trkpt lat="47.56851" lon="-2.34038">
        <ele>82.199996948242</ele>
        <time>2020-07-26T07:01:17.000Z</time>
      </trkpt>
      <trkpt lat="47.56847" lon="-2.34043">
        <ele>82.199996948242</ele>
        <time>2020-07-26T07:01:19.000Z</time>
      </trkpt>
      <trkpt lat="47.56841" lon="-2.3405">
        <ele>82.199996948242</ele>
        <time>2020-07-26T07:01:21.000Z</time>
      </trkpt>
      <trkpt lat="47.56833" lon="-2.34058">
        <ele>82.199996948242</ele>
        <time>2020-07-26T07:01:23.000Z</time>
      </trkpt>
      <trkpt lat="47.56809" lon="-2.34081">
        <ele>81.800003051758</ele>
        <time>2020-07-26T07:01:28.000Z</time>
      </trkpt>
      <trkpt lat="47.56806" lon="-2.34087">
        <ele>81.400001525879</ele>
        <time>2020-07-26T07:01:29.000Z</time>
      </trkpt>
      <trkpt lat="47.56805" lon="-2.34093">
        <ele>81</ele>
        <time>2020-07-26T07:01:30.000Z</time>
      </trkpt>
      <trkpt lat="47.56805" lon="-2.341">
        <ele>80.599998474121</ele>
        <time>2020-07-26T07:01:31.000Z</time>
      </trkpt>
      <trkpt lat="47.56806" lon="-2.34105">
        <ele>80.199996948242</ele>
        <time>2020-07-26T07:01:32.000Z</time>
      </trkpt>
      <trkpt lat="47.56809" lon="-2.34114">
        <ele>80.199996948242</ele>
        <time>2020-07-26T07:01:34.000Z</time>
      </trkpt>
      <trkpt lat="47.56813" lon="-2.34128">
        <ele>80.199996948242</ele>
        <time>2020-07-26T07:01:37.000Z</time>
      </trkpt>
      <trkpt lat="47.56825" lon="-2.34157">
        <ele>80.199996948242</ele>
        <time>2020-07-26T07:01:43.000Z</time>
      </trkpt>
      <trkpt lat="47.56841" lon="-2.34194">
        <ele>80.199996948242</ele>
        <time>2020-07-26T07:01:50.000Z</time>
      </trkpt>
      <trkpt lat="47.56845" lon="-2.34205">
        <ele>80.199996948242</ele>
        <time>2020-07-26T07:01:54.000Z</time>
      </trkpt>
      <trkpt lat="47.56846" lon="-2.34208">
        <ele>80.199996948242</ele>
        <time>2020-07-26T07:01:57.000Z</time>
      </trkpt>
      <trkpt lat="47.56846" lon="-2.34202">
        <ele>80.199996948242</ele>
        <time>2020-07-26T07:04:58.000Z</time>
      </trkpt>
      <trkpt lat="47.56845" lon="-2.34199">
        <ele>80.199996948242</ele>
        <time>2020-07-26T07:04:59.000Z</time>
      </trkpt>
      <trkpt lat="47.56835" lon="-2.34179">
        <ele>80.199996948242</ele>
        <time>2020-07-26T07:05:05.000Z</time>
      </trkpt>
      <trkpt lat="47.56827" lon="-2.34161">
        <ele>80.199996948242</ele>
        <time>2020-07-26T07:05:11.000Z</time>
      </trkpt>
      <trkpt lat="47.56816" lon="-2.34138">
        <ele>80.199996948242</ele>
        <time>2020-07-26T07:05:18.000Z</time>
      </trkpt>
      <trkpt lat="47.56804" lon="-2.34118">
        <ele>80.199996948242</ele>
        <time>2020-07-26T07:05:25.000Z</time>
      </trkpt>
      <trkpt lat="47.56798" lon="-2.34105">
        <ele>80.199996948242</ele>
        <time>2020-07-26T07:05:32.000Z</time>
      </trkpt>
      <trkpt lat="47.56793" lon="-2.34098">
        <ele>80.199996948242</ele>
        <time>2020-07-26T07:05:39.000Z</time>
      </trkpt>
      <trkpt lat="47.56794" lon="-2.34089">
        <ele>80.199996948242</ele>
        <time>2020-07-26T07:05:45.000Z</time>
      </trkpt>
      <trkpt lat="47.56795" lon="-2.34093">
        <ele>80.199996948242</ele>
        <time>2020-07-26T07:05:47.000Z</time>
      </trkpt>
      <trkpt lat="47.56796" lon="-2.34099">
        <ele>80.199996948242</ele>
        <time>2020-07-26T07:05:49.000Z</time>
      </trkpt>
      <trkpt lat="47.56803" lon="-2.3412">
        <ele>80.199996948242</ele>
        <time>2020-07-26T07:05:54.000Z</time>
      </trkpt>
      <trkpt lat="47.56814" lon="-2.34144">
        <ele>80.199996948242</ele>
        <time>2020-07-26T07:06:00.000Z</time>
      </trkpt>
      <trkpt lat="47.56825" lon="-2.34167">
        <ele>80.199996948242</ele>
        <time>2020-07-26T07:06:06.000Z</time>
      </trkpt>
      <trkpt lat="47.56834" lon="-2.34189">
        <ele>80.199996948242</ele>
        <time>2020-07-26T07:06:12.000Z</time>
      </trkpt>
      <trkpt lat="47.56842" lon="-2.34209">
        <ele>80.199996948242</ele>
        <time>2020-07-26T07:06:18.000Z</time>
      </trkpt>
      <trkpt lat="47.56844" lon="-2.34212">
        <ele>80.199996948242</ele>
        <time>2020-07-26T07:06:20.000Z</time>
      </trkpt>
      <trkpt lat="47.56846" lon="-2.34216">
        <ele>80.199996948242</ele>
        <time>2020-07-26T07:06:24.000Z</time>
      </trkpt>
      <trkpt lat="47.56849" lon="-2.34218">
        <ele>80.199996948242</ele>
        <time>2020-07-26T07:06:26.000Z</time>
      </trkpt>
      <trkpt lat="47.56852" lon="-2.3422">
        <ele>80.199996948242</ele>
        <time>2020-07-26T07:06:30.000Z</time>
      </trkpt>
      <trkpt lat="47.56859" lon="-2.3422">
        <ele>80.199996948242</ele>
        <time>2020-07-26T07:06:37.000Z</time>
      </trkpt>
      <trkpt lat="47.56862" lon="-2.34216">
        <ele>80.199996948242</ele>
        <time>2020-07-26T07:06:41.000Z</time>
      </trkpt>
      <trkpt lat="47.56865" lon="-2.34202">
        <ele>80.199996948242</ele>
        <time>2020-07-26T07:06:50.000Z</time>
      </trkpt>
      <trkpt lat="47.56866" lon="-2.34199">
        <ele>80.199996948242</ele>
        <time>2020-07-26T07:06:52.000Z</time>
      </trkpt>
      <trkpt lat="47.56866" lon="-2.34198">
        <ele>80.599998474121</ele>
        <time>2020-07-26T07:06:53.000Z</time>
      </trkpt>
      <trkpt lat="47.56867" lon="-2.34197">
        <ele>81</ele>
        <time>2020-07-26T07:06:54.000Z</time>
      </trkpt>
      <trkpt lat="47.56868" lon="-2.34197">
        <ele>81.800003051758</ele>
        <time>2020-07-26T07:06:55.000Z</time>
      </trkpt>
      <trkpt lat="47.5687" lon="-2.34196">
        <ele>82.199996948242</ele>
        <time>2020-07-26T07:06:56.000Z</time>
      </trkpt>
      <trkpt lat="47.56871" lon="-2.34194">
        <ele>82.199996948242</ele>
        <time>2020-07-26T07:06:57.000Z</time>
      </trkpt>
      <trkpt lat="47.5687" lon="-2.34188">
        <ele>82.199996948242</ele>
        <time>2020-07-26T07:07:01.000Z</time>
      </trkpt>
      <trkpt lat="47.56869" lon="-2.34186">
        <ele>82.199996948242</ele>
        <time>2020-07-26T07:07:02.000Z</time>
      </trkpt>
      <trkpt lat="47.56869" lon="-2.34175">
        <ele>82.199996948242</ele>
        <time>2020-07-26T07:07:08.000Z</time>
      </trkpt>
      <trkpt lat="47.56868" lon="-2.34165">
        <ele>82.199996948242</ele>
        <time>2020-07-26T07:07:14.000Z</time>
      </trkpt>
      <trkpt lat="47.56868" lon="-2.34147">
        <ele>82.199996948242</ele>
        <time>2020-07-26T07:07:20.000Z</time>
      </trkpt>
      <trkpt lat="47.56869" lon="-2.34144">
        <ele>82.199996948242</ele>
        <time>2020-07-26T07:07:22.000Z</time>
      </trkpt>
      <trkpt lat="47.56871" lon="-2.34148">
        <ele>84</ele>
        <time>2020-07-26T07:07:26.000Z</time>
      </trkpt>
      <trkpt lat="47.56871" lon="-2.34152">
        <ele>84.400001525879</ele>
        <time>2020-07-26T07:07:27.000Z</time>
      </trkpt>
      <trkpt lat="47.56872" lon="-2.34155">
        <ele>84.400001525879</ele>
        <time>2020-07-26T07:07:28.000Z</time>
      </trkpt>
      <trkpt lat="47.56878" lon="-2.34167">
        <ele>84.400001525879</ele>
        <time>2020-07-26T07:07:33.000Z</time>
      </trkpt>
      <trkpt lat="47.56887" lon="-2.34172">
        <ele>84.400001525879</ele>
        <time>2020-07-26T07:07:39.000Z</time>
      </trkpt>
      <trkpt lat="47.56895" lon="-2.34168">
        <ele>84.400001525879</ele>
        <time>2020-07-26T07:07:45.000Z</time>
      </trkpt>
      <trkpt lat="47.569" lon="-2.34174">
        <ele>84.400001525879</ele>
        <time>2020-07-26T07:07:49.000Z</time>
      </trkpt>
      <trkpt lat="47.569" lon="-2.34177">
        <ele>84.400001525879</ele>
        <time>2020-07-26T07:07:50.000Z</time>
      </trkpt>
      <trkpt lat="47.56903" lon="-2.34179">
        <ele>84.400001525879</ele>
        <time>2020-07-26T07:07:54.000Z</time>
      </trkpt>
      <trkpt lat="47.56906" lon="-2.34172">
        <ele>84.400001525879</ele>
        <time>2020-07-26T07:07:59.000Z</time>
      </trkpt>
      <trkpt lat="47.56906" lon="-2.34168">
        <ele>84.400001525879</ele>
        <time>2020-07-26T07:08:01.000Z</time>
      </trkpt>
      <trkpt lat="47.56906" lon="-2.34161">
        <ele>84.400001525879</ele>
        <time>2020-07-26T07:08:07.000Z</time>
      </trkpt>
      <trkpt lat="47.56909" lon="-2.34159">
        <ele>84.400001525879</ele>
        <time>2020-07-26T07:08:13.000Z</time>
      </trkpt>
      <trkpt lat="47.56916" lon="-2.34163">
        <ele>84.800003051758</ele>
        <time>2020-07-26T07:08:18.000Z</time>
      </trkpt>
      <trkpt lat="47.56917" lon="-2.34164">
        <ele>85.199996948242</ele>
        <time>2020-07-26T07:08:19.000Z</time>
      </trkpt>
      <trkpt lat="47.56917" lon="-2.34164">
        <ele>85.599998474121</ele>
        <time>2020-07-26T07:08:20.000Z</time>
      </trkpt>
      <trkpt lat="47.56917" lon="-2.34165">
        <ele>86</ele>
        <time>2020-07-26T07:08:21.000Z</time>
      </trkpt>
      <trkpt lat="47.56916" lon="-2.34167">
        <ele>86.400001525879</ele>
        <time>2020-07-26T07:08:22.000Z</time>
      </trkpt>
      <trkpt lat="47.56918" lon="-2.34173">
        <ele>86.400001525879</ele>
        <time>2020-07-26T07:08:25.000Z</time>
      </trkpt>
      <trkpt lat="47.56921" lon="-2.34178">
        <ele>86.400001525879</ele>
        <time>2020-07-26T07:08:27.000Z</time>
      </trkpt>
      <trkpt lat="47.56925" lon="-2.34187">
        <ele>86.400001525879</ele>
        <time>2020-07-26T07:08:32.000Z</time>
      </trkpt>
      <trkpt lat="47.56926" lon="-2.34189">
        <ele>86.400001525879</ele>
        <time>2020-07-26T07:08:33.000Z</time>
      </trkpt>
      <trkpt lat="47.56932" lon="-2.34198">
        <ele>86.400001525879</ele>
        <time>2020-07-26T07:08:39.000Z</time>
      </trkpt>
      <trkpt lat="47.5694" lon="-2.34203">
        <ele>86.400001525879</ele>
        <time>2020-07-26T07:08:44.000Z</time>
      </trkpt>
      <trkpt lat="47.56949" lon="-2.34221">
        <ele>86.400001525879</ele>
        <time>2020-07-26T07:08:50.000Z</time>
      </trkpt>
      <trkpt lat="47.56951" lon="-2.34226">
        <ele>86</ele>
        <time>2020-07-26T07:08:52.000Z</time>
      </trkpt>
      <trkpt lat="47.56951" lon="-2.34228">
        <ele>85.599998474121</ele>
        <time>2020-07-26T07:08:53.000Z</time>
      </trkpt>
      <trkpt lat="47.56952" lon="-2.34232">
        <ele>85.199996948242</ele>
        <time>2020-07-26T07:08:54.000Z</time>
      </trkpt>
      <trkpt lat="47.56953" lon="-2.34233">
        <ele>84.800003051758</ele>
        <time>2020-07-26T07:08:55.000Z</time>
      </trkpt>
      <trkpt lat="47.56954" lon="-2.34235">
        <ele>84.400001525879</ele>
        <time>2020-07-26T07:08:56.000Z</time>
      </trkpt>
      <trkpt lat="47.56957" lon="-2.34243">
        <ele>84.400001525879</ele>
        <time>2020-07-26T07:09:00.000Z</time>
      </trkpt>
      <trkpt lat="47.56966" lon="-2.34254">
        <ele>84.400001525879</ele>
        <time>2020-07-26T07:09:06.000Z</time>
      </trkpt>
      <trkpt lat="47.56966" lon="-2.34254">
        <ele>84.400001525879</ele>
        <time>2020-07-26T07:09:07.000Z</time>
      </trkpt>
      <trkpt lat="47.56969" lon="-2.34251">
        <ele>84.400001525879</ele>
        <time>2020-07-26T07:09:09.000Z</time>
      </trkpt>
      <trkpt lat="47.5697" lon="-2.34249">
        <ele>84.400001525879</ele>
        <time>2020-07-26T07:09:11.000Z</time>
      </trkpt>
      <trkpt lat="47.56976" lon="-2.34249">
        <ele>84.400001525879</ele>
        <time>2020-07-26T07:09:15.000Z</time>
      </trkpt>
      <trkpt lat="47.56977" lon="-2.34249">
        <ele>84.400001525879</ele>
        <time>2020-07-26T07:09:16.000Z</time>
      </trkpt>
      <trkpt lat="47.56986" lon="-2.34252">
        <ele>84.400001525879</ele>
        <time>2020-07-26T07:09:22.000Z</time>
      </trkpt>
      <trkpt lat="47.56988" lon="-2.34255">
        <ele>84.400001525879</ele>
        <time>2020-07-26T07:09:23.000Z</time>
      </trkpt>
      <trkpt lat="47.56994" lon="-2.34263">
        <ele>84.400001525879</ele>
        <time>2020-07-26T07:09:27.000Z</time>
      </trkpt>
      <trkpt lat="47.56997" lon="-2.34268">
        <ele>84.400001525879</ele>
        <time>2020-07-26T07:09:30.000Z</time>
      </trkpt>
      <trkpt lat="47.57" lon="-2.34269">
        <ele>84.400001525879</ele>
        <time>2020-07-26T07:09:33.000Z</time>
      </trkpt>
      <trkpt lat="47.57005" lon="-2.34265">
        <ele>84.400001525879</ele>
        <time>2020-07-26T07:09:36.000Z</time>
      </trkpt>
      <trkpt lat="47.57014" lon="-2.34264">
        <ele>84.400001525879</ele>
        <time>2020-07-26T07:09:39.000Z</time>
      </trkpt>
      <trkpt lat="47.57022" lon="-2.34264">
        <ele>84.400001525879</ele>
        <time>2020-07-26T07:09:42.000Z</time>
      </trkpt>
      <trkpt lat="47.57027" lon="-2.34264">
        <ele>84.400001525879</ele>
        <time>2020-07-26T07:09:44.000Z</time>
      </trkpt>
      <trkpt lat="47.57029" lon="-2.34265">
        <ele>84.800003051758</ele>
        <time>2020-07-26T07:09:46.000Z</time>
      </trkpt>
      <trkpt lat="47.57031" lon="-2.34266">
        <ele>85.599998474121</ele>
        <time>2020-07-26T07:09:47.000Z</time>
      </trkpt>
      <trkpt lat="47.57033" lon="-2.34267">
        <ele>86</ele>
        <time>2020-07-26T07:09:48.000Z</time>
      </trkpt>
      <trkpt lat="47.57037" lon="-2.34267">
        <ele>86.400001525879</ele>
        <time>2020-07-26T07:09:49.000Z</time>
      </trkpt>
      <trkpt lat="47.57049" lon="-2.34263">
        <ele>86.400001525879</ele>
        <time>2020-07-26T07:09:54.000Z</time>
      </trkpt>
      <trkpt lat="47.57054" lon="-2.34269">
        <ele>86.400001525879</ele>
        <time>2020-07-26T07:09:59.000Z</time>
      </trkpt>
      <trkpt lat="47.57052" lon="-2.34275">
        <ele>86.400001525879</ele>
        <time>2020-07-26T07:10:02.000Z</time>
      </trkpt>
      <trkpt lat="47.57053" lon="-2.34279">
        <ele>86.400001525879</ele>
        <time>2020-07-26T07:10:04.000Z</time>
      </trkpt>
      <trkpt lat="47.57055" lon="-2.34285">
        <ele>86.400001525879</ele>
        <time>2020-07-26T07:10:07.000Z</time>
      </trkpt>
      <trkpt lat="47.57059" lon="-2.34291">
        <ele>86.400001525879</ele>
        <time>2020-07-26T07:10:10.000Z</time>
      </trkpt>
      <trkpt lat="47.5706" lon="-2.34294">
        <ele>86.400001525879</ele>
        <time>2020-07-26T07:10:13.000Z</time>
      </trkpt>
      <trkpt lat="47.5706" lon="-2.34306">
        <ele>86.400001525879</ele>
        <time>2020-07-26T07:10:27.000Z</time>
      </trkpt>
      <trkpt lat="47.57062" lon="-2.34305">
        <ele>86.400001525879</ele>
        <time>2020-07-26T07:10:28.000Z</time>
      </trkpt>
      <trkpt lat="47.57071" lon="-2.34297">
        <ele>86.400001525879</ele>
        <time>2020-07-26T07:10:35.000Z</time>
      </trkpt>
      <trkpt lat="47.57072" lon="-2.34296">
        <ele>86.400001525879</ele>
        <time>2020-07-26T07:10:36.000Z</time>
      </trkpt>
      <trkpt lat="47.57078" lon="-2.343">
        <ele>86.400001525879</ele>
        <time>2020-07-26T07:10:39.000Z</time>
      </trkpt>
      <trkpt lat="47.57081" lon="-2.343">
        <ele>86.400001525879</ele>
        <time>2020-07-26T07:10:40.000Z</time>
      </trkpt>
      <trkpt lat="47.57095" lon="-2.34298">
        <ele>86.400001525879</ele>
        <time>2020-07-26T07:10:46.000Z</time>
      </trkpt>
      <trkpt lat="47.57096" lon="-2.34296">
        <ele>86.400001525879</ele>
        <time>2020-07-26T07:10:47.000Z</time>
      </trkpt>
      <trkpt lat="47.57099" lon="-2.34288">
        <ele>86.400001525879</ele>
        <time>2020-07-26T07:10:51.000Z</time>
      </trkpt>
      <trkpt lat="47.57099" lon="-2.34286">
        <ele>86.400001525879</ele>
        <time>2020-07-26T07:10:52.000Z</time>
      </trkpt>
      <trkpt lat="47.57103" lon="-2.34277">
        <ele>86.400001525879</ele>
        <time>2020-07-26T07:10:56.000Z</time>
      </trkpt>
      <trkpt lat="47.57103" lon="-2.34275">
        <ele>86.400001525879</ele>
        <time>2020-07-26T07:10:57.000Z</time>
      </trkpt>
      <trkpt lat="47.57106" lon="-2.34263">
        <ele>86.400001525879</ele>
        <time>2020-07-26T07:11:01.000Z</time>
      </trkpt>
      <trkpt lat="47.57108" lon="-2.34251">
        <ele>85.599998474121</ele>
        <time>2020-07-26T07:11:06.000Z</time>
      </trkpt>
      <trkpt lat="47.57109" lon="-2.34249">
        <ele>85.800003051758</ele>
        <time>2020-07-26T07:11:07.000Z</time>
      </trkpt>
      <trkpt lat="47.57109" lon="-2.34248">
        <ele>85.800003051758</ele>
        <time>2020-07-26T07:11:08.000Z</time>
      </trkpt>
      <trkpt lat="47.57109" lon="-2.34248">
        <ele>87.400001525879</ele>
        <time>2020-07-26T07:11:09.000Z</time>
      </trkpt>
      <trkpt lat="47.5711" lon="-2.34246">
        <ele>87.800003051758</ele>
        <time>2020-07-26T07:11:10.000Z</time>
      </trkpt>
      <trkpt lat="47.57112" lon="-2.34244">
        <ele>88.199996948242</ele>
        <time>2020-07-26T07:11:11.000Z</time>
      </trkpt>
      <trkpt lat="47.57115" lon="-2.34241">
        <ele>88.599998474121</ele>
        <time>2020-07-26T07:11:12.000Z</time>
      </trkpt>
      <trkpt lat="47.57118" lon="-2.34239">
        <ele>89.199996948242</ele>
        <time>2020-07-26T07:11:13.000Z</time>
      </trkpt>
      <trkpt lat="47.5712" lon="-2.34238">
        <ele>89.599998474121</ele>
        <time>2020-07-26T07:11:14.000Z</time>
      </trkpt>
      <trkpt lat="47.57126" lon="-2.3423">
        <ele>89.599998474121</ele>
        <time>2020-07-26T07:11:17.000Z</time>
      </trkpt>
      <trkpt lat="47.57127" lon="-2.34223">
        <ele>89.599998474121</ele>
        <time>2020-07-26T07:11:19.000Z</time>
      </trkpt>
      <trkpt lat="47.57124" lon="-2.34213">
        <ele>89.599998474121</ele>
        <time>2020-07-26T07:11:23.000Z</time>
      </trkpt>
      <trkpt lat="47.57123" lon="-2.34212">
        <ele>89.599998474121</ele>
        <time>2020-07-26T07:11:24.000Z</time>
      </trkpt>
      <trkpt lat="47.57121" lon="-2.34214">
        <ele>89.599998474121</ele>
        <time>2020-07-26T07:11:28.000Z</time>
      </trkpt>
      <trkpt lat="47.57118" lon="-2.3422">
        <ele>89.599998474121</ele>
        <time>2020-07-26T07:11:32.000Z</time>
      </trkpt>
      <trkpt lat="47.57116" lon="-2.34222">
        <ele>89.599998474121</ele>
        <time>2020-07-26T07:11:33.000Z</time>
      </trkpt>
      <trkpt lat="47.57106" lon="-2.34229">
        <ele>89.599998474121</ele>
        <time>2020-07-26T07:11:38.000Z</time>
      </trkpt>
      <trkpt lat="47.57099" lon="-2.34233">
        <ele>89.599998474121</ele>
        <time>2020-07-26T07:11:43.000Z</time>
      </trkpt>
      <trkpt lat="47.57092" lon="-2.34222">
        <ele>89.599998474121</ele>
        <time>2020-07-26T07:11:49.000Z</time>
      </trkpt>
      <trkpt lat="47.57084" lon="-2.3422">
        <ele>89.599998474121</ele>
        <time>2020-07-26T07:11:53.000Z</time>
      </trkpt>
      <trkpt lat="47.57083" lon="-2.34222">
        <ele>89.599998474121</ele>
        <time>2020-07-26T07:11:54.000Z</time>
      </trkpt>
      <trkpt lat="47.57081" lon="-2.34227">
        <ele>89.599998474121</ele>
        <time>2020-07-26T07:11:56.000Z</time>
      </trkpt>
      <trkpt lat="47.57078" lon="-2.34236">
        <ele>89.599998474121</ele>
        <time>2020-07-26T07:11:59.000Z</time>
      </trkpt>
      <trkpt lat="47.57077" lon="-2.34239">
        <ele>89.599998474121</ele>
        <time>2020-07-26T07:12:00.000Z</time>
      </trkpt>
      <trkpt lat="47.57074" lon="-2.34242">
        <ele>89.599998474121</ele>
        <time>2020-07-26T07:12:02.000Z</time>
      </trkpt>
      <trkpt lat="47.57071" lon="-2.34239">
        <ele>89.599998474121</ele>
        <time>2020-07-26T07:12:04.000Z</time>
      </trkpt>
      <trkpt lat="47.57065" lon="-2.34235">
        <ele>89.599998474121</ele>
        <time>2020-07-26T07:12:09.000Z</time>
      </trkpt>
      <trkpt lat="47.57062" lon="-2.34232">
        <ele>89.599998474121</ele>
        <time>2020-07-26T07:12:59.000Z</time>
      </trkpt>
      <trkpt lat="47.57061" lon="-2.34228">
        <ele>89.599998474121</ele>
        <time>2020-07-26T07:13:00.000Z</time>
      </trkpt>
      <trkpt lat="47.5706" lon="-2.34223">
        <ele>89.599998474121</ele>
        <time>2020-07-26T07:13:02.000Z</time>
      </trkpt>
      <trkpt lat="47.57064" lon="-2.34218">
        <ele>89.599998474121</ele>
        <time>2020-07-26T07:13:06.000Z</time>
      </trkpt>
      <trkpt lat="47.57069" lon="-2.34217">
        <ele>89.599998474121</ele>
        <time>2020-07-26T07:13:11.000Z</time>
      </trkpt>
      <trkpt lat="47.57078" lon="-2.34213">
        <ele>89.599998474121</ele>
        <time>2020-07-26T07:13:17.000Z</time>
      </trkpt>
      <trkpt lat="47.57082" lon="-2.34209">
        <ele>89.599998474121</ele>
        <time>2020-07-26T07:13:22.000Z</time>
      </trkpt>
      <trkpt lat="47.57085" lon="-2.34213">
        <ele>89.599998474121</ele>
        <time>2020-07-26T07:13:24.000Z</time>
      </trkpt>
      <trkpt lat="47.57086" lon="-2.34215">
        <ele>89.599998474121</ele>
        <time>2020-07-26T07:13:27.000Z</time>
      </trkpt>
      <trkpt lat="47.57094" lon="-2.34222">
        <ele>89.599998474121</ele>
        <time>2020-07-26T07:13:32.000Z</time>
      </trkpt>
      <trkpt lat="47.57097" lon="-2.34218">
        <ele>89.599998474121</ele>
        <time>2020-07-26T07:13:36.000Z</time>
      </trkpt>
      <trkpt lat="47.57098" lon="-2.3421">
        <ele>89.599998474121</ele>
        <time>2020-07-26T07:13:40.000Z</time>
      </trkpt>
      <trkpt lat="47.57099" lon="-2.34202">
        <ele>89.599998474121</ele>
        <time>2020-07-26T07:13:42.000Z</time>
      </trkpt>
      <trkpt lat="47.571" lon="-2.34188">
        <ele>89.599998474121</ele>
        <time>2020-07-26T07:13:47.000Z</time>
      </trkpt>
      <trkpt lat="47.57096" lon="-2.34178">
        <ele>89.599998474121</ele>
        <time>2020-07-26T07:13:52.000Z</time>
      </trkpt>
      <trkpt lat="47.57097" lon="-2.34169">
        <ele>89.599998474121</ele>
        <time>2020-07-26T07:13:58.000Z</time>
      </trkpt>
      <trkpt lat="47.57104" lon="-2.34168">
        <ele>89.599998474121</ele>
        <time>2020-07-26T07:14:04.000Z</time>
      </trkpt>
      <trkpt lat="47.5711" lon="-2.34175">
        <ele>89.599998474121</ele>
        <time>2020-07-26T07:14:10.000Z</time>
      </trkpt>
      <trkpt lat="47.57111" lon="-2.34177">
        <ele>89.599998474121</ele>
        <time>2020-07-26T07:14:11.000Z</time>
      </trkpt>
      <trkpt lat="47.57112" lon="-2.34188">
        <ele>89.599998474121</ele>
        <time>2020-07-26T07:14:17.000Z</time>
      </trkpt>
      <trkpt lat="47.57115" lon="-2.34197">
        <ele>89.599998474121</ele>
        <time>2020-07-26T07:14:22.000Z</time>
      </trkpt>
      <trkpt lat="47.57117" lon="-2.34196">
        <ele>89.599998474121</ele>
        <time>2020-07-26T07:14:23.000Z</time>
      </trkpt>
      <trkpt lat="47.57123" lon="-2.34192">
        <ele>89.599998474121</ele>
        <time>2020-07-26T07:14:27.000Z</time>
      </trkpt>
      <trkpt lat="47.57124" lon="-2.34191">
        <ele>89.599998474121</ele>
        <time>2020-07-26T07:14:28.000Z</time>
      </trkpt>
      <trkpt lat="47.57126" lon="-2.34182">
        <ele>89.599998474121</ele>
        <time>2020-07-26T07:14:32.000Z</time>
      </trkpt>
      <trkpt lat="47.57125" lon="-2.34176">
        <ele>89.599998474121</ele>
        <time>2020-07-26T07:14:35.000Z</time>
      </trkpt>
      <trkpt lat="47.57123" lon="-2.3417">
        <ele>89.599998474121</ele>
        <time>2020-07-26T07:14:38.000Z</time>
      </trkpt>
      <trkpt lat="47.5712" lon="-2.34157">
        <ele>89.599998474121</ele>
        <time>2020-07-26T07:14:44.000Z</time>
      </trkpt>
      <trkpt lat="47.57121" lon="-2.3415">
        <ele>89.599998474121</ele>
        <time>2020-07-26T07:14:49.000Z</time>
      </trkpt>
      <trkpt lat="47.5713" lon="-2.34167">
        <ele>89.599998474121</ele>
        <time>2020-07-26T07:15:06.000Z</time>
      </trkpt>
      <trkpt lat="47.5713" lon="-2.34169">
        <ele>89.599998474121</ele>
        <time>2020-07-26T07:15:07.000Z</time>
      </trkpt>
      <trkpt lat="47.5713" lon="-2.34175">
        <ele>89.599998474121</ele>
        <time>2020-07-26T07:15:11.000Z</time>
      </trkpt>
      <trkpt lat="47.57133" lon="-2.34187">
        <ele>89.599998474121</ele>
        <time>2020-07-26T07:16:08.000Z</time>
      </trkpt>
      <trkpt lat="47.57134" lon="-2.34188">
        <ele>89.599998474121</ele>
        <time>2020-07-26T07:16:09.000Z</time>
      </trkpt>
      <trkpt lat="47.57139" lon="-2.34189">
        <ele>89.599998474121</ele>
        <time>2020-07-26T07:16:12.000Z</time>
      </trkpt>
      <trkpt lat="47.57142" lon="-2.34189">
        <ele>89.599998474121</ele>
        <time>2020-07-26T07:16:14.000Z</time>
      </trkpt>
      <trkpt lat="47.5715" lon="-2.34193">
        <ele>89.599998474121</ele>
        <time>2020-07-26T07:16:21.000Z</time>
      </trkpt>
      <trkpt lat="47.57153" lon="-2.34206">
        <ele>89.599998474121</ele>
        <time>2020-07-26T07:16:26.000Z</time>
      </trkpt>
      <trkpt lat="47.57152" lon="-2.34207">
        <ele>89.599998474121</ele>
        <time>2020-07-26T07:16:28.000Z</time>
      </trkpt>
      <trkpt lat="47.57152" lon="-2.34203">
        <ele>89.599998474121</ele>
        <time>2020-07-26T07:16:30.000Z</time>
      </trkpt>
      <trkpt lat="47.57152" lon="-2.34201">
        <ele>89.599998474121</ele>
        <time>2020-07-26T07:16:31.000Z</time>
      </trkpt>
      <trkpt lat="47.57149" lon="-2.342">
        <ele>89.599998474121</ele>
        <time>2020-07-26T07:16:34.000Z</time>
      </trkpt>
      <trkpt lat="47.57144" lon="-2.34206">
        <ele>89.599998474121</ele>
        <time>2020-07-26T07:16:39.000Z</time>
      </trkpt>
      <trkpt lat="47.57143" lon="-2.3421">
        <ele>89.599998474121</ele>
        <time>2020-07-26T07:16:40.000Z</time>
      </trkpt>
      <trkpt lat="47.57143" lon="-2.34217">
        <ele>89.599998474121</ele>
        <time>2020-07-26T07:16:42.000Z</time>
      </trkpt>
      <trkpt lat="47.5714" lon="-2.34223">
        <ele>89.599998474121</ele>
        <time>2020-07-26T07:16:45.000Z</time>
      </trkpt>
      <trkpt lat="47.57139" lon="-2.34235">
        <ele>89.599998474121</ele>
        <time>2020-07-26T07:16:49.000Z</time>
      </trkpt>
      <trkpt lat="47.57143" lon="-2.34252">
        <ele>89.599998474121</ele>
        <time>2020-07-26T07:16:55.000Z</time>
      </trkpt>
      <trkpt lat="47.57149" lon="-2.3426">
        <ele>89.599998474121</ele>
        <time>2020-07-26T07:16:58.000Z</time>
      </trkpt>
      <trkpt lat="47.57156" lon="-2.34263">
        <ele>89.599998474121</ele>
        <time>2020-07-26T07:17:00.000Z</time>
      </trkpt>
      <trkpt lat="47.57171" lon="-2.34272">
        <ele>89.599998474121</ele>
        <time>2020-07-26T07:17:05.000Z</time>
      </trkpt>
      <trkpt lat="47.57183" lon="-2.34277">
        <ele>89.599998474121</ele>
        <time>2020-07-26T07:17:10.000Z</time>
      </trkpt>
      <trkpt lat="47.57192" lon="-2.34283">
        <ele>89.599998474121</ele>
        <time>2020-07-26T07:17:14.000Z</time>
      </trkpt>
      <trkpt lat="47.57193" lon="-2.34287">
        <ele>89.599998474121</ele>
        <time>2020-07-26T07:17:15.000Z</time>
      </trkpt>
      <trkpt lat="47.57195" lon="-2.34301">
        <ele>89.599998474121</ele>
        <time>2020-07-26T07:17:19.000Z</time>
      </trkpt>
      <trkpt lat="47.57198" lon="-2.34312">
        <ele>89.599998474121</ele>
        <time>2020-07-26T07:17:25.000Z</time>
      </trkpt>
      <trkpt lat="47.572" lon="-2.34321">
        <ele>89.599998474121</ele>
        <time>2020-07-26T07:17:30.000Z</time>
      </trkpt>
      <trkpt lat="47.572" lon="-2.34324">
        <ele>89.599998474121</ele>
        <time>2020-07-26T07:17:31.000Z</time>
      </trkpt>
      <trkpt lat="47.57202" lon="-2.34333">
        <ele>89.599998474121</ele>
        <time>2020-07-26T07:17:34.000Z</time>
      </trkpt>
      <trkpt lat="47.57203" lon="-2.34336">
        <ele>89.599998474121</ele>
        <time>2020-07-26T07:17:35.000Z</time>
      </trkpt>
      <trkpt lat="47.57207" lon="-2.34344">
        <ele>89.599998474121</ele>
        <time>2020-07-26T07:17:38.000Z</time>
      </trkpt>
      <trkpt lat="47.57214" lon="-2.34347">
        <ele>89.599998474121</ele>
        <time>2020-07-26T07:17:43.000Z</time>
      </trkpt>
      <trkpt lat="47.57214" lon="-2.34346">
        <ele>89.599998474121</ele>
        <time>2020-07-26T07:17:44.000Z</time>
      </trkpt>
      <trkpt lat="47.57213" lon="-2.34343">
        <ele>89.599998474121</ele>
        <time>2020-07-26T07:17:48.000Z</time>
      </trkpt>
      <trkpt lat="47.57211" lon="-2.34342">
        <ele>89.599998474121</ele>
        <time>2020-07-26T07:17:51.000Z</time>
      </trkpt>
      <trkpt lat="47.57209" lon="-2.34337">
        <ele>89.599998474121</ele>
        <time>2020-07-26T07:17:54.000Z</time>
      </trkpt>
      <trkpt lat="47.57213" lon="-2.34333">
        <ele>89.599998474121</ele>
        <time>2020-07-26T07:17:59.000Z</time>
      </trkpt>
      <trkpt lat="47.57218" lon="-2.3434">
        <ele>90</ele>
        <time>2020-07-26T07:18:04.000Z</time>
      </trkpt>
      <trkpt lat="47.5722" lon="-2.34341">
        <ele>90.400001525879</ele>
        <time>2020-07-26T07:18:05.000Z</time>
      </trkpt>
      <trkpt lat="47.57222" lon="-2.34342">
        <ele>90.800003051758</ele>
        <time>2020-07-26T07:18:06.000Z</time>
      </trkpt>
      <trkpt lat="47.57223" lon="-2.34343">
        <ele>91.199996948242</ele>
        <time>2020-07-26T07:18:07.000Z</time>
      </trkpt>
      <trkpt lat="47.57224" lon="-2.34344">
        <ele>91.599998474121</ele>
        <time>2020-07-26T07:18:08.000Z</time>
      </trkpt>
      <trkpt lat="47.57226" lon="-2.34346">
        <ele>91.599998474121</ele>
        <time>2020-07-26T07:18:10.000Z</time>
      </trkpt>
      <trkpt lat="47.57227" lon="-2.34348">
        <ele>91.599998474121</ele>
        <time>2020-07-26T07:18:11.000Z</time>
      </trkpt>
      <trkpt lat="47.57224" lon="-2.34351">
        <ele>91.599998474121</ele>
        <time>2020-07-26T07:18:14.000Z</time>
      </trkpt>
      <trkpt lat="47.57224" lon="-2.34352">
        <ele>91.599998474121</ele>
        <time>2020-07-26T07:18:15.000Z</time>
      </trkpt>
      <trkpt lat="47.57218" lon="-2.34356">
        <ele>91.599998474121</ele>
        <time>2020-07-26T07:18:21.000Z</time>
      </trkpt>
      <trkpt lat="47.57217" lon="-2.34353">
        <ele>91.599998474121</ele>
        <time>2020-07-26T07:18:23.000Z</time>
      </trkpt>
      <trkpt lat="47.57213" lon="-2.34349">
        <ele>91.599998474121</ele>
        <time>2020-07-26T07:18:26.000Z</time>
      </trkpt>
      <trkpt lat="47.57211" lon="-2.34348">
        <ele>91.599998474121</ele>
        <time>2020-07-26T07:18:27.000Z</time>
      </trkpt>
      <trkpt lat="47.5721" lon="-2.34346">
        <ele>91.599998474121</ele>
        <time>2020-07-26T07:18:28.000Z</time>
      </trkpt>
      <trkpt lat="47.57207" lon="-2.34339">
        <ele>91.599998474121</ele>
        <time>2020-07-26T07:18:31.000Z</time>
      </trkpt>
      <trkpt lat="47.572" lon="-2.34321">
        <ele>91.599998474121</ele>
        <time>2020-07-26T07:18:37.000Z</time>
      </trkpt>
      <trkpt lat="47.57199" lon="-2.34318">
        <ele>91.599998474121</ele>
        <time>2020-07-26T07:18:38.000Z</time>
      </trkpt>
      <trkpt lat="47.57196" lon="-2.34305">
        <ele>91.599998474121</ele>
        <time>2020-07-26T07:18:43.000Z</time>
      </trkpt>
      <trkpt lat="47.57192" lon="-2.34304">
        <ele>91.599998474121</ele>
        <time>2020-07-26T07:18:48.000Z</time>
      </trkpt>
      <trkpt lat="47.5719" lon="-2.3431">
        <ele>91.599998474121</ele>
        <time>2020-07-26T07:18:52.000Z</time>
      </trkpt>
      <trkpt lat="47.57189" lon="-2.34315">
        <ele>91.599998474121</ele>
        <time>2020-07-26T07:18:55.000Z</time>
      </trkpt>
      <trkpt lat="47.5718" lon="-2.34325">
        <ele>91.599998474121</ele>
        <time>2020-07-26T07:19:01.000Z</time>
      </trkpt>
      <trkpt lat="47.57176" lon="-2.34327">
        <ele>91.199996948242</ele>
        <time>2020-07-26T07:19:03.000Z</time>
      </trkpt>
      <trkpt lat="47.57174" lon="-2.34328">
        <ele>90.800003051758</ele>
        <time>2020-07-26T07:19:04.000Z</time>
      </trkpt>
      <trkpt lat="47.57172" lon="-2.34329">
        <ele>90.400001525879</ele>
        <time>2020-07-26T07:19:05.000Z</time>
      </trkpt>
      <trkpt lat="47.5717" lon="-2.34331">
        <ele>90</ele>
        <time>2020-07-26T07:19:06.000Z</time>
      </trkpt>
      <trkpt lat="47.57168" lon="-2.34332">
        <ele>89.599998474121</ele>
        <time>2020-07-26T07:19:07.000Z</time>
      </trkpt>
      <trkpt lat="47.57166" lon="-2.34334">
        <ele>89.599998474121</ele>
        <time>2020-07-26T07:19:08.000Z</time>
      </trkpt>
      <trkpt lat="47.57161" lon="-2.34335">
        <ele>89.599998474121</ele>
        <time>2020-07-26T07:19:10.000Z</time>
      </trkpt>
      <trkpt lat="47.57151" lon="-2.34333">
        <ele>89.599998474121</ele>
        <time>2020-07-26T07:19:13.000Z</time>
      </trkpt>
      <trkpt lat="47.57131" lon="-2.34332">
        <ele>89.599998474121</ele>
        <time>2020-07-26T07:19:18.000Z</time>
      </trkpt>
      <trkpt lat="47.5711" lon="-2.34336">
        <ele>89.599998474121</ele>
        <time>2020-07-26T07:19:24.000Z</time>
      </trkpt>
      <trkpt lat="47.57086" lon="-2.34345">
        <ele>89.599998474121</ele>
        <time>2020-07-26T07:19:31.000Z</time>
      </trkpt>
      <trkpt lat="47.5706" lon="-2.34353">
        <ele>89.599998474121</ele>
        <time>2020-07-26T07:19:38.000Z</time>
      </trkpt>
      <trkpt lat="47.5704" lon="-2.34356">
        <ele>89.199996948242</ele>
        <time>2020-07-26T07:19:42.000Z</time>
      </trkpt>
      <trkpt lat="47.57035" lon="-2.34357">
        <ele>88.800003051758</ele>
        <time>2020-07-26T07:19:43.000Z</time>
      </trkpt>
      <trkpt lat="47.57029" lon="-2.34359">
        <ele>88.400001525879</ele>
        <time>2020-07-26T07:19:44.000Z</time>
      </trkpt>
      <trkpt lat="47.57023" lon="-2.34361">
        <ele>88</ele>
        <time>2020-07-26T07:19:45.000Z</time>
      </trkpt>
      <trkpt lat="47.57017" lon="-2.34363">
        <ele>87.400001525879</ele>
        <time>2020-07-26T07:19:46.000Z</time>
      </trkpt>
      <trkpt lat="47.56992" lon="-2.34374">
        <ele>87.400001525879</ele>
        <time>2020-07-26T07:19:50.000Z</time>
      </trkpt>
      <trkpt lat="47.56973" lon="-2.3438">
        <ele>87</ele>
        <time>2020-07-26T07:19:53.000Z</time>
      </trkpt>
      <trkpt lat="47.56967" lon="-2.34382">
        <ele>86.400001525879</ele>
        <time>2020-07-26T07:19:54.000Z</time>
      </trkpt>
      <trkpt lat="47.56961" lon="-2.34384">
        <ele>86</ele>
        <time>2020-07-26T07:19:55.000Z</time>
      </trkpt>
      <trkpt lat="47.56955" lon="-2.34386">
        <ele>85.400001525879</ele>
        <time>2020-07-26T07:19:56.000Z</time>
      </trkpt>
      <trkpt lat="47.5695" lon="-2.34387">
        <ele>85</ele>
        <time>2020-07-26T07:19:57.000Z</time>
      </trkpt>
      <trkpt lat="47.56941" lon="-2.34389">
        <ele>85</ele>
        <time>2020-07-26T07:19:59.000Z</time>
      </trkpt>
      <trkpt lat="47.56937" lon="-2.3439">
        <ele>84.400001525879</ele>
        <time>2020-07-26T07:20:00.000Z</time>
      </trkpt>
      <trkpt lat="47.56934" lon="-2.34392">
        <ele>84</ele>
        <time>2020-07-26T07:20:01.000Z</time>
      </trkpt>
      <trkpt lat="47.56931" lon="-2.34396">
        <ele>83.400001525879</ele>
        <time>2020-07-26T07:20:02.000Z</time>
      </trkpt>
      <trkpt lat="47.5693" lon="-2.34401">
        <ele>83</ele>
        <time>2020-07-26T07:20:03.000Z</time>
      </trkpt>
      <trkpt lat="47.5693" lon="-2.34406">
        <ele>82.400001525879</ele>
        <time>2020-07-26T07:20:04.000Z</time>
      </trkpt>
      <trkpt lat="47.5693" lon="-2.34413">
        <ele>82.400001525879</ele>
        <time>2020-07-26T07:20:06.000Z</time>
      </trkpt>
      <trkpt lat="47.56931" lon="-2.3442">
        <ele>82.400001525879</ele>
        <time>2020-07-26T07:20:08.000Z</time>
      </trkpt>
      <trkpt lat="47.56936" lon="-2.34439">
        <ele>82.400001525879</ele>
        <time>2020-07-26T07:20:12.000Z</time>
      </trkpt>
      <trkpt lat="47.56942" lon="-2.34474">
        <ele>82.400001525879</ele>
        <time>2020-07-26T07:20:18.000Z</time>
      </trkpt>
      <trkpt lat="47.5694" lon="-2.34528">
        <ele>82.400001525879</ele>
        <time>2020-07-26T07:20:27.000Z</time>
      </trkpt>
      <trkpt lat="47.56936" lon="-2.34581">
        <ele>82.400001525879</ele>
        <time>2020-07-26T07:20:35.000Z</time>
      </trkpt>
      <trkpt lat="47.56929" lon="-2.34649">
        <ele>82.400001525879</ele>
        <time>2020-07-26T07:20:45.000Z</time>
      </trkpt>
      <trkpt lat="47.56924" lon="-2.34698">
        <ele>82.400001525879</ele>
        <time>2020-07-26T07:20:51.000Z</time>
      </trkpt>
      <trkpt lat="47.56926" lon="-2.34764">
        <ele>82.400001525879</ele>
        <time>2020-07-26T07:20:58.000Z</time>
      </trkpt>
      <trkpt lat="47.56931" lon="-2.34796">
        <ele>82.400001525879</ele>
        <time>2020-07-26T07:21:01.000Z</time>
      </trkpt>
      <trkpt lat="47.56934" lon="-2.34806">
        <ele>82</ele>
        <time>2020-07-26T07:21:02.000Z</time>
      </trkpt>
      <trkpt lat="47.56936" lon="-2.34816">
        <ele>81.599998474121</ele>
        <time>2020-07-26T07:21:03.000Z</time>
      </trkpt>
      <trkpt lat="47.5694" lon="-2.34826">
        <ele>81.199996948242</ele>
        <time>2020-07-26T07:21:04.000Z</time>
      </trkpt>
      <trkpt lat="47.56943" lon="-2.34834">
        <ele>80.599998474121</ele>
        <time>2020-07-26T07:21:05.000Z</time>
      </trkpt>
      <trkpt lat="47.56946" lon="-2.34842">
        <ele>80.199996948242</ele>
        <time>2020-07-26T07:21:06.000Z</time>
      </trkpt>
      <trkpt lat="47.56949" lon="-2.34849">
        <ele>80.199996948242</ele>
        <time>2020-07-26T07:21:07.000Z</time>
      </trkpt>
      <trkpt lat="47.56961" lon="-2.3488">
        <ele>80.199996948242</ele>
        <time>2020-07-26T07:21:12.000Z</time>
      </trkpt>
      <trkpt lat="47.56981" lon="-2.34914">
        <ele>80.199996948242</ele>
        <time>2020-07-26T07:21:19.000Z</time>
      </trkpt>
      <trkpt lat="47.56994" lon="-2.34925">
        <ele>80.599998474121</ele>
        <time>2020-07-26T07:21:23.000Z</time>
      </trkpt>
      <trkpt lat="47.56997" lon="-2.34927">
        <ele>81</ele>
        <time>2020-07-26T07:21:24.000Z</time>
      </trkpt>
      <trkpt lat="47.57" lon="-2.3493">
        <ele>81.400001525879</ele>
        <time>2020-07-26T07:21:25.000Z</time>
      </trkpt>
      <trkpt lat="47.57003" lon="-2.34932">
        <ele>81.800003051758</ele>
        <time>2020-07-26T07:21:26.000Z</time>
      </trkpt>
      <trkpt lat="47.57006" lon="-2.34936">
        <ele>82.199996948242</ele>
        <time>2020-07-26T07:21:27.000Z</time>
      </trkpt>
      <trkpt lat="47.57018" lon="-2.34947">
        <ele>82.199996948242</ele>
        <time>2020-07-26T07:21:31.000Z</time>
      </trkpt>
      <trkpt lat="47.57027" lon="-2.34955">
        <ele>82.199996948242</ele>
        <time>2020-07-26T07:21:34.000Z</time>
      </trkpt>
      <trkpt lat="47.57028" lon="-2.34955">
        <ele>82.199996948242</ele>
        <time>2020-07-26T07:21:35.000Z</time>
      </trkpt>
      <trkpt lat="47.57031" lon="-2.3496">
        <ele>82.199996948242</ele>
        <time>2020-07-26T07:21:38.000Z</time>
      </trkpt>
      <trkpt lat="47.57024" lon="-2.34961">
        <ele>82.199996948242</ele>
        <time>2020-07-26T07:21:42.000Z</time>
      </trkpt>
      <trkpt lat="47.57015" lon="-2.34965">
        <ele>82.199996948242</ele>
        <time>2020-07-26T07:21:45.000Z</time>
      </trkpt>
      <trkpt lat="47.57009" lon="-2.34966">
        <ele>82.199996948242</ele>
        <time>2020-07-26T07:21:47.000Z</time>
      </trkpt>
      <trkpt lat="47.56986" lon="-2.34972">
        <ele>82.199996948242</ele>
        <time>2020-07-26T07:21:53.000Z</time>
      </trkpt>
      <trkpt lat="47.56965" lon="-2.34974">
        <ele>82.199996948242</ele>
        <time>2020-07-26T07:21:59.000Z</time>
      </trkpt>
      <trkpt lat="47.56946" lon="-2.3498">
        <ele>82.199996948242</ele>
        <time>2020-07-26T07:22:05.000Z</time>
      </trkpt>
      <trkpt lat="47.5694" lon="-2.3499">
        <ele>82.199996948242</ele>
        <time>2020-07-26T07:22:09.000Z</time>
      </trkpt>
      <trkpt lat="47.5694" lon="-2.34994">
        <ele>81.800003051758</ele>
        <time>2020-07-26T07:22:10.000Z</time>
      </trkpt>
      <trkpt lat="47.5694" lon="-2.34998">
        <ele>81.400001525879</ele>
        <time>2020-07-26T07:22:11.000Z</time>
      </trkpt>
      <trkpt lat="47.5694" lon="-2.35003">
        <ele>81</ele>
        <time>2020-07-26T07:22:12.000Z</time>
      </trkpt>
      <trkpt lat="47.56939" lon="-2.35008">
        <ele>80.400001525879</ele>
        <time>2020-07-26T07:22:13.000Z</time>
      </trkpt>
      <trkpt lat="47.56939" lon="-2.35012">
        <ele>80</ele>
        <time>2020-07-26T07:22:14.000Z</time>
      </trkpt>
      <trkpt lat="47.56936" lon="-2.35048">
        <ele>80</ele>
        <time>2020-07-26T07:22:20.000Z</time>
      </trkpt>
      <trkpt lat="47.56935" lon="-2.35089">
        <ele>80</ele>
        <time>2020-07-26T07:22:26.000Z</time>
      </trkpt>
      <trkpt lat="47.56934" lon="-2.35097">
        <ele>80</ele>
        <time>2020-07-26T07:22:27.000Z</time>
      </trkpt>
      <trkpt lat="47.56932" lon="-2.35121">
        <ele>80</ele>
        <time>2020-07-26T07:22:30.000Z</time>
      </trkpt>
      <trkpt lat="47.56932" lon="-2.35129">
        <ele>80</ele>
        <time>2020-07-26T07:22:31.000Z</time>
      </trkpt>
      <trkpt lat="47.56932" lon="-2.35138">
        <ele>79.199996948242</ele>
        <time>2020-07-26T07:22:32.000Z</time>
      </trkpt>
      <trkpt lat="47.5693" lon="-2.35146">
        <ele>78.800003051758</ele>
        <time>2020-07-26T07:22:33.000Z</time>
      </trkpt>
      <trkpt lat="47.56929" lon="-2.35154">
        <ele>78.400001525879</ele>
        <time>2020-07-26T07:22:34.000Z</time>
      </trkpt>
      <trkpt lat="47.56928" lon="-2.35162">
        <ele>77.800003051758</ele>
        <time>2020-07-26T07:22:35.000Z</time>
      </trkpt>
      <trkpt lat="47.56926" lon="-2.3518">
        <ele>77.800003051758</ele>
        <time>2020-07-26T07:22:37.000Z</time>
      </trkpt>
      <trkpt lat="47.56922" lon="-2.35203">
        <ele>77.800003051758</ele>
        <time>2020-07-26T07:22:40.000Z</time>
      </trkpt>
      <trkpt lat="47.56922" lon="-2.35216">
        <ele>77.800003051758</ele>
        <time>2020-07-26T07:22:42.000Z</time>
      </trkpt>
      <trkpt lat="47.56923" lon="-2.35223">
        <ele>77.800003051758</ele>
        <time>2020-07-26T07:22:43.000Z</time>
      </trkpt>
      <trkpt lat="47.56927" lon="-2.35234">
        <ele>77.800003051758</ele>
        <time>2020-07-26T07:22:45.000Z</time>
      </trkpt>
      <trkpt lat="47.56936" lon="-2.35246">
        <ele>77.800003051758</ele>
        <time>2020-07-26T07:22:49.000Z</time>
      </trkpt>
      <trkpt lat="47.56938" lon="-2.35249">
        <ele>78.400001525879</ele>
        <time>2020-07-26T07:22:50.000Z</time>
      </trkpt>
      <trkpt lat="47.56939" lon="-2.35253">
        <ele>78.800003051758</ele>
        <time>2020-07-26T07:22:51.000Z</time>
      </trkpt>
      <trkpt lat="47.56939" lon="-2.35258">
        <ele>79.199996948242</ele>
        <time>2020-07-26T07:22:52.000Z</time>
      </trkpt>
      <trkpt lat="47.5694" lon="-2.35263">
        <ele>79.599998474121</ele>
        <time>2020-07-26T07:22:53.000Z</time>
      </trkpt>
      <trkpt lat="47.56941" lon="-2.35269">
        <ele>80</ele>
        <time>2020-07-26T07:22:54.000Z</time>
      </trkpt>
      <trkpt lat="47.56944" lon="-2.35282">
        <ele>80</ele>
        <time>2020-07-26T07:22:56.000Z</time>
      </trkpt>
      <trkpt lat="47.56947" lon="-2.35297">
        <ele>80</ele>
        <time>2020-07-26T07:22:58.000Z</time>
      </trkpt>
      <trkpt lat="47.56943" lon="-2.35323">
        <ele>80</ele>
        <time>2020-07-26T07:23:02.000Z</time>
      </trkpt>
      <trkpt lat="47.56927" lon="-2.35327">
        <ele>80</ele>
        <time>2020-07-26T07:23:06.000Z</time>
      </trkpt>
      <trkpt lat="47.56906" lon="-2.35324">
        <ele>80</ele>
        <time>2020-07-26T07:23:11.000Z</time>
      </trkpt>
      <trkpt lat="47.56889" lon="-2.35331">
        <ele>80</ele>
        <time>2020-07-26T07:23:16.000Z</time>
      </trkpt>
      <trkpt lat="47.56874" lon="-2.35354">
        <ele>80</ele>
        <time>2020-07-26T07:23:22.000Z</time>
      </trkpt>
      <trkpt lat="47.56868" lon="-2.35379">
        <ele>80</ele>
        <time>2020-07-26T07:23:27.000Z</time>
      </trkpt>
      <trkpt lat="47.56863" lon="-2.35419">
        <ele>80.400001525879</ele>
        <time>2020-07-26T07:23:35.000Z</time>
      </trkpt>
      <trkpt lat="47.56863" lon="-2.35425">
        <ele>80.800003051758</ele>
        <time>2020-07-26T07:23:36.000Z</time>
      </trkpt>
      <trkpt lat="47.56863" lon="-2.35432">
        <ele>81.400001525879</ele>
        <time>2020-07-26T07:23:37.000Z</time>
      </trkpt>
      <trkpt lat="47.56862" lon="-2.35438">
        <ele>81.800003051758</ele>
        <time>2020-07-26T07:23:38.000Z</time>
      </trkpt>
      <trkpt lat="47.56862" lon="-2.35444">
        <ele>82.199996948242</ele>
        <time>2020-07-26T07:23:39.000Z</time>
      </trkpt>
      <trkpt lat="47.56861" lon="-2.35468">
        <ele>82.199996948242</ele>
        <time>2020-07-26T07:23:43.000Z</time>
      </trkpt>
      <trkpt lat="47.5686" lon="-2.35508">
        <ele>82.199996948242</ele>
        <time>2020-07-26T07:23:49.000Z</time>
      </trkpt>
      <trkpt lat="47.5686" lon="-2.35521">
        <ele>82.199996948242</ele>
        <time>2020-07-26T07:23:51.000Z</time>
      </trkpt>
      <trkpt lat="47.56859" lon="-2.35569">
        <ele>82.199996948242</ele>
        <time>2020-07-26T07:23:59.000Z</time>
      </trkpt>
      <trkpt lat="47.56863" lon="-2.35596">
        <ele>82.199996948242</ele>
        <time>2020-07-26T07:24:04.000Z</time>
      </trkpt>
      <trkpt lat="47.56866" lon="-2.35614">
        <ele>82.199996948242</ele>
        <time>2020-07-26T07:24:07.000Z</time>
      </trkpt>
      <trkpt lat="47.56869" lon="-2.35632">
        <ele>82.199996948242</ele>
        <time>2020-07-26T07:24:10.000Z</time>
      </trkpt>
      <trkpt lat="47.56871" lon="-2.35684">
        <ele>82.599998474121</ele>
        <time>2020-07-26T07:24:18.000Z</time>
      </trkpt>
      <trkpt lat="47.56872" lon="-2.3569">
        <ele>83</ele>
        <time>2020-07-26T07:24:19.000Z</time>
      </trkpt>
      <trkpt lat="47.56872" lon="-2.35697">
        <ele>83.400001525879</ele>
        <time>2020-07-26T07:24:20.000Z</time>
      </trkpt>
      <trkpt lat="47.56872" lon="-2.35703">
        <ele>83.800003051758</ele>
        <time>2020-07-26T07:24:21.000Z</time>
      </trkpt>
      <trkpt lat="47.56872" lon="-2.35709">
        <ele>84.199996948242</ele>
        <time>2020-07-26T07:24:22.000Z</time>
      </trkpt>
      <trkpt lat="47.56872" lon="-2.35727">
        <ele>84.199996948242</ele>
        <time>2020-07-26T07:24:25.000Z</time>
      </trkpt>
      <trkpt lat="47.56868" lon="-2.35762">
        <ele>84.199996948242</ele>
        <time>2020-07-26T07:24:31.000Z</time>
      </trkpt>
      <trkpt lat="47.56865" lon="-2.35787">
        <ele>84.199996948242</ele>
        <time>2020-07-26T07:24:35.000Z</time>
      </trkpt>
      <trkpt lat="47.56865" lon="-2.358">
        <ele>84.199996948242</ele>
        <time>2020-07-26T07:24:37.000Z</time>
      </trkpt>
      <trkpt lat="47.56867" lon="-2.35819">
        <ele>84.199996948242</ele>
        <time>2020-07-26T07:24:40.000Z</time>
      </trkpt>
      <trkpt lat="47.56872" lon="-2.35836">
        <ele>84.199996948242</ele>
        <time>2020-07-26T07:24:43.000Z</time>
      </trkpt>
      <trkpt lat="47.56877" lon="-2.35853">
        <ele>84.199996948242</ele>
        <time>2020-07-26T07:24:46.000Z</time>
      </trkpt>
      <trkpt lat="47.56885" lon="-2.35877">
        <ele>84.199996948242</ele>
        <time>2020-07-26T07:24:50.000Z</time>
      </trkpt>
      <trkpt lat="47.56899" lon="-2.35893">
        <ele>84.199996948242</ele>
        <time>2020-07-26T07:24:54.000Z</time>
      </trkpt>
      <trkpt lat="47.56906" lon="-2.35909">
        <ele>84.199996948242</ele>
        <time>2020-07-26T07:24:57.000Z</time>
      </trkpt>
      <trkpt lat="47.56908" lon="-2.35926">
        <ele>84.199996948242</ele>
        <time>2020-07-26T07:24:59.000Z</time>
      </trkpt>
      <trkpt lat="47.5691" lon="-2.35941">
        <ele>84.199996948242</ele>
        <time>2020-07-26T07:25:01.000Z</time>
      </trkpt>
      <trkpt lat="47.56911" lon="-2.35948">
        <ele>83.800003051758</ele>
        <time>2020-07-26T07:25:02.000Z</time>
      </trkpt>
      <trkpt lat="47.56911" lon="-2.35955">
        <ele>83.400001525879</ele>
        <time>2020-07-26T07:25:03.000Z</time>
      </trkpt>
      <trkpt lat="47.5691" lon="-2.35961">
        <ele>83</ele>
        <time>2020-07-26T07:25:04.000Z</time>
      </trkpt>
      <trkpt lat="47.5691" lon="-2.35968">
        <ele>82.599998474121</ele>
        <time>2020-07-26T07:25:05.000Z</time>
      </trkpt>
      <trkpt lat="47.56909" lon="-2.35972">
        <ele>82.199996948242</ele>
        <time>2020-07-26T07:25:06.000Z</time>
      </trkpt>
      <trkpt lat="47.56902" lon="-2.35986">
        <ele>82.199996948242</ele>
        <time>2020-07-26T07:25:09.000Z</time>
      </trkpt>
      <trkpt lat="47.56892" lon="-2.36009">
        <ele>82.199996948242</ele>
        <time>2020-07-26T07:25:14.000Z</time>
      </trkpt>
      <trkpt lat="47.56895" lon="-2.3603">
        <ele>82.199996948242</ele>
        <time>2020-07-26T07:25:18.000Z</time>
      </trkpt>
      <trkpt lat="47.56898" lon="-2.36044">
        <ele>82.199996948242</ele>
        <time>2020-07-26T07:25:21.000Z</time>
      </trkpt>
      <trkpt lat="47.56902" lon="-2.36057">
        <ele>82.199996948242</ele>
        <time>2020-07-26T07:25:24.000Z</time>
      </trkpt>
      <trkpt lat="47.56911" lon="-2.36078">
        <ele>82.199996948242</ele>
        <time>2020-07-26T07:25:29.000Z</time>
      </trkpt>
      <trkpt lat="47.56913" lon="-2.36089">
        <ele>82.199996948242</ele>
        <time>2020-07-26T07:25:31.000Z</time>
      </trkpt>
      <trkpt lat="47.56911" lon="-2.36102">
        <ele>82.199996948242</ele>
        <time>2020-07-26T07:25:33.000Z</time>
      </trkpt>
      <trkpt lat="47.56898" lon="-2.36142">
        <ele>82.199996948242</ele>
        <time>2020-07-26T07:25:39.000Z</time>
      </trkpt>
      <trkpt lat="47.56894" lon="-2.36146">
        <ele>82.199996948242</ele>
        <time>2020-07-26T07:25:40.000Z</time>
      </trkpt>
      <trkpt lat="47.5688" lon="-2.36154">
        <ele>82.199996948242</ele>
        <time>2020-07-26T07:25:43.000Z</time>
      </trkpt>
      <trkpt lat="47.56876" lon="-2.36157">
        <ele>82.199996948242</ele>
        <time>2020-07-26T07:25:44.000Z</time>
      </trkpt>
      <trkpt lat="47.56851" lon="-2.36168">
        <ele>82.199996948242</ele>
        <time>2020-07-26T07:25:48.000Z</time>
      </trkpt>
      <trkpt lat="47.56845" lon="-2.36169">
        <ele>81.800003051758</ele>
        <time>2020-07-26T07:25:49.000Z</time>
      </trkpt>
      <trkpt lat="47.56839" lon="-2.36168">
        <ele>81</ele>
        <time>2020-07-26T07:25:50.000Z</time>
      </trkpt>
      <trkpt lat="47.56833" lon="-2.36166">
        <ele>80.599998474121</ele>
        <time>2020-07-26T07:25:51.000Z</time>
      </trkpt>
      <trkpt lat="47.56828" lon="-2.36165">
        <ele>80.199996948242</ele>
        <time>2020-07-26T07:25:52.000Z</time>
      </trkpt>
      <trkpt lat="47.56806" lon="-2.36164">
        <ele>80.199996948242</ele>
        <time>2020-07-26T07:25:55.000Z</time>
      </trkpt>
      <trkpt lat="47.56798" lon="-2.36165">
        <ele>80.199996948242</ele>
        <time>2020-07-26T07:25:56.000Z</time>
      </trkpt>
      <trkpt lat="47.56755" lon="-2.36173">
        <ele>80.199996948242</ele>
        <time>2020-07-26T07:26:02.000Z</time>
      </trkpt>
      <trkpt lat="47.56733" lon="-2.36175">
        <ele>80.199996948242</ele>
        <time>2020-07-26T07:26:06.000Z</time>
      </trkpt>
      <trkpt lat="47.56729" lon="-2.36178">
        <ele>79.800003051758</ele>
        <time>2020-07-26T07:26:07.000Z</time>
      </trkpt>
      <trkpt lat="47.56726" lon="-2.36182">
        <ele>79.199996948242</ele>
        <time>2020-07-26T07:26:08.000Z</time>
      </trkpt>
      <trkpt lat="47.56725" lon="-2.36187">
        <ele>78.800003051758</ele>
        <time>2020-07-26T07:26:09.000Z</time>
      </trkpt>
      <trkpt lat="47.56725" lon="-2.36192">
        <ele>78.400001525879</ele>
        <time>2020-07-26T07:26:10.000Z</time>
      </trkpt>
      <trkpt lat="47.56725" lon="-2.36198">
        <ele>78</ele>
        <time>2020-07-26T07:26:11.000Z</time>
      </trkpt>
      <trkpt lat="47.56726" lon="-2.36204">
        <ele>78</ele>
        <time>2020-07-26T07:26:12.000Z</time>
      </trkpt>
      <trkpt lat="47.56728" lon="-2.36224">
        <ele>78</ele>
        <time>2020-07-26T07:26:15.000Z</time>
      </trkpt>
      <trkpt lat="47.56728" lon="-2.36234">
        <ele>77.599998474121</ele>
        <time>2020-07-26T07:26:17.000Z</time>
      </trkpt>
      <trkpt lat="47.56725" lon="-2.36238">
        <ele>77</ele>
        <time>2020-07-26T07:26:18.000Z</time>
      </trkpt>
      <trkpt lat="47.5672" lon="-2.3624">
        <ele>76.599998474121</ele>
        <time>2020-07-26T07:26:19.000Z</time>
      </trkpt>
      <trkpt lat="47.56713" lon="-2.36241">
        <ele>76.199996948242</ele>
        <time>2020-07-26T07:26:20.000Z</time>
      </trkpt>
      <trkpt lat="47.56705" lon="-2.36241">
        <ele>75.599998474121</ele>
        <time>2020-07-26T07:26:21.000Z</time>
      </trkpt>
      <trkpt lat="47.56696" lon="-2.3624">
        <ele>75.199996948242</ele>
        <time>2020-07-26T07:26:22.000Z</time>
      </trkpt>
      <trkpt lat="47.56688" lon="-2.3624">
        <ele>74.800003051758</ele>
        <time>2020-07-26T07:26:23.000Z</time>
      </trkpt>
      <trkpt lat="47.56679" lon="-2.36239">
        <ele>74.400001525879</ele>
        <time>2020-07-26T07:26:24.000Z</time>
      </trkpt>
      <trkpt lat="47.56671" lon="-2.36237">
        <ele>74</ele>
        <time>2020-07-26T07:26:25.000Z</time>
      </trkpt>
      <trkpt lat="47.56661" lon="-2.36235">
        <ele>73.400001525879</ele>
        <time>2020-07-26T07:26:26.000Z</time>
      </trkpt>
      <trkpt lat="47.56652" lon="-2.36233">
        <ele>72.800003051758</ele>
        <time>2020-07-26T07:26:27.000Z</time>
      </trkpt>
      <trkpt lat="47.56643" lon="-2.36231">
        <ele>72</ele>
        <time>2020-07-26T07:26:28.000Z</time>
      </trkpt>
      <trkpt lat="47.56634" lon="-2.36229">
        <ele>71.199996948242</ele>
        <time>2020-07-26T07:26:29.000Z</time>
      </trkpt>
      <trkpt lat="47.56626" lon="-2.36227">
        <ele>70.199996948242</ele>
        <time>2020-07-26T07:26:30.000Z</time>
      </trkpt>
      <trkpt lat="47.56617" lon="-2.36226">
        <ele>69.400001525879</ele>
        <time>2020-07-26T07:26:31.000Z</time>
      </trkpt>
      <trkpt lat="47.56609" lon="-2.36226">
        <ele>68.400001525879</ele>
        <time>2020-07-26T07:26:32.000Z</time>
      </trkpt>
      <trkpt lat="47.56601" lon="-2.36226">
        <ele>67.400001525879</ele>
        <time>2020-07-26T07:26:33.000Z</time>
      </trkpt>
      <trkpt lat="47.56592" lon="-2.36226">
        <ele>66.400001525879</ele>
        <time>2020-07-26T07:26:34.000Z</time>
      </trkpt>
      <trkpt lat="47.56584" lon="-2.36227">
        <ele>65.599998474121</ele>
        <time>2020-07-26T07:26:35.000Z</time>
      </trkpt>
      <trkpt lat="47.56576" lon="-2.36228">
        <ele>64.800003051758</ele>
        <time>2020-07-26T07:26:36.000Z</time>
      </trkpt>
      <trkpt lat="47.56566" lon="-2.3623">
        <ele>64</ele>
        <time>2020-07-26T07:26:37.000Z</time>
      </trkpt>
      <trkpt lat="47.56557" lon="-2.36234">
        <ele>62.200000762939</ele>
        <time>2020-07-26T07:26:38.000Z</time>
      </trkpt>
      <trkpt lat="47.5655" lon="-2.36235">
        <ele>61</ele>
        <time>2020-07-26T07:26:39.000Z</time>
      </trkpt>
      <trkpt lat="47.56544" lon="-2.36237">
        <ele>59.799999237061</ele>
        <time>2020-07-26T07:26:40.000Z</time>
      </trkpt>
      <trkpt lat="47.5654" lon="-2.3624">
        <ele>58.599998474121</ele>
        <time>2020-07-26T07:26:41.000Z</time>
      </trkpt>
      <trkpt lat="47.56537" lon="-2.36243">
        <ele>57.400001525879</ele>
        <time>2020-07-26T07:26:42.000Z</time>
      </trkpt>
      <trkpt lat="47.56537" lon="-2.36247">
        <ele>56.200000762939</ele>
        <time>2020-07-26T07:26:43.000Z</time>
      </trkpt>
      <trkpt lat="47.56538" lon="-2.36251">
        <ele>55.200000762939</ele>
        <time>2020-07-26T07:26:44.000Z</time>
      </trkpt>
      <trkpt lat="47.56538" lon="-2.36262">
        <ele>54</ele>
        <time>2020-07-26T07:26:45.000Z</time>
      </trkpt>
      <trkpt lat="47.56527" lon="-2.36293">
        <ele>54</ele>
        <time>2020-07-26T07:26:48.000Z</time>
      </trkpt>
      <trkpt lat="47.56521" lon="-2.36304">
        <ele>54</ele>
        <time>2020-07-26T07:26:49.000Z</time>
      </trkpt>
      <trkpt lat="47.56498" lon="-2.36344">
        <ele>54</ele>
        <time>2020-07-26T07:26:53.000Z</time>
      </trkpt>
      <trkpt lat="47.56492" lon="-2.36351">
        <ele>54</ele>
        <time>2020-07-26T07:26:54.000Z</time>
      </trkpt>
      <trkpt lat="47.56472" lon="-2.36361">
        <ele>53.599998474121</ele>
        <time>2020-07-26T07:26:57.000Z</time>
      </trkpt>
      <trkpt lat="47.56466" lon="-2.36363">
        <ele>53.200000762939</ele>
        <time>2020-07-26T07:26:58.000Z</time>
      </trkpt>
      <trkpt lat="47.56461" lon="-2.36364">
        <ele>52.799999237061</ele>
        <time>2020-07-26T07:26:59.000Z</time>
      </trkpt>
      <trkpt lat="47.56457" lon="-2.36366">
        <ele>52.400001525879</ele>
        <time>2020-07-26T07:27:00.000Z</time>
      </trkpt>
      <trkpt lat="47.56454" lon="-2.36368">
        <ele>52</ele>
        <time>2020-07-26T07:27:01.000Z</time>
      </trkpt>
      <trkpt lat="47.56452" lon="-2.36372">
        <ele>52</ele>
        <time>2020-07-26T07:27:02.000Z</time>
      </trkpt>
      <trkpt lat="47.56449" lon="-2.36381">
        <ele>52</ele>
        <time>2020-07-26T07:27:04.000Z</time>
      </trkpt>
      <trkpt lat="47.56452" lon="-2.364">
        <ele>52</ele>
        <time>2020-07-26T07:27:07.000Z</time>
      </trkpt>
      <trkpt lat="47.56456" lon="-2.36416">
        <ele>52</ele>
        <time>2020-07-26T07:27:09.000Z</time>
      </trkpt>
      <trkpt lat="47.56458" lon="-2.36424">
        <ele>52</ele>
        <time>2020-07-26T07:27:10.000Z</time>
      </trkpt>
      <trkpt lat="47.5646" lon="-2.36433">
        <ele>52</ele>
        <time>2020-07-26T07:27:11.000Z</time>
      </trkpt>
      <trkpt lat="47.56472" lon="-2.36483">
        <ele>52</ele>
        <time>2020-07-26T07:27:17.000Z</time>
      </trkpt>
      <trkpt lat="47.56484" lon="-2.36538">
        <ele>52</ele>
        <time>2020-07-26T07:27:24.000Z</time>
      </trkpt>
      <trkpt lat="47.56491" lon="-2.3658">
        <ele>52.400001525879</ele>
        <time>2020-07-26T07:27:30.000Z</time>
      </trkpt>
      <trkpt lat="47.56492" lon="-2.36586">
        <ele>52.799999237061</ele>
        <time>2020-07-26T07:27:31.000Z</time>
      </trkpt>
      <trkpt lat="47.56491" lon="-2.36592">
        <ele>53.200000762939</ele>
        <time>2020-07-26T07:27:32.000Z</time>
      </trkpt>
      <trkpt lat="47.56489" lon="-2.36597">
        <ele>53.599998474121</ele>
        <time>2020-07-26T07:27:33.000Z</time>
      </trkpt>
      <trkpt lat="47.56486" lon="-2.36602">
        <ele>54</ele>
        <time>2020-07-26T07:27:34.000Z</time>
      </trkpt>
      <trkpt lat="47.5647" lon="-2.3661">
        <ele>54</ele>
        <time>2020-07-26T07:27:38.000Z</time>
      </trkpt>
      <trkpt lat="47.56465" lon="-2.36611">
        <ele>54.400001525879</ele>
        <time>2020-07-26T07:27:39.000Z</time>
      </trkpt>
      <trkpt lat="47.5646" lon="-2.36612">
        <ele>54.799999237061</ele>
        <time>2020-07-26T07:27:40.000Z</time>
      </trkpt>
      <trkpt lat="47.56456" lon="-2.36613">
        <ele>55.200000762939</ele>
        <time>2020-07-26T07:27:41.000Z</time>
      </trkpt>
      <trkpt lat="47.56452" lon="-2.36614">
        <ele>55.599998474121</ele>
        <time>2020-07-26T07:27:42.000Z</time>
      </trkpt>
      <trkpt lat="47.56447" lon="-2.36615">
        <ele>56</ele>
        <time>2020-07-26T07:27:43.000Z</time>
      </trkpt>
      <trkpt lat="47.56428" lon="-2.3662">
        <ele>56</ele>
        <time>2020-07-26T07:27:47.000Z</time>
      </trkpt>
      <trkpt lat="47.56404" lon="-2.36629">
        <ele>56</ele>
        <time>2020-07-26T07:27:53.000Z</time>
      </trkpt>
      <trkpt lat="47.564" lon="-2.36632">
        <ele>56</ele>
        <time>2020-07-26T07:27:54.000Z</time>
      </trkpt>
      <trkpt lat="47.56389" lon="-2.3665">
        <ele>56</ele>
        <time>2020-07-26T07:27:58.000Z</time>
      </trkpt>
      <trkpt lat="47.56387" lon="-2.36661">
        <ele>56</ele>
        <time>2020-07-26T07:28:00.000Z</time>
      </trkpt>
      <trkpt lat="47.56387" lon="-2.36666">
        <ele>56.400001525879</ele>
        <time>2020-07-26T07:28:01.000Z</time>
      </trkpt>
      <trkpt lat="47.56386" lon="-2.36671">
        <ele>57</ele>
        <time>2020-07-26T07:28:02.000Z</time>
      </trkpt>
      <trkpt lat="47.56386" lon="-2.36676">
        <ele>57.400001525879</ele>
        <time>2020-07-26T07:28:03.000Z</time>
      </trkpt>
      <trkpt lat="47.56384" lon="-2.3668">
        <ele>57.799999237061</ele>
        <time>2020-07-26T07:28:04.000Z</time>
      </trkpt>
      <trkpt lat="47.56381" lon="-2.36684">
        <ele>58.200000762939</ele>
        <time>2020-07-26T07:28:05.000Z</time>
      </trkpt>
      <trkpt lat="47.56374" lon="-2.36688">
        <ele>58.200000762939</ele>
        <time>2020-07-26T07:28:07.000Z</time>
      </trkpt>
      <trkpt lat="47.5635" lon="-2.36697">
        <ele>58.200000762939</ele>
        <time>2020-07-26T07:28:13.000Z</time>
      </trkpt>
      <trkpt lat="47.56309" lon="-2.36714">
        <ele>58.200000762939</ele>
        <time>2020-07-26T07:28:22.000Z</time>
      </trkpt>
      <trkpt lat="47.56277" lon="-2.36728">
        <ele>57.799999237061</ele>
        <time>2020-07-26T07:28:27.000Z</time>
      </trkpt>
      <trkpt lat="47.5627" lon="-2.36731">
        <ele>57.200000762939</ele>
        <time>2020-07-26T07:28:28.000Z</time>
      </trkpt>
      <trkpt lat="47.56263" lon="-2.36734">
        <ele>56.799999237061</ele>
        <time>2020-07-26T07:28:29.000Z</time>
      </trkpt>
      <trkpt lat="47.56255" lon="-2.36737">
        <ele>56.200000762939</ele>
        <time>2020-07-26T07:28:30.000Z</time>
      </trkpt>
      <trkpt lat="47.56248" lon="-2.36741">
        <ele>55.599998474121</ele>
        <time>2020-07-26T07:28:31.000Z</time>
      </trkpt>
      <trkpt lat="47.56239" lon="-2.36744">
        <ele>55</ele>
        <time>2020-07-26T07:28:32.000Z</time>
      </trkpt>
      <trkpt lat="47.56231" lon="-2.36747">
        <ele>54.400001525879</ele>
        <time>2020-07-26T07:28:33.000Z</time>
      </trkpt>
      <trkpt lat="47.56222" lon="-2.36751">
        <ele>53.799999237061</ele>
        <time>2020-07-26T07:28:34.000Z</time>
      </trkpt>
      <trkpt lat="47.56212" lon="-2.36754">
        <ele>53</ele>
        <time>2020-07-26T07:28:35.000Z</time>
      </trkpt>
      <trkpt lat="47.56203" lon="-2.36758">
        <ele>52.400001525879</ele>
        <time>2020-07-26T07:28:36.000Z</time>
      </trkpt>
      <trkpt lat="47.56194" lon="-2.36761">
        <ele>51.599998474121</ele>
        <time>2020-07-26T07:28:37.000Z</time>
      </trkpt>
      <trkpt lat="47.56186" lon="-2.36764">
        <ele>51</ele>
        <time>2020-07-26T07:28:38.000Z</time>
      </trkpt>
      <trkpt lat="47.56177" lon="-2.36766">
        <ele>50.400001525879</ele>
        <time>2020-07-26T07:28:39.000Z</time>
      </trkpt>
      <trkpt lat="47.56169" lon="-2.36768">
        <ele>49.599998474121</ele>
        <time>2020-07-26T07:28:40.000Z</time>
      </trkpt>
      <trkpt lat="47.5616" lon="-2.3677">
        <ele>47.799999237061</ele>
        <time>2020-07-26T07:28:41.000Z</time>
      </trkpt>
      <trkpt lat="47.56151" lon="-2.36772">
        <ele>47</ele>
        <time>2020-07-26T07:28:42.000Z</time>
      </trkpt>
      <trkpt lat="47.56143" lon="-2.36775">
        <ele>46.400001525879</ele>
        <time>2020-07-26T07:28:43.000Z</time>
      </trkpt>
      <trkpt lat="47.56135" lon="-2.36777">
        <ele>45.799999237061</ele>
        <time>2020-07-26T07:28:44.000Z</time>
      </trkpt>
      <trkpt lat="47.56127" lon="-2.36779">
        <ele>45</ele>
        <time>2020-07-26T07:28:45.000Z</time>
      </trkpt>
      <trkpt lat="47.56119" lon="-2.36781">
        <ele>44.400001525879</ele>
        <time>2020-07-26T07:28:46.000Z</time>
      </trkpt>
      <trkpt lat="47.56111" lon="-2.36784">
        <ele>43.799999237061</ele>
        <time>2020-07-26T07:28:47.000Z</time>
      </trkpt>
      <trkpt lat="47.56095" lon="-2.36787">
        <ele>43.400001525879</ele>
        <time>2020-07-26T07:28:49.000Z</time>
      </trkpt>
      <trkpt lat="47.56088" lon="-2.36788">
        <ele>43</ele>
        <time>2020-07-26T07:28:50.000Z</time>
      </trkpt>
      <trkpt lat="47.56081" lon="-2.36789">
        <ele>42.599998474121</ele>
        <time>2020-07-26T07:28:51.000Z</time>
      </trkpt>
      <trkpt lat="47.56075" lon="-2.3679">
        <ele>42.200000762939</ele>
        <time>2020-07-26T07:28:52.000Z</time>
      </trkpt>
      <trkpt lat="47.56069" lon="-2.36791">
        <ele>41.799999237061</ele>
        <time>2020-07-26T07:28:53.000Z</time>
      </trkpt>
      <trkpt lat="47.56058" lon="-2.36787">
        <ele>41.799999237061</ele>
        <time>2020-07-26T07:28:56.000Z</time>
      </trkpt>
      <trkpt lat="47.56055" lon="-2.36769">
        <ele>41.799999237061</ele>
        <time>2020-07-26T07:28:59.000Z</time>
      </trkpt>
      <trkpt lat="47.56046" lon="-2.36741">
        <ele>41.799999237061</ele>
        <time>2020-07-26T07:29:03.000Z</time>
      </trkpt>
      <trkpt lat="47.56044" lon="-2.36733">
        <ele>41.799999237061</ele>
        <time>2020-07-26T07:29:04.000Z</time>
      </trkpt>
      <trkpt lat="47.56038" lon="-2.3671">
        <ele>41.200000762939</ele>
        <time>2020-07-26T07:29:08.000Z</time>
      </trkpt>
      <trkpt lat="47.56038" lon="-2.36709">
        <ele>40.799999237061</ele>
        <time>2020-07-26T07:29:09.000Z</time>
      </trkpt>
      <trkpt lat="47.56038" lon="-2.36707">
        <ele>40.400001525879</ele>
        <time>2020-07-26T07:29:10.000Z</time>
      </trkpt>
      <trkpt lat="47.56038" lon="-2.36707">
        <ele>40</ele>
        <time>2020-07-26T07:29:11.000Z</time>
      </trkpt>
      <trkpt lat="47.56037" lon="-2.36706">
        <ele>39.599998474121</ele>
        <time>2020-07-26T07:29:12.000Z</time>
      </trkpt>
      <trkpt lat="47.56037" lon="-2.36704">
        <ele>39.599998474121</ele>
        <time>2020-07-26T07:29:13.000Z</time>
      </trkpt>
      <trkpt lat="47.56033" lon="-2.36697">
        <ele>39.599998474121</ele>
        <time>2020-07-26T07:29:17.000Z</time>
      </trkpt>
      <trkpt lat="47.56033" lon="-2.36696">
        <ele>39.599998474121</ele>
        <time>2020-07-26T07:29:18.000Z</time>
      </trkpt>
      <trkpt lat="47.56028" lon="-2.36687">
        <ele>39.599998474121</ele>
        <time>2020-07-26T07:29:24.000Z</time>
      </trkpt>
      <trkpt lat="47.56028" lon="-2.36686">
        <ele>39.599998474121</ele>
        <time>2020-07-26T07:29:26.000Z</time>
      </trkpt>
      <trkpt lat="47.56019" lon="-2.36689">
        <ele>39.599998474121</ele>
        <time>2020-07-26T07:30:05.000Z</time>
      </trkpt>
      <trkpt lat="47.56019" lon="-2.36689">
        <ele>39.599998474121</ele>
        <time>2020-07-26T07:30:06.000Z</time>
      </trkpt>
      <trkpt lat="47.56016" lon="-2.3669">
        <ele>39.599998474121</ele>
        <time>2020-07-26T07:30:08.000Z</time>
      </trkpt>
      <trkpt lat="47.56008" lon="-2.36692">
        <ele>39.599998474121</ele>
        <time>2020-07-26T07:30:12.000Z</time>
      </trkpt>
      <trkpt lat="47.56006" lon="-2.36691">
        <ele>39.599998474121</ele>
        <time>2020-07-26T07:30:13.000Z</time>
      </trkpt>
      <trkpt lat="47.55998" lon="-2.36691">
        <ele>39.599998474121</ele>
        <time>2020-07-26T07:30:17.000Z</time>
      </trkpt>
      <trkpt lat="47.55996" lon="-2.36691">
        <ele>40</ele>
        <time>2020-07-26T07:30:18.000Z</time>
      </trkpt>
      <trkpt lat="47.55994" lon="-2.36692">
        <ele>40.400001525879</ele>
        <time>2020-07-26T07:30:19.000Z</time>
      </trkpt>
      <trkpt lat="47.55992" lon="-2.36693">
        <ele>41.200000762939</ele>
        <time>2020-07-26T07:30:20.000Z</time>
      </trkpt>
      <trkpt lat="47.55991" lon="-2.36695">
        <ele>41.599998474121</ele>
        <time>2020-07-26T07:30:21.000Z</time>
      </trkpt>
      <trkpt lat="47.55987" lon="-2.36696">
        <ele>41.599998474121</ele>
        <time>2020-07-26T07:30:23.000Z</time>
      </trkpt>
      <trkpt lat="47.55985" lon="-2.36698">
        <ele>42</ele>
        <time>2020-07-26T07:30:25.000Z</time>
      </trkpt>
      <trkpt lat="47.55983" lon="-2.36699">
        <ele>42.400001525879</ele>
        <time>2020-07-26T07:30:26.000Z</time>
      </trkpt>
      <trkpt lat="47.55982" lon="-2.367">
        <ele>42.799999237061</ele>
        <time>2020-07-26T07:30:27.000Z</time>
      </trkpt>
      <trkpt lat="47.55981" lon="-2.36701">
        <ele>43.200000762939</ele>
        <time>2020-07-26T07:30:28.000Z</time>
      </trkpt>
      <trkpt lat="47.55979" lon="-2.36702">
        <ele>43.799999237061</ele>
        <time>2020-07-26T07:30:29.000Z</time>
      </trkpt>
      <trkpt lat="47.55972" lon="-2.3671">
        <ele>43.799999237061</ele>
        <time>2020-07-26T07:30:35.000Z</time>
      </trkpt>
      <trkpt lat="47.55959" lon="-2.36723">
        <ele>43.799999237061</ele>
        <time>2020-07-26T07:30:41.000Z</time>
      </trkpt>
      <trkpt lat="47.55948" lon="-2.36732">
        <ele>44.200000762939</ele>
        <time>2020-07-26T07:30:46.000Z</time>
      </trkpt>
      <trkpt lat="47.55947" lon="-2.36733">
        <ele>44.599998474121</ele>
        <time>2020-07-26T07:30:47.000Z</time>
      </trkpt>
      <trkpt lat="47.55945" lon="-2.36735">
        <ele>45</ele>
        <time>2020-07-26T07:30:48.000Z</time>
      </trkpt>
      <trkpt lat="47.55944" lon="-2.36736">
        <ele>45.400001525879</ele>
        <time>2020-07-26T07:30:49.000Z</time>
      </trkpt>
      <trkpt lat="47.55943" lon="-2.36738">
        <ele>45.799999237061</ele>
        <time>2020-07-26T07:30:50.000Z</time>
      </trkpt>
      <trkpt lat="47.55941" lon="-2.36742">
        <ele>45.799999237061</ele>
        <time>2020-07-26T07:30:52.000Z</time>
      </trkpt>
      <trkpt lat="47.55939" lon="-2.36745">
        <ele>45.799999237061</ele>
        <time>2020-07-26T07:30:53.000Z</time>
      </trkpt>
      <trkpt lat="47.55934" lon="-2.3675">
        <ele>46.200000762939</ele>
        <time>2020-07-26T07:30:56.000Z</time>
      </trkpt>
      <trkpt lat="47.55932" lon="-2.36751">
        <ele>46.599998474121</ele>
        <time>2020-07-26T07:30:57.000Z</time>
      </trkpt>
      <trkpt lat="47.5593" lon="-2.36752">
        <ele>47</ele>
        <time>2020-07-26T07:30:58.000Z</time>
      </trkpt>
      <trkpt lat="47.55927" lon="-2.36753">
        <ele>47.599998474121</ele>
        <time>2020-07-26T07:30:59.000Z</time>
      </trkpt>
      <trkpt lat="47.55924" lon="-2.36754">
        <ele>48</ele>
        <time>2020-07-26T07:31:00.000Z</time>
      </trkpt>
      <trkpt lat="47.5592" lon="-2.3675">
        <ele>48.400001525879</ele>
        <time>2020-07-26T07:31:03.000Z</time>
      </trkpt>
      <trkpt lat="47.55919" lon="-2.36749">
        <ele>48.799999237061</ele>
        <time>2020-07-26T07:31:04.000Z</time>
      </trkpt>
      <trkpt lat="47.55918" lon="-2.36747">
        <ele>49.200000762939</ele>
        <time>2020-07-26T07:31:05.000Z</time>
      </trkpt>
      <trkpt lat="47.55918" lon="-2.36745">
        <ele>49.599998474121</ele>
        <time>2020-07-26T07:31:06.000Z</time>
      </trkpt>
      <trkpt lat="47.55918" lon="-2.36743">
        <ele>50</ele>
        <time>2020-07-26T07:31:07.000Z</time>
      </trkpt>
      <trkpt lat="47.55918" lon="-2.36729">
        <ele>50.400001525879</ele>
        <time>2020-07-26T07:31:12.000Z</time>
      </trkpt>
      <trkpt lat="47.55919" lon="-2.36725">
        <ele>50.799999237061</ele>
        <time>2020-07-26T07:31:13.000Z</time>
      </trkpt>
      <trkpt lat="47.55919" lon="-2.36721">
        <ele>51.200000762939</ele>
        <time>2020-07-26T07:31:14.000Z</time>
      </trkpt>
      <trkpt lat="47.55919" lon="-2.36718">
        <ele>51.599998474121</ele>
        <time>2020-07-26T07:31:15.000Z</time>
      </trkpt>
      <trkpt lat="47.55918" lon="-2.36715">
        <ele>52</ele>
        <time>2020-07-26T07:31:16.000Z</time>
      </trkpt>
      <trkpt lat="47.55918" lon="-2.36711">
        <ele>52</ele>
        <time>2020-07-26T07:31:17.000Z</time>
      </trkpt>
      <trkpt lat="47.55915" lon="-2.36677">
        <ele>52</ele>
        <time>2020-07-26T07:31:27.000Z</time>
      </trkpt>
      <trkpt lat="47.55909" lon="-2.36644">
        <ele>52</ele>
        <time>2020-07-26T07:31:34.000Z</time>
      </trkpt>
      <trkpt lat="47.55899" lon="-2.36616">
        <ele>52</ele>
        <time>2020-07-26T07:31:40.000Z</time>
      </trkpt>
      <trkpt lat="47.55889" lon="-2.36588">
        <ele>52</ele>
        <time>2020-07-26T07:31:46.000Z</time>
      </trkpt>
      <trkpt lat="47.55874" lon="-2.36543">
        <ele>52</ele>
        <time>2020-07-26T07:31:53.000Z</time>
      </trkpt>
      <trkpt lat="47.55859" lon="-2.36497">
        <ele>52</ele>
        <time>2020-07-26T07:32:00.000Z</time>
      </trkpt>
      <trkpt lat="47.55838" lon="-2.36445">
        <ele>52</ele>
        <time>2020-07-26T07:32:09.000Z</time>
      </trkpt>
      <trkpt lat="47.55836" lon="-2.36433">
        <ele>52</ele>
        <time>2020-07-26T07:32:13.000Z</time>
      </trkpt>
      <trkpt lat="47.55837" lon="-2.3643">
        <ele>52</ele>
        <time>2020-07-26T07:32:14.000Z</time>
      </trkpt>
      <trkpt lat="47.55839" lon="-2.36425">
        <ele>51.599998474121</ele>
        <time>2020-07-26T07:32:16.000Z</time>
      </trkpt>
      <trkpt lat="47.5584" lon="-2.36423">
        <ele>51.200000762939</ele>
        <time>2020-07-26T07:32:17.000Z</time>
      </trkpt>
      <trkpt lat="47.55841" lon="-2.3642">
        <ele>50.799999237061</ele>
        <time>2020-07-26T07:32:18.000Z</time>
      </trkpt>
      <trkpt lat="47.55842" lon="-2.36416">
        <ele>50.400001525879</ele>
        <time>2020-07-26T07:32:19.000Z</time>
      </trkpt>
      <trkpt lat="47.55841" lon="-2.36412">
        <ele>50</ele>
        <time>2020-07-26T07:32:20.000Z</time>
      </trkpt>
      <trkpt lat="47.55841" lon="-2.36407">
        <ele>49.599998474121</ele>
        <time>2020-07-26T07:32:21.000Z</time>
      </trkpt>
      <trkpt lat="47.55842" lon="-2.36401">
        <ele>49.200000762939</ele>
        <time>2020-07-26T07:32:22.000Z</time>
      </trkpt>
      <trkpt lat="47.55843" lon="-2.36395">
        <ele>48.799999237061</ele>
        <time>2020-07-26T07:32:23.000Z</time>
      </trkpt>
      <trkpt lat="47.55844" lon="-2.3639">
        <ele>47.799999237061</ele>
        <time>2020-07-26T07:32:24.000Z</time>
      </trkpt>
      <trkpt lat="47.55844" lon="-2.36383">
        <ele>47.200000762939</ele>
        <time>2020-07-26T07:32:25.000Z</time>
      </trkpt>
      <trkpt lat="47.55844" lon="-2.36377">
        <ele>46.599998474121</ele>
        <time>2020-07-26T07:32:26.000Z</time>
      </trkpt>
      <trkpt lat="47.55844" lon="-2.3637">
        <ele>46</ele>
        <time>2020-07-26T07:32:27.000Z</time>
      </trkpt>
      <trkpt lat="47.55844" lon="-2.36364">
        <ele>45.599998474121</ele>
        <time>2020-07-26T07:32:28.000Z</time>
      </trkpt>
      <trkpt lat="47.55843" lon="-2.36357">
        <ele>45.200000762939</ele>
        <time>2020-07-26T07:32:29.000Z</time>
      </trkpt>
      <trkpt lat="47.55842" lon="-2.36352">
        <ele>44.599998474121</ele>
        <time>2020-07-26T07:32:30.000Z</time>
      </trkpt>
      <trkpt lat="47.5584" lon="-2.36346">
        <ele>44.200000762939</ele>
        <time>2020-07-26T07:32:31.000Z</time>
      </trkpt>
      <trkpt lat="47.55839" lon="-2.36339">
        <ele>43.799999237061</ele>
        <time>2020-07-26T07:32:32.000Z</time>
      </trkpt>
      <trkpt lat="47.55837" lon="-2.3633">
        <ele>43.400001525879</ele>
        <time>2020-07-26T07:32:33.000Z</time>
      </trkpt>
      <trkpt lat="47.55834" lon="-2.3632">
        <ele>42.799999237061</ele>
        <time>2020-07-26T07:32:34.000Z</time>
      </trkpt>
      <trkpt lat="47.55832" lon="-2.36308">
        <ele>42.400001525879</ele>
        <time>2020-07-26T07:32:35.000Z</time>
      </trkpt>
      <trkpt lat="47.55829" lon="-2.36297">
        <ele>41.799999237061</ele>
        <time>2020-07-26T07:32:36.000Z</time>
      </trkpt>
      <trkpt lat="47.55825" lon="-2.36286">
        <ele>41</ele>
        <time>2020-07-26T07:32:37.000Z</time>
      </trkpt>
      <trkpt lat="47.55821" lon="-2.36277">
        <ele>40.400001525879</ele>
        <time>2020-07-26T07:32:38.000Z</time>
      </trkpt>
      <trkpt lat="47.55818" lon="-2.36268">
        <ele>39.799999237061</ele>
        <time>2020-07-26T07:32:39.000Z</time>
      </trkpt>
      <trkpt lat="47.55815" lon="-2.36259">
        <ele>39</ele>
        <time>2020-07-26T07:32:40.000Z</time>
      </trkpt>
      <trkpt lat="47.55804" lon="-2.36236">
        <ele>39</ele>
        <time>2020-07-26T07:32:43.000Z</time>
      </trkpt>
      <trkpt lat="47.55798" lon="-2.3622">
        <ele>38.599998474121</ele>
        <time>2020-07-26T07:32:45.000Z</time>
      </trkpt>
      <trkpt lat="47.55796" lon="-2.36212">
        <ele>38.200000762939</ele>
        <time>2020-07-26T07:32:46.000Z</time>
      </trkpt>
      <trkpt lat="47.55793" lon="-2.36203">
        <ele>37.400001525879</ele>
        <time>2020-07-26T07:32:47.000Z</time>
      </trkpt>
      <trkpt lat="47.5579" lon="-2.36196">
        <ele>37</ele>
        <time>2020-07-26T07:32:48.000Z</time>
      </trkpt>
      <trkpt lat="47.55777" lon="-2.36168">
        <ele>37</ele>
        <time>2020-07-26T07:32:53.000Z</time>
      </trkpt>
      <trkpt lat="47.55771" lon="-2.36156">
        <ele>37</ele>
        <time>2020-07-26T07:32:59.000Z</time>
      </trkpt>
      <trkpt lat="47.5577" lon="-2.36151">
        <ele>37</ele>
        <time>2020-07-26T07:33:51.000Z</time>
      </trkpt>
      <trkpt lat="47.55767" lon="-2.36142">
        <ele>37</ele>
        <time>2020-07-26T07:33:54.000Z</time>
      </trkpt>
      <trkpt lat="47.55765" lon="-2.3614">
        <ele>36.400001525879</ele>
        <time>2020-07-26T07:33:55.000Z</time>
      </trkpt>
      <trkpt lat="47.55764" lon="-2.36138">
        <ele>36</ele>
        <time>2020-07-26T07:33:56.000Z</time>
      </trkpt>
      <trkpt lat="47.55763" lon="-2.36138">
        <ele>35.599998474121</ele>
        <time>2020-07-26T07:33:57.000Z</time>
      </trkpt>
      <trkpt lat="47.55763" lon="-2.36136">
        <ele>35.200000762939</ele>
        <time>2020-07-26T07:33:58.000Z</time>
      </trkpt>
      <trkpt lat="47.55763" lon="-2.36136">
        <ele>34.799999237061</ele>
        <time>2020-07-26T07:33:59.000Z</time>
      </trkpt>
      <trkpt lat="47.55809" lon="-2.36115">
        <ele>37</ele>
        <time>2020-07-26T07:35:51.000Z</time>
      </trkpt>
      <trkpt lat="47.55818" lon="-2.36143">
        <ele>37</ele>
        <time>2020-07-26T07:35:58.000Z</time>
      </trkpt>
      <trkpt lat="47.55828" lon="-2.36166">
        <ele>37</ele>
        <time>2020-07-26T07:36:05.000Z</time>
      </trkpt>
      <trkpt lat="47.5584" lon="-2.36181">
        <ele>37</ele>
        <time>2020-07-26T07:36:12.000Z</time>
      </trkpt>
      <trkpt lat="47.55853" lon="-2.36187">
        <ele>37</ele>
        <time>2020-07-26T07:36:18.000Z</time>
      </trkpt>
      <trkpt lat="47.55857" lon="-2.36187">
        <ele>37.599998474121</ele>
        <time>2020-07-26T07:36:21.000Z</time>
      </trkpt>
      <trkpt lat="47.55855" lon="-2.36186">
        <ele>39.200000762939</ele>
        <time>2020-07-26T07:36:32.000Z</time>
      </trkpt>
      <trkpt lat="47.55854" lon="-2.36185">
        <ele>39.200000762939</ele>
        <time>2020-07-26T07:36:33.000Z</time>
      </trkpt>
      <trkpt lat="47.55847" lon="-2.36179">
        <ele>39.599998474121</ele>
        <time>2020-07-26T07:36:39.000Z</time>
      </trkpt>
      <trkpt lat="47.55846" lon="-2.36177">
        <ele>40.200000762939</ele>
        <time>2020-07-26T07:36:40.000Z</time>
      </trkpt>
      <trkpt lat="47.55844" lon="-2.36175">
        <ele>40.599998474121</ele>
        <time>2020-07-26T07:36:41.000Z</time>
      </trkpt>
      <trkpt lat="47.55843" lon="-2.36173">
        <ele>41</ele>
        <time>2020-07-26T07:36:42.000Z</time>
      </trkpt>
      <trkpt lat="47.55842" lon="-2.3617">
        <ele>41.400001525879</ele>
        <time>2020-07-26T07:36:43.000Z</time>
      </trkpt>
      <trkpt lat="47.55841" lon="-2.36167">
        <ele>41.400001525879</ele>
        <time>2020-07-26T07:36:44.000Z</time>
      </trkpt>
      <trkpt lat="47.5584" lon="-2.36161">
        <ele>41.400001525879</ele>
        <time>2020-07-26T07:36:46.000Z</time>
      </trkpt>
      <trkpt lat="47.55836" lon="-2.3615">
        <ele>41.400001525879</ele>
        <time>2020-07-26T07:36:50.000Z</time>
      </trkpt>
      <trkpt lat="47.55831" lon="-2.36131">
        <ele>41.400001525879</ele>
        <time>2020-07-26T07:36:55.000Z</time>
      </trkpt>
      <trkpt lat="47.55823" lon="-2.361">
        <ele>41.400001525879</ele>
        <time>2020-07-26T07:37:01.000Z</time>
      </trkpt>
      <trkpt lat="47.55824" lon="-2.36094">
        <ele>41.400001525879</ele>
        <time>2020-07-26T07:37:03.000Z</time>
      </trkpt>
      <trkpt lat="47.55824" lon="-2.36093">
        <ele>41.400001525879</ele>
        <time>2020-07-26T07:37:04.000Z</time>
      </trkpt>
      <trkpt lat="47.55826" lon="-2.36094">
        <ele>41.799999237061</ele>
        <time>2020-07-26T07:37:07.000Z</time>
      </trkpt>
      <trkpt lat="47.55827" lon="-2.36096">
        <ele>42.200000762939</ele>
        <time>2020-07-26T07:37:08.000Z</time>
      </trkpt>
      <trkpt lat="47.55828" lon="-2.36098">
        <ele>42.599998474121</ele>
        <time>2020-07-26T07:37:09.000Z</time>
      </trkpt>
      <trkpt lat="47.55829" lon="-2.36101">
        <ele>43</ele>
        <time>2020-07-26T07:37:10.000Z</time>
      </trkpt>
      <trkpt lat="47.5583" lon="-2.36103">
        <ele>43.400001525879</ele>
        <time>2020-07-26T07:37:11.000Z</time>
      </trkpt>
      <trkpt lat="47.55833" lon="-2.36105">
        <ele>43.400001525879</ele>
        <time>2020-07-26T07:37:12.000Z</time>
      </trkpt>
      <trkpt lat="47.55837" lon="-2.36106">
        <ele>43.400001525879</ele>
        <time>2020-07-26T07:37:14.000Z</time>
      </trkpt>
      <trkpt lat="47.55849" lon="-2.36117">
        <ele>43.400001525879</ele>
        <time>2020-07-26T07:37:20.000Z</time>
      </trkpt>
      <trkpt lat="47.55851" lon="-2.3612">
        <ele>43.400001525879</ele>
        <time>2020-07-26T07:37:21.000Z</time>
      </trkpt>
      <trkpt lat="47.55859" lon="-2.36134">
        <ele>43.400001525879</ele>
        <time>2020-07-26T07:37:26.000Z</time>
      </trkpt>
      <trkpt lat="47.5586" lon="-2.36136">
        <ele>43.400001525879</ele>
        <time>2020-07-26T07:37:27.000Z</time>
      </trkpt>
      <trkpt lat="47.55864" lon="-2.36136">
        <ele>43.400001525879</ele>
        <time>2020-07-26T07:37:29.000Z</time>
      </trkpt>
      <trkpt lat="47.55867" lon="-2.36135">
        <ele>43.400001525879</ele>
        <time>2020-07-26T07:37:31.000Z</time>
      </trkpt>
      <trkpt lat="47.55868" lon="-2.36135">
        <ele>43.400001525879</ele>
        <time>2020-07-26T07:37:32.000Z</time>
      </trkpt>
      <trkpt lat="47.55874" lon="-2.36135">
        <ele>43.400001525879</ele>
        <time>2020-07-26T07:37:35.000Z</time>
      </trkpt>
      <trkpt lat="47.55878" lon="-2.36139">
        <ele>43.400001525879</ele>
        <time>2020-07-26T07:37:38.000Z</time>
      </trkpt>
      <trkpt lat="47.55886" lon="-2.36135">
        <ele>43.799999237061</ele>
        <time>2020-07-26T07:37:43.000Z</time>
      </trkpt>
      <trkpt lat="47.55887" lon="-2.36134">
        <ele>44.599998474121</ele>
        <time>2020-07-26T07:37:44.000Z</time>
      </trkpt>
      <trkpt lat="47.55888" lon="-2.36133">
        <ele>45.200000762939</ele>
        <time>2020-07-26T07:37:45.000Z</time>
      </trkpt>
      <trkpt lat="47.5589" lon="-2.36131">
        <ele>45.599998474121</ele>
        <time>2020-07-26T07:37:46.000Z</time>
      </trkpt>
      <trkpt lat="47.55895" lon="-2.36126">
        <ele>45.599998474121</ele>
        <time>2020-07-26T07:37:49.000Z</time>
      </trkpt>
      <trkpt lat="47.55898" lon="-2.36125">
        <ele>45.599998474121</ele>
        <time>2020-07-26T07:37:50.000Z</time>
      </trkpt>
      <trkpt lat="47.55907" lon="-2.36122">
        <ele>45.599998474121</ele>
        <time>2020-07-26T07:37:55.000Z</time>
      </trkpt>
      <trkpt lat="47.55921" lon="-2.36125">
        <ele>45.599998474121</ele>
        <time>2020-07-26T07:38:01.000Z</time>
      </trkpt>
      <trkpt lat="47.55923" lon="-2.36126">
        <ele>45.599998474121</ele>
        <time>2020-07-26T07:38:02.000Z</time>
      </trkpt>
      <trkpt lat="47.55932" lon="-2.36121">
        <ele>45.599998474121</ele>
        <time>2020-07-26T07:38:06.000Z</time>
      </trkpt>
      <trkpt lat="47.55939" lon="-2.36109">
        <ele>46</ele>
        <time>2020-07-26T07:38:11.000Z</time>
      </trkpt>
      <trkpt lat="47.5594" lon="-2.36107">
        <ele>46.400001525879</ele>
        <time>2020-07-26T07:38:12.000Z</time>
      </trkpt>
      <trkpt lat="47.55941" lon="-2.36104">
        <ele>46.799999237061</ele>
        <time>2020-07-26T07:38:13.000Z</time>
      </trkpt>
      <trkpt lat="47.55942" lon="-2.36101">
        <ele>47.200000762939</ele>
        <time>2020-07-26T07:38:14.000Z</time>
      </trkpt>
      <trkpt lat="47.55944" lon="-2.36097">
        <ele>47.599998474121</ele>
        <time>2020-07-26T07:38:15.000Z</time>
      </trkpt>
      <trkpt lat="47.55948" lon="-2.36088">
        <ele>47.599998474121</ele>
        <time>2020-07-26T07:38:19.000Z</time>
      </trkpt>
      <trkpt lat="47.55951" lon="-2.36083">
        <ele>47.599998474121</ele>
        <time>2020-07-26T07:38:21.000Z</time>
      </trkpt>
      <trkpt lat="47.55958" lon="-2.36074">
        <ele>47.599998474121</ele>
        <time>2020-07-26T07:38:25.000Z</time>
      </trkpt>
      <trkpt lat="47.5596" lon="-2.36071">
        <ele>47.599998474121</ele>
        <time>2020-07-26T07:38:26.000Z</time>
      </trkpt>
      <trkpt lat="47.55964" lon="-2.36058">
        <ele>48</ele>
        <time>2020-07-26T07:38:30.000Z</time>
      </trkpt>
      <trkpt lat="47.55966" lon="-2.36055">
        <ele>48.400001525879</ele>
        <time>2020-07-26T07:38:31.000Z</time>
      </trkpt>
      <trkpt lat="47.55966" lon="-2.36053">
        <ele>48.799999237061</ele>
        <time>2020-07-26T07:38:32.000Z</time>
      </trkpt>
      <trkpt lat="47.55967" lon="-2.3605">
        <ele>49.599998474121</ele>
        <time>2020-07-26T07:38:33.000Z</time>
      </trkpt>
      <trkpt lat="47.55976" lon="-2.36024">
        <ele>49.599998474121</ele>
        <time>2020-07-26T07:38:40.000Z</time>
      </trkpt>
      <trkpt lat="47.55977" lon="-2.3602">
        <ele>50</ele>
        <time>2020-07-26T07:38:41.000Z</time>
      </trkpt>
      <trkpt lat="47.55978" lon="-2.36016">
        <ele>50.400001525879</ele>
        <time>2020-07-26T07:38:42.000Z</time>
      </trkpt>
      <trkpt lat="47.55979" lon="-2.36011">
        <ele>50.799999237061</ele>
        <time>2020-07-26T07:38:43.000Z</time>
      </trkpt>
      <trkpt lat="47.5598" lon="-2.36006">
        <ele>51.200000762939</ele>
        <time>2020-07-26T07:38:44.000Z</time>
      </trkpt>
      <trkpt lat="47.55982" lon="-2.36002">
        <ele>51.599998474121</ele>
        <time>2020-07-26T07:38:45.000Z</time>
      </trkpt>
      <trkpt lat="47.55982" lon="-2.36">
        <ele>51.599998474121</ele>
        <time>2020-07-26T07:38:46.000Z</time>
      </trkpt>
      <trkpt lat="47.55982" lon="-2.35984">
        <ele>52.200000762939</ele>
        <time>2020-07-26T07:38:52.000Z</time>
      </trkpt>
      <trkpt lat="47.55982" lon="-2.35981">
        <ele>52.599998474121</ele>
        <time>2020-07-26T07:38:53.000Z</time>
      </trkpt>
      <trkpt lat="47.55982" lon="-2.35977">
        <ele>53</ele>
        <time>2020-07-26T07:38:54.000Z</time>
      </trkpt>
      <trkpt lat="47.55983" lon="-2.35975">
        <ele>53.400001525879</ele>
        <time>2020-07-26T07:38:55.000Z</time>
      </trkpt>
      <trkpt lat="47.55983" lon="-2.35973">
        <ele>53.799999237061</ele>
        <time>2020-07-26T07:38:56.000Z</time>
      </trkpt>
      <trkpt lat="47.55983" lon="-2.3597">
        <ele>53.799999237061</ele>
        <time>2020-07-26T07:38:59.000Z</time>
      </trkpt>
      <trkpt lat="47.55981" lon="-2.35973">
        <ele>53.799999237061</ele>
        <time>2020-07-26T07:39:03.000Z</time>
      </trkpt>
      <trkpt lat="47.55978" lon="-2.35977">
        <ele>53.799999237061</ele>
        <time>2020-07-26T07:39:06.000Z</time>
      </trkpt>
      <trkpt lat="47.55974" lon="-2.3599">
        <ele>53.799999237061</ele>
        <time>2020-07-26T07:39:13.000Z</time>
      </trkpt>
      <trkpt lat="47.55963" lon="-2.36006">
        <ele>53.799999237061</ele>
        <time>2020-07-26T07:39:18.000Z</time>
      </trkpt>
      <trkpt lat="47.55949" lon="-2.36018">
        <ele>53.799999237061</ele>
        <time>2020-07-26T07:39:25.000Z</time>
      </trkpt>
      <trkpt lat="47.55942" lon="-2.36025">
        <ele>53.400001525879</ele>
        <time>2020-07-26T07:39:28.000Z</time>
      </trkpt>
      <trkpt lat="47.5594" lon="-2.36029">
        <ele>53</ele>
        <time>2020-07-26T07:39:29.000Z</time>
      </trkpt>
      <trkpt lat="47.5594" lon="-2.36032">
        <ele>52.599998474121</ele>
        <time>2020-07-26T07:39:30.000Z</time>
      </trkpt>
      <trkpt lat="47.55938" lon="-2.36036">
        <ele>52.200000762939</ele>
        <time>2020-07-26T07:39:31.000Z</time>
      </trkpt>
      <trkpt lat="47.55937" lon="-2.36039">
        <ele>51.799999237061</ele>
        <time>2020-07-26T07:39:32.000Z</time>
      </trkpt>
      <trkpt lat="47.55935" lon="-2.36041">
        <ele>51.799999237061</ele>
        <time>2020-07-26T07:39:33.000Z</time>
      </trkpt>
      <trkpt lat="47.5593" lon="-2.36044">
        <ele>51.799999237061</ele>
        <time>2020-07-26T07:39:35.000Z</time>
      </trkpt>
      <trkpt lat="47.55921" lon="-2.36054">
        <ele>51.400001525879</ele>
        <time>2020-07-26T07:39:38.000Z</time>
      </trkpt>
      <trkpt lat="47.5592" lon="-2.36058">
        <ele>50.799999237061</ele>
        <time>2020-07-26T07:39:39.000Z</time>
      </trkpt>
      <trkpt lat="47.55919" lon="-2.36062">
        <ele>50.400001525879</ele>
        <time>2020-07-26T07:39:40.000Z</time>
      </trkpt>
      <trkpt lat="47.55918" lon="-2.36067">
        <ele>50</ele>
        <time>2020-07-26T07:39:41.000Z</time>
      </trkpt>
      <trkpt lat="47.55918" lon="-2.36071">
        <ele>49.599998474121</ele>
        <time>2020-07-26T07:39:42.000Z</time>
      </trkpt>
      <trkpt lat="47.55915" lon="-2.36079">
        <ele>49.200000762939</ele>
        <time>2020-07-26T07:39:45.000Z</time>
      </trkpt>
      <trkpt lat="47.55913" lon="-2.36081">
        <ele>48.599998474121</ele>
        <time>2020-07-26T07:39:46.000Z</time>
      </trkpt>
      <trkpt lat="47.55911" lon="-2.36083">
        <ele>47.799999237061</ele>
        <time>2020-07-26T07:39:47.000Z</time>
      </trkpt>
      <trkpt lat="47.55909" lon="-2.36084">
        <ele>47.400001525879</ele>
        <time>2020-07-26T07:39:48.000Z</time>
      </trkpt>
      <trkpt lat="47.55901" lon="-2.36086">
        <ele>47.400001525879</ele>
        <time>2020-07-26T07:39:51.000Z</time>
      </trkpt>
      <trkpt lat="47.5589" lon="-2.36082">
        <ele>47.400001525879</ele>
        <time>2020-07-26T07:39:56.000Z</time>
      </trkpt>
      <trkpt lat="47.55887" lon="-2.36082">
        <ele>47.400001525879</ele>
        <time>2020-07-26T07:39:57.000Z</time>
      </trkpt>
      <trkpt lat="47.55878" lon="-2.3608">
        <ele>47.400001525879</ele>
        <time>2020-07-26T07:40:00.000Z</time>
      </trkpt>
      <trkpt lat="47.55867" lon="-2.36074">
        <ele>47.400001525879</ele>
        <time>2020-07-26T07:40:05.000Z</time>
      </trkpt>
      <trkpt lat="47.55866" lon="-2.36072">
        <ele>47.400001525879</ele>
        <time>2020-07-26T07:40:06.000Z</time>
      </trkpt>
      <trkpt lat="47.55864" lon="-2.36068">
        <ele>47.400001525879</ele>
        <time>2020-07-26T07:40:09.000Z</time>
      </trkpt>
      <trkpt lat="47.55855" lon="-2.36063">
        <ele>47.400001525879</ele>
        <time>2020-07-26T07:41:03.000Z</time>
      </trkpt>
      <trkpt lat="47.55849" lon="-2.36051">
        <ele>47.400001525879</ele>
        <time>2020-07-26T07:41:09.000Z</time>
      </trkpt>
      <trkpt lat="47.55849" lon="-2.36048">
        <ele>47.400001525879</ele>
        <time>2020-07-26T07:41:10.000Z</time>
      </trkpt>
      <trkpt lat="47.55851" lon="-2.36043">
        <ele>47.400001525879</ele>
        <time>2020-07-26T07:41:12.000Z</time>
      </trkpt>
      <trkpt lat="47.55854" lon="-2.3604">
        <ele>47.400001525879</ele>
        <time>2020-07-26T07:41:14.000Z</time>
      </trkpt>
      <trkpt lat="47.55865" lon="-2.36039">
        <ele>47.400001525879</ele>
        <time>2020-07-26T07:41:20.000Z</time>
      </trkpt>
      <trkpt lat="47.55876" lon="-2.36041">
        <ele>47.400001525879</ele>
        <time>2020-07-26T07:41:25.000Z</time>
      </trkpt>
      <trkpt lat="47.55888" lon="-2.36055">
        <ele>47.400001525879</ele>
        <time>2020-07-26T07:41:31.000Z</time>
      </trkpt>
      <trkpt lat="47.55893" lon="-2.36055">
        <ele>47.400001525879</ele>
        <time>2020-07-26T07:41:33.000Z</time>
      </trkpt>
      <trkpt lat="47.55896" lon="-2.36054">
        <ele>47.400001525879</ele>
        <time>2020-07-26T07:41:35.000Z</time>
      </trkpt>
      <trkpt lat="47.55901" lon="-2.36048">
        <ele>47.799999237061</ele>
        <time>2020-07-26T07:41:40.000Z</time>
      </trkpt>
      <trkpt lat="47.55901" lon="-2.36046">
        <ele>48.200000762939</ele>
        <time>2020-07-26T07:41:41.000Z</time>
      </trkpt>
      <trkpt lat="47.55901" lon="-2.36044">
        <ele>48.599998474121</ele>
        <time>2020-07-26T07:41:42.000Z</time>
      </trkpt>
      <trkpt lat="47.55901" lon="-2.36042">
        <ele>49</ele>
        <time>2020-07-26T07:41:43.000Z</time>
      </trkpt>
      <trkpt lat="47.55901" lon="-2.36041">
        <ele>49.400001525879</ele>
        <time>2020-07-26T07:41:44.000Z</time>
      </trkpt>
      <trkpt lat="47.55902" lon="-2.36035">
        <ele>49.400001525879</ele>
        <time>2020-07-26T07:41:48.000Z</time>
      </trkpt>
      <trkpt lat="47.55915" lon="-2.36026">
        <ele>50.400001525879</ele>
        <time>2020-07-26T07:41:58.000Z</time>
      </trkpt>
      <trkpt lat="47.55917" lon="-2.36023">
        <ele>50.799999237061</ele>
        <time>2020-07-26T07:41:59.000Z</time>
      </trkpt>
      <trkpt lat="47.55919" lon="-2.36022">
        <ele>51.200000762939</ele>
        <time>2020-07-26T07:42:00.000Z</time>
      </trkpt>
      <trkpt lat="47.5592" lon="-2.36021">
        <ele>51.599998474121</ele>
        <time>2020-07-26T07:42:01.000Z</time>
      </trkpt>
      <trkpt lat="47.55927" lon="-2.36016">
        <ele>51.599998474121</ele>
        <time>2020-07-26T07:42:07.000Z</time>
      </trkpt>
      <trkpt lat="47.55935" lon="-2.36016">
        <ele>51.599998474121</ele>
        <time>2020-07-26T07:42:12.000Z</time>
      </trkpt>
      <trkpt lat="47.55941" lon="-2.36012">
        <ele>51.599998474121</ele>
        <time>2020-07-26T07:42:16.000Z</time>
      </trkpt>
      <trkpt lat="47.55943" lon="-2.36009">
        <ele>51.599998474121</ele>
        <time>2020-07-26T07:42:17.000Z</time>
      </trkpt>
      <trkpt lat="47.55949" lon="-2.36">
        <ele>52</ele>
        <time>2020-07-26T07:42:21.000Z</time>
      </trkpt>
      <trkpt lat="47.5595" lon="-2.35997">
        <ele>52.400001525879</ele>
        <time>2020-07-26T07:42:22.000Z</time>
      </trkpt>
      <trkpt lat="47.55951" lon="-2.35995">
        <ele>52.799999237061</ele>
        <time>2020-07-26T07:42:23.000Z</time>
      </trkpt>
      <trkpt lat="47.55952" lon="-2.35994">
        <ele>53.400001525879</ele>
        <time>2020-07-26T07:42:24.000Z</time>
      </trkpt>
      <trkpt lat="47.55952" lon="-2.35992">
        <ele>53.799999237061</ele>
        <time>2020-07-26T07:42:25.000Z</time>
      </trkpt>
      <trkpt lat="47.55956" lon="-2.35975">
        <ele>53.799999237061</ele>
        <time>2020-07-26T07:42:32.000Z</time>
      </trkpt>
      <trkpt lat="47.55962" lon="-2.35966">
        <ele>53.799999237061</ele>
        <time>2020-07-26T07:42:38.000Z</time>
      </trkpt>
      <trkpt lat="47.55965" lon="-2.35955">
        <ele>54.200000762939</ele>
        <time>2020-07-26T07:42:42.000Z</time>
      </trkpt>
      <trkpt lat="47.55965" lon="-2.35952">
        <ele>54.599998474121</ele>
        <time>2020-07-26T07:42:43.000Z</time>
      </trkpt>
      <trkpt lat="47.55966" lon="-2.3595">
        <ele>55</ele>
        <time>2020-07-26T07:42:44.000Z</time>
      </trkpt>
      <trkpt lat="47.55967" lon="-2.35947">
        <ele>55.400001525879</ele>
        <time>2020-07-26T07:42:45.000Z</time>
      </trkpt>
      <trkpt lat="47.55967" lon="-2.35944">
        <ele>55.799999237061</ele>
        <time>2020-07-26T07:42:46.000Z</time>
      </trkpt>
      <trkpt lat="47.55966" lon="-2.3594">
        <ele>55.799999237061</ele>
        <time>2020-07-26T07:42:49.000Z</time>
      </trkpt>
      <trkpt lat="47.55965" lon="-2.35943">
        <ele>55.799999237061</ele>
        <time>2020-07-26T07:42:52.000Z</time>
      </trkpt>
      <trkpt lat="47.55964" lon="-2.35947">
        <ele>55.799999237061</ele>
        <time>2020-07-26T07:42:54.000Z</time>
      </trkpt>
      <trkpt lat="47.55958" lon="-2.35957">
        <ele>55.799999237061</ele>
        <time>2020-07-26T07:43:00.000Z</time>
      </trkpt>
      <trkpt lat="47.5595" lon="-2.3597">
        <ele>55.799999237061</ele>
        <time>2020-07-26T07:43:06.000Z</time>
      </trkpt>
      <trkpt lat="47.55944" lon="-2.35975">
        <ele>55.799999237061</ele>
        <time>2020-07-26T07:43:10.000Z</time>
      </trkpt>
      <trkpt lat="47.55942" lon="-2.35975">
        <ele>55.799999237061</ele>
        <time>2020-07-26T07:43:11.000Z</time>
      </trkpt>
      <trkpt lat="47.5594" lon="-2.35978">
        <ele>55.799999237061</ele>
        <time>2020-07-26T07:43:13.000Z</time>
      </trkpt>
      <trkpt lat="47.55938" lon="-2.35979">
        <ele>55.400001525879</ele>
        <time>2020-07-26T07:43:14.000Z</time>
      </trkpt>
      <trkpt lat="47.55936" lon="-2.3598">
        <ele>54.799999237061</ele>
        <time>2020-07-26T07:43:15.000Z</time>
      </trkpt>
      <trkpt lat="47.55933" lon="-2.3598">
        <ele>54.400001525879</ele>
        <time>2020-07-26T07:43:16.000Z</time>
      </trkpt>
      <trkpt lat="47.55931" lon="-2.35981">
        <ele>54</ele>
        <time>2020-07-26T07:43:17.000Z</time>
      </trkpt>
      <trkpt lat="47.55929" lon="-2.35982">
        <ele>53.599998474121</ele>
        <time>2020-07-26T07:43:18.000Z</time>
      </trkpt>
      <trkpt lat="47.55926" lon="-2.35989">
        <ele>53.599998474121</ele>
        <time>2020-07-26T07:43:21.000Z</time>
      </trkpt>
      <trkpt lat="47.55923" lon="-2.35997">
        <ele>53.599998474121</ele>
        <time>2020-07-26T07:43:23.000Z</time>
      </trkpt>
      <trkpt lat="47.55921" lon="-2.35998">
        <ele>53.200000762939</ele>
        <time>2020-07-26T07:43:24.000Z</time>
      </trkpt>
      <trkpt lat="47.55918" lon="-2.36">
        <ele>52.799999237061</ele>
        <time>2020-07-26T07:43:25.000Z</time>
      </trkpt>
      <trkpt lat="47.55916" lon="-2.36001">
        <ele>52.400001525879</ele>
        <time>2020-07-26T07:43:26.000Z</time>
      </trkpt>
      <trkpt lat="47.55912" lon="-2.36003">
        <ele>52</ele>
        <time>2020-07-26T07:43:27.000Z</time>
      </trkpt>
      <trkpt lat="47.55907" lon="-2.36004">
        <ele>51.599998474121</ele>
        <time>2020-07-26T07:43:28.000Z</time>
      </trkpt>
      <trkpt lat="47.55901" lon="-2.36001">
        <ele>51.599998474121</ele>
        <time>2020-07-26T07:43:30.000Z</time>
      </trkpt>
      <trkpt lat="47.559" lon="-2.35995">
        <ele>51.599998474121</ele>
        <time>2020-07-26T07:43:33.000Z</time>
      </trkpt>
      <trkpt lat="47.559" lon="-2.35985">
        <ele>51.599998474121</ele>
        <time>2020-07-26T07:43:37.000Z</time>
      </trkpt>
      <trkpt lat="47.55901" lon="-2.35984">
        <ele>51.599998474121</ele>
        <time>2020-07-26T07:43:38.000Z</time>
      </trkpt>
      <trkpt lat="47.55903" lon="-2.35983">
        <ele>51.599998474121</ele>
        <time>2020-07-26T07:43:39.000Z</time>
      </trkpt>
      <trkpt lat="47.55909" lon="-2.35985">
        <ele>51.599998474121</ele>
        <time>2020-07-26T07:43:42.000Z</time>
      </trkpt>
      <trkpt lat="47.55915" lon="-2.35982">
        <ele>51.599998474121</ele>
        <time>2020-07-26T07:43:46.000Z</time>
      </trkpt>
      <trkpt lat="47.55919" lon="-2.35977">
        <ele>52</ele>
        <time>2020-07-26T07:43:49.000Z</time>
      </trkpt>
      <trkpt lat="47.55919" lon="-2.35976">
        <ele>52.400001525879</ele>
        <time>2020-07-26T07:43:50.000Z</time>
      </trkpt>
      <trkpt lat="47.55921" lon="-2.35974">
        <ele>52.799999237061</ele>
        <time>2020-07-26T07:43:51.000Z</time>
      </trkpt>
      <trkpt lat="47.55922" lon="-2.35972">
        <ele>53.200000762939</ele>
        <time>2020-07-26T07:43:52.000Z</time>
      </trkpt>
      <trkpt lat="47.55923" lon="-2.3597">
        <ele>53.599998474121</ele>
        <time>2020-07-26T07:43:53.000Z</time>
      </trkpt>
      <trkpt lat="47.55923" lon="-2.35968">
        <ele>53.599998474121</ele>
        <time>2020-07-26T07:43:54.000Z</time>
      </trkpt>
      <trkpt lat="47.55924" lon="-2.35961">
        <ele>53.599998474121</ele>
        <time>2020-07-26T07:43:59.000Z</time>
      </trkpt>
      <trkpt lat="47.55925" lon="-2.3596">
        <ele>54</ele>
        <time>2020-07-26T07:44:00.000Z</time>
      </trkpt>
      <trkpt lat="47.55926" lon="-2.35959">
        <ele>54.400001525879</ele>
        <time>2020-07-26T07:44:01.000Z</time>
      </trkpt>
      <trkpt lat="47.55927" lon="-2.35959">
        <ele>54.799999237061</ele>
        <time>2020-07-26T07:44:02.000Z</time>
      </trkpt>
      <trkpt lat="47.55929" lon="-2.35959">
        <ele>55.200000762939</ele>
        <time>2020-07-26T07:44:03.000Z</time>
      </trkpt>
      <trkpt lat="47.5593" lon="-2.35959">
        <ele>55.599998474121</ele>
        <time>2020-07-26T07:44:04.000Z</time>
      </trkpt>
      <trkpt lat="47.55936" lon="-2.35958">
        <ele>55.599998474121</ele>
        <time>2020-07-26T07:44:07.000Z</time>
      </trkpt>
      <trkpt lat="47.5594" lon="-2.35956">
        <ele>55.599998474121</ele>
        <time>2020-07-26T07:44:10.000Z</time>
      </trkpt>
      <trkpt lat="47.55944" lon="-2.35944">
        <ele>55.599998474121</ele>
        <time>2020-07-26T07:44:16.000Z</time>
      </trkpt>
      <trkpt lat="47.5595" lon="-2.35936">
        <ele>55.599998474121</ele>
        <time>2020-07-26T07:44:21.000Z</time>
      </trkpt>
      <trkpt lat="47.55952" lon="-2.35929">
        <ele>55.599998474121</ele>
        <time>2020-07-26T07:44:23.000Z</time>
      </trkpt>
      <trkpt lat="47.55964" lon="-2.35913">
        <ele>55.599998474121</ele>
        <time>2020-07-26T07:44:29.000Z</time>
      </trkpt>
      <trkpt lat="47.55968" lon="-2.35898">
        <ele>55.599998474121</ele>
        <time>2020-07-26T07:44:33.000Z</time>
      </trkpt>
      <trkpt lat="47.55966" lon="-2.35893">
        <ele>56.200000762939</ele>
        <time>2020-07-26T07:44:35.000Z</time>
      </trkpt>
      <trkpt lat="47.55965" lon="-2.35892">
        <ele>56.599998474121</ele>
        <time>2020-07-26T07:44:36.000Z</time>
      </trkpt>
      <trkpt lat="47.55965" lon="-2.35893">
        <ele>57</ele>
        <time>2020-07-26T07:44:37.000Z</time>
      </trkpt>
      <trkpt lat="47.55964" lon="-2.35893">
        <ele>57.400001525879</ele>
        <time>2020-07-26T07:44:38.000Z</time>
      </trkpt>
      <trkpt lat="47.55963" lon="-2.35894">
        <ele>57.799999237061</ele>
        <time>2020-07-26T07:44:39.000Z</time>
      </trkpt>
      <trkpt lat="47.55952" lon="-2.35907">
        <ele>57.799999237061</ele>
        <time>2020-07-26T07:44:45.000Z</time>
      </trkpt>
      <trkpt lat="47.55941" lon="-2.35912">
        <ele>57.799999237061</ele>
        <time>2020-07-26T07:44:50.000Z</time>
      </trkpt>
      <trkpt lat="47.55939" lon="-2.35911">
        <ele>57.799999237061</ele>
        <time>2020-07-26T07:44:51.000Z</time>
      </trkpt>
      <trkpt lat="47.5594" lon="-2.35907">
        <ele>57.799999237061</ele>
        <time>2020-07-26T07:44:53.000Z</time>
      </trkpt>
      <trkpt lat="47.55941" lon="-2.35904">
        <ele>57.799999237061</ele>
        <time>2020-07-26T07:44:54.000Z</time>
      </trkpt>
      <trkpt lat="47.55947" lon="-2.35877">
        <ele>57.799999237061</ele>
        <time>2020-07-26T07:45:01.000Z</time>
      </trkpt>
      <trkpt lat="47.55947" lon="-2.35873">
        <ele>58.400001525879</ele>
        <time>2020-07-26T07:45:02.000Z</time>
      </trkpt>
      <trkpt lat="47.55947" lon="-2.35869">
        <ele>58.799999237061</ele>
        <time>2020-07-26T07:45:03.000Z</time>
      </trkpt>
      <trkpt lat="47.55946" lon="-2.35865">
        <ele>59.200000762939</ele>
        <time>2020-07-26T07:45:04.000Z</time>
      </trkpt>
      <trkpt lat="47.55945" lon="-2.35861">
        <ele>59.599998474121</ele>
        <time>2020-07-26T07:45:05.000Z</time>
      </trkpt>
      <trkpt lat="47.55945" lon="-2.35857">
        <ele>60</ele>
        <time>2020-07-26T07:45:06.000Z</time>
      </trkpt>
      <trkpt lat="47.55944" lon="-2.35854">
        <ele>60</ele>
        <time>2020-07-26T07:45:07.000Z</time>
      </trkpt>
      <trkpt lat="47.55941" lon="-2.35837">
        <ele>60.400001525879</ele>
        <time>2020-07-26T07:45:11.000Z</time>
      </trkpt>
      <trkpt lat="47.5594" lon="-2.35832">
        <ele>60.799999237061</ele>
        <time>2020-07-26T07:45:12.000Z</time>
      </trkpt>
      <trkpt lat="47.55939" lon="-2.35829">
        <ele>61.400001525879</ele>
        <time>2020-07-26T07:45:13.000Z</time>
      </trkpt>
      <trkpt lat="47.55939" lon="-2.35824">
        <ele>61.799999237061</ele>
        <time>2020-07-26T07:45:14.000Z</time>
      </trkpt>
      <trkpt lat="47.55938" lon="-2.35821">
        <ele>62.200000762939</ele>
        <time>2020-07-26T07:45:15.000Z</time>
      </trkpt>
      <trkpt lat="47.55934" lon="-2.35798">
        <ele>62.200000762939</ele>
        <time>2020-07-26T07:45:21.000Z</time>
      </trkpt>
      <trkpt lat="47.5593" lon="-2.35778">
        <ele>62.599998474121</ele>
        <time>2020-07-26T07:45:26.000Z</time>
      </trkpt>
      <trkpt lat="47.55929" lon="-2.35774">
        <ele>63</ele>
        <time>2020-07-26T07:45:27.000Z</time>
      </trkpt>
      <trkpt lat="47.55928" lon="-2.3577">
        <ele>63.400001525879</ele>
        <time>2020-07-26T07:45:28.000Z</time>
      </trkpt>
      <trkpt lat="47.55928" lon="-2.35765">
        <ele>63.799999237061</ele>
        <time>2020-07-26T07:45:29.000Z</time>
      </trkpt>
      <trkpt lat="47.55927" lon="-2.35761">
        <ele>64.199996948242</ele>
        <time>2020-07-26T07:45:30.000Z</time>
      </trkpt>
      <trkpt lat="47.55925" lon="-2.35747">
        <ele>64.599998474121</ele>
        <time>2020-07-26T07:45:33.000Z</time>
      </trkpt>
      <trkpt lat="47.55924" lon="-2.35743">
        <ele>65.199996948242</ele>
        <time>2020-07-26T07:45:34.000Z</time>
      </trkpt>
      <trkpt lat="47.55924" lon="-2.35738">
        <ele>65.599998474121</ele>
        <time>2020-07-26T07:45:35.000Z</time>
      </trkpt>
      <trkpt lat="47.55923" lon="-2.35734">
        <ele>66</ele>
        <time>2020-07-26T07:45:36.000Z</time>
      </trkpt>
      <trkpt lat="47.55923" lon="-2.3573">
        <ele>66.400001525879</ele>
        <time>2020-07-26T07:45:37.000Z</time>
      </trkpt>
      <trkpt lat="47.55913" lon="-2.35701">
        <ele>66.400001525879</ele>
        <time>2020-07-26T07:45:44.000Z</time>
      </trkpt>
      <trkpt lat="47.55906" lon="-2.35694">
        <ele>66.800003051758</ele>
        <time>2020-07-26T07:45:47.000Z</time>
      </trkpt>
      <trkpt lat="47.55903" lon="-2.35691">
        <ele>67.199996948242</ele>
        <time>2020-07-26T07:45:48.000Z</time>
      </trkpt>
      <trkpt lat="47.559" lon="-2.35689">
        <ele>67.599998474121</ele>
        <time>2020-07-26T07:45:49.000Z</time>
      </trkpt>
      <trkpt lat="47.55897" lon="-2.35687">
        <ele>68</ele>
        <time>2020-07-26T07:45:50.000Z</time>
      </trkpt>
      <trkpt lat="47.55895" lon="-2.35684">
        <ele>68.400001525879</ele>
        <time>2020-07-26T07:45:51.000Z</time>
      </trkpt>
      <trkpt lat="47.55885" lon="-2.35659">
        <ele>68.400001525879</ele>
        <time>2020-07-26T07:45:56.000Z</time>
      </trkpt>
      <trkpt lat="47.55872" lon="-2.3561">
        <ele>68.400001525879</ele>
        <time>2020-07-26T07:46:05.000Z</time>
      </trkpt>
      <trkpt lat="47.55868" lon="-2.35587">
        <ele>68.800003051758</ele>
        <time>2020-07-26T07:46:09.000Z</time>
      </trkpt>
      <trkpt lat="47.55867" lon="-2.35582">
        <ele>69.199996948242</ele>
        <time>2020-07-26T07:46:10.000Z</time>
      </trkpt>
      <trkpt lat="47.55866" lon="-2.35576">
        <ele>69.599998474121</ele>
        <time>2020-07-26T07:46:11.000Z</time>
      </trkpt>
      <trkpt lat="47.55867" lon="-2.3557">
        <ele>70</ele>
        <time>2020-07-26T07:46:12.000Z</time>
      </trkpt>
      <trkpt lat="47.55868" lon="-2.35565">
        <ele>70.400001525879</ele>
        <time>2020-07-26T07:46:13.000Z</time>
      </trkpt>
      <trkpt lat="47.55877" lon="-2.35555">
        <ele>70.400001525879</ele>
        <time>2020-07-26T07:46:16.000Z</time>
      </trkpt>
      <trkpt lat="47.55893" lon="-2.3555">
        <ele>70.400001525879</ele>
        <time>2020-07-26T07:46:20.000Z</time>
      </trkpt>
      <trkpt lat="47.55924" lon="-2.3554">
        <ele>70</ele>
        <time>2020-07-26T07:46:27.000Z</time>
      </trkpt>
      <trkpt lat="47.55927" lon="-2.35536">
        <ele>69.599998474121</ele>
        <time>2020-07-26T07:46:28.000Z</time>
      </trkpt>
      <trkpt lat="47.55929" lon="-2.35532">
        <ele>69.199996948242</ele>
        <time>2020-07-26T07:46:29.000Z</time>
      </trkpt>
      <trkpt lat="47.55931" lon="-2.35527">
        <ele>68.800003051758</ele>
        <time>2020-07-26T07:46:30.000Z</time>
      </trkpt>
      <trkpt lat="47.5593" lon="-2.35522">
        <ele>68.400001525879</ele>
        <time>2020-07-26T07:46:31.000Z</time>
      </trkpt>
      <trkpt lat="47.55927" lon="-2.355">
        <ele>68.400001525879</ele>
        <time>2020-07-26T07:46:36.000Z</time>
      </trkpt>
      <trkpt lat="47.55927" lon="-2.35495">
        <ele>68.400001525879</ele>
        <time>2020-07-26T07:46:37.000Z</time>
      </trkpt>
      <trkpt lat="47.55925" lon="-2.35474">
        <ele>68.400001525879</ele>
        <time>2020-07-26T07:46:42.000Z</time>
      </trkpt>
      <trkpt lat="47.55924" lon="-2.35469">
        <ele>68.400001525879</ele>
        <time>2020-07-26T07:46:46.000Z</time>
      </trkpt>
      <trkpt lat="47.5592" lon="-2.35464">
        <ele>68.400001525879</ele>
        <time>2020-07-26T07:47:07.000Z</time>
      </trkpt>
      <trkpt lat="47.55917" lon="-2.35457">
        <ele>68.400001525879</ele>
        <time>2020-07-26T07:47:10.000Z</time>
      </trkpt>
      <trkpt lat="47.55909" lon="-2.35435">
        <ele>68.400001525879</ele>
        <time>2020-07-26T07:47:17.000Z</time>
      </trkpt>
      <trkpt lat="47.55903" lon="-2.35422">
        <ele>68.400001525879</ele>
        <time>2020-07-26T07:47:23.000Z</time>
      </trkpt>
      <trkpt lat="47.55898" lon="-2.35417">
        <ele>68.400001525879</ele>
        <time>2020-07-26T07:47:26.000Z</time>
      </trkpt>
      <trkpt lat="47.55896" lon="-2.35416">
        <ele>68.400001525879</ele>
        <time>2020-07-26T07:47:28.000Z</time>
      </trkpt>
      <trkpt lat="47.55888" lon="-2.35415">
        <ele>68.400001525879</ele>
        <time>2020-07-26T07:47:34.000Z</time>
      </trkpt>
      <trkpt lat="47.55884" lon="-2.35412">
        <ele>68.800003051758</ele>
        <time>2020-07-26T07:47:37.000Z</time>
      </trkpt>
      <trkpt lat="47.55883" lon="-2.35412">
        <ele>69.199996948242</ele>
        <time>2020-07-26T07:47:38.000Z</time>
      </trkpt>
      <trkpt lat="47.55882" lon="-2.35412">
        <ele>69.599998474121</ele>
        <time>2020-07-26T07:47:39.000Z</time>
      </trkpt>
      <trkpt lat="47.55881" lon="-2.35411">
        <ele>70</ele>
        <time>2020-07-26T07:47:40.000Z</time>
      </trkpt>
      <trkpt lat="47.55881" lon="-2.35411">
        <ele>70.400001525879</ele>
        <time>2020-07-26T07:47:41.000Z</time>
      </trkpt>
      <trkpt lat="47.55878" lon="-2.3541">
        <ele>70.400001525879</ele>
        <time>2020-07-26T07:47:45.000Z</time>
      </trkpt>
      <trkpt lat="47.55877" lon="-2.35421">
        <ele>70.400001525879</ele>
        <time>2020-07-26T07:47:52.000Z</time>
      </trkpt>
      <trkpt lat="47.55875" lon="-2.35423">
        <ele>70.400001525879</ele>
        <time>2020-07-26T07:47:53.000Z</time>
      </trkpt>
      <trkpt lat="47.55869" lon="-2.35425">
        <ele>70.400001525879</ele>
        <time>2020-07-26T07:47:58.000Z</time>
      </trkpt>
      <trkpt lat="47.55867" lon="-2.3542">
        <ele>70.400001525879</ele>
        <time>2020-07-26T07:48:00.000Z</time>
      </trkpt>
      <trkpt lat="47.55861" lon="-2.35412">
        <ele>70.400001525879</ele>
        <time>2020-07-26T07:48:04.000Z</time>
      </trkpt>
      <trkpt lat="47.55859" lon="-2.35402">
        <ele>70.400001525879</ele>
        <time>2020-07-26T07:48:09.000Z</time>
      </trkpt>
      <trkpt lat="47.5586" lon="-2.35386">
        <ele>70.400001525879</ele>
        <time>2020-07-26T07:48:15.000Z</time>
      </trkpt>
      <trkpt lat="47.55858" lon="-2.35375">
        <ele>70.400001525879</ele>
        <time>2020-07-26T07:48:20.000Z</time>
      </trkpt>
      <trkpt lat="47.55856" lon="-2.35374">
        <ele>70.400001525879</ele>
        <time>2020-07-26T07:48:21.000Z</time>
      </trkpt>
      <trkpt lat="47.55847" lon="-2.35375">
        <ele>70.400001525879</ele>
        <time>2020-07-26T07:48:26.000Z</time>
      </trkpt>
      <trkpt lat="47.55847" lon="-2.35377">
        <ele>70.400001525879</ele>
        <time>2020-07-26T07:48:27.000Z</time>
      </trkpt>
      <trkpt lat="47.55848" lon="-2.35383">
        <ele>70.400001525879</ele>
        <time>2020-07-26T07:48:29.000Z</time>
      </trkpt>
      <trkpt lat="47.55853" lon="-2.35402">
        <ele>70.400001525879</ele>
        <time>2020-07-26T07:48:35.000Z</time>
      </trkpt>
      <trkpt lat="47.5585" lon="-2.35421">
        <ele>70.400001525879</ele>
        <time>2020-07-26T07:48:42.000Z</time>
      </trkpt>
      <trkpt lat="47.55849" lon="-2.35426">
        <ele>70.400001525879</ele>
        <time>2020-07-26T07:48:45.000Z</time>
      </trkpt>
      <trkpt lat="47.55845" lon="-2.35425">
        <ele>70.400001525879</ele>
        <time>2020-07-26T07:48:47.000Z</time>
      </trkpt>
      <trkpt lat="47.55845" lon="-2.35423">
        <ele>70.400001525879</ele>
        <time>2020-07-26T07:48:48.000Z</time>
      </trkpt>
      <trkpt lat="47.55844" lon="-2.3541">
        <ele>70.400001525879</ele>
        <time>2020-07-26T07:48:54.000Z</time>
      </trkpt>
      <trkpt lat="47.55843" lon="-2.35408">
        <ele>70.400001525879</ele>
        <time>2020-07-26T07:48:55.000Z</time>
      </trkpt>
      <trkpt lat="47.55839" lon="-2.35402">
        <ele>70.400001525879</ele>
        <time>2020-07-26T07:48:58.000Z</time>
      </trkpt>
      <trkpt lat="47.55835" lon="-2.35392">
        <ele>70.400001525879</ele>
        <time>2020-07-26T07:49:02.000Z</time>
      </trkpt>
      <trkpt lat="47.55835" lon="-2.35388">
        <ele>70.400001525879</ele>
        <time>2020-07-26T07:49:03.000Z</time>
      </trkpt>
      <trkpt lat="47.55832" lon="-2.35373">
        <ele>70.800003051758</ele>
        <time>2020-07-26T07:49:07.000Z</time>
      </trkpt>
      <trkpt lat="47.55831" lon="-2.35369">
        <ele>71.199996948242</ele>
        <time>2020-07-26T07:49:08.000Z</time>
      </trkpt>
      <trkpt lat="47.5583" lon="-2.35366">
        <ele>71.599998474121</ele>
        <time>2020-07-26T07:49:09.000Z</time>
      </trkpt>
      <trkpt lat="47.5583" lon="-2.35359">
        <ele>72</ele>
        <time>2020-07-26T07:49:10.000Z</time>
      </trkpt>
      <trkpt lat="47.55829" lon="-2.35354">
        <ele>72.400001525879</ele>
        <time>2020-07-26T07:49:11.000Z</time>
      </trkpt>
      <trkpt lat="47.55826" lon="-2.35344">
        <ele>72.400001525879</ele>
        <time>2020-07-26T07:49:13.000Z</time>
      </trkpt>
      <trkpt lat="47.55816" lon="-2.35323">
        <ele>72.400001525879</ele>
        <time>2020-07-26T07:49:19.000Z</time>
      </trkpt>
      <trkpt lat="47.5581" lon="-2.35324">
        <ele>72.400001525879</ele>
        <time>2020-07-26T07:49:24.000Z</time>
      </trkpt>
      <trkpt lat="47.55809" lon="-2.35326">
        <ele>72.400001525879</ele>
        <time>2020-07-26T07:49:25.000Z</time>
      </trkpt>
      <trkpt lat="47.55806" lon="-2.35336">
        <ele>72.400001525879</ele>
        <time>2020-07-26T07:49:28.000Z</time>
      </trkpt>
      <trkpt lat="47.55804" lon="-2.35343">
        <ele>72.400001525879</ele>
        <time>2020-07-26T07:49:30.000Z</time>
      </trkpt>
      <trkpt lat="47.55803" lon="-2.35347">
        <ele>72.400001525879</ele>
        <time>2020-07-26T07:49:31.000Z</time>
      </trkpt>
      <trkpt lat="47.55803" lon="-2.35359">
        <ele>72.400001525879</ele>
        <time>2020-07-26T07:49:34.000Z</time>
      </trkpt>
      <trkpt lat="47.55804" lon="-2.35363">
        <ele>72.400001525879</ele>
        <time>2020-07-26T07:49:35.000Z</time>
      </trkpt>
      <trkpt lat="47.55809" lon="-2.35369">
        <ele>72.400001525879</ele>
        <time>2020-07-26T07:49:38.000Z</time>
      </trkpt>
      <trkpt lat="47.55815" lon="-2.35386">
        <ele>72.400001525879</ele>
        <time>2020-07-26T07:49:44.000Z</time>
      </trkpt>
      <trkpt lat="47.55818" lon="-2.35415">
        <ele>72.400001525879</ele>
        <time>2020-07-26T07:49:50.000Z</time>
      </trkpt>
      <trkpt lat="47.55816" lon="-2.35439">
        <ele>72.400001525879</ele>
        <time>2020-07-26T07:49:56.000Z</time>
      </trkpt>
      <trkpt lat="47.55817" lon="-2.35442">
        <ele>72.400001525879</ele>
        <time>2020-07-26T07:49:57.000Z</time>
      </trkpt>
      <trkpt lat="47.5582" lon="-2.35452">
        <ele>72.400001525879</ele>
        <time>2020-07-26T07:50:00.000Z</time>
      </trkpt>
      <trkpt lat="47.55823" lon="-2.3547">
        <ele>72.400001525879</ele>
        <time>2020-07-26T07:50:05.000Z</time>
      </trkpt>
      <trkpt lat="47.55825" lon="-2.35484">
        <ele>72.400001525879</ele>
        <time>2020-07-26T07:50:10.000Z</time>
      </trkpt>
      <trkpt lat="47.55823" lon="-2.35496">
        <ele>72.400001525879</ele>
        <time>2020-07-26T07:50:14.000Z</time>
      </trkpt>
      <trkpt lat="47.55824" lon="-2.35508">
        <ele>72.400001525879</ele>
        <time>2020-07-26T07:50:17.000Z</time>
      </trkpt>
      <trkpt lat="47.55824" lon="-2.35512">
        <ele>72</ele>
        <time>2020-07-26T07:50:18.000Z</time>
      </trkpt>
      <trkpt lat="47.55824" lon="-2.35515">
        <ele>71.599998474121</ele>
        <time>2020-07-26T07:50:19.000Z</time>
      </trkpt>
      <trkpt lat="47.55824" lon="-2.35518">
        <ele>71.199996948242</ele>
        <time>2020-07-26T07:50:20.000Z</time>
      </trkpt>
      <trkpt lat="47.55824" lon="-2.3552">
        <ele>70.800003051758</ele>
        <time>2020-07-26T07:50:21.000Z</time>
      </trkpt>
      <trkpt lat="47.55823" lon="-2.35522">
        <ele>70.400001525879</ele>
        <time>2020-07-26T07:50:22.000Z</time>
      </trkpt>
      <trkpt lat="47.55821" lon="-2.35523">
        <ele>70.400001525879</ele>
        <time>2020-07-26T07:50:25.000Z</time>
      </trkpt>
      <trkpt lat="47.5582" lon="-2.35522">
        <ele>70.400001525879</ele>
        <time>2020-07-26T07:50:27.000Z</time>
      </trkpt>
      <trkpt lat="47.55817" lon="-2.35507">
        <ele>70.400001525879</ele>
        <time>2020-07-26T07:50:35.000Z</time>
      </trkpt>
      <trkpt lat="47.55813" lon="-2.35501">
        <ele>70.400001525879</ele>
        <time>2020-07-26T07:50:39.000Z</time>
      </trkpt>
      <trkpt lat="47.55812" lon="-2.355">
        <ele>70.400001525879</ele>
        <time>2020-07-26T07:50:40.000Z</time>
      </trkpt>
      <trkpt lat="47.55808" lon="-2.35506">
        <ele>70.400001525879</ele>
        <time>2020-07-26T07:50:45.000Z</time>
      </trkpt>
      <trkpt lat="47.55805" lon="-2.35512">
        <ele>70.400001525879</ele>
        <time>2020-07-26T07:50:51.000Z</time>
      </trkpt>
      <trkpt lat="47.55804" lon="-2.35512">
        <ele>70.400001525879</ele>
        <time>2020-07-26T07:50:52.000Z</time>
      </trkpt>
      <trkpt lat="47.55804" lon="-2.35501">
        <ele>70.400001525879</ele>
        <time>2020-07-26T07:51:00.000Z</time>
      </trkpt>
      <trkpt lat="47.55806" lon="-2.35495">
        <ele>70.400001525879</ele>
        <time>2020-07-26T07:51:03.000Z</time>
      </trkpt>
      <trkpt lat="47.55806" lon="-2.35485">
        <ele>70.400001525879</ele>
        <time>2020-07-26T07:51:07.000Z</time>
      </trkpt>
      <trkpt lat="47.55804" lon="-2.35482">
        <ele>70.400001525879</ele>
        <time>2020-07-26T07:51:09.000Z</time>
      </trkpt>
      <trkpt lat="47.55798" lon="-2.35478">
        <ele>70.400001525879</ele>
        <time>2020-07-26T07:51:13.000Z</time>
      </trkpt>
      <trkpt lat="47.55795" lon="-2.35476">
        <ele>70.400001525879</ele>
        <time>2020-07-26T07:51:15.000Z</time>
      </trkpt>
      <trkpt lat="47.55794" lon="-2.35466">
        <ele>70.400001525879</ele>
        <time>2020-07-26T07:51:20.000Z</time>
      </trkpt>
      <trkpt lat="47.55796" lon="-2.35457">
        <ele>70.400001525879</ele>
        <time>2020-07-26T07:51:23.000Z</time>
      </trkpt>
      <trkpt lat="47.55787" lon="-2.35437">
        <ele>72.400001525879</ele>
        <time>2020-07-26T07:52:01.000Z</time>
      </trkpt>
      <trkpt lat="47.55786" lon="-2.35431">
        <ele>72.400001525879</ele>
        <time>2020-07-26T07:52:03.000Z</time>
      </trkpt>
      <trkpt lat="47.55783" lon="-2.3541">
        <ele>72.400001525879</ele>
        <time>2020-07-26T07:52:09.000Z</time>
      </trkpt>
      <trkpt lat="47.5578" lon="-2.35384">
        <ele>72.400001525879</ele>
        <time>2020-07-26T07:52:15.000Z</time>
      </trkpt>
      <trkpt lat="47.55773" lon="-2.35372">
        <ele>72.400001525879</ele>
        <time>2020-07-26T07:52:20.000Z</time>
      </trkpt>
      <trkpt lat="47.55771" lon="-2.35371">
        <ele>72.400001525879</ele>
        <time>2020-07-26T07:52:21.000Z</time>
      </trkpt>
      <trkpt lat="47.55769" lon="-2.35371">
        <ele>71.400001525879</ele>
        <time>2020-07-26T07:52:22.000Z</time>
      </trkpt>
      <trkpt lat="47.55768" lon="-2.3537">
        <ele>71.199996948242</ele>
        <time>2020-07-26T07:52:23.000Z</time>
      </trkpt>
      <trkpt lat="47.5577" lon="-2.35381">
        <ele>72.400001525879</ele>
        <time>2020-07-26T07:52:42.000Z</time>
      </trkpt>
      <trkpt lat="47.55774" lon="-2.35398">
        <ele>72.400001525879</ele>
        <time>2020-07-26T07:52:47.000Z</time>
      </trkpt>
      <trkpt lat="47.55776" lon="-2.3541">
        <ele>72.400001525879</ele>
        <time>2020-07-26T07:52:53.000Z</time>
      </trkpt>
      <trkpt lat="47.5577" lon="-2.35403">
        <ele>72.400001525879</ele>
        <time>2020-07-26T07:53:02.000Z</time>
      </trkpt>
      <trkpt lat="47.5577" lon="-2.35395">
        <ele>72.400001525879</ele>
        <time>2020-07-26T07:53:05.000Z</time>
      </trkpt>
      <trkpt lat="47.55765" lon="-2.35382">
        <ele>72.400001525879</ele>
        <time>2020-07-26T07:53:11.000Z</time>
      </trkpt>
      <trkpt lat="47.55763" lon="-2.35367">
        <ele>72.400001525879</ele>
        <time>2020-07-26T07:53:16.000Z</time>
      </trkpt>
      <trkpt lat="47.55764" lon="-2.35365">
        <ele>72.400001525879</ele>
        <time>2020-07-26T07:53:17.000Z</time>
      </trkpt>
      <trkpt lat="47.55765" lon="-2.35361">
        <ele>72.400001525879</ele>
        <time>2020-07-26T07:53:19.000Z</time>
      </trkpt>
      <trkpt lat="47.55768" lon="-2.35354">
        <ele>72.400001525879</ele>
        <time>2020-07-26T07:53:22.000Z</time>
      </trkpt>
      <trkpt lat="47.5577" lon="-2.35347">
        <ele>72.400001525879</ele>
        <time>2020-07-26T07:53:26.000Z</time>
      </trkpt>
      <trkpt lat="47.55768" lon="-2.35342">
        <ele>72.400001525879</ele>
        <time>2020-07-26T07:53:29.000Z</time>
      </trkpt>
      <trkpt lat="47.55765" lon="-2.3534">
        <ele>72.400001525879</ele>
        <time>2020-07-26T07:53:31.000Z</time>
      </trkpt>
      <trkpt lat="47.55757" lon="-2.35331">
        <ele>72.400001525879</ele>
        <time>2020-07-26T07:53:36.000Z</time>
      </trkpt>
      <trkpt lat="47.55757" lon="-2.35324">
        <ele>72.400001525879</ele>
        <time>2020-07-26T07:53:40.000Z</time>
      </trkpt>
      <trkpt lat="47.55758" lon="-2.35322">
        <ele>72.400001525879</ele>
        <time>2020-07-26T07:53:41.000Z</time>
      </trkpt>
      <trkpt lat="47.5576" lon="-2.35309">
        <ele>72.400001525879</ele>
        <time>2020-07-26T07:53:48.000Z</time>
      </trkpt>
      <trkpt lat="47.55757" lon="-2.35305">
        <ele>72.400001525879</ele>
        <time>2020-07-26T07:53:53.000Z</time>
      </trkpt>
      <trkpt lat="47.55753" lon="-2.35306">
        <ele>72.400001525879</ele>
        <time>2020-07-26T07:53:56.000Z</time>
      </trkpt>
      <trkpt lat="47.55748" lon="-2.353">
        <ele>72.400001525879</ele>
        <time>2020-07-26T07:54:01.000Z</time>
      </trkpt>
      <trkpt lat="47.55743" lon="-2.35282">
        <ele>72.400001525879</ele>
        <time>2020-07-26T07:54:08.000Z</time>
      </trkpt>
      <trkpt lat="47.55745" lon="-2.35271">
        <ele>72.400001525879</ele>
        <time>2020-07-26T07:54:14.000Z</time>
      </trkpt>
      <trkpt lat="47.55745" lon="-2.35268">
        <ele>72.400001525879</ele>
        <time>2020-07-26T07:54:17.000Z</time>
      </trkpt>
      <trkpt lat="47.55741" lon="-2.35263">
        <ele>70.199996948242</ele>
        <time>2020-07-26T07:56:36.000Z</time>
      </trkpt>
      <trkpt lat="47.5574" lon="-2.3526">
        <ele>70.199996948242</ele>
        <time>2020-07-26T07:56:37.000Z</time>
      </trkpt>
      <trkpt lat="47.55738" lon="-2.35257">
        <ele>70.199996948242</ele>
        <time>2020-07-26T07:56:38.000Z</time>
      </trkpt>
      <trkpt lat="47.55732" lon="-2.35252">
        <ele>70.199996948242</ele>
        <time>2020-07-26T07:56:41.000Z</time>
      </trkpt>
      <trkpt lat="47.55726" lon="-2.35239">
        <ele>70.199996948242</ele>
        <time>2020-07-26T07:56:45.000Z</time>
      </trkpt>
      <trkpt lat="47.55725" lon="-2.35236">
        <ele>70.199996948242</ele>
        <time>2020-07-26T07:56:46.000Z</time>
      </trkpt>
      <trkpt lat="47.55724" lon="-2.35233">
        <ele>70.199996948242</ele>
        <time>2020-07-26T07:56:47.000Z</time>
      </trkpt>
      <trkpt lat="47.55719" lon="-2.35221">
        <ele>70.199996948242</ele>
        <time>2020-07-26T07:56:50.000Z</time>
      </trkpt>
      <trkpt lat="47.55717" lon="-2.35203">
        <ele>70.199996948242</ele>
        <time>2020-07-26T07:56:55.000Z</time>
      </trkpt>
      <trkpt lat="47.55717" lon="-2.352">
        <ele>70.199996948242</ele>
        <time>2020-07-26T07:56:57.000Z</time>
      </trkpt>
      <trkpt lat="47.55717" lon="-2.35196">
        <ele>70.199996948242</ele>
        <time>2020-07-26T08:01:21.000Z</time>
      </trkpt>
      <trkpt lat="47.55716" lon="-2.3519">
        <ele>70.199996948242</ele>
        <time>2020-07-26T08:01:23.000Z</time>
      </trkpt>
      <trkpt lat="47.55712" lon="-2.35186">
        <ele>70.199996948242</ele>
        <time>2020-07-26T08:01:26.000Z</time>
      </trkpt>
      <trkpt lat="47.5571" lon="-2.35185">
        <ele>70.199996948242</ele>
        <time>2020-07-26T08:01:27.000Z</time>
      </trkpt>
      <trkpt lat="47.55704" lon="-2.35173">
        <ele>70.199996948242</ele>
        <time>2020-07-26T08:01:32.000Z</time>
      </trkpt>
      <trkpt lat="47.55707" lon="-2.35163">
        <ele>70.199996948242</ele>
        <time>2020-07-26T08:01:36.000Z</time>
      </trkpt>
      <trkpt lat="47.55708" lon="-2.3516">
        <ele>70.199996948242</ele>
        <time>2020-07-26T08:01:37.000Z</time>
      </trkpt>
      <trkpt lat="47.55707" lon="-2.35157">
        <ele>70.199996948242</ele>
        <time>2020-07-26T08:01:38.000Z</time>
      </trkpt>
      <trkpt lat="47.55704" lon="-2.35147">
        <ele>70.199996948242</ele>
        <time>2020-07-26T08:01:42.000Z</time>
      </trkpt>
      <trkpt lat="47.55701" lon="-2.35132">
        <ele>70.199996948242</ele>
        <time>2020-07-26T08:01:47.000Z</time>
      </trkpt>
      <trkpt lat="47.55701" lon="-2.35129">
        <ele>70.199996948242</ele>
        <time>2020-07-26T08:01:48.000Z</time>
      </trkpt>
      <trkpt lat="47.55701" lon="-2.35111">
        <ele>70.199996948242</ele>
        <time>2020-07-26T08:01:53.000Z</time>
      </trkpt>
      <trkpt lat="47.55699" lon="-2.35108">
        <ele>70.199996948242</ele>
        <time>2020-07-26T08:01:54.000Z</time>
      </trkpt>
      <trkpt lat="47.55696" lon="-2.35104">
        <ele>70.199996948242</ele>
        <time>2020-07-26T08:01:56.000Z</time>
      </trkpt>
      <trkpt lat="47.5569" lon="-2.3509">
        <ele>70.199996948242</ele>
        <time>2020-07-26T08:02:01.000Z</time>
      </trkpt>
      <trkpt lat="47.55687" lon="-2.35061">
        <ele>70.199996948242</ele>
        <time>2020-07-26T08:02:07.000Z</time>
      </trkpt>
      <trkpt lat="47.55689" lon="-2.35048">
        <ele>70.199996948242</ele>
        <time>2020-07-26T08:02:11.000Z</time>
      </trkpt>
      <trkpt lat="47.55687" lon="-2.35027">
        <ele>70.199996948242</ele>
        <time>2020-07-26T08:02:18.000Z</time>
      </trkpt>
      <trkpt lat="47.55682" lon="-2.35003">
        <ele>70.199996948242</ele>
        <time>2020-07-26T08:02:24.000Z</time>
      </trkpt>
      <trkpt lat="47.55673" lon="-2.34964">
        <ele>70.199996948242</ele>
        <time>2020-07-26T08:02:32.000Z</time>
      </trkpt>
      <trkpt lat="47.55665" lon="-2.34939">
        <ele>70.199996948242</ele>
        <time>2020-07-26T08:02:38.000Z</time>
      </trkpt>
      <trkpt lat="47.55662" lon="-2.3492">
        <ele>69.800003051758</ele>
        <time>2020-07-26T08:02:45.000Z</time>
      </trkpt>
      <trkpt lat="47.55661" lon="-2.34919">
        <ele>69.400001525879</ele>
        <time>2020-07-26T08:02:46.000Z</time>
      </trkpt>
      <trkpt lat="47.5566" lon="-2.34917">
        <ele>69</ele>
        <time>2020-07-26T08:02:47.000Z</time>
      </trkpt>
      <trkpt lat="47.55659" lon="-2.34914">
        <ele>68.599998474121</ele>
        <time>2020-07-26T08:02:48.000Z</time>
      </trkpt>
      <trkpt lat="47.55658" lon="-2.34912">
        <ele>68.199996948242</ele>
        <time>2020-07-26T08:02:49.000Z</time>
      </trkpt>
      <trkpt lat="47.55656" lon="-2.34911">
        <ele>68.199996948242</ele>
        <time>2020-07-26T08:02:50.000Z</time>
      </trkpt>
      <trkpt lat="47.55648" lon="-2.34903">
        <ele>68.199996948242</ele>
        <time>2020-07-26T08:02:55.000Z</time>
      </trkpt>
      <trkpt lat="47.55648" lon="-2.34885">
        <ele>68.199996948242</ele>
        <time>2020-07-26T08:02:59.000Z</time>
      </trkpt>
      <trkpt lat="47.55654" lon="-2.3485">
        <ele>68.199996948242</ele>
        <time>2020-07-26T08:03:06.000Z</time>
      </trkpt>
      <trkpt lat="47.55656" lon="-2.34835">
        <ele>68.199996948242</ele>
        <time>2020-07-26T08:03:09.000Z</time>
      </trkpt>
      <trkpt lat="47.55655" lon="-2.34831">
        <ele>68.199996948242</ele>
        <time>2020-07-26T08:03:10.000Z</time>
      </trkpt>
      <trkpt lat="47.55642" lon="-2.34804">
        <ele>68.199996948242</ele>
        <time>2020-07-26T08:03:16.000Z</time>
      </trkpt>
      <trkpt lat="47.55625" lon="-2.34768">
        <ele>68.199996948242</ele>
        <time>2020-07-26T08:03:24.000Z</time>
      </trkpt>
      <trkpt lat="47.55623" lon="-2.34764">
        <ele>68.199996948242</ele>
        <time>2020-07-26T08:03:27.000Z</time>
      </trkpt>
      <trkpt lat="47.55621" lon="-2.34762">
        <ele>68.199996948242</ele>
        <time>2020-07-26T08:03:45.000Z</time>
      </trkpt>
      <trkpt lat="47.55613" lon="-2.34747">
        <ele>68.199996948242</ele>
        <time>2020-07-26T08:03:49.000Z</time>
      </trkpt>
      <trkpt lat="47.55602" lon="-2.34722">
        <ele>68.199996948242</ele>
        <time>2020-07-26T08:03:54.000Z</time>
      </trkpt>
      <trkpt lat="47.55595" lon="-2.34707">
        <ele>68.199996948242</ele>
        <time>2020-07-26T08:03:58.000Z</time>
      </trkpt>
      <trkpt lat="47.55594" lon="-2.34706">
        <ele>68.199996948242</ele>
        <time>2020-07-26T08:03:59.000Z</time>
      </trkpt>
      <trkpt lat="47.5559" lon="-2.34708">
        <ele>68.199996948242</ele>
        <time>2020-07-26T08:04:01.000Z</time>
      </trkpt>
      <trkpt lat="47.55582" lon="-2.34713">
        <ele>68.199996948242</ele>
        <time>2020-07-26T08:04:06.000Z</time>
      </trkpt>
      <trkpt lat="47.55577" lon="-2.34712">
        <ele>68.199996948242</ele>
        <time>2020-07-26T08:04:09.000Z</time>
      </trkpt>
      <trkpt lat="47.55577" lon="-2.34709">
        <ele>68.199996948242</ele>
        <time>2020-07-26T08:04:10.000Z</time>
      </trkpt>
      <trkpt lat="47.55577" lon="-2.34705">
        <ele>68.199996948242</ele>
        <time>2020-07-26T08:04:12.000Z</time>
      </trkpt>
      <trkpt lat="47.55581" lon="-2.34699">
        <ele>68.199996948242</ele>
        <time>2020-07-26T08:04:43.000Z</time>
      </trkpt>
      <trkpt lat="47.55583" lon="-2.34697">
        <ele>68.199996948242</ele>
        <time>2020-07-26T08:04:44.000Z</time>
      </trkpt>
      <trkpt lat="47.55584" lon="-2.34692">
        <ele>68.199996948242</ele>
        <time>2020-07-26T08:04:48.000Z</time>
      </trkpt>
      <trkpt lat="47.55577" lon="-2.3469">
        <ele>68.199996948242</ele>
        <time>2020-07-26T08:04:52.000Z</time>
      </trkpt>
      <trkpt lat="47.55579" lon="-2.34686">
        <ele>68.199996948242</ele>
        <time>2020-07-26T08:04:54.000Z</time>
      </trkpt>
      <trkpt lat="47.5558" lon="-2.34684">
        <ele>68.199996948242</ele>
        <time>2020-07-26T08:04:55.000Z</time>
      </trkpt>
      <trkpt lat="47.55582" lon="-2.3468">
        <ele>68.199996948242</ele>
        <time>2020-07-26T08:04:57.000Z</time>
      </trkpt>
      <trkpt lat="47.55581" lon="-2.34677">
        <ele>67.800003051758</ele>
        <time>2020-07-26T08:04:58.000Z</time>
      </trkpt>
      <trkpt lat="47.5558" lon="-2.34676">
        <ele>67.400001525879</ele>
        <time>2020-07-26T08:04:59.000Z</time>
      </trkpt>
      <trkpt lat="47.55579" lon="-2.34675">
        <ele>67</ele>
        <time>2020-07-26T08:05:00.000Z</time>
      </trkpt>
      <trkpt lat="47.55578" lon="-2.34674">
        <ele>66.599998474121</ele>
        <time>2020-07-26T08:05:01.000Z</time>
      </trkpt>
      <trkpt lat="47.55578" lon="-2.34672">
        <ele>66</ele>
        <time>2020-07-26T08:05:02.000Z</time>
      </trkpt>
      <trkpt lat="47.55577" lon="-2.3467">
        <ele>66</ele>
        <time>2020-07-26T08:05:03.000Z</time>
      </trkpt>
      <trkpt lat="47.55577" lon="-2.34667">
        <ele>66</ele>
        <time>2020-07-26T08:05:04.000Z</time>
      </trkpt>
      <trkpt lat="47.55575" lon="-2.34661">
        <ele>66</ele>
        <time>2020-07-26T08:05:07.000Z</time>
      </trkpt>
      <trkpt lat="47.5557" lon="-2.34655">
        <ele>66</ele>
        <time>2020-07-26T08:05:10.000Z</time>
      </trkpt>
      <trkpt lat="47.55562" lon="-2.34647">
        <ele>66</ele>
        <time>2020-07-26T08:05:16.000Z</time>
      </trkpt>
      <trkpt lat="47.55562" lon="-2.34645">
        <ele>66</ele>
        <time>2020-07-26T08:05:18.000Z</time>
      </trkpt>
      <trkpt lat="47.5556" lon="-2.34609">
        <ele>63.599998474121</ele>
        <time>2020-07-26T08:06:14.000Z</time>
      </trkpt>
      <trkpt lat="47.55563" lon="-2.34604">
        <ele>63.599998474121</ele>
        <time>2020-07-26T08:06:16.000Z</time>
      </trkpt>
      <trkpt lat="47.55568" lon="-2.34602">
        <ele>63.599998474121</ele>
        <time>2020-07-26T08:06:22.000Z</time>
      </trkpt>
      <trkpt lat="47.55571" lon="-2.34605">
        <ele>64.199996948242</ele>
        <time>2020-07-26T08:06:28.000Z</time>
      </trkpt>
      <trkpt lat="47.55571" lon="-2.34606">
        <ele>64.599998474121</ele>
        <time>2020-07-26T08:06:29.000Z</time>
      </trkpt>
      <trkpt lat="47.55571" lon="-2.34608">
        <ele>65</ele>
        <time>2020-07-26T08:06:30.000Z</time>
      </trkpt>
      <trkpt lat="47.5557" lon="-2.34609">
        <ele>65.400001525879</ele>
        <time>2020-07-26T08:06:31.000Z</time>
      </trkpt>
      <trkpt lat="47.5557" lon="-2.34611">
        <ele>65.800003051758</ele>
        <time>2020-07-26T08:06:32.000Z</time>
      </trkpt>
      <trkpt lat="47.55569" lon="-2.34613">
        <ele>65.800003051758</ele>
        <time>2020-07-26T08:06:35.000Z</time>
      </trkpt>
      <trkpt lat="47.55572" lon="-2.34616">
        <ele>65.800003051758</ele>
        <time>2020-07-26T08:06:38.000Z</time>
      </trkpt>
      <trkpt lat="47.55575" lon="-2.34619">
        <ele>65.800003051758</ele>
        <time>2020-07-26T08:06:40.000Z</time>
      </trkpt>
      <trkpt lat="47.55579" lon="-2.34623">
        <ele>65.800003051758</ele>
        <time>2020-07-26T08:06:43.000Z</time>
      </trkpt>
      <trkpt lat="47.5558" lon="-2.34621">
        <ele>65.800003051758</ele>
        <time>2020-07-26T08:06:45.000Z</time>
      </trkpt>
      <trkpt lat="47.55581" lon="-2.34619">
        <ele>65.800003051758</ele>
        <time>2020-07-26T08:06:46.000Z</time>
      </trkpt>
      <trkpt lat="47.55586" lon="-2.34608">
        <ele>65.800003051758</ele>
        <time>2020-07-26T08:06:50.000Z</time>
      </trkpt>
      <trkpt lat="47.55588" lon="-2.34607">
        <ele>65.800003051758</ele>
        <time>2020-07-26T08:06:51.000Z</time>
      </trkpt>
      <trkpt lat="47.55592" lon="-2.3461">
        <ele>65.800003051758</ele>
        <time>2020-07-26T08:06:53.000Z</time>
      </trkpt>
      <trkpt lat="47.55595" lon="-2.34609">
        <ele>65.800003051758</ele>
        <time>2020-07-26T08:06:54.000Z</time>
      </trkpt>
      <trkpt lat="47.55604" lon="-2.34606">
        <ele>65.800003051758</ele>
        <time>2020-07-26T08:06:57.000Z</time>
      </trkpt>
      <trkpt lat="47.55615" lon="-2.34594">
        <ele>65.800003051758</ele>
        <time>2020-07-26T08:07:01.000Z</time>
      </trkpt>
      <trkpt lat="47.55621" lon="-2.3459">
        <ele>65.800003051758</ele>
        <time>2020-07-26T08:07:03.000Z</time>
      </trkpt>
      <trkpt lat="47.55627" lon="-2.34588">
        <ele>65.800003051758</ele>
        <time>2020-07-26T08:07:05.000Z</time>
      </trkpt>
      <trkpt lat="47.5563" lon="-2.34586">
        <ele>65.400001525879</ele>
        <time>2020-07-26T08:07:06.000Z</time>
      </trkpt>
      <trkpt lat="47.55633" lon="-2.34587">
        <ele>65</ele>
        <time>2020-07-26T08:07:07.000Z</time>
      </trkpt>
      <trkpt lat="47.55636" lon="-2.34587">
        <ele>64.599998474121</ele>
        <time>2020-07-26T08:07:08.000Z</time>
      </trkpt>
      <trkpt lat="47.5564" lon="-2.34588">
        <ele>64.199996948242</ele>
        <time>2020-07-26T08:07:09.000Z</time>
      </trkpt>
      <trkpt lat="47.55643" lon="-2.34589">
        <ele>63.799999237061</ele>
        <time>2020-07-26T08:07:10.000Z</time>
      </trkpt>
      <trkpt lat="47.55658" lon="-2.34583">
        <ele>63.799999237061</ele>
        <time>2020-07-26T08:07:14.000Z</time>
      </trkpt>
      <trkpt lat="47.55663" lon="-2.34583">
        <ele>63.799999237061</ele>
        <time>2020-07-26T08:07:15.000Z</time>
      </trkpt>
      <trkpt lat="47.55667" lon="-2.34584">
        <ele>63.200000762939</ele>
        <time>2020-07-26T08:07:16.000Z</time>
      </trkpt>
      <trkpt lat="47.55671" lon="-2.34584">
        <ele>62.799999237061</ele>
        <time>2020-07-26T08:07:17.000Z</time>
      </trkpt>
      <trkpt lat="47.55676" lon="-2.34584">
        <ele>62.400001525879</ele>
        <time>2020-07-26T08:07:18.000Z</time>
      </trkpt>
      <trkpt lat="47.5568" lon="-2.3458">
        <ele>61.799999237061</ele>
        <time>2020-07-26T08:07:19.000Z</time>
      </trkpt>
      <trkpt lat="47.55684" lon="-2.34577">
        <ele>61.400001525879</ele>
        <time>2020-07-26T08:07:20.000Z</time>
      </trkpt>
      <trkpt lat="47.55709" lon="-2.34562">
        <ele>61</ele>
        <time>2020-07-26T08:07:26.000Z</time>
      </trkpt>
      <trkpt lat="47.55714" lon="-2.34559">
        <ele>60.400001525879</ele>
        <time>2020-07-26T08:07:27.000Z</time>
      </trkpt>
      <trkpt lat="47.55718" lon="-2.34556">
        <ele>60</ele>
        <time>2020-07-26T08:07:28.000Z</time>
      </trkpt>
      <trkpt lat="47.55722" lon="-2.34553">
        <ele>59.599998474121</ele>
        <time>2020-07-26T08:07:29.000Z</time>
      </trkpt>
      <trkpt lat="47.55726" lon="-2.3455">
        <ele>59.200000762939</ele>
        <time>2020-07-26T08:07:30.000Z</time>
      </trkpt>
      <trkpt lat="47.55744" lon="-2.34536">
        <ele>59.200000762939</ele>
        <time>2020-07-26T08:07:34.000Z</time>
      </trkpt>
      <trkpt lat="47.55755" lon="-2.3453">
        <ele>58.799999237061</ele>
        <time>2020-07-26T08:07:36.000Z</time>
      </trkpt>
      <trkpt lat="47.55761" lon="-2.34528">
        <ele>58.400001525879</ele>
        <time>2020-07-26T08:07:37.000Z</time>
      </trkpt>
      <trkpt lat="47.55767" lon="-2.34524">
        <ele>58</ele>
        <time>2020-07-26T08:07:38.000Z</time>
      </trkpt>
      <trkpt lat="47.55773" lon="-2.34521">
        <ele>57.599998474121</ele>
        <time>2020-07-26T08:07:39.000Z</time>
      </trkpt>
      <trkpt lat="47.5578" lon="-2.34519">
        <ele>57.200000762939</ele>
        <time>2020-07-26T08:07:40.000Z</time>
      </trkpt>
      <trkpt lat="47.55797" lon="-2.34515">
        <ele>57.200000762939</ele>
        <time>2020-07-26T08:07:42.000Z</time>
      </trkpt>
      <trkpt lat="47.55805" lon="-2.34516">
        <ele>56.599998474121</ele>
        <time>2020-07-26T08:07:43.000Z</time>
      </trkpt>
      <trkpt lat="47.55814" lon="-2.34518">
        <ele>56.200000762939</ele>
        <time>2020-07-26T08:07:44.000Z</time>
      </trkpt>
      <trkpt lat="47.55822" lon="-2.34522">
        <ele>55.799999237061</ele>
        <time>2020-07-26T08:07:45.000Z</time>
      </trkpt>
      <trkpt lat="47.5583" lon="-2.34527">
        <ele>55.400001525879</ele>
        <time>2020-07-26T08:07:46.000Z</time>
      </trkpt>
      <trkpt lat="47.55836" lon="-2.34533">
        <ele>54</ele>
        <time>2020-07-26T08:07:47.000Z</time>
      </trkpt>
      <trkpt lat="47.55842" lon="-2.34539">
        <ele>53.400001525879</ele>
        <time>2020-07-26T08:07:48.000Z</time>
      </trkpt>
      <trkpt lat="47.55847" lon="-2.34546">
        <ele>52.799999237061</ele>
        <time>2020-07-26T08:07:49.000Z</time>
      </trkpt>
      <trkpt lat="47.55854" lon="-2.34551">
        <ele>52.200000762939</ele>
        <time>2020-07-26T08:07:50.000Z</time>
      </trkpt>
      <trkpt lat="47.55865" lon="-2.34551">
        <ele>52.200000762939</ele>
        <time>2020-07-26T08:07:52.000Z</time>
      </trkpt>
      <trkpt lat="47.5588" lon="-2.34539">
        <ele>52.200000762939</ele>
        <time>2020-07-26T08:07:56.000Z</time>
      </trkpt>
      <trkpt lat="47.55883" lon="-2.34535">
        <ele>52.200000762939</ele>
        <time>2020-07-26T08:07:57.000Z</time>
      </trkpt>
      <trkpt lat="47.55901" lon="-2.34515">
        <ele>52.599998474121</ele>
        <time>2020-07-26T08:08:03.000Z</time>
      </trkpt>
      <trkpt lat="47.55904" lon="-2.34512">
        <ele>53.200000762939</ele>
        <time>2020-07-26T08:08:04.000Z</time>
      </trkpt>
      <trkpt lat="47.55907" lon="-2.34509">
        <ele>53.599998474121</ele>
        <time>2020-07-26T08:08:05.000Z</time>
      </trkpt>
      <trkpt lat="47.55911" lon="-2.34507">
        <ele>54</ele>
        <time>2020-07-26T08:08:06.000Z</time>
      </trkpt>
      <trkpt lat="47.55914" lon="-2.34506">
        <ele>54.599998474121</ele>
        <time>2020-07-26T08:08:07.000Z</time>
      </trkpt>
      <trkpt lat="47.55921" lon="-2.34505">
        <ele>55</ele>
        <time>2020-07-26T08:08:09.000Z</time>
      </trkpt>
      <trkpt lat="47.55924" lon="-2.34504">
        <ele>55.400001525879</ele>
        <time>2020-07-26T08:08:10.000Z</time>
      </trkpt>
      <trkpt lat="47.55927" lon="-2.34503">
        <ele>56</ele>
        <time>2020-07-26T08:08:11.000Z</time>
      </trkpt>
      <trkpt lat="47.55931" lon="-2.34503">
        <ele>57</ele>
        <time>2020-07-26T08:08:12.000Z</time>
      </trkpt>
      <trkpt lat="47.55943" lon="-2.34503">
        <ele>57.400001525879</ele>
        <time>2020-07-26T08:08:16.000Z</time>
      </trkpt>
      <trkpt lat="47.55946" lon="-2.34501">
        <ele>57.799999237061</ele>
        <time>2020-07-26T08:08:17.000Z</time>
      </trkpt>
      <trkpt lat="47.55949" lon="-2.34499">
        <ele>58.200000762939</ele>
        <time>2020-07-26T08:08:18.000Z</time>
      </trkpt>
      <trkpt lat="47.5595" lon="-2.34495">
        <ele>58.599998474121</ele>
        <time>2020-07-26T08:08:19.000Z</time>
      </trkpt>
      <trkpt lat="47.55952" lon="-2.3449">
        <ele>59</ele>
        <time>2020-07-26T08:08:20.000Z</time>
      </trkpt>
      <trkpt lat="47.55957" lon="-2.34461">
        <ele>59</ele>
        <time>2020-07-26T08:08:25.000Z</time>
      </trkpt>
      <trkpt lat="47.55958" lon="-2.34455">
        <ele>59</ele>
        <time>2020-07-26T08:08:26.000Z</time>
      </trkpt>
      <trkpt lat="47.55963" lon="-2.34432">
        <ele>59</ele>
        <time>2020-07-26T08:08:30.000Z</time>
      </trkpt>
      <trkpt lat="47.55971" lon="-2.34409">
        <ele>59</ele>
        <time>2020-07-26T08:08:35.000Z</time>
      </trkpt>
      <trkpt lat="47.55991" lon="-2.34397">
        <ele>59</ele>
        <time>2020-07-26T08:08:41.000Z</time>
      </trkpt>
      <trkpt lat="47.56015" lon="-2.34386">
        <ele>59</ele>
        <time>2020-07-26T08:08:48.000Z</time>
      </trkpt>
      <trkpt lat="47.56036" lon="-2.34371">
        <ele>59.400001525879</ele>
        <time>2020-07-26T08:08:54.000Z</time>
      </trkpt>
      <trkpt lat="47.5604" lon="-2.34369">
        <ele>59.799999237061</ele>
        <time>2020-07-26T08:08:55.000Z</time>
      </trkpt>
      <trkpt lat="47.56043" lon="-2.34366">
        <ele>60.200000762939</ele>
        <time>2020-07-26T08:08:56.000Z</time>
      </trkpt>
      <trkpt lat="47.56046" lon="-2.34363">
        <ele>60.599998474121</ele>
        <time>2020-07-26T08:08:57.000Z</time>
      </trkpt>
      <trkpt lat="47.56049" lon="-2.3436">
        <ele>61</ele>
        <time>2020-07-26T08:08:58.000Z</time>
      </trkpt>
      <trkpt lat="47.56061" lon="-2.34346">
        <ele>61</ele>
        <time>2020-07-26T08:09:02.000Z</time>
      </trkpt>
      <trkpt lat="47.56072" lon="-2.34316">
        <ele>61</ele>
        <time>2020-07-26T08:09:09.000Z</time>
      </trkpt>
      <trkpt lat="47.56071" lon="-2.34295">
        <ele>61</ele>
        <time>2020-07-26T08:09:14.000Z</time>
      </trkpt>
      <trkpt lat="47.56071" lon="-2.3429">
        <ele>61.400001525879</ele>
        <time>2020-07-26T08:09:15.000Z</time>
      </trkpt>
      <trkpt lat="47.5607" lon="-2.34286">
        <ele>61.799999237061</ele>
        <time>2020-07-26T08:09:16.000Z</time>
      </trkpt>
      <trkpt lat="47.56069" lon="-2.34282">
        <ele>62.200000762939</ele>
        <time>2020-07-26T08:09:17.000Z</time>
      </trkpt>
      <trkpt lat="47.56069" lon="-2.34279">
        <ele>62.599998474121</ele>
        <time>2020-07-26T08:09:18.000Z</time>
      </trkpt>
      <trkpt lat="47.56069" lon="-2.34276">
        <ele>63</ele>
        <time>2020-07-26T08:09:19.000Z</time>
      </trkpt>
      <trkpt lat="47.56069" lon="-2.34273">
        <ele>63</ele>
        <time>2020-07-26T08:09:20.000Z</time>
      </trkpt>
      <trkpt lat="47.56066" lon="-2.3425">
        <ele>63</ele>
        <time>2020-07-26T08:09:27.000Z</time>
      </trkpt>
      <trkpt lat="47.56063" lon="-2.34237">
        <ele>63.599998474121</ele>
        <time>2020-07-26T08:09:31.000Z</time>
      </trkpt>
      <trkpt lat="47.56063" lon="-2.34234">
        <ele>64</ele>
        <time>2020-07-26T08:09:32.000Z</time>
      </trkpt>
      <trkpt lat="47.56062" lon="-2.3423">
        <ele>64.400001525879</ele>
        <time>2020-07-26T08:09:33.000Z</time>
      </trkpt>
      <trkpt lat="47.56062" lon="-2.34226">
        <ele>64.800003051758</ele>
        <time>2020-07-26T08:09:34.000Z</time>
      </trkpt>
      <trkpt lat="47.56061" lon="-2.34222">
        <ele>65.199996948242</ele>
        <time>2020-07-26T08:09:35.000Z</time>
      </trkpt>
      <trkpt lat="47.56061" lon="-2.34218">
        <ele>65.199996948242</ele>
        <time>2020-07-26T08:09:36.000Z</time>
      </trkpt>
      <trkpt lat="47.56059" lon="-2.34186">
        <ele>65.199996948242</ele>
        <time>2020-07-26T08:09:44.000Z</time>
      </trkpt>
      <trkpt lat="47.5606" lon="-2.3415">
        <ele>65.199996948242</ele>
        <time>2020-07-26T08:09:51.000Z</time>
      </trkpt>
      <trkpt lat="47.56063" lon="-2.3411">
        <ele>65.199996948242</ele>
        <time>2020-07-26T08:09:57.000Z</time>
      </trkpt>
      <trkpt lat="47.56067" lon="-2.34079">
        <ele>65.199996948242</ele>
        <time>2020-07-26T08:10:02.000Z</time>
      </trkpt>
      <trkpt lat="47.56068" lon="-2.34072">
        <ele>65.199996948242</ele>
        <time>2020-07-26T08:10:03.000Z</time>
      </trkpt>
      <trkpt lat="47.56067" lon="-2.34027">
        <ele>65.199996948242</ele>
        <time>2020-07-26T08:10:10.000Z</time>
      </trkpt>
      <trkpt lat="47.56065" lon="-2.33982">
        <ele>65.199996948242</ele>
        <time>2020-07-26T08:10:16.000Z</time>
      </trkpt>
      <trkpt lat="47.56065" lon="-2.33973">
        <ele>65.199996948242</ele>
        <time>2020-07-26T08:10:17.000Z</time>
      </trkpt>
      <trkpt lat="47.56068" lon="-2.33917">
        <ele>65.199996948242</ele>
        <time>2020-07-26T08:10:24.000Z</time>
      </trkpt>
      <trkpt lat="47.56073" lon="-2.33868">
        <ele>65.199996948242</ele>
        <time>2020-07-26T08:10:30.000Z</time>
      </trkpt>
      <trkpt lat="47.56077" lon="-2.33844">
        <ele>65.199996948242</ele>
        <time>2020-07-26T08:10:33.000Z</time>
      </trkpt>
      <trkpt lat="47.56085" lon="-2.33832">
        <ele>65.199996948242</ele>
        <time>2020-07-26T08:10:35.000Z</time>
      </trkpt>
      <trkpt lat="47.56098" lon="-2.33825">
        <ele>65.199996948242</ele>
        <time>2020-07-26T08:10:38.000Z</time>
      </trkpt>
      <trkpt lat="47.56101" lon="-2.33822">
        <ele>65.199996948242</ele>
        <time>2020-07-26T08:10:39.000Z</time>
      </trkpt>
      <trkpt lat="47.56105" lon="-2.33809">
        <ele>65.199996948242</ele>
        <time>2020-07-26T08:10:41.000Z</time>
      </trkpt>
      <trkpt lat="47.56107" lon="-2.33794">
        <ele>65.199996948242</ele>
        <time>2020-07-26T08:10:43.000Z</time>
      </trkpt>
      <trkpt lat="47.56107" lon="-2.33779">
        <ele>65.199996948242</ele>
        <time>2020-07-26T08:10:45.000Z</time>
      </trkpt>
      <trkpt lat="47.56109" lon="-2.33757">
        <ele>65.199996948242</ele>
        <time>2020-07-26T08:10:48.000Z</time>
      </trkpt>
      <trkpt lat="47.56109" lon="-2.33742">
        <ele>65.199996948242</ele>
        <time>2020-07-26T08:10:50.000Z</time>
      </trkpt>
      <trkpt lat="47.56106" lon="-2.33737">
        <ele>65.199996948242</ele>
        <time>2020-07-26T08:10:51.000Z</time>
      </trkpt>
      <trkpt lat="47.56093" lon="-2.33732">
        <ele>65.199996948242</ele>
        <time>2020-07-26T08:10:54.000Z</time>
      </trkpt>
      <trkpt lat="47.56084" lon="-2.33729">
        <ele>65.199996948242</ele>
        <time>2020-07-26T08:10:56.000Z</time>
      </trkpt>
      <trkpt lat="47.56072" lon="-2.33721">
        <ele>65.199996948242</ele>
        <time>2020-07-26T08:10:59.000Z</time>
      </trkpt>
      <trkpt lat="47.56057" lon="-2.33712">
        <ele>65.199996948242</ele>
        <time>2020-07-26T08:11:03.000Z</time>
      </trkpt>
      <trkpt lat="47.56046" lon="-2.33703">
        <ele>65.199996948242</ele>
        <time>2020-07-26T08:11:06.000Z</time>
      </trkpt>
      <trkpt lat="47.56031" lon="-2.33683">
        <ele>65.199996948242</ele>
        <time>2020-07-26T08:11:12.000Z</time>
      </trkpt>
      <trkpt lat="47.56027" lon="-2.33677">
        <ele>65.199996948242</ele>
        <time>2020-07-26T08:11:17.000Z</time>
      </trkpt>
      <trkpt lat="47.56025" lon="-2.33674">
        <ele>65.199996948242</ele>
        <time>2020-07-26T08:11:31.000Z</time>
      </trkpt>
      <trkpt lat="47.56021" lon="-2.33669">
        <ele>65.199996948242</ele>
        <time>2020-07-26T08:11:33.000Z</time>
      </trkpt>
      <trkpt lat="47.56004" lon="-2.33648">
        <ele>65.199996948242</ele>
        <time>2020-07-26T08:11:40.000Z</time>
      </trkpt>
      <trkpt lat="47.55983" lon="-2.3362">
        <ele>65.199996948242</ele>
        <time>2020-07-26T08:11:47.000Z</time>
      </trkpt>
      <trkpt lat="47.55969" lon="-2.33605">
        <ele>65.199996948242</ele>
        <time>2020-07-26T08:11:51.000Z</time>
      </trkpt>
      <trkpt lat="47.55956" lon="-2.33596">
        <ele>65.199996948242</ele>
        <time>2020-07-26T08:11:54.000Z</time>
      </trkpt>
      <trkpt lat="47.55924" lon="-2.33578">
        <ele>65.199996948242</ele>
        <time>2020-07-26T08:12:01.000Z</time>
      </trkpt>
      <trkpt lat="47.55915" lon="-2.33569">
        <ele>64.800003051758</ele>
        <time>2020-07-26T08:12:04.000Z</time>
      </trkpt>
      <trkpt lat="47.55912" lon="-2.33567">
        <ele>64.199996948242</ele>
        <time>2020-07-26T08:12:05.000Z</time>
      </trkpt>
      <trkpt lat="47.55909" lon="-2.33564">
        <ele>63.799999237061</ele>
        <time>2020-07-26T08:12:06.000Z</time>
      </trkpt>
      <trkpt lat="47.55906" lon="-2.33562">
        <ele>63.400001525879</ele>
        <time>2020-07-26T08:12:07.000Z</time>
      </trkpt>
      <trkpt lat="47.55902" lon="-2.33559">
        <ele>62.799999237061</ele>
        <time>2020-07-26T08:12:08.000Z</time>
      </trkpt>
      <trkpt lat="47.55899" lon="-2.33556">
        <ele>62.400001525879</ele>
        <time>2020-07-26T08:12:09.000Z</time>
      </trkpt>
      <trkpt lat="47.55895" lon="-2.33553">
        <ele>62</ele>
        <time>2020-07-26T08:12:10.000Z</time>
      </trkpt>
      <trkpt lat="47.55892" lon="-2.3355">
        <ele>61.400001525879</ele>
        <time>2020-07-26T08:12:11.000Z</time>
      </trkpt>
      <trkpt lat="47.55887" lon="-2.33547">
        <ele>61</ele>
        <time>2020-07-26T08:12:12.000Z</time>
      </trkpt>
      <trkpt lat="47.55883" lon="-2.33544">
        <ele>60.400001525879</ele>
        <time>2020-07-26T08:12:13.000Z</time>
      </trkpt>
      <trkpt lat="47.55879" lon="-2.33542">
        <ele>60</ele>
        <time>2020-07-26T08:12:14.000Z</time>
      </trkpt>
      <trkpt lat="47.55875" lon="-2.33541">
        <ele>59.400001525879</ele>
        <time>2020-07-26T08:12:15.000Z</time>
      </trkpt>
      <trkpt lat="47.55871" lon="-2.3354">
        <ele>58.799999237061</ele>
        <time>2020-07-26T08:12:16.000Z</time>
      </trkpt>
      <trkpt lat="47.55866" lon="-2.33539">
        <ele>58.200000762939</ele>
        <time>2020-07-26T08:12:17.000Z</time>
      </trkpt>
      <trkpt lat="47.55862" lon="-2.33539">
        <ele>56.799999237061</ele>
        <time>2020-07-26T08:12:18.000Z</time>
      </trkpt>
      <trkpt lat="47.55857" lon="-2.33539">
        <ele>56.200000762939</ele>
        <time>2020-07-26T08:12:19.000Z</time>
      </trkpt>
      <trkpt lat="47.55851" lon="-2.33538">
        <ele>55.799999237061</ele>
        <time>2020-07-26T08:12:20.000Z</time>
      </trkpt>
      <trkpt lat="47.55844" lon="-2.33537">
        <ele>55.400001525879</ele>
        <time>2020-07-26T08:12:21.000Z</time>
      </trkpt>
      <trkpt lat="47.55836" lon="-2.33536">
        <ele>55</ele>
        <time>2020-07-26T08:12:22.000Z</time>
      </trkpt>
      <trkpt lat="47.55828" lon="-2.33537">
        <ele>54.599998474121</ele>
        <time>2020-07-26T08:12:23.000Z</time>
      </trkpt>
      <trkpt lat="47.5582" lon="-2.33537">
        <ele>54.200000762939</ele>
        <time>2020-07-26T08:12:24.000Z</time>
      </trkpt>
      <trkpt lat="47.55788" lon="-2.33535">
        <ele>53.599998474121</ele>
        <time>2020-07-26T08:12:28.000Z</time>
      </trkpt>
      <trkpt lat="47.5578" lon="-2.33534">
        <ele>53.200000762939</ele>
        <time>2020-07-26T08:12:29.000Z</time>
      </trkpt>
      <trkpt lat="47.55773" lon="-2.33534">
        <ele>52.599998474121</ele>
        <time>2020-07-26T08:12:30.000Z</time>
      </trkpt>
      <trkpt lat="47.55766" lon="-2.33534">
        <ele>52</ele>
        <time>2020-07-26T08:12:31.000Z</time>
      </trkpt>
      <trkpt lat="47.55759" lon="-2.33535">
        <ele>51.599998474121</ele>
        <time>2020-07-26T08:12:32.000Z</time>
      </trkpt>
      <trkpt lat="47.55733" lon="-2.33535">
        <ele>51.599998474121</ele>
        <time>2020-07-26T08:12:36.000Z</time>
      </trkpt>
      <trkpt lat="47.55728" lon="-2.33534">
        <ele>51.599998474121</ele>
        <time>2020-07-26T08:12:37.000Z</time>
      </trkpt>
      <trkpt lat="47.55723" lon="-2.33526">
        <ele>51.599998474121</ele>
        <time>2020-07-26T08:12:39.000Z</time>
      </trkpt>
      <trkpt lat="47.55722" lon="-2.33503">
        <ele>51.599998474121</ele>
        <time>2020-07-26T08:12:42.000Z</time>
      </trkpt>
      <trkpt lat="47.55723" lon="-2.33456">
        <ele>51.599998474121</ele>
        <time>2020-07-26T08:12:47.000Z</time>
      </trkpt>
      <trkpt lat="47.55725" lon="-2.33447">
        <ele>51.599998474121</ele>
        <time>2020-07-26T08:12:48.000Z</time>
      </trkpt>
      <trkpt lat="47.55733" lon="-2.33422">
        <ele>51.599998474121</ele>
        <time>2020-07-26T08:12:51.000Z</time>
      </trkpt>
      <trkpt lat="47.55737" lon="-2.33413">
        <ele>51.599998474121</ele>
        <time>2020-07-26T08:12:52.000Z</time>
      </trkpt>
      <trkpt lat="47.55739" lon="-2.33404">
        <ele>51.200000762939</ele>
        <time>2020-07-26T08:12:53.000Z</time>
      </trkpt>
      <trkpt lat="47.55741" lon="-2.33392">
        <ele>50.799999237061</ele>
        <time>2020-07-26T08:12:54.000Z</time>
      </trkpt>
      <trkpt lat="47.55741" lon="-2.33382">
        <ele>50.200000762939</ele>
        <time>2020-07-26T08:12:55.000Z</time>
      </trkpt>
      <trkpt lat="47.5574" lon="-2.33371">
        <ele>49.799999237061</ele>
        <time>2020-07-26T08:12:56.000Z</time>
      </trkpt>
      <trkpt lat="47.55738" lon="-2.33361">
        <ele>49.400001525879</ele>
        <time>2020-07-26T08:12:57.000Z</time>
      </trkpt>
      <trkpt lat="47.55737" lon="-2.33351">
        <ele>49</ele>
        <time>2020-07-26T08:12:58.000Z</time>
      </trkpt>
      <trkpt lat="47.55736" lon="-2.33343">
        <ele>48.400001525879</ele>
        <time>2020-07-26T08:12:59.000Z</time>
      </trkpt>
      <trkpt lat="47.55735" lon="-2.33337">
        <ele>47.799999237061</ele>
        <time>2020-07-26T08:13:00.000Z</time>
      </trkpt>
      <trkpt lat="47.55734" lon="-2.33331">
        <ele>47.200000762939</ele>
        <time>2020-07-26T08:13:01.000Z</time>
      </trkpt>
      <trkpt lat="47.55733" lon="-2.33327">
        <ele>46.599998474121</ele>
        <time>2020-07-26T08:13:02.000Z</time>
      </trkpt>
      <trkpt lat="47.55733" lon="-2.33323">
        <ele>46</ele>
        <time>2020-07-26T08:13:03.000Z</time>
      </trkpt>
      <trkpt lat="47.55734" lon="-2.33321">
        <ele>45.200000762939</ele>
        <time>2020-07-26T08:13:04.000Z</time>
      </trkpt>
      <trkpt lat="47.55735" lon="-2.33319">
        <ele>44.599998474121</ele>
        <time>2020-07-26T08:13:05.000Z</time>
      </trkpt>
      <trkpt lat="47.55736" lon="-2.33317">
        <ele>44.200000762939</ele>
        <time>2020-07-26T08:13:06.000Z</time>
      </trkpt>
      <trkpt lat="47.55737" lon="-2.33315">
        <ele>43.799999237061</ele>
        <time>2020-07-26T08:13:07.000Z</time>
      </trkpt>
      <trkpt lat="47.55738" lon="-2.33314">
        <ele>42.799999237061</ele>
        <time>2020-07-26T08:13:08.000Z</time>
      </trkpt>
      <trkpt lat="47.55738" lon="-2.33313">
        <ele>42.400001525879</ele>
        <time>2020-07-26T08:13:09.000Z</time>
      </trkpt>
      <trkpt lat="47.5574" lon="-2.33311">
        <ele>42.400001525879</ele>
        <time>2020-07-26T08:13:11.000Z</time>
      </trkpt>
      <trkpt lat="47.55742" lon="-2.33309">
        <ele>42.400001525879</ele>
        <time>2020-07-26T08:13:13.000Z</time>
      </trkpt>
      <trkpt lat="47.55747" lon="-2.33304">
        <ele>42.400001525879</ele>
        <time>2020-07-26T08:13:17.000Z</time>
      </trkpt>
      <trkpt lat="47.55756" lon="-2.33296">
        <ele>42.400001525879</ele>
        <time>2020-07-26T08:13:23.000Z</time>
      </trkpt>
      <trkpt lat="47.55759" lon="-2.33293">
        <ele>42.400001525879</ele>
        <time>2020-07-26T08:13:25.000Z</time>
      </trkpt>
      <trkpt lat="47.55761" lon="-2.33289">
        <ele>42.799999237061</ele>
        <time>2020-07-26T08:13:27.000Z</time>
      </trkpt>
      <trkpt lat="47.55763" lon="-2.33287">
        <ele>43.200000762939</ele>
        <time>2020-07-26T08:13:28.000Z</time>
      </trkpt>
      <trkpt lat="47.55764" lon="-2.33285">
        <ele>43.599998474121</ele>
        <time>2020-07-26T08:13:29.000Z</time>
      </trkpt>
      <trkpt lat="47.55765" lon="-2.33283">
        <ele>44</ele>
        <time>2020-07-26T08:13:30.000Z</time>
      </trkpt>
      <trkpt lat="47.55767" lon="-2.3328">
        <ele>44.400001525879</ele>
        <time>2020-07-26T08:13:31.000Z</time>
      </trkpt>
      <trkpt lat="47.5577" lon="-2.33275">
        <ele>44.400001525879</ele>
        <time>2020-07-26T08:13:33.000Z</time>
      </trkpt>
      <trkpt lat="47.55779" lon="-2.33254">
        <ele>44.400001525879</ele>
        <time>2020-07-26T08:13:40.000Z</time>
      </trkpt>
      <trkpt lat="47.5578" lon="-2.33252">
        <ele>44.799999237061</ele>
        <time>2020-07-26T08:13:41.000Z</time>
      </trkpt>
      <trkpt lat="47.5578" lon="-2.33249">
        <ele>45.200000762939</ele>
        <time>2020-07-26T08:13:42.000Z</time>
      </trkpt>
      <trkpt lat="47.55781" lon="-2.33246">
        <ele>45.599998474121</ele>
        <time>2020-07-26T08:13:43.000Z</time>
      </trkpt>
      <trkpt lat="47.55782" lon="-2.33242">
        <ele>46.200000762939</ele>
        <time>2020-07-26T08:13:44.000Z</time>
      </trkpt>
      <trkpt lat="47.55783" lon="-2.33238">
        <ele>46.599998474121</ele>
        <time>2020-07-26T08:13:45.000Z</time>
      </trkpt>
      <trkpt lat="47.55783" lon="-2.33231">
        <ele>46.599998474121</ele>
        <time>2020-07-26T08:13:47.000Z</time>
      </trkpt>
      <trkpt lat="47.55787" lon="-2.33205">
        <ele>46.599998474121</ele>
        <time>2020-07-26T08:13:53.000Z</time>
      </trkpt>
      <trkpt lat="47.55787" lon="-2.33197">
        <ele>47</ele>
        <time>2020-07-26T08:13:55.000Z</time>
      </trkpt>
      <trkpt lat="47.55787" lon="-2.33193">
        <ele>47.400001525879</ele>
        <time>2020-07-26T08:13:56.000Z</time>
      </trkpt>
      <trkpt lat="47.55788" lon="-2.33189">
        <ele>48.200000762939</ele>
        <time>2020-07-26T08:13:57.000Z</time>
      </trkpt>
      <trkpt lat="47.55788" lon="-2.33185">
        <ele>48.599998474121</ele>
        <time>2020-07-26T08:13:58.000Z</time>
      </trkpt>
      <trkpt lat="47.55789" lon="-2.33178">
        <ele>48.599998474121</ele>
        <time>2020-07-26T08:14:00.000Z</time>
      </trkpt>
      <trkpt lat="47.55789" lon="-2.33154">
        <ele>48.599998474121</ele>
        <time>2020-07-26T08:14:06.000Z</time>
      </trkpt>
      <trkpt lat="47.55789" lon="-2.33135">
        <ele>49</ele>
        <time>2020-07-26T08:14:12.000Z</time>
      </trkpt>
      <trkpt lat="47.55789" lon="-2.33133">
        <ele>49.400001525879</ele>
        <time>2020-07-26T08:14:13.000Z</time>
      </trkpt>
      <trkpt lat="47.55789" lon="-2.3313">
        <ele>49.799999237061</ele>
        <time>2020-07-26T08:14:14.000Z</time>
      </trkpt>
      <trkpt lat="47.5579" lon="-2.33127">
        <ele>50.400001525879</ele>
        <time>2020-07-26T08:14:15.000Z</time>
      </trkpt>
      <trkpt lat="47.5579" lon="-2.33124">
        <ele>50.799999237061</ele>
        <time>2020-07-26T08:14:16.000Z</time>
      </trkpt>
      <trkpt lat="47.55791" lon="-2.33111">
        <ele>50.799999237061</ele>
        <time>2020-07-26T08:14:20.000Z</time>
      </trkpt>
      <trkpt lat="47.55797" lon="-2.3307">
        <ele>50.799999237061</ele>
        <time>2020-07-26T08:14:28.000Z</time>
      </trkpt>
      <trkpt lat="47.55804" lon="-2.33034">
        <ele>50.799999237061</ele>
        <time>2020-07-26T08:14:35.000Z</time>
      </trkpt>
      <trkpt lat="47.5581" lon="-2.33016">
        <ele>50.799999237061</ele>
        <time>2020-07-26T08:14:40.000Z</time>
      </trkpt>
      <trkpt lat="47.55815" lon="-2.33006">
        <ele>51.200000762939</ele>
        <time>2020-07-26T08:14:42.000Z</time>
      </trkpt>
      <trkpt lat="47.55818" lon="-2.33003">
        <ele>51.599998474121</ele>
        <time>2020-07-26T08:14:43.000Z</time>
      </trkpt>
      <trkpt lat="47.5582" lon="-2.33">
        <ele>52</ele>
        <time>2020-07-26T08:14:44.000Z</time>
      </trkpt>
      <trkpt lat="47.55822" lon="-2.32998">
        <ele>52.400001525879</ele>
        <time>2020-07-26T08:14:45.000Z</time>
      </trkpt>
      <trkpt lat="47.55825" lon="-2.32994">
        <ele>52.799999237061</ele>
        <time>2020-07-26T08:14:46.000Z</time>
      </trkpt>
      <trkpt lat="47.55842" lon="-2.32971">
        <ele>52.799999237061</ele>
        <time>2020-07-26T08:14:51.000Z</time>
      </trkpt>
      <trkpt lat="47.55856" lon="-2.32956">
        <ele>52.799999237061</ele>
        <time>2020-07-26T08:14:58.000Z</time>
      </trkpt>
      <trkpt lat="47.55867" lon="-2.32944">
        <ele>52.799999237061</ele>
        <time>2020-07-26T08:15:04.000Z</time>
      </trkpt>
      <trkpt lat="47.55888" lon="-2.32933">
        <ele>52.799999237061</ele>
        <time>2020-07-26T08:15:09.000Z</time>
      </trkpt>
      <trkpt lat="47.55918" lon="-2.32922">
        <ele>52.799999237061</ele>
        <time>2020-07-26T08:15:17.000Z</time>
      </trkpt>
      <trkpt lat="47.55943" lon="-2.3292">
        <ele>52.799999237061</ele>
        <time>2020-07-26T08:15:23.000Z</time>
      </trkpt>
      <trkpt lat="47.5596" lon="-2.3292">
        <ele>52.799999237061</ele>
        <time>2020-07-26T08:15:30.000Z</time>
      </trkpt>
      <trkpt lat="47.55964" lon="-2.32921">
        <ele>52.799999237061</ele>
        <time>2020-07-26T08:15:33.000Z</time>
      </trkpt>
      <trkpt lat="47.55986" lon="-2.32921">
        <ele>53.599998474121</ele>
        <time>2020-07-26T08:16:04.000Z</time>
      </trkpt>
      <trkpt lat="47.55989" lon="-2.32919">
        <ele>54</ele>
        <time>2020-07-26T08:16:05.000Z</time>
      </trkpt>
      <trkpt lat="47.55993" lon="-2.32917">
        <ele>54.400001525879</ele>
        <time>2020-07-26T08:16:06.000Z</time>
      </trkpt>
      <trkpt lat="47.55995" lon="-2.32917">
        <ele>54.799999237061</ele>
        <time>2020-07-26T08:16:07.000Z</time>
      </trkpt>
      <trkpt lat="47.56059" lon="-2.32905">
        <ele>54.799999237061</ele>
        <time>2020-07-26T08:16:08.000Z</time>
      </trkpt>
      <trkpt lat="47.5606" lon="-2.32905">
        <ele>54.799999237061</ele>
        <time>2020-07-26T08:16:11.000Z</time>
      </trkpt>
      <trkpt lat="47.56056" lon="-2.329">
        <ele>54.799999237061</ele>
        <time>2020-07-26T08:16:42.000Z</time>
      </trkpt>
      <trkpt lat="47.56048" lon="-2.329">
        <ele>54.799999237061</ele>
        <time>2020-07-26T08:16:44.000Z</time>
      </trkpt>
      <trkpt lat="47.56035" lon="-2.32893">
        <ele>54.799999237061</ele>
        <time>2020-07-26T08:16:50.000Z</time>
      </trkpt>
      <trkpt lat="47.5602" lon="-2.32899">
        <ele>54.799999237061</ele>
        <time>2020-07-26T08:16:56.000Z</time>
      </trkpt>
      <trkpt lat="47.56014" lon="-2.329">
        <ele>54.799999237061</ele>
        <time>2020-07-26T08:16:58.000Z</time>
      </trkpt>
      <trkpt lat="47.56008" lon="-2.32893">
        <ele>54.799999237061</ele>
        <time>2020-07-26T08:17:01.000Z</time>
      </trkpt>
      <trkpt lat="47.56004" lon="-2.32885">
        <ele>54.400001525879</ele>
        <time>2020-07-26T08:17:03.000Z</time>
      </trkpt>
      <trkpt lat="47.56003" lon="-2.3288">
        <ele>54</ele>
        <time>2020-07-26T08:17:04.000Z</time>
      </trkpt>
      <trkpt lat="47.56003" lon="-2.32877">
        <ele>53.599998474121</ele>
        <time>2020-07-26T08:17:05.000Z</time>
      </trkpt>
      <trkpt lat="47.56003" lon="-2.32874">
        <ele>53</ele>
        <time>2020-07-26T08:17:06.000Z</time>
      </trkpt>
      <trkpt lat="47.56003" lon="-2.32872">
        <ele>52.599998474121</ele>
        <time>2020-07-26T08:17:07.000Z</time>
      </trkpt>
      <trkpt lat="47.56001" lon="-2.32871">
        <ele>49.200000762939</ele>
        <time>2020-07-26T08:17:11.000Z</time>
      </trkpt>
      <trkpt lat="47.56001" lon="-2.32871">
        <ele>47.400001525879</ele>
        <time>2020-07-26T08:17:12.000Z</time>
      </trkpt>
      <trkpt lat="47.55998" lon="-2.32876">
        <ele>52.599998474121</ele>
        <time>2020-07-26T08:17:36.000Z</time>
      </trkpt>
      <trkpt lat="47.55997" lon="-2.32881">
        <ele>52.599998474121</ele>
        <time>2020-07-26T08:17:39.000Z</time>
      </trkpt>
      <trkpt lat="47.55996" lon="-2.32883">
        <ele>52.599998474121</ele>
        <time>2020-07-26T08:17:42.000Z</time>
      </trkpt>
      <trkpt lat="47.5599" lon="-2.32875">
        <ele>51.400001525879</ele>
        <time>2020-07-26T08:17:51.000Z</time>
      </trkpt>
      <trkpt lat="47.55989" lon="-2.32874">
        <ele>51</ele>
        <time>2020-07-26T08:17:52.000Z</time>
      </trkpt>
      <trkpt lat="47.55987" lon="-2.32872">
        <ele>50.599998474121</ele>
        <time>2020-07-26T08:17:53.000Z</time>
      </trkpt>
      <trkpt lat="47.55986" lon="-2.32872">
        <ele>50.200000762939</ele>
        <time>2020-07-26T08:17:57.000Z</time>
      </trkpt>
      <trkpt lat="47.55985" lon="-2.32871">
        <ele>49.599998474121</ele>
        <time>2020-07-26T08:17:58.000Z</time>
      </trkpt>
      <trkpt lat="47.55983" lon="-2.3287">
        <ele>49.200000762939</ele>
        <time>2020-07-26T08:17:59.000Z</time>
      </trkpt>
      <trkpt lat="47.55982" lon="-2.32869">
        <ele>48.799999237061</ele>
        <time>2020-07-26T08:18:00.000Z</time>
      </trkpt>
      <trkpt lat="47.55982" lon="-2.32869">
        <ele>48.200000762939</ele>
        <time>2020-07-26T08:18:01.000Z</time>
      </trkpt>
      <trkpt lat="47.55979" lon="-2.32866">
        <ele>47.799999237061</ele>
        <time>2020-07-26T08:18:03.000Z</time>
      </trkpt>
      <trkpt lat="47.55977" lon="-2.32865">
        <ele>47.400001525879</ele>
        <time>2020-07-26T08:18:04.000Z</time>
      </trkpt>
      <trkpt lat="47.55974" lon="-2.32865">
        <ele>46.599998474121</ele>
        <time>2020-07-26T08:18:05.000Z</time>
      </trkpt>
      <trkpt lat="47.55971" lon="-2.32866">
        <ele>46.200000762939</ele>
        <time>2020-07-26T08:18:06.000Z</time>
      </trkpt>
      <trkpt lat="47.5596" lon="-2.32865">
        <ele>46.200000762939</ele>
        <time>2020-07-26T08:18:11.000Z</time>
      </trkpt>
      <trkpt lat="47.55946" lon="-2.3286">
        <ele>46.200000762939</ele>
        <time>2020-07-26T08:18:17.000Z</time>
      </trkpt>
      <trkpt lat="47.55941" lon="-2.32861">
        <ele>46.200000762939</ele>
        <time>2020-07-26T08:18:19.000Z</time>
      </trkpt>
      <trkpt lat="47.55931" lon="-2.32862">
        <ele>46.599998474121</ele>
        <time>2020-07-26T08:18:23.000Z</time>
      </trkpt>
      <trkpt lat="47.55928" lon="-2.32862">
        <ele>47</ele>
        <time>2020-07-26T08:18:24.000Z</time>
      </trkpt>
      <trkpt lat="47.55925" lon="-2.3286">
        <ele>47.400001525879</ele>
        <time>2020-07-26T08:18:25.000Z</time>
      </trkpt>
      <trkpt lat="47.55923" lon="-2.32859">
        <ele>47.799999237061</ele>
        <time>2020-07-26T08:18:26.000Z</time>
      </trkpt>
      <trkpt lat="47.5592" lon="-2.32858">
        <ele>48.200000762939</ele>
        <time>2020-07-26T08:18:27.000Z</time>
      </trkpt>
      <trkpt lat="47.55906" lon="-2.32843">
        <ele>48.200000762939</ele>
        <time>2020-07-26T08:18:33.000Z</time>
      </trkpt>
      <trkpt lat="47.55898" lon="-2.32831">
        <ele>48.200000762939</ele>
        <time>2020-07-26T08:18:38.000Z</time>
      </trkpt>
      <trkpt lat="47.55897" lon="-2.32818">
        <ele>47.799999237061</ele>
        <time>2020-07-26T08:18:43.000Z</time>
      </trkpt>
      <trkpt lat="47.55897" lon="-2.32817">
        <ele>47.400001525879</ele>
        <time>2020-07-26T08:18:44.000Z</time>
      </trkpt>
      <trkpt lat="47.55897" lon="-2.32816">
        <ele>47</ele>
        <time>2020-07-26T08:18:45.000Z</time>
      </trkpt>
      <trkpt lat="47.55896" lon="-2.32815">
        <ele>46.400001525879</ele>
        <time>2020-07-26T08:18:46.000Z</time>
      </trkpt>
      <trkpt lat="47.55894" lon="-2.32815">
        <ele>46</ele>
        <time>2020-07-26T08:18:47.000Z</time>
      </trkpt>
      <trkpt lat="47.55891" lon="-2.32814">
        <ele>46</ele>
        <time>2020-07-26T08:18:49.000Z</time>
      </trkpt>
      <trkpt lat="47.55888" lon="-2.32813">
        <ele>46</ele>
        <time>2020-07-26T08:18:50.000Z</time>
      </trkpt>
      <trkpt lat="47.55882" lon="-2.32813">
        <ele>46</ele>
        <time>2020-07-26T08:18:53.000Z</time>
      </trkpt>
      <trkpt lat="47.55876" lon="-2.32812">
        <ele>46</ele>
        <time>2020-07-26T08:18:58.000Z</time>
      </trkpt>
      <trkpt lat="47.55874" lon="-2.32813">
        <ele>46</ele>
        <time>2020-07-26T08:18:59.000Z</time>
      </trkpt>
      <trkpt lat="47.55867" lon="-2.32813">
        <ele>46</ele>
        <time>2020-07-26T08:19:03.000Z</time>
      </trkpt>
      <trkpt lat="47.55856" lon="-2.32821">
        <ele>46</ele>
        <time>2020-07-26T08:19:08.000Z</time>
      </trkpt>
      <trkpt lat="47.55853" lon="-2.32827">
        <ele>46</ele>
        <time>2020-07-26T08:19:12.000Z</time>
      </trkpt>
      <trkpt lat="47.55853" lon="-2.32827">
        <ele>46</ele>
        <time>2020-07-26T08:19:13.000Z</time>
      </trkpt>
      <trkpt lat="47.55855" lon="-2.32824">
        <ele>46</ele>
        <time>2020-07-26T08:19:16.000Z</time>
      </trkpt>
      <trkpt lat="47.55857" lon="-2.32821">
        <ele>46</ele>
        <time>2020-07-26T08:19:18.000Z</time>
      </trkpt>
      <trkpt lat="47.55861" lon="-2.32826">
        <ele>46</ele>
        <time>2020-07-26T08:19:22.000Z</time>
      </trkpt>
      <trkpt lat="47.55862" lon="-2.32829">
        <ele>46</ele>
        <time>2020-07-26T08:19:23.000Z</time>
      </trkpt>
      <trkpt lat="47.55864" lon="-2.32834">
        <ele>46.400001525879</ele>
        <time>2020-07-26T08:19:25.000Z</time>
      </trkpt>
      <trkpt lat="47.55864" lon="-2.32836">
        <ele>46.799999237061</ele>
        <time>2020-07-26T08:19:26.000Z</time>
      </trkpt>
      <trkpt lat="47.55865" lon="-2.32838">
        <ele>47.200000762939</ele>
        <time>2020-07-26T08:19:27.000Z</time>
      </trkpt>
      <trkpt lat="47.55866" lon="-2.3284">
        <ele>47.599998474121</ele>
        <time>2020-07-26T08:19:28.000Z</time>
      </trkpt>
      <trkpt lat="47.55867" lon="-2.32842">
        <ele>48</ele>
        <time>2020-07-26T08:19:29.000Z</time>
      </trkpt>
      <trkpt lat="47.55868" lon="-2.32846">
        <ele>48</ele>
        <time>2020-07-26T08:19:33.000Z</time>
      </trkpt>
      <trkpt lat="47.55865" lon="-2.32854">
        <ele>48</ele>
        <time>2020-07-26T08:19:36.000Z</time>
      </trkpt>
      <trkpt lat="47.5586" lon="-2.32869">
        <ele>48</ele>
        <time>2020-07-26T08:19:42.000Z</time>
      </trkpt>
      <trkpt lat="47.55861" lon="-2.32882">
        <ele>48</ele>
        <time>2020-07-26T08:19:47.000Z</time>
      </trkpt>
      <trkpt lat="47.55862" lon="-2.32889">
        <ele>48.599998474121</ele>
        <time>2020-07-26T08:19:49.000Z</time>
      </trkpt>
      <trkpt lat="47.55863" lon="-2.32893">
        <ele>49</ele>
        <time>2020-07-26T08:19:50.000Z</time>
      </trkpt>
      <trkpt lat="47.55863" lon="-2.32896">
        <ele>49.400001525879</ele>
        <time>2020-07-26T08:19:51.000Z</time>
      </trkpt>
      <trkpt lat="47.55864" lon="-2.329">
        <ele>49.799999237061</ele>
        <time>2020-07-26T08:19:52.000Z</time>
      </trkpt>
      <trkpt lat="47.55864" lon="-2.32902">
        <ele>50.200000762939</ele>
        <time>2020-07-26T08:19:53.000Z</time>
      </trkpt>
      <trkpt lat="47.55862" lon="-2.32908">
        <ele>50.200000762939</ele>
        <time>2020-07-26T08:19:55.000Z</time>
      </trkpt>
      <trkpt lat="47.55857" lon="-2.32912">
        <ele>50.200000762939</ele>
        <time>2020-07-26T08:19:57.000Z</time>
      </trkpt>
      <trkpt lat="47.55852" lon="-2.32922">
        <ele>50.200000762939</ele>
        <time>2020-07-26T08:20:01.000Z</time>
      </trkpt>
      <trkpt lat="47.5585" lon="-2.32923">
        <ele>50.200000762939</ele>
        <time>2020-07-26T08:20:02.000Z</time>
      </trkpt>
      <trkpt lat="47.55845" lon="-2.32938">
        <ele>50.200000762939</ele>
        <time>2020-07-26T08:20:06.000Z</time>
      </trkpt>
      <trkpt lat="47.55836" lon="-2.32949">
        <ele>50.200000762939</ele>
        <time>2020-07-26T08:20:11.000Z</time>
      </trkpt>
      <trkpt lat="47.55834" lon="-2.32949">
        <ele>50.200000762939</ele>
        <time>2020-07-26T08:20:12.000Z</time>
      </trkpt>
      <trkpt lat="47.55832" lon="-2.32949">
        <ele>49.799999237061</ele>
        <time>2020-07-26T08:20:13.000Z</time>
      </trkpt>
      <trkpt lat="47.5583" lon="-2.32949">
        <ele>49.200000762939</ele>
        <time>2020-07-26T08:20:14.000Z</time>
      </trkpt>
      <trkpt lat="47.55829" lon="-2.3295">
        <ele>48.799999237061</ele>
        <time>2020-07-26T08:20:15.000Z</time>
      </trkpt>
      <trkpt lat="47.55827" lon="-2.32951">
        <ele>48.400001525879</ele>
        <time>2020-07-26T08:20:16.000Z</time>
      </trkpt>
      <trkpt lat="47.55826" lon="-2.32951">
        <ele>47.799999237061</ele>
        <time>2020-07-26T08:20:17.000Z</time>
      </trkpt>
      <trkpt lat="47.55823" lon="-2.32954">
        <ele>47.400001525879</ele>
        <time>2020-07-26T08:20:19.000Z</time>
      </trkpt>
      <trkpt lat="47.55821" lon="-2.32955">
        <ele>47</ele>
        <time>2020-07-26T08:20:20.000Z</time>
      </trkpt>
      <trkpt lat="47.55819" lon="-2.32957">
        <ele>46.599998474121</ele>
        <time>2020-07-26T08:20:21.000Z</time>
      </trkpt>
      <trkpt lat="47.55818" lon="-2.32958">
        <ele>46</ele>
        <time>2020-07-26T08:20:22.000Z</time>
      </trkpt>
      <trkpt lat="47.55816" lon="-2.32959">
        <ele>45.599998474121</ele>
        <time>2020-07-26T08:20:23.000Z</time>
      </trkpt>
      <trkpt lat="47.55815" lon="-2.32961">
        <ele>45.200000762939</ele>
        <time>2020-07-26T08:20:24.000Z</time>
      </trkpt>
      <trkpt lat="47.55814" lon="-2.32963">
        <ele>44.799999237061</ele>
        <time>2020-07-26T08:20:25.000Z</time>
      </trkpt>
      <trkpt lat="47.55813" lon="-2.32964">
        <ele>44.200000762939</ele>
        <time>2020-07-26T08:20:26.000Z</time>
      </trkpt>
      <trkpt lat="47.55812" lon="-2.32966">
        <ele>43.799999237061</ele>
        <time>2020-07-26T08:20:27.000Z</time>
      </trkpt>
      <trkpt lat="47.55811" lon="-2.32968">
        <ele>43.400001525879</ele>
        <time>2020-07-26T08:20:28.000Z</time>
      </trkpt>
      <trkpt lat="47.55809" lon="-2.32969">
        <ele>43.400001525879</ele>
        <time>2020-07-26T08:20:29.000Z</time>
      </trkpt>
      <trkpt lat="47.55805" lon="-2.32972">
        <ele>43</ele>
        <time>2020-07-26T08:20:31.000Z</time>
      </trkpt>
      <trkpt lat="47.55802" lon="-2.32975">
        <ele>42.599998474121</ele>
        <time>2020-07-26T08:20:32.000Z</time>
      </trkpt>
      <trkpt lat="47.55801" lon="-2.32978">
        <ele>41.599998474121</ele>
        <time>2020-07-26T08:20:33.000Z</time>
      </trkpt>
      <trkpt lat="47.558" lon="-2.3298">
        <ele>41.200000762939</ele>
        <time>2020-07-26T08:20:34.000Z</time>
      </trkpt>
      <trkpt lat="47.55795" lon="-2.33">
        <ele>41.200000762939</ele>
        <time>2020-07-26T08:20:41.000Z</time>
      </trkpt>
      <trkpt lat="47.55787" lon="-2.33003">
        <ele>41.200000762939</ele>
        <time>2020-07-26T08:20:46.000Z</time>
      </trkpt>
      <trkpt lat="47.55784" lon="-2.33003">
        <ele>40.799999237061</ele>
        <time>2020-07-26T08:20:47.000Z</time>
      </trkpt>
      <trkpt lat="47.55782" lon="-2.33002">
        <ele>40.200000762939</ele>
        <time>2020-07-26T08:20:48.000Z</time>
      </trkpt>
      <trkpt lat="47.55779" lon="-2.33001">
        <ele>39.799999237061</ele>
        <time>2020-07-26T08:20:49.000Z</time>
      </trkpt>
      <trkpt lat="47.55777" lon="-2.32999">
        <ele>39.200000762939</ele>
        <time>2020-07-26T08:20:50.000Z</time>
      </trkpt>
      <trkpt lat="47.55775" lon="-2.32997">
        <ele>38.599998474121</ele>
        <time>2020-07-26T08:20:51.000Z</time>
      </trkpt>
      <trkpt lat="47.55773" lon="-2.32995">
        <ele>37.799999237061</ele>
        <time>2020-07-26T08:20:52.000Z</time>
      </trkpt>
      <trkpt lat="47.55772" lon="-2.32993">
        <ele>37.200000762939</ele>
        <time>2020-07-26T08:20:53.000Z</time>
      </trkpt>
      <trkpt lat="47.55771" lon="-2.32991">
        <ele>36.599998474121</ele>
        <time>2020-07-26T08:20:54.000Z</time>
      </trkpt>
      <trkpt lat="47.55771" lon="-2.32988">
        <ele>35.799999237061</ele>
        <time>2020-07-26T08:20:55.000Z</time>
      </trkpt>
      <trkpt lat="47.55771" lon="-2.32984">
        <ele>34.599998474121</ele>
        <time>2020-07-26T08:20:56.000Z</time>
      </trkpt>
      <trkpt lat="47.55771" lon="-2.32981">
        <ele>34.200000762939</ele>
        <time>2020-07-26T08:20:57.000Z</time>
      </trkpt>
      <trkpt lat="47.5577" lon="-2.32978">
        <ele>33.599998474121</ele>
        <time>2020-07-26T08:20:58.000Z</time>
      </trkpt>
      <trkpt lat="47.5577" lon="-2.32976">
        <ele>33</ele>
        <time>2020-07-26T08:20:59.000Z</time>
      </trkpt>
      <trkpt lat="47.55769" lon="-2.32973">
        <ele>32.599998474121</ele>
        <time>2020-07-26T08:21:00.000Z</time>
      </trkpt>
      <trkpt lat="47.55764" lon="-2.3297">
        <ele>32.599998474121</ele>
        <time>2020-07-26T08:21:03.000Z</time>
      </trkpt>
      <trkpt lat="47.55762" lon="-2.32969">
        <ele>32</ele>
        <time>2020-07-26T08:21:04.000Z</time>
      </trkpt>
      <trkpt lat="47.5576" lon="-2.32969">
        <ele>31.60000038147</ele>
        <time>2020-07-26T08:21:05.000Z</time>
      </trkpt>
      <trkpt lat="47.55757" lon="-2.3297">
        <ele>31.200000762939</ele>
        <time>2020-07-26T08:21:06.000Z</time>
      </trkpt>
      <trkpt lat="47.55753" lon="-2.32971">
        <ele>30.60000038147</ele>
        <time>2020-07-26T08:21:07.000Z</time>
      </trkpt>
      <trkpt lat="47.5575" lon="-2.3297">
        <ele>30.200000762939</ele>
        <time>2020-07-26T08:21:08.000Z</time>
      </trkpt>
      <trkpt lat="47.55747" lon="-2.32969">
        <ele>29.799999237061</ele>
        <time>2020-07-26T08:21:09.000Z</time>
      </trkpt>
      <trkpt lat="47.55745" lon="-2.32967">
        <ele>29.39999961853</ele>
        <time>2020-07-26T08:21:10.000Z</time>
      </trkpt>
      <trkpt lat="47.55743" lon="-2.32965">
        <ele>29</ele>
        <time>2020-07-26T08:21:11.000Z</time>
      </trkpt>
      <trkpt lat="47.55741" lon="-2.32963">
        <ele>28.200000762939</ele>
        <time>2020-07-26T08:21:12.000Z</time>
      </trkpt>
      <trkpt lat="47.55739" lon="-2.32961">
        <ele>27.60000038147</ele>
        <time>2020-07-26T08:21:13.000Z</time>
      </trkpt>
      <trkpt lat="47.55736" lon="-2.3296">
        <ele>27</ele>
        <time>2020-07-26T08:21:14.000Z</time>
      </trkpt>
      <trkpt lat="47.55733" lon="-2.32959">
        <ele>26.39999961853</ele>
        <time>2020-07-26T08:21:15.000Z</time>
      </trkpt>
      <trkpt lat="47.5573" lon="-2.32959">
        <ele>25.60000038147</ele>
        <time>2020-07-26T08:21:16.000Z</time>
      </trkpt>
      <trkpt lat="47.55727" lon="-2.32958">
        <ele>25</ele>
        <time>2020-07-26T08:21:17.000Z</time>
      </trkpt>
      <trkpt lat="47.55725" lon="-2.32957">
        <ele>24.200000762939</ele>
        <time>2020-07-26T08:21:18.000Z</time>
      </trkpt>
      <trkpt lat="47.55723" lon="-2.32956">
        <ele>23.60000038147</ele>
        <time>2020-07-26T08:21:19.000Z</time>
      </trkpt>
      <trkpt lat="47.55721" lon="-2.32955">
        <ele>23.200000762939</ele>
        <time>2020-07-26T08:21:20.000Z</time>
      </trkpt>
      <trkpt lat="47.55719" lon="-2.32954">
        <ele>22.60000038147</ele>
        <time>2020-07-26T08:21:21.000Z</time>
      </trkpt>
      <trkpt lat="47.55718" lon="-2.32954">
        <ele>21.60000038147</ele>
        <time>2020-07-26T08:21:22.000Z</time>
      </trkpt>
      <trkpt lat="47.55718" lon="-2.32953">
        <ele>21</ele>
        <time>2020-07-26T08:21:23.000Z</time>
      </trkpt>
      <trkpt lat="47.55716" lon="-2.32953">
        <ele>20.39999961853</ele>
        <time>2020-07-26T08:21:24.000Z</time>
      </trkpt>
      <trkpt lat="47.55715" lon="-2.32953">
        <ele>19.799999237061</ele>
        <time>2020-07-26T08:21:25.000Z</time>
      </trkpt>
      <trkpt lat="47.55714" lon="-2.3295">
        <ele>19.200000762939</ele>
        <time>2020-07-26T08:21:26.000Z</time>
      </trkpt>
      <trkpt lat="47.55714" lon="-2.32948">
        <ele>19.200000762939</ele>
        <time>2020-07-26T08:21:27.000Z</time>
      </trkpt>
      <trkpt lat="47.55713" lon="-2.32943">
        <ele>19.200000762939</ele>
        <time>2020-07-26T08:21:29.000Z</time>
      </trkpt>
      <trkpt lat="47.55709" lon="-2.32925">
        <ele>19.200000762939</ele>
        <time>2020-07-26T08:21:34.000Z</time>
      </trkpt>
      <trkpt lat="47.5571" lon="-2.32921">
        <ele>19.200000762939</ele>
        <time>2020-07-26T08:21:38.000Z</time>
      </trkpt>
      <trkpt lat="47.5571" lon="-2.3292">
        <ele>19.200000762939</ele>
        <time>2020-07-26T08:21:39.000Z</time>
      </trkpt>
      <trkpt lat="47.55711" lon="-2.32913">
        <ele>17.200000762939</ele>
        <time>2020-07-26T08:21:48.000Z</time>
      </trkpt>
      <trkpt lat="47.5571" lon="-2.32905">
        <ele>17.200000762939</ele>
        <time>2020-07-26T08:21:51.000Z</time>
      </trkpt>
      <trkpt lat="47.55709" lon="-2.32881">
        <ele>17.200000762939</ele>
        <time>2020-07-26T08:21:55.000Z</time>
      </trkpt>
      <trkpt lat="47.55707" lon="-2.32846">
        <ele>17.200000762939</ele>
        <time>2020-07-26T08:22:01.000Z</time>
      </trkpt>
      <trkpt lat="47.55706" lon="-2.32794">
        <ele>16.799999237061</ele>
        <time>2020-07-26T08:22:09.000Z</time>
      </trkpt>
      <trkpt lat="47.55707" lon="-2.32786">
        <ele>16.39999961853</ele>
        <time>2020-07-26T08:22:10.000Z</time>
      </trkpt>
      <trkpt lat="47.55707" lon="-2.32777">
        <ele>15.60000038147</ele>
        <time>2020-07-26T08:22:11.000Z</time>
      </trkpt>
      <trkpt lat="47.55708" lon="-2.32767">
        <ele>15.199999809265</ele>
        <time>2020-07-26T08:22:12.000Z</time>
      </trkpt>
      <trkpt lat="47.55709" lon="-2.32741">
        <ele>14.800000190735</ele>
        <time>2020-07-26T08:22:15.000Z</time>
      </trkpt>
      <trkpt lat="47.55709" lon="-2.32734">
        <ele>14.39999961853</ele>
        <time>2020-07-26T08:22:16.000Z</time>
      </trkpt>
      <trkpt lat="47.5571" lon="-2.32729">
        <ele>13.800000190735</ele>
        <time>2020-07-26T08:22:17.000Z</time>
      </trkpt>
      <trkpt lat="47.55711" lon="-2.32723">
        <ele>13.39999961853</ele>
        <time>2020-07-26T08:22:18.000Z</time>
      </trkpt>
      <trkpt lat="47.55711" lon="-2.32718">
        <ele>13</ele>
        <time>2020-07-26T08:22:19.000Z</time>
      </trkpt>
      <trkpt lat="47.55713" lon="-2.32713">
        <ele>13</ele>
        <time>2020-07-26T08:22:21.000Z</time>
      </trkpt>
      <trkpt lat="47.55714" lon="-2.32711">
        <ele>12.60000038147</ele>
        <time>2020-07-26T08:22:24.000Z</time>
      </trkpt>
      <trkpt lat="47.55715" lon="-2.32707">
        <ele>10.800000190735</ele>
        <time>2020-07-26T08:22:35.000Z</time>
      </trkpt>
      <trkpt lat="47.55716" lon="-2.32705">
        <ele>10.800000190735</ele>
        <time>2020-07-26T08:22:36.000Z</time>
      </trkpt>
      <trkpt lat="47.55719" lon="-2.32698">
        <ele>10.800000190735</ele>
        <time>2020-07-26T08:22:38.000Z</time>
      </trkpt>
      <trkpt lat="47.5572" lon="-2.32685">
        <ele>10.800000190735</ele>
        <time>2020-07-26T08:22:40.000Z</time>
      </trkpt>
      <trkpt lat="47.55722" lon="-2.32664">
        <ele>10.39999961853</ele>
        <time>2020-07-26T08:22:43.000Z</time>
      </trkpt>
      <trkpt lat="47.55722" lon="-2.32657">
        <ele>9.8000001907349</ele>
        <time>2020-07-26T08:22:44.000Z</time>
      </trkpt>
      <trkpt lat="47.55723" lon="-2.3265">
        <ele>9.3999996185303</ele>
        <time>2020-07-26T08:22:45.000Z</time>
      </trkpt>
      <trkpt lat="47.55723" lon="-2.32642">
        <ele>9</ele>
        <time>2020-07-26T08:22:46.000Z</time>
      </trkpt>
      <trkpt lat="47.55724" lon="-2.32635">
        <ele>8.3999996185303</ele>
        <time>2020-07-26T08:22:47.000Z</time>
      </trkpt>
      <trkpt lat="47.55726" lon="-2.32621">
        <ele>8</ele>
        <time>2020-07-26T08:22:49.000Z</time>
      </trkpt>
      <trkpt lat="47.55728" lon="-2.32615">
        <ele>7.5999999046326</ele>
        <time>2020-07-26T08:22:50.000Z</time>
      </trkpt>
      <trkpt lat="47.5573" lon="-2.3261">
        <ele>7.1999998092651</ele>
        <time>2020-07-26T08:22:51.000Z</time>
      </trkpt>
      <trkpt lat="47.55732" lon="-2.32606">
        <ele>6.8000001907349</ele>
        <time>2020-07-26T08:22:52.000Z</time>
      </trkpt>
      <trkpt lat="47.55735" lon="-2.32603">
        <ele>6.4000000953674</ele>
        <time>2020-07-26T08:22:53.000Z</time>
      </trkpt>
      <trkpt lat="47.55741" lon="-2.32596">
        <ele>6.4000000953674</ele>
        <time>2020-07-26T08:22:56.000Z</time>
      </trkpt>
      <trkpt lat="47.55749" lon="-2.32588">
        <ele>6.4000000953674</ele>
        <time>2020-07-26T08:23:00.000Z</time>
      </trkpt>
      <trkpt lat="47.55749" lon="-2.32588">
        <ele>6.4000000953674</ele>
        <time>2020-07-26T08:23:01.000Z</time>
      </trkpt>
      <trkpt lat="47.55749" lon="-2.32588">
        <ele>6.4000000953674</ele>
        <time>2020-07-26T08:23:02.000Z</time>
      </trkpt>
      <trkpt lat="47.55758" lon="-2.32545">
        <ele>10.60000038147</ele>
        <time>2020-07-26T08:25:07.000Z</time>
      </trkpt>
      <trkpt lat="47.55758" lon="-2.32539">
        <ele>10.60000038147</ele>
        <time>2020-07-26T08:25:09.000Z</time>
      </trkpt>
      <trkpt lat="47.55757" lon="-2.32535">
        <ele>11</ele>
        <time>2020-07-26T08:25:11.000Z</time>
      </trkpt>
      <trkpt lat="47.55757" lon="-2.32533">
        <ele>11.39999961853</ele>
        <time>2020-07-26T08:25:12.000Z</time>
      </trkpt>
      <trkpt lat="47.55757" lon="-2.32532">
        <ele>11.800000190735</ele>
        <time>2020-07-26T08:25:13.000Z</time>
      </trkpt>
      <trkpt lat="47.55757" lon="-2.32531">
        <ele>12.199999809265</ele>
        <time>2020-07-26T08:25:14.000Z</time>
      </trkpt>
      <trkpt lat="47.55758" lon="-2.32527">
        <ele>12.60000038147</ele>
        <time>2020-07-26T08:25:15.000Z</time>
      </trkpt>
      <trkpt lat="47.55758" lon="-2.32522">
        <ele>12.60000038147</ele>
        <time>2020-07-26T08:25:17.000Z</time>
      </trkpt>
      <trkpt lat="47.55759" lon="-2.32516">
        <ele>13</ele>
        <time>2020-07-26T08:25:19.000Z</time>
      </trkpt>
      <trkpt lat="47.55758" lon="-2.32513">
        <ele>13.39999961853</ele>
        <time>2020-07-26T08:25:20.000Z</time>
      </trkpt>
      <trkpt lat="47.55758" lon="-2.3251">
        <ele>14</ele>
        <time>2020-07-26T08:25:21.000Z</time>
      </trkpt>
      <trkpt lat="47.55758" lon="-2.32507">
        <ele>14.39999961853</ele>
        <time>2020-07-26T08:25:22.000Z</time>
      </trkpt>
      <trkpt lat="47.55758" lon="-2.32504">
        <ele>14.800000190735</ele>
        <time>2020-07-26T08:25:23.000Z</time>
      </trkpt>
      <trkpt lat="47.55758" lon="-2.32498">
        <ele>14.800000190735</ele>
        <time>2020-07-26T08:25:25.000Z</time>
      </trkpt>
      <trkpt lat="47.55759" lon="-2.32483">
        <ele>15.199999809265</ele>
        <time>2020-07-26T08:25:28.000Z</time>
      </trkpt>
      <trkpt lat="47.55759" lon="-2.3248">
        <ele>15.60000038147</ele>
        <time>2020-07-26T08:25:29.000Z</time>
      </trkpt>
      <trkpt lat="47.55759" lon="-2.32475">
        <ele>16.39999961853</ele>
        <time>2020-07-26T08:25:30.000Z</time>
      </trkpt>
      <trkpt lat="47.55759" lon="-2.3247">
        <ele>16.799999237061</ele>
        <time>2020-07-26T08:25:31.000Z</time>
      </trkpt>
      <trkpt lat="47.55759" lon="-2.32464">
        <ele>16.799999237061</ele>
        <time>2020-07-26T08:25:33.000Z</time>
      </trkpt>
      <trkpt lat="47.55757" lon="-2.32451">
        <ele>17.200000762939</ele>
        <time>2020-07-26T08:25:37.000Z</time>
      </trkpt>
      <trkpt lat="47.55757" lon="-2.32449">
        <ele>17.60000038147</ele>
        <time>2020-07-26T08:25:38.000Z</time>
      </trkpt>
      <trkpt lat="47.55756" lon="-2.32446">
        <ele>18.200000762939</ele>
        <time>2020-07-26T08:25:39.000Z</time>
      </trkpt>
      <trkpt lat="47.55756" lon="-2.32442">
        <ele>18.60000038147</ele>
        <time>2020-07-26T08:25:40.000Z</time>
      </trkpt>
      <trkpt lat="47.55755" lon="-2.32439">
        <ele>19</ele>
        <time>2020-07-26T08:25:41.000Z</time>
      </trkpt>
      <trkpt lat="47.55754" lon="-2.3242">
        <ele>19</ele>
        <time>2020-07-26T08:25:48.000Z</time>
      </trkpt>
      <trkpt lat="47.55754" lon="-2.32414">
        <ele>19.39999961853</ele>
        <time>2020-07-26T08:25:51.000Z</time>
      </trkpt>
      <trkpt lat="47.55754" lon="-2.32413">
        <ele>19.799999237061</ele>
        <time>2020-07-26T08:25:52.000Z</time>
      </trkpt>
      <trkpt lat="47.55753" lon="-2.32411">
        <ele>20.200000762939</ele>
        <time>2020-07-26T08:25:53.000Z</time>
      </trkpt>
      <trkpt lat="47.55753" lon="-2.32409">
        <ele>20.60000038147</ele>
        <time>2020-07-26T08:25:54.000Z</time>
      </trkpt>
      <trkpt lat="47.55753" lon="-2.32407">
        <ele>21</ele>
        <time>2020-07-26T08:25:55.000Z</time>
      </trkpt>
      <trkpt lat="47.55751" lon="-2.32397">
        <ele>21</ele>
        <time>2020-07-26T08:26:01.000Z</time>
      </trkpt>
      <trkpt lat="47.5575" lon="-2.32394">
        <ele>21.39999961853</ele>
        <time>2020-07-26T08:26:03.000Z</time>
      </trkpt>
      <trkpt lat="47.5575" lon="-2.32392">
        <ele>21.799999237061</ele>
        <time>2020-07-26T08:26:04.000Z</time>
      </trkpt>
      <trkpt lat="47.5575" lon="-2.32389">
        <ele>22.39999961853</ele>
        <time>2020-07-26T08:26:05.000Z</time>
      </trkpt>
      <trkpt lat="47.55749" lon="-2.32387">
        <ele>22.799999237061</ele>
        <time>2020-07-26T08:26:06.000Z</time>
      </trkpt>
      <trkpt lat="47.55749" lon="-2.32384">
        <ele>23.200000762939</ele>
        <time>2020-07-26T08:26:07.000Z</time>
      </trkpt>
      <trkpt lat="47.55748" lon="-2.32381">
        <ele>23.200000762939</ele>
        <time>2020-07-26T08:26:08.000Z</time>
      </trkpt>
      <trkpt lat="47.55747" lon="-2.3237">
        <ele>23.200000762939</ele>
        <time>2020-07-26T08:26:12.000Z</time>
      </trkpt>
      <trkpt lat="47.55746" lon="-2.32358">
        <ele>23.200000762939</ele>
        <time>2020-07-26T08:26:16.000Z</time>
      </trkpt>
      <trkpt lat="47.55747" lon="-2.32346">
        <ele>23.60000038147</ele>
        <time>2020-07-26T08:26:21.000Z</time>
      </trkpt>
      <trkpt lat="47.55747" lon="-2.32344">
        <ele>24</ele>
        <time>2020-07-26T08:26:22.000Z</time>
      </trkpt>
      <trkpt lat="47.55747" lon="-2.32343">
        <ele>24.39999961853</ele>
        <time>2020-07-26T08:26:23.000Z</time>
      </trkpt>
      <trkpt lat="47.55747" lon="-2.32341">
        <ele>24.799999237061</ele>
        <time>2020-07-26T08:26:24.000Z</time>
      </trkpt>
      <trkpt lat="47.55748" lon="-2.32338">
        <ele>25.39999961853</ele>
        <time>2020-07-26T08:26:25.000Z</time>
      </trkpt>
      <trkpt lat="47.55748" lon="-2.32326">
        <ele>25.799999237061</ele>
        <time>2020-07-26T08:26:31.000Z</time>
      </trkpt>
      <trkpt lat="47.55748" lon="-2.32324">
        <ele>26.200000762939</ele>
        <time>2020-07-26T08:26:32.000Z</time>
      </trkpt>
      <trkpt lat="47.55748" lon="-2.32321">
        <ele>26.60000038147</ele>
        <time>2020-07-26T08:26:33.000Z</time>
      </trkpt>
      <trkpt lat="47.55748" lon="-2.32319">
        <ele>27</ele>
        <time>2020-07-26T08:26:34.000Z</time>
      </trkpt>
      <trkpt lat="47.55748" lon="-2.32317">
        <ele>27.39999961853</ele>
        <time>2020-07-26T08:26:35.000Z</time>
      </trkpt>
      <trkpt lat="47.55752" lon="-2.32305">
        <ele>27.39999961853</ele>
        <time>2020-07-26T08:26:41.000Z</time>
      </trkpt>
      <trkpt lat="47.55753" lon="-2.32303">
        <ele>27.799999237061</ele>
        <time>2020-07-26T08:26:42.000Z</time>
      </trkpt>
      <trkpt lat="47.55753" lon="-2.32301">
        <ele>28.200000762939</ele>
        <time>2020-07-26T08:26:43.000Z</time>
      </trkpt>
      <trkpt lat="47.55753" lon="-2.32299">
        <ele>29</ele>
        <time>2020-07-26T08:26:44.000Z</time>
      </trkpt>
      <trkpt lat="47.55753" lon="-2.32297">
        <ele>29.39999961853</ele>
        <time>2020-07-26T08:26:45.000Z</time>
      </trkpt>
      <trkpt lat="47.55753" lon="-2.32277">
        <ele>29.39999961853</ele>
        <time>2020-07-26T08:27:06.000Z</time>
      </trkpt>
      <trkpt lat="47.55752" lon="-2.3227">
        <ele>29.39999961853</ele>
        <time>2020-07-26T08:27:08.000Z</time>
      </trkpt>
      <trkpt lat="47.55748" lon="-2.32248">
        <ele>29.39999961853</ele>
        <time>2020-07-26T08:27:13.000Z</time>
      </trkpt>
      <trkpt lat="47.55746" lon="-2.32219">
        <ele>29.39999961853</ele>
        <time>2020-07-26T08:27:19.000Z</time>
      </trkpt>
      <trkpt lat="47.55742" lon="-2.32179">
        <ele>29.39999961853</ele>
        <time>2020-07-26T08:27:27.000Z</time>
      </trkpt>
      <trkpt lat="47.55734" lon="-2.32156">
        <ele>29.39999961853</ele>
        <time>2020-07-26T08:27:33.000Z</time>
      </trkpt>
      <trkpt lat="47.55725" lon="-2.32145">
        <ele>29</ele>
        <time>2020-07-26T08:27:36.000Z</time>
      </trkpt>
      <trkpt lat="47.55722" lon="-2.32141">
        <ele>28.60000038147</ele>
        <time>2020-07-26T08:27:37.000Z</time>
      </trkpt>
      <trkpt lat="47.55718" lon="-2.32136">
        <ele>28</ele>
        <time>2020-07-26T08:27:38.000Z</time>
      </trkpt>
      <trkpt lat="47.55714" lon="-2.32132">
        <ele>27.60000038147</ele>
        <time>2020-07-26T08:27:39.000Z</time>
      </trkpt>
      <trkpt lat="47.5571" lon="-2.32124">
        <ele>27.200000762939</ele>
        <time>2020-07-26T08:27:40.000Z</time>
      </trkpt>
      <trkpt lat="47.55703" lon="-2.3211">
        <ele>26.799999237061</ele>
        <time>2020-07-26T08:27:42.000Z</time>
      </trkpt>
      <trkpt lat="47.557" lon="-2.32104">
        <ele>26.39999961853</ele>
        <time>2020-07-26T08:27:43.000Z</time>
      </trkpt>
      <trkpt lat="47.55697" lon="-2.32099">
        <ele>26</ele>
        <time>2020-07-26T08:27:44.000Z</time>
      </trkpt>
      <trkpt lat="47.55694" lon="-2.32094">
        <ele>25.60000038147</ele>
        <time>2020-07-26T08:27:45.000Z</time>
      </trkpt>
      <trkpt lat="47.55691" lon="-2.32089">
        <ele>25</ele>
        <time>2020-07-26T08:27:46.000Z</time>
      </trkpt>
      <trkpt lat="47.55689" lon="-2.32085">
        <ele>24.60000038147</ele>
        <time>2020-07-26T08:27:47.000Z</time>
      </trkpt>
      <trkpt lat="47.55687" lon="-2.32081">
        <ele>24.200000762939</ele>
        <time>2020-07-26T08:27:48.000Z</time>
      </trkpt>
      <trkpt lat="47.55686" lon="-2.32078">
        <ele>23.60000038147</ele>
        <time>2020-07-26T08:27:49.000Z</time>
      </trkpt>
      <trkpt lat="47.55685" lon="-2.32076">
        <ele>23.200000762939</ele>
        <time>2020-07-26T08:27:50.000Z</time>
      </trkpt>
      <trkpt lat="47.55683" lon="-2.32074">
        <ele>22.60000038147</ele>
        <time>2020-07-26T08:27:51.000Z</time>
      </trkpt>
      <trkpt lat="47.55682" lon="-2.3207">
        <ele>22.200000762939</ele>
        <time>2020-07-26T08:27:52.000Z</time>
      </trkpt>
      <trkpt lat="47.55681" lon="-2.32067">
        <ele>21.60000038147</ele>
        <time>2020-07-26T08:27:53.000Z</time>
      </trkpt>
      <trkpt lat="47.5568" lon="-2.32063">
        <ele>21</ele>
        <time>2020-07-26T08:27:54.000Z</time>
      </trkpt>
      <trkpt lat="47.55679" lon="-2.32048">
        <ele>21</ele>
        <time>2020-07-26T08:27:58.000Z</time>
      </trkpt>
      <trkpt lat="47.55679" lon="-2.32045">
        <ele>21</ele>
        <time>2020-07-26T08:27:59.000Z</time>
      </trkpt>
      <trkpt lat="47.55678" lon="-2.32025">
        <ele>21</ele>
        <time>2020-07-26T08:28:05.000Z</time>
      </trkpt>
      <trkpt lat="47.55675" lon="-2.31998">
        <ele>21</ele>
        <time>2020-07-26T08:28:11.000Z</time>
      </trkpt>
      <trkpt lat="47.55677" lon="-2.31979">
        <ele>21.60000038147</ele>
        <time>2020-07-26T08:28:15.000Z</time>
      </trkpt>
      <trkpt lat="47.55676" lon="-2.31974">
        <ele>22</ele>
        <time>2020-07-26T08:28:16.000Z</time>
      </trkpt>
      <trkpt lat="47.55676" lon="-2.31969">
        <ele>22.39999961853</ele>
        <time>2020-07-26T08:28:17.000Z</time>
      </trkpt>
      <trkpt lat="47.55675" lon="-2.31964">
        <ele>22.799999237061</ele>
        <time>2020-07-26T08:28:18.000Z</time>
      </trkpt>
      <trkpt lat="47.55675" lon="-2.31959">
        <ele>23.200000762939</ele>
        <time>2020-07-26T08:28:19.000Z</time>
      </trkpt>
      <trkpt lat="47.55675" lon="-2.31941">
        <ele>23.200000762939</ele>
        <time>2020-07-26T08:28:25.000Z</time>
      </trkpt>
      <trkpt lat="47.55676" lon="-2.31938">
        <ele>23.60000038147</ele>
        <time>2020-07-26T08:28:26.000Z</time>
      </trkpt>
      <trkpt lat="47.55676" lon="-2.31935">
        <ele>24</ele>
        <time>2020-07-26T08:28:27.000Z</time>
      </trkpt>
      <trkpt lat="47.55676" lon="-2.31931">
        <ele>24.39999961853</ele>
        <time>2020-07-26T08:28:28.000Z</time>
      </trkpt>
      <trkpt lat="47.55676" lon="-2.31927">
        <ele>24.799999237061</ele>
        <time>2020-07-26T08:28:29.000Z</time>
      </trkpt>
      <trkpt lat="47.55677" lon="-2.31923">
        <ele>25.200000762939</ele>
        <time>2020-07-26T08:28:30.000Z</time>
      </trkpt>
      <trkpt lat="47.55678" lon="-2.31916">
        <ele>25.200000762939</ele>
        <time>2020-07-26T08:28:32.000Z</time>
      </trkpt>
      <trkpt lat="47.55679" lon="-2.31909">
        <ele>25.799999237061</ele>
        <time>2020-07-26T08:28:34.000Z</time>
      </trkpt>
      <trkpt lat="47.55679" lon="-2.31906">
        <ele>26.200000762939</ele>
        <time>2020-07-26T08:28:35.000Z</time>
      </trkpt>
      <trkpt lat="47.5568" lon="-2.319">
        <ele>26.60000038147</ele>
        <time>2020-07-26T08:28:36.000Z</time>
      </trkpt>
      <trkpt lat="47.55681" lon="-2.31894">
        <ele>27</ele>
        <time>2020-07-26T08:28:37.000Z</time>
      </trkpt>
      <trkpt lat="47.55681" lon="-2.31891">
        <ele>27.39999961853</ele>
        <time>2020-07-26T08:28:38.000Z</time>
      </trkpt>
      <trkpt lat="47.5568" lon="-2.31871">
        <ele>28</ele>
        <time>2020-07-26T08:28:43.000Z</time>
      </trkpt>
      <trkpt lat="47.5568" lon="-2.31863">
        <ele>28.39999961853</ele>
        <time>2020-07-26T08:28:44.000Z</time>
      </trkpt>
      <trkpt lat="47.5568" lon="-2.31856">
        <ele>28.799999237061</ele>
        <time>2020-07-26T08:28:45.000Z</time>
      </trkpt>
      <trkpt lat="47.55681" lon="-2.31851">
        <ele>29.200000762939</ele>
        <time>2020-07-26T08:28:46.000Z</time>
      </trkpt>
      <trkpt lat="47.55681" lon="-2.31846">
        <ele>29.60000038147</ele>
        <time>2020-07-26T08:28:47.000Z</time>
      </trkpt>
      <trkpt lat="47.5568" lon="-2.31835">
        <ele>29.60000038147</ele>
        <time>2020-07-26T08:28:51.000Z</time>
      </trkpt>
      <trkpt lat="47.55672" lon="-2.31833">
        <ele>29.60000038147</ele>
        <time>2020-07-26T08:30:07.000Z</time>
      </trkpt>
      <trkpt lat="47.55671" lon="-2.31845">
        <ele>29.60000038147</ele>
        <time>2020-07-26T08:30:12.000Z</time>
      </trkpt>
      <trkpt lat="47.5567" lon="-2.31854">
        <ele>29.60000038147</ele>
        <time>2020-07-26T08:30:15.000Z</time>
      </trkpt>
      <trkpt lat="47.5567" lon="-2.31858">
        <ele>29.200000762939</ele>
        <time>2020-07-26T08:30:16.000Z</time>
      </trkpt>
      <trkpt lat="47.55671" lon="-2.31862">
        <ele>28.799999237061</ele>
        <time>2020-07-26T08:30:17.000Z</time>
      </trkpt>
      <trkpt lat="47.55672" lon="-2.31866">
        <ele>28.200000762939</ele>
        <time>2020-07-26T08:30:18.000Z</time>
      </trkpt>
      <trkpt lat="47.55672" lon="-2.3187">
        <ele>27.799999237061</ele>
        <time>2020-07-26T08:30:19.000Z</time>
      </trkpt>
      <trkpt lat="47.55673" lon="-2.31872">
        <ele>27.39999961853</ele>
        <time>2020-07-26T08:30:20.000Z</time>
      </trkpt>
      <trkpt lat="47.55672" lon="-2.31881">
        <ele>27.39999961853</ele>
        <time>2020-07-26T08:30:24.000Z</time>
      </trkpt>
      <trkpt lat="47.55669" lon="-2.31885">
        <ele>27.39999961853</ele>
        <time>2020-07-26T08:30:27.000Z</time>
      </trkpt>
      <trkpt lat="47.55646" lon="-2.31916">
        <ele>19.60000038147</ele>
        <time>2020-07-26T08:31:09.000Z</time>
      </trkpt>
      <trkpt lat="47.55646" lon="-2.31919">
        <ele>19.200000762939</ele>
        <time>2020-07-26T08:31:10.000Z</time>
      </trkpt>
      <trkpt lat="47.5565" lon="-2.31941">
        <ele>19.200000762939</ele>
        <time>2020-07-26T08:31:17.000Z</time>
      </trkpt>
      <trkpt lat="47.55647" lon="-2.31948">
        <ele>19.200000762939</ele>
        <time>2020-07-26T08:31:20.000Z</time>
      </trkpt>
      <trkpt lat="47.55645" lon="-2.31953">
        <ele>19.200000762939</ele>
        <time>2020-07-26T08:31:22.000Z</time>
      </trkpt>
      <trkpt lat="47.55646" lon="-2.31958">
        <ele>19.200000762939</ele>
        <time>2020-07-26T08:31:24.000Z</time>
      </trkpt>
      <trkpt lat="47.5565" lon="-2.31967">
        <ele>19.200000762939</ele>
        <time>2020-07-26T08:31:28.000Z</time>
      </trkpt>
      <trkpt lat="47.55654" lon="-2.31975">
        <ele>19.200000762939</ele>
        <time>2020-07-26T08:31:31.000Z</time>
      </trkpt>
      <trkpt lat="47.55657" lon="-2.31988">
        <ele>19.200000762939</ele>
        <time>2020-07-26T08:31:35.000Z</time>
      </trkpt>
      <trkpt lat="47.55655" lon="-2.31992">
        <ele>19.200000762939</ele>
        <time>2020-07-26T08:31:36.000Z</time>
      </trkpt>
      <trkpt lat="47.55652" lon="-2.32003">
        <ele>19.200000762939</ele>
        <time>2020-07-26T08:31:39.000Z</time>
      </trkpt>
      <trkpt lat="47.55653" lon="-2.32011">
        <ele>19.200000762939</ele>
        <time>2020-07-26T08:31:41.000Z</time>
      </trkpt>
      <trkpt lat="47.5565" lon="-2.3202">
        <ele>18.60000038147</ele>
        <time>2020-07-26T08:31:44.000Z</time>
      </trkpt>
      <trkpt lat="47.55648" lon="-2.32023">
        <ele>18.200000762939</ele>
        <time>2020-07-26T08:31:45.000Z</time>
      </trkpt>
      <trkpt lat="47.55646" lon="-2.32024">
        <ele>17.799999237061</ele>
        <time>2020-07-26T08:31:46.000Z</time>
      </trkpt>
      <trkpt lat="47.55645" lon="-2.32025">
        <ele>17.39999961853</ele>
        <time>2020-07-26T08:31:47.000Z</time>
      </trkpt>
      <trkpt lat="47.55643" lon="-2.32026">
        <ele>17</ele>
        <time>2020-07-26T08:31:48.000Z</time>
      </trkpt>
      <trkpt lat="47.55638" lon="-2.32031">
        <ele>16.60000038147</ele>
        <time>2020-07-26T08:31:51.000Z</time>
      </trkpt>
      <trkpt lat="47.55636" lon="-2.32031">
        <ele>16.200000762939</ele>
        <time>2020-07-26T08:31:52.000Z</time>
      </trkpt>
      <trkpt lat="47.55634" lon="-2.32031">
        <ele>15.60000038147</ele>
        <time>2020-07-26T08:31:53.000Z</time>
      </trkpt>
      <trkpt lat="47.55632" lon="-2.32031">
        <ele>15.199999809265</ele>
        <time>2020-07-26T08:31:54.000Z</time>
      </trkpt>
      <trkpt lat="47.55629" lon="-2.3203">
        <ele>14.800000190735</ele>
        <time>2020-07-26T08:31:55.000Z</time>
      </trkpt>
      <trkpt lat="47.55628" lon="-2.32028">
        <ele>14.800000190735</ele>
        <time>2020-07-26T08:31:56.000Z</time>
      </trkpt>
      <trkpt lat="47.55626" lon="-2.32024">
        <ele>14.199999809265</ele>
        <time>2020-07-26T08:31:57.000Z</time>
      </trkpt>
      <trkpt lat="47.55625" lon="-2.32021">
        <ele>13.800000190735</ele>
        <time>2020-07-26T08:31:58.000Z</time>
      </trkpt>
      <trkpt lat="47.55623" lon="-2.32017">
        <ele>13.39999961853</ele>
        <time>2020-07-26T08:31:59.000Z</time>
      </trkpt>
      <trkpt lat="47.55621" lon="-2.32013">
        <ele>12.800000190735</ele>
        <time>2020-07-26T08:32:00.000Z</time>
      </trkpt>
      <trkpt lat="47.5562" lon="-2.32009">
        <ele>12.39999961853</ele>
        <time>2020-07-26T08:32:01.000Z</time>
      </trkpt>
      <trkpt lat="47.55618" lon="-2.32004">
        <ele>12.39999961853</ele>
        <time>2020-07-26T08:32:02.000Z</time>
      </trkpt>
      <trkpt lat="47.55611" lon="-2.3197">
        <ele>12.39999961853</ele>
        <time>2020-07-26T08:32:07.000Z</time>
      </trkpt>
      <trkpt lat="47.5561" lon="-2.31964">
        <ele>12</ele>
        <time>2020-07-26T08:32:08.000Z</time>
      </trkpt>
      <trkpt lat="47.5561" lon="-2.31957">
        <ele>11.60000038147</ele>
        <time>2020-07-26T08:32:09.000Z</time>
      </trkpt>
      <trkpt lat="47.55609" lon="-2.31951">
        <ele>11.199999809265</ele>
        <time>2020-07-26T08:32:10.000Z</time>
      </trkpt>
      <trkpt lat="47.55609" lon="-2.31944">
        <ele>10.60000038147</ele>
        <time>2020-07-26T08:32:11.000Z</time>
      </trkpt>
      <trkpt lat="47.55608" lon="-2.31938">
        <ele>10.199999809265</ele>
        <time>2020-07-26T08:32:12.000Z</time>
      </trkpt>
      <trkpt lat="47.55604" lon="-2.31893">
        <ele>10.199999809265</ele>
        <time>2020-07-26T08:32:18.000Z</time>
      </trkpt>
      <trkpt lat="47.55601" lon="-2.31851">
        <ele>10.199999809265</ele>
        <time>2020-07-26T08:32:24.000Z</time>
      </trkpt>
      <trkpt lat="47.55603" lon="-2.31812">
        <ele>10.199999809265</ele>
        <time>2020-07-26T08:32:30.000Z</time>
      </trkpt>
      <trkpt lat="47.55603" lon="-2.31802">
        <ele>10.199999809265</ele>
        <time>2020-07-26T08:32:32.000Z</time>
      </trkpt>
      <trkpt lat="47.556" lon="-2.31792">
        <ele>10.199999809265</ele>
        <time>2020-07-26T08:32:34.000Z</time>
      </trkpt>
      <trkpt lat="47.55592" lon="-2.31763">
        <ele>10.199999809265</ele>
        <time>2020-07-26T08:32:39.000Z</time>
      </trkpt>
      <trkpt lat="47.55585" lon="-2.3173">
        <ele>10.199999809265</ele>
        <time>2020-07-26T08:32:45.000Z</time>
      </trkpt>
      <trkpt lat="47.5558" lon="-2.31681">
        <ele>10.199999809265</ele>
        <time>2020-07-26T08:32:51.000Z</time>
      </trkpt>
      <trkpt lat="47.5558" lon="-2.31675">
        <ele>9.8000001907349</ele>
        <time>2020-07-26T08:32:52.000Z</time>
      </trkpt>
      <trkpt lat="47.5558" lon="-2.3167">
        <ele>9.3999996185303</ele>
        <time>2020-07-26T08:32:53.000Z</time>
      </trkpt>
      <trkpt lat="47.5558" lon="-2.31666">
        <ele>8.6000003814697</ele>
        <time>2020-07-26T08:32:54.000Z</time>
      </trkpt>
      <trkpt lat="47.5558" lon="-2.31662">
        <ele>8.1999998092651</ele>
        <time>2020-07-26T08:32:55.000Z</time>
      </trkpt>
      <trkpt lat="47.5558" lon="-2.31658">
        <ele>8.1999998092651</ele>
        <time>2020-07-26T08:32:56.000Z</time>
      </trkpt>
      <trkpt lat="47.55575" lon="-2.31637">
        <ele>8.1999998092651</ele>
        <time>2020-07-26T08:33:01.000Z</time>
      </trkpt>
      <trkpt lat="47.55573" lon="-2.31631">
        <ele>7.8000001907349</ele>
        <time>2020-07-26T08:33:02.000Z</time>
      </trkpt>
      <trkpt lat="47.55572" lon="-2.31626">
        <ele>7.4000000953674</ele>
        <time>2020-07-26T08:33:03.000Z</time>
      </trkpt>
      <trkpt lat="47.5557" lon="-2.31621">
        <ele>7</ele>
        <time>2020-07-26T08:33:04.000Z</time>
      </trkpt>
      <trkpt lat="47.55568" lon="-2.31617">
        <ele>6.5999999046326</ele>
        <time>2020-07-26T08:33:05.000Z</time>
      </trkpt>
      <trkpt lat="47.55567" lon="-2.31614">
        <ele>6.1999998092651</ele>
        <time>2020-07-26T08:33:06.000Z</time>
      </trkpt>
      <trkpt lat="47.55564" lon="-2.31603">
        <ele>5.8000001907349</ele>
        <time>2020-07-26T08:33:09.000Z</time>
      </trkpt>
      <trkpt lat="47.55563" lon="-2.31598">
        <ele>5.4000000953674</ele>
        <time>2020-07-26T08:33:10.000Z</time>
      </trkpt>
      <trkpt lat="47.55561" lon="-2.31589">
        <ele>5</ele>
        <time>2020-07-26T08:33:11.000Z</time>
      </trkpt>
      <trkpt lat="47.55558" lon="-2.31582">
        <ele>4.5999999046326</ele>
        <time>2020-07-26T08:33:12.000Z</time>
      </trkpt>
      <trkpt lat="47.55557" lon="-2.31575">
        <ele>4.1999998092651</ele>
        <time>2020-07-26T08:33:13.000Z</time>
      </trkpt>
      <trkpt lat="47.55553" lon="-2.31535">
        <ele>4.1999998092651</ele>
        <time>2020-07-26T08:33:18.000Z</time>
      </trkpt>
      <trkpt lat="47.55552" lon="-2.31493">
        <ele>4.1999998092651</ele>
        <time>2020-07-26T08:33:24.000Z</time>
      </trkpt>
      <trkpt lat="47.55555" lon="-2.31457">
        <ele>4.1999998092651</ele>
        <time>2020-07-26T08:33:30.000Z</time>
      </trkpt>
      <trkpt lat="47.55557" lon="-2.31429">
        <ele>4.1999998092651</ele>
        <time>2020-07-26T08:33:35.000Z</time>
      </trkpt>
      <trkpt lat="47.55559" lon="-2.31395">
        <ele>4.1999998092651</ele>
        <time>2020-07-26T08:33:41.000Z</time>
      </trkpt>
      <trkpt lat="47.55562" lon="-2.3136">
        <ele>4.1999998092651</ele>
        <time>2020-07-26T08:33:45.000Z</time>
      </trkpt>
      <trkpt lat="47.55568" lon="-2.31308">
        <ele>4.1999998092651</ele>
        <time>2020-07-26T08:33:51.000Z</time>
      </trkpt>
      <trkpt lat="47.55569" lon="-2.31294">
        <ele>4.1999998092651</ele>
        <time>2020-07-26T08:33:53.000Z</time>
      </trkpt>
      <trkpt lat="47.55565" lon="-2.31271">
        <ele>4.1999998092651</ele>
        <time>2020-07-26T08:33:56.000Z</time>
      </trkpt>
      <trkpt lat="47.55559" lon="-2.31255">
        <ele>4.1999998092651</ele>
        <time>2020-07-26T08:33:58.000Z</time>
      </trkpt>
      <trkpt lat="47.55549" lon="-2.31235">
        <ele>4.1999998092651</ele>
        <time>2020-07-26T08:34:01.000Z</time>
      </trkpt>
      <trkpt lat="47.55545" lon="-2.3123">
        <ele>3.5999999046326</ele>
        <time>2020-07-26T08:34:02.000Z</time>
      </trkpt>
      <trkpt lat="47.55541" lon="-2.31224">
        <ele>3.2000000476837</ele>
        <time>2020-07-26T08:34:03.000Z</time>
      </trkpt>
      <trkpt lat="47.55537" lon="-2.31218">
        <ele>2.7999999523163</ele>
        <time>2020-07-26T08:34:04.000Z</time>
      </trkpt>
      <trkpt lat="47.55533" lon="-2.31213">
        <ele>2.4000000953674</ele>
        <time>2020-07-26T08:34:05.000Z</time>
      </trkpt>
      <trkpt lat="47.5553" lon="-2.31207">
        <ele>2</ele>
        <time>2020-07-26T08:34:06.000Z</time>
      </trkpt>
      <trkpt lat="47.55527" lon="-2.31201">
        <ele>2</ele>
        <time>2020-07-26T08:34:07.000Z</time>
      </trkpt>
      <trkpt lat="47.55518" lon="-2.31178">
        <ele>2</ele>
        <time>2020-07-26T08:34:11.000Z</time>
      </trkpt>
      <trkpt lat="47.55514" lon="-2.31163">
        <ele>2</ele>
        <time>2020-07-26T08:34:13.000Z</time>
      </trkpt>
      <trkpt lat="47.5551" lon="-2.31147">
        <ele>2</ele>
        <time>2020-07-26T08:34:15.000Z</time>
      </trkpt>
      <trkpt lat="47.55508" lon="-2.31123">
        <ele>2</ele>
        <time>2020-07-26T08:34:18.000Z</time>
      </trkpt>
      <trkpt lat="47.55509" lon="-2.3108">
        <ele>2</ele>
        <time>2020-07-26T08:34:24.000Z</time>
      </trkpt>
      <trkpt lat="47.55515" lon="-2.31056">
        <ele>2</ele>
        <time>2020-07-26T08:34:29.000Z</time>
      </trkpt>
      <trkpt lat="47.55517" lon="-2.31052">
        <ele>2.4000000953674</ele>
        <time>2020-07-26T08:34:30.000Z</time>
      </trkpt>
      <trkpt lat="47.55519" lon="-2.31047">
        <ele>2.7999999523163</ele>
        <time>2020-07-26T08:34:31.000Z</time>
      </trkpt>
      <trkpt lat="47.5552" lon="-2.31041">
        <ele>3.2000000476837</ele>
        <time>2020-07-26T08:34:32.000Z</time>
      </trkpt>
      <trkpt lat="47.55521" lon="-2.31034">
        <ele>4</ele>
        <time>2020-07-26T08:34:33.000Z</time>
      </trkpt>
      <trkpt lat="47.55521" lon="-2.31027">
        <ele>4</ele>
        <time>2020-07-26T08:34:34.000Z</time>
      </trkpt>
      <trkpt lat="47.55517" lon="-2.30987">
        <ele>4</ele>
        <time>2020-07-26T08:34:40.000Z</time>
      </trkpt>
      <trkpt lat="47.55512" lon="-2.30945">
        <ele>4</ele>
        <time>2020-07-26T08:34:46.000Z</time>
      </trkpt>
      <trkpt lat="47.55511" lon="-2.30932">
        <ele>4</ele>
        <time>2020-07-26T08:34:48.000Z</time>
      </trkpt>
      <trkpt lat="47.5551" lon="-2.30914">
        <ele>4</ele>
        <time>2020-07-26T08:34:50.000Z</time>
      </trkpt>
      <trkpt lat="47.55509" lon="-2.30904">
        <ele>4</ele>
        <time>2020-07-26T08:34:51.000Z</time>
      </trkpt>
      <trkpt lat="47.55507" lon="-2.30862">
        <ele>4</ele>
        <time>2020-07-26T08:34:56.000Z</time>
      </trkpt>
      <trkpt lat="47.55505" lon="-2.30854">
        <ele>4</ele>
        <time>2020-07-26T08:34:57.000Z</time>
      </trkpt>
      <trkpt lat="47.55496" lon="-2.30792">
        <ele>4</ele>
        <time>2020-07-26T08:35:05.000Z</time>
      </trkpt>
      <trkpt lat="47.55493" lon="-2.30784">
        <ele>4</ele>
        <time>2020-07-26T08:35:06.000Z</time>
      </trkpt>
      <trkpt lat="47.55483" lon="-2.30761">
        <ele>4</ele>
        <time>2020-07-26T08:35:09.000Z</time>
      </trkpt>
      <trkpt lat="47.55465" lon="-2.30717">
        <ele>4</ele>
        <time>2020-07-26T08:35:15.000Z</time>
      </trkpt>
      <trkpt lat="47.55456" lon="-2.30689">
        <ele>4</ele>
        <time>2020-07-26T08:35:18.000Z</time>
      </trkpt>
      <trkpt lat="47.55452" lon="-2.30666">
        <ele>4</ele>
        <time>2020-07-26T08:35:20.000Z</time>
      </trkpt>
      <trkpt lat="47.55443" lon="-2.30607">
        <ele>4</ele>
        <time>2020-07-26T08:35:26.000Z</time>
      </trkpt>
      <trkpt lat="47.55443" lon="-2.30557">
        <ele>4</ele>
        <time>2020-07-26T08:35:31.000Z</time>
      </trkpt>
      <trkpt lat="47.55443" lon="-2.30529">
        <ele>4</ele>
        <time>2020-07-26T08:35:34.000Z</time>
      </trkpt>
      <trkpt lat="47.55445" lon="-2.30514">
        <ele>4</ele>
        <time>2020-07-26T08:35:36.000Z</time>
      </trkpt>
      <trkpt lat="47.55451" lon="-2.30477">
        <ele>4</ele>
        <time>2020-07-26T08:35:41.000Z</time>
      </trkpt>
      <trkpt lat="47.55459" lon="-2.30449">
        <ele>4</ele>
        <time>2020-07-26T08:35:46.000Z</time>
      </trkpt>
      <trkpt lat="47.55464" lon="-2.30428">
        <ele>4</ele>
        <time>2020-07-26T08:35:53.000Z</time>
      </trkpt>
      <trkpt lat="47.55466" lon="-2.30407">
        <ele>4</ele>
        <time>2020-07-26T08:35:59.000Z</time>
      </trkpt>
      <trkpt lat="47.5547" lon="-2.3038">
        <ele>4</ele>
        <time>2020-07-26T08:36:05.000Z</time>
      </trkpt>
      <trkpt lat="47.55472" lon="-2.30359">
        <ele>4</ele>
        <time>2020-07-26T08:36:12.000Z</time>
      </trkpt>
      <trkpt lat="47.55478" lon="-2.30323">
        <ele>4</ele>
        <time>2020-07-26T08:36:54.000Z</time>
      </trkpt>
      <trkpt lat="47.55477" lon="-2.30313">
        <ele>4</ele>
        <time>2020-07-26T08:36:57.000Z</time>
      </trkpt>
      <trkpt lat="47.5548" lon="-2.30296">
        <ele>3.5999999046326</ele>
        <time>2020-07-26T08:37:01.000Z</time>
      </trkpt>
      <trkpt lat="47.55481" lon="-2.30293">
        <ele>3.2000000476837</ele>
        <time>2020-07-26T08:37:02.000Z</time>
      </trkpt>
      <trkpt lat="47.55482" lon="-2.3029">
        <ele>2.7999999523163</ele>
        <time>2020-07-26T08:37:03.000Z</time>
      </trkpt>
      <trkpt lat="47.55482" lon="-2.30287">
        <ele>2.4000000953674</ele>
        <time>2020-07-26T08:37:04.000Z</time>
      </trkpt>
      <trkpt lat="47.55483" lon="-2.30285">
        <ele>2</ele>
        <time>2020-07-26T08:37:05.000Z</time>
      </trkpt>
      <trkpt lat="47.55483" lon="-2.30282">
        <ele>2</ele>
        <time>2020-07-26T08:37:07.000Z</time>
      </trkpt>
      <trkpt lat="47.55483" lon="-2.30273">
        <ele>2</ele>
        <time>2020-07-26T08:44:16.000Z</time>
      </trkpt>
      <trkpt lat="47.55483" lon="-2.30276">
        <ele>2</ele>
        <time>2020-07-26T08:44:17.000Z</time>
      </trkpt>
      <trkpt lat="47.55481" lon="-2.30293">
        <ele>2</ele>
        <time>2020-07-26T08:44:24.000Z</time>
      </trkpt>
      <trkpt lat="47.5548" lon="-2.30305">
        <ele>2</ele>
        <time>2020-07-26T08:44:29.000Z</time>
      </trkpt>
      <trkpt lat="47.55479" lon="-2.30311">
        <ele>2</ele>
        <time>2020-07-26T08:44:32.000Z</time>
      </trkpt>
      <trkpt lat="47.55478" lon="-2.30317">
        <ele>2</ele>
        <time>2020-07-26T08:44:35.000Z</time>
      </trkpt>
      <trkpt lat="47.55478" lon="-2.30323">
        <ele>2</ele>
        <time>2020-07-26T08:44:40.000Z</time>
      </trkpt>
      <trkpt lat="47.55475" lon="-2.3034">
        <ele>2</ele>
        <time>2020-07-26T08:44:45.000Z</time>
      </trkpt>
      <trkpt lat="47.55473" lon="-2.30366">
        <ele>2</ele>
        <time>2020-07-26T08:44:52.000Z</time>
      </trkpt>
      <trkpt lat="47.55472" lon="-2.30375">
        <ele>2.4000000953674</ele>
        <time>2020-07-26T08:44:55.000Z</time>
      </trkpt>
      <trkpt lat="47.55472" lon="-2.30379">
        <ele>2.7999999523163</ele>
        <time>2020-07-26T08:44:56.000Z</time>
      </trkpt>
      <trkpt lat="47.55472" lon="-2.30384">
        <ele>3.4000000953674</ele>
        <time>2020-07-26T08:44:57.000Z</time>
      </trkpt>
      <trkpt lat="47.55471" lon="-2.30387">
        <ele>4.1999998092651</ele>
        <time>2020-07-26T08:44:58.000Z</time>
      </trkpt>
      <trkpt lat="47.55471" lon="-2.30406">
        <ele>4.1999998092651</ele>
        <time>2020-07-26T08:45:04.000Z</time>
      </trkpt>
      <trkpt lat="47.5547" lon="-2.30434">
        <ele>4.5999999046326</ele>
        <time>2020-07-26T08:45:11.000Z</time>
      </trkpt>
      <trkpt lat="47.5547" lon="-2.30438">
        <ele>5</ele>
        <time>2020-07-26T08:45:12.000Z</time>
      </trkpt>
      <trkpt lat="47.5547" lon="-2.30442">
        <ele>5.4000000953674</ele>
        <time>2020-07-26T08:45:13.000Z</time>
      </trkpt>
      <trkpt lat="47.55471" lon="-2.30446">
        <ele>5.8000001907349</ele>
        <time>2020-07-26T08:45:14.000Z</time>
      </trkpt>
      <trkpt lat="47.55471" lon="-2.30449">
        <ele>6.1999998092651</ele>
        <time>2020-07-26T08:45:15.000Z</time>
      </trkpt>
      <trkpt lat="47.55472" lon="-2.30458">
        <ele>6.5999999046326</ele>
        <time>2020-07-26T08:45:18.000Z</time>
      </trkpt>
      <trkpt lat="47.55473" lon="-2.30461">
        <ele>7</ele>
        <time>2020-07-26T08:45:19.000Z</time>
      </trkpt>
      <trkpt lat="47.55473" lon="-2.30464">
        <ele>7.5999999046326</ele>
        <time>2020-07-26T08:45:20.000Z</time>
      </trkpt>
      <trkpt lat="47.55474" lon="-2.30467">
        <ele>8</ele>
        <time>2020-07-26T08:45:21.000Z</time>
      </trkpt>
      <trkpt lat="47.55475" lon="-2.30471">
        <ele>8.3999996185303</ele>
        <time>2020-07-26T08:45:22.000Z</time>
      </trkpt>
      <trkpt lat="47.55476" lon="-2.30478">
        <ele>8.8000001907349</ele>
        <time>2020-07-26T08:45:24.000Z</time>
      </trkpt>
      <trkpt lat="47.55476" lon="-2.30481">
        <ele>9.1999998092651</ele>
        <time>2020-07-26T08:45:25.000Z</time>
      </trkpt>
      <trkpt lat="47.55477" lon="-2.30484">
        <ele>9.8000001907349</ele>
        <time>2020-07-26T08:45:26.000Z</time>
      </trkpt>
      <trkpt lat="47.55478" lon="-2.30487">
        <ele>10.199999809265</ele>
        <time>2020-07-26T08:45:27.000Z</time>
      </trkpt>
      <trkpt lat="47.55478" lon="-2.30491">
        <ele>10.60000038147</ele>
        <time>2020-07-26T08:45:28.000Z</time>
      </trkpt>
      <trkpt lat="47.55481" lon="-2.30501">
        <ele>11</ele>
        <time>2020-07-26T08:45:31.000Z</time>
      </trkpt>
      <trkpt lat="47.55481" lon="-2.30504">
        <ele>11.60000038147</ele>
        <time>2020-07-26T08:45:32.000Z</time>
      </trkpt>
      <trkpt lat="47.55482" lon="-2.30508">
        <ele>12</ele>
        <time>2020-07-26T08:45:33.000Z</time>
      </trkpt>
      <trkpt lat="47.55482" lon="-2.30511">
        <ele>12.39999961853</ele>
        <time>2020-07-26T08:45:34.000Z</time>
      </trkpt>
      <trkpt lat="47.55483" lon="-2.30514">
        <ele>12.800000190735</ele>
        <time>2020-07-26T08:45:35.000Z</time>
      </trkpt>
      <trkpt lat="47.55486" lon="-2.30526">
        <ele>13.199999809265</ele>
        <time>2020-07-26T08:45:39.000Z</time>
      </trkpt>
      <trkpt lat="47.55487" lon="-2.30529">
        <ele>13.60000038147</ele>
        <time>2020-07-26T08:45:40.000Z</time>
      </trkpt>
      <trkpt lat="47.55487" lon="-2.3053">
        <ele>14</ele>
        <time>2020-07-26T08:45:41.000Z</time>
      </trkpt>
      <trkpt lat="47.55487" lon="-2.30533">
        <ele>14.39999961853</ele>
        <time>2020-07-26T08:45:42.000Z</time>
      </trkpt>
      <trkpt lat="47.55487" lon="-2.30535">
        <ele>14.800000190735</ele>
        <time>2020-07-26T08:45:43.000Z</time>
      </trkpt>
      <trkpt lat="47.55487" lon="-2.30537">
        <ele>14.800000190735</ele>
        <time>2020-07-26T08:45:44.000Z</time>
      </trkpt>
      <trkpt lat="47.55488" lon="-2.30539">
        <ele>14.800000190735</ele>
        <time>2020-07-26T08:45:45.000Z</time>
      </trkpt>
      <trkpt lat="47.55489" lon="-2.30547">
        <ele>15.199999809265</ele>
        <time>2020-07-26T08:45:48.000Z</time>
      </trkpt>
      <trkpt lat="47.5549" lon="-2.30549">
        <ele>15.60000038147</ele>
        <time>2020-07-26T08:45:49.000Z</time>
      </trkpt>
      <trkpt lat="47.5549" lon="-2.3055">
        <ele>16.200000762939</ele>
        <time>2020-07-26T08:45:50.000Z</time>
      </trkpt>
      <trkpt lat="47.5549" lon="-2.30552">
        <ele>16.60000038147</ele>
        <time>2020-07-26T08:45:51.000Z</time>
      </trkpt>
      <trkpt lat="47.55491" lon="-2.30554">
        <ele>17</ele>
        <time>2020-07-26T08:45:52.000Z</time>
      </trkpt>
      <trkpt lat="47.5549" lon="-2.30558">
        <ele>17</ele>
        <time>2020-07-26T08:45:54.000Z</time>
      </trkpt>
      <trkpt lat="47.55491" lon="-2.30563">
        <ele>17</ele>
        <time>2020-07-26T08:45:58.000Z</time>
      </trkpt>
      <trkpt lat="47.55492" lon="-2.30566">
        <ele>17</ele>
        <time>2020-07-26T08:46:41.000Z</time>
      </trkpt>
      <trkpt lat="47.55492" lon="-2.30569">
        <ele>17</ele>
        <time>2020-07-26T08:46:42.000Z</time>
      </trkpt>
      <trkpt lat="47.55493" lon="-2.30596">
        <ele>17</ele>
        <time>2020-07-26T08:46:50.000Z</time>
      </trkpt>
      <trkpt lat="47.55493" lon="-2.30623">
        <ele>17</ele>
        <time>2020-07-26T08:46:57.000Z</time>
      </trkpt>
      <trkpt lat="47.55492" lon="-2.3063">
        <ele>17.39999961853</ele>
        <time>2020-07-26T08:46:59.000Z</time>
      </trkpt>
      <trkpt lat="47.55492" lon="-2.30633">
        <ele>17.799999237061</ele>
        <time>2020-07-26T08:47:00.000Z</time>
      </trkpt>
      <trkpt lat="47.55492" lon="-2.30636">
        <ele>18.200000762939</ele>
        <time>2020-07-26T08:47:01.000Z</time>
      </trkpt>
      <trkpt lat="47.55492" lon="-2.30638">
        <ele>19</ele>
        <time>2020-07-26T08:47:02.000Z</time>
      </trkpt>
      <trkpt lat="47.55491" lon="-2.30644">
        <ele>19</ele>
        <time>2020-07-26T08:47:04.000Z</time>
      </trkpt>
      <trkpt lat="47.5549" lon="-2.30663">
        <ele>19</ele>
        <time>2020-07-26T08:47:11.000Z</time>
      </trkpt>
      <trkpt lat="47.5549" lon="-2.30666">
        <ele>18.60000038147</ele>
        <time>2020-07-26T08:47:12.000Z</time>
      </trkpt>
      <trkpt lat="47.5549" lon="-2.30669">
        <ele>18.200000762939</ele>
        <time>2020-07-26T08:47:13.000Z</time>
      </trkpt>
      <trkpt lat="47.5549" lon="-2.30671">
        <ele>17.799999237061</ele>
        <time>2020-07-26T08:47:14.000Z</time>
      </trkpt>
      <trkpt lat="47.5549" lon="-2.30673">
        <ele>17.39999961853</ele>
        <time>2020-07-26T08:47:15.000Z</time>
      </trkpt>
      <trkpt lat="47.55497" lon="-2.30687">
        <ele>17</ele>
        <time>2020-07-26T08:48:01.000Z</time>
      </trkpt>
      <trkpt lat="47.55498" lon="-2.30686">
        <ele>17</ele>
        <time>2020-07-26T08:48:02.000Z</time>
      </trkpt>
      <trkpt lat="47.55501" lon="-2.30684">
        <ele>17.39999961853</ele>
        <time>2020-07-26T08:48:07.000Z</time>
      </trkpt>
      <trkpt lat="47.55501" lon="-2.30684">
        <ele>17.799999237061</ele>
        <time>2020-07-26T08:48:08.000Z</time>
      </trkpt>
      <trkpt lat="47.555" lon="-2.3068">
        <ele>19</ele>
        <time>2020-07-26T08:48:15.000Z</time>
      </trkpt>
      <trkpt lat="47.55499" lon="-2.30675">
        <ele>19</ele>
        <time>2020-07-26T08:48:19.000Z</time>
      </trkpt>
      <trkpt lat="47.55514" lon="-2.30694">
        <ele>22.799999237061</ele>
        <time>2020-07-26T08:48:33.000Z</time>
      </trkpt>
      <trkpt lat="47.55515" lon="-2.30696">
        <ele>23.200000762939</ele>
        <time>2020-07-26T08:48:34.000Z</time>
      </trkpt>
      <trkpt lat="47.55519" lon="-2.30705">
        <ele>23.200000762939</ele>
        <time>2020-07-26T08:48:39.000Z</time>
      </trkpt>
      <trkpt lat="47.55543" lon="-2.30717">
        <ele>29.799999237061</ele>
        <time>2020-07-26T08:49:45.000Z</time>
      </trkpt>
      <trkpt lat="47.55548" lon="-2.30725">
        <ele>29.799999237061</ele>
        <time>2020-07-26T08:49:49.000Z</time>
      </trkpt>
      <trkpt lat="47.55549" lon="-2.30729">
        <ele>29.799999237061</ele>
        <time>2020-07-26T08:49:52.000Z</time>
      </trkpt>
      <trkpt lat="47.5555" lon="-2.3073">
        <ele>30.200000762939</ele>
        <time>2020-07-26T08:49:53.000Z</time>
      </trkpt>
      <trkpt lat="47.5555" lon="-2.30731">
        <ele>30.799999237061</ele>
        <time>2020-07-26T08:49:54.000Z</time>
      </trkpt>
      <trkpt lat="47.5555" lon="-2.30727">
        <ele>32</ele>
        <time>2020-07-26T08:50:07.000Z</time>
      </trkpt>
      <trkpt lat="47.55549" lon="-2.30719">
        <ele>32</ele>
        <time>2020-07-26T08:50:09.000Z</time>
      </trkpt>
      <trkpt lat="47.55551" lon="-2.3071">
        <ele>32</ele>
        <time>2020-07-26T08:50:14.000Z</time>
      </trkpt>
      <trkpt lat="47.55551" lon="-2.30711">
        <ele>32.400001525879</ele>
        <time>2020-07-26T08:50:15.000Z</time>
      </trkpt>
      <trkpt lat="47.55552" lon="-2.30713">
        <ele>32.799999237061</ele>
        <time>2020-07-26T08:50:16.000Z</time>
      </trkpt>
      <trkpt lat="47.55552" lon="-2.30715">
        <ele>33.200000762939</ele>
        <time>2020-07-26T08:50:17.000Z</time>
      </trkpt>
      <trkpt lat="47.55554" lon="-2.30718">
        <ele>33.599998474121</ele>
        <time>2020-07-26T08:50:18.000Z</time>
      </trkpt>
      <trkpt lat="47.55555" lon="-2.30721">
        <ele>34</ele>
        <time>2020-07-26T08:50:19.000Z</time>
      </trkpt>
      <trkpt lat="47.55556" lon="-2.30723">
        <ele>34</ele>
        <time>2020-07-26T08:50:20.000Z</time>
      </trkpt>
      <trkpt lat="47.55559" lon="-2.30728">
        <ele>34.400001525879</ele>
        <time>2020-07-26T08:50:22.000Z</time>
      </trkpt>
      <trkpt lat="47.5556" lon="-2.30732">
        <ele>34.799999237061</ele>
        <time>2020-07-26T08:50:23.000Z</time>
      </trkpt>
      <trkpt lat="47.55561" lon="-2.30734">
        <ele>35.200000762939</ele>
        <time>2020-07-26T08:50:24.000Z</time>
      </trkpt>
      <trkpt lat="47.55563" lon="-2.30738">
        <ele>35.599998474121</ele>
        <time>2020-07-26T08:50:25.000Z</time>
      </trkpt>
      <trkpt lat="47.55564" lon="-2.30741">
        <ele>36.200000762939</ele>
        <time>2020-07-26T08:50:26.000Z</time>
      </trkpt>
      <trkpt lat="47.55566" lon="-2.30747">
        <ele>36.200000762939</ele>
        <time>2020-07-26T08:50:28.000Z</time>
      </trkpt>
      <trkpt lat="47.55569" lon="-2.30753">
        <ele>36.200000762939</ele>
        <time>2020-07-26T08:50:31.000Z</time>
      </trkpt>
      <trkpt lat="47.55571" lon="-2.30756">
        <ele>36.599998474121</ele>
        <time>2020-07-26T08:50:32.000Z</time>
      </trkpt>
      <trkpt lat="47.55573" lon="-2.30757">
        <ele>37</ele>
        <time>2020-07-26T08:50:33.000Z</time>
      </trkpt>
      <trkpt lat="47.55575" lon="-2.3076">
        <ele>37.400001525879</ele>
        <time>2020-07-26T08:50:34.000Z</time>
      </trkpt>
      <trkpt lat="47.55576" lon="-2.30762">
        <ele>37.799999237061</ele>
        <time>2020-07-26T08:50:35.000Z</time>
      </trkpt>
      <trkpt lat="47.55577" lon="-2.30764">
        <ele>38.400001525879</ele>
        <time>2020-07-26T08:50:36.000Z</time>
      </trkpt>
      <trkpt lat="47.5558" lon="-2.3077">
        <ele>38.400001525879</ele>
        <time>2020-07-26T08:50:38.000Z</time>
      </trkpt>
      <trkpt lat="47.5558" lon="-2.30773">
        <ele>38.799999237061</ele>
        <time>2020-07-26T08:50:39.000Z</time>
      </trkpt>
      <trkpt lat="47.55581" lon="-2.30777">
        <ele>39.200000762939</ele>
        <time>2020-07-26T08:50:40.000Z</time>
      </trkpt>
      <trkpt lat="47.55581" lon="-2.3078">
        <ele>39.799999237061</ele>
        <time>2020-07-26T08:50:41.000Z</time>
      </trkpt>
      <trkpt lat="47.55582" lon="-2.30783">
        <ele>40.200000762939</ele>
        <time>2020-07-26T08:50:42.000Z</time>
      </trkpt>
      <trkpt lat="47.55583" lon="-2.30785">
        <ele>40.599998474121</ele>
        <time>2020-07-26T08:50:43.000Z</time>
      </trkpt>
      <trkpt lat="47.55585" lon="-2.30794">
        <ele>41</ele>
        <time>2020-07-26T08:50:45.000Z</time>
      </trkpt>
      <trkpt lat="47.55586" lon="-2.30798">
        <ele>41.400001525879</ele>
        <time>2020-07-26T08:50:46.000Z</time>
      </trkpt>
      <trkpt lat="47.55588" lon="-2.30801">
        <ele>41.799999237061</ele>
        <time>2020-07-26T08:50:47.000Z</time>
      </trkpt>
      <trkpt lat="47.55589" lon="-2.30805">
        <ele>42.200000762939</ele>
        <time>2020-07-26T08:50:48.000Z</time>
      </trkpt>
      <trkpt lat="47.5559" lon="-2.30808">
        <ele>42.599998474121</ele>
        <time>2020-07-26T08:50:49.000Z</time>
      </trkpt>
      <trkpt lat="47.55592" lon="-2.30823">
        <ele>43</ele>
        <time>2020-07-26T08:50:53.000Z</time>
      </trkpt>
      <trkpt lat="47.55593" lon="-2.30827">
        <ele>43.599998474121</ele>
        <time>2020-07-26T08:50:54.000Z</time>
      </trkpt>
      <trkpt lat="47.55594" lon="-2.30831">
        <ele>44</ele>
        <time>2020-07-26T08:50:55.000Z</time>
      </trkpt>
      <trkpt lat="47.55594" lon="-2.30835">
        <ele>44.400001525879</ele>
        <time>2020-07-26T08:50:56.000Z</time>
      </trkpt>
      <trkpt lat="47.55595" lon="-2.30839">
        <ele>44.799999237061</ele>
        <time>2020-07-26T08:50:57.000Z</time>
      </trkpt>
      <trkpt lat="47.55596" lon="-2.30851">
        <ele>44.799999237061</ele>
        <time>2020-07-26T08:51:00.000Z</time>
      </trkpt>
      <trkpt lat="47.55602" lon="-2.30878">
        <ele>44.799999237061</ele>
        <time>2020-07-26T08:51:08.000Z</time>
      </trkpt>
      <trkpt lat="47.55602" lon="-2.30881">
        <ele>45.200000762939</ele>
        <time>2020-07-26T08:51:09.000Z</time>
      </trkpt>
      <trkpt lat="47.55603" lon="-2.30884">
        <ele>46</ele>
        <time>2020-07-26T08:51:10.000Z</time>
      </trkpt>
      <trkpt lat="47.55604" lon="-2.30887">
        <ele>46.400001525879</ele>
        <time>2020-07-26T08:51:11.000Z</time>
      </trkpt>
      <trkpt lat="47.55605" lon="-2.3089">
        <ele>46.799999237061</ele>
        <time>2020-07-26T08:51:12.000Z</time>
      </trkpt>
      <trkpt lat="47.55606" lon="-2.30896">
        <ele>46.799999237061</ele>
        <time>2020-07-26T08:51:14.000Z</time>
      </trkpt>
      <trkpt lat="47.55613" lon="-2.30912">
        <ele>47.200000762939</ele>
        <time>2020-07-26T08:51:19.000Z</time>
      </trkpt>
      <trkpt lat="47.55615" lon="-2.30915">
        <ele>47.599998474121</ele>
        <time>2020-07-26T08:51:20.000Z</time>
      </trkpt>
      <trkpt lat="47.55617" lon="-2.30917">
        <ele>48</ele>
        <time>2020-07-26T08:51:21.000Z</time>
      </trkpt>
      <trkpt lat="47.55618" lon="-2.30919">
        <ele>48.599998474121</ele>
        <time>2020-07-26T08:51:22.000Z</time>
      </trkpt>
      <trkpt lat="47.55619" lon="-2.30921">
        <ele>49</ele>
        <time>2020-07-26T08:51:23.000Z</time>
      </trkpt>
      <trkpt lat="47.55623" lon="-2.30929">
        <ele>49.400001525879</ele>
        <time>2020-07-26T08:51:26.000Z</time>
      </trkpt>
      <trkpt lat="47.55624" lon="-2.3093">
        <ele>49.799999237061</ele>
        <time>2020-07-26T08:51:27.000Z</time>
      </trkpt>
      <trkpt lat="47.55625" lon="-2.30932">
        <ele>50.200000762939</ele>
        <time>2020-07-26T08:51:28.000Z</time>
      </trkpt>
      <trkpt lat="47.55627" lon="-2.30933">
        <ele>50.599998474121</ele>
        <time>2020-07-26T08:51:29.000Z</time>
      </trkpt>
      <trkpt lat="47.55628" lon="-2.30935">
        <ele>51</ele>
        <time>2020-07-26T08:51:30.000Z</time>
      </trkpt>
      <trkpt lat="47.55634" lon="-2.30938">
        <ele>51.799999237061</ele>
        <time>2020-07-26T08:51:33.000Z</time>
      </trkpt>
      <trkpt lat="47.55636" lon="-2.30938">
        <ele>52.200000762939</ele>
        <time>2020-07-26T08:51:34.000Z</time>
      </trkpt>
      <trkpt lat="47.55638" lon="-2.30939">
        <ele>52.599998474121</ele>
        <time>2020-07-26T08:51:35.000Z</time>
      </trkpt>
      <trkpt lat="47.5564" lon="-2.3094">
        <ele>53.200000762939</ele>
        <time>2020-07-26T08:51:36.000Z</time>
      </trkpt>
      <trkpt lat="47.55648" lon="-2.30944">
        <ele>53.599998474121</ele>
        <time>2020-07-26T08:51:40.000Z</time>
      </trkpt>
      <trkpt lat="47.5565" lon="-2.30946">
        <ele>54</ele>
        <time>2020-07-26T08:51:41.000Z</time>
      </trkpt>
      <trkpt lat="47.55653" lon="-2.30946">
        <ele>54.400001525879</ele>
        <time>2020-07-26T08:51:42.000Z</time>
      </trkpt>
      <trkpt lat="47.55656" lon="-2.30947">
        <ele>54.799999237061</ele>
        <time>2020-07-26T08:51:43.000Z</time>
      </trkpt>
      <trkpt lat="47.55657" lon="-2.30948">
        <ele>55.200000762939</ele>
        <time>2020-07-26T08:51:44.000Z</time>
      </trkpt>
      <trkpt lat="47.55669" lon="-2.30949">
        <ele>55.200000762939</ele>
        <time>2020-07-26T08:51:49.000Z</time>
      </trkpt>
      <trkpt lat="47.55672" lon="-2.30949">
        <ele>55.799999237061</ele>
        <time>2020-07-26T08:51:50.000Z</time>
      </trkpt>
      <trkpt lat="47.55674" lon="-2.30949">
        <ele>56.200000762939</ele>
        <time>2020-07-26T08:51:51.000Z</time>
      </trkpt>
      <trkpt lat="47.55677" lon="-2.3095">
        <ele>56.599998474121</ele>
        <time>2020-07-26T08:51:52.000Z</time>
      </trkpt>
      <trkpt lat="47.55679" lon="-2.3095">
        <ele>57</ele>
        <time>2020-07-26T08:51:53.000Z</time>
      </trkpt>
      <trkpt lat="47.55683" lon="-2.3095">
        <ele>57.400001525879</ele>
        <time>2020-07-26T08:51:54.000Z</time>
      </trkpt>
      <trkpt lat="47.55688" lon="-2.30951">
        <ele>57.400001525879</ele>
        <time>2020-07-26T08:51:56.000Z</time>
      </trkpt>
      <trkpt lat="47.55703" lon="-2.30943">
        <ele>57.400001525879</ele>
        <time>2020-07-26T08:52:01.000Z</time>
      </trkpt>
      <trkpt lat="47.55721" lon="-2.30934">
        <ele>57.400001525879</ele>
        <time>2020-07-26T08:52:07.000Z</time>
      </trkpt>
      <trkpt lat="47.55729" lon="-2.30927">
        <ele>57.799999237061</ele>
        <time>2020-07-26T08:52:10.000Z</time>
      </trkpt>
      <trkpt lat="47.55732" lon="-2.30925">
        <ele>58.200000762939</ele>
        <time>2020-07-26T08:52:11.000Z</time>
      </trkpt>
      <trkpt lat="47.55734" lon="-2.30923">
        <ele>58.799999237061</ele>
        <time>2020-07-26T08:52:12.000Z</time>
      </trkpt>
      <trkpt lat="47.55736" lon="-2.30921">
        <ele>59.200000762939</ele>
        <time>2020-07-26T08:52:13.000Z</time>
      </trkpt>
      <trkpt lat="47.55738" lon="-2.3092">
        <ele>59.599998474121</ele>
        <time>2020-07-26T08:52:14.000Z</time>
      </trkpt>
      <trkpt lat="47.55746" lon="-2.30919">
        <ele>59.599998474121</ele>
        <time>2020-07-26T08:52:19.000Z</time>
      </trkpt>
      <trkpt lat="47.55747" lon="-2.30922">
        <ele>59.599998474121</ele>
        <time>2020-07-26T08:52:20.000Z</time>
      </trkpt>
      <trkpt lat="47.55749" lon="-2.30934">
        <ele>59.599998474121</ele>
        <time>2020-07-26T08:52:23.000Z</time>
      </trkpt>
      <trkpt lat="47.5575" lon="-2.30937">
        <ele>60</ele>
        <time>2020-07-26T08:52:24.000Z</time>
      </trkpt>
      <trkpt lat="47.55751" lon="-2.30941">
        <ele>60.400001525879</ele>
        <time>2020-07-26T08:52:25.000Z</time>
      </trkpt>
      <trkpt lat="47.55752" lon="-2.30945">
        <ele>60.799999237061</ele>
        <time>2020-07-26T08:52:26.000Z</time>
      </trkpt>
      <trkpt lat="47.55753" lon="-2.3095">
        <ele>61.200000762939</ele>
        <time>2020-07-26T08:52:27.000Z</time>
      </trkpt>
      <trkpt lat="47.55754" lon="-2.30953">
        <ele>61.599998474121</ele>
        <time>2020-07-26T08:52:28.000Z</time>
      </trkpt>
      <trkpt lat="47.55755" lon="-2.30962">
        <ele>61.599998474121</ele>
        <time>2020-07-26T08:52:30.000Z</time>
      </trkpt>
      <trkpt lat="47.55759" lon="-2.30983">
        <ele>61.599998474121</ele>
        <time>2020-07-26T08:52:36.000Z</time>
      </trkpt>
      <trkpt lat="47.55764" lon="-2.31001">
        <ele>62</ele>
        <time>2020-07-26T08:52:41.000Z</time>
      </trkpt>
      <trkpt lat="47.55765" lon="-2.31004">
        <ele>62.400001525879</ele>
        <time>2020-07-26T08:52:42.000Z</time>
      </trkpt>
      <trkpt lat="47.55765" lon="-2.31008">
        <ele>62.799999237061</ele>
        <time>2020-07-26T08:52:43.000Z</time>
      </trkpt>
      <trkpt lat="47.55766" lon="-2.31012">
        <ele>63.200000762939</ele>
        <time>2020-07-26T08:52:44.000Z</time>
      </trkpt>
      <trkpt lat="47.55767" lon="-2.31015">
        <ele>63.599998474121</ele>
        <time>2020-07-26T08:52:45.000Z</time>
      </trkpt>
      <trkpt lat="47.55772" lon="-2.31042">
        <ele>63.599998474121</ele>
        <time>2020-07-26T08:52:52.000Z</time>
      </trkpt>
      <trkpt lat="47.55774" lon="-2.31049">
        <ele>64</ele>
        <time>2020-07-26T08:52:54.000Z</time>
      </trkpt>
      <trkpt lat="47.55774" lon="-2.31053">
        <ele>64.400001525879</ele>
        <time>2020-07-26T08:52:55.000Z</time>
      </trkpt>
      <trkpt lat="47.55774" lon="-2.31057">
        <ele>64.800003051758</ele>
        <time>2020-07-26T08:52:56.000Z</time>
      </trkpt>
      <trkpt lat="47.55775" lon="-2.31062">
        <ele>65.199996948242</ele>
        <time>2020-07-26T08:52:57.000Z</time>
      </trkpt>
      <trkpt lat="47.55776" lon="-2.31066">
        <ele>65.599998474121</ele>
        <time>2020-07-26T08:52:58.000Z</time>
      </trkpt>
      <trkpt lat="47.55779" lon="-2.311">
        <ele>65.599998474121</ele>
        <time>2020-07-26T08:53:05.000Z</time>
      </trkpt>
      <trkpt lat="47.55782" lon="-2.31128">
        <ele>65.599998474121</ele>
        <time>2020-07-26T08:53:10.000Z</time>
      </trkpt>
      <trkpt lat="47.55786" lon="-2.3117">
        <ele>65.599998474121</ele>
        <time>2020-07-26T08:53:16.000Z</time>
      </trkpt>
      <trkpt lat="47.5579" lon="-2.31204">
        <ele>65.599998474121</ele>
        <time>2020-07-26T08:53:21.000Z</time>
      </trkpt>
      <trkpt lat="47.558" lon="-2.31254">
        <ele>65.599998474121</ele>
        <time>2020-07-26T08:53:28.000Z</time>
      </trkpt>
      <trkpt lat="47.55809" lon="-2.31303">
        <ele>65.199996948242</ele>
        <time>2020-07-26T08:53:34.000Z</time>
      </trkpt>
      <trkpt lat="47.5581" lon="-2.31309">
        <ele>64.800003051758</ele>
        <time>2020-07-26T08:53:35.000Z</time>
      </trkpt>
      <trkpt lat="47.5581" lon="-2.31315">
        <ele>64.199996948242</ele>
        <time>2020-07-26T08:53:36.000Z</time>
      </trkpt>
      <trkpt lat="47.55811" lon="-2.31322">
        <ele>63.400001525879</ele>
        <time>2020-07-26T08:53:37.000Z</time>
      </trkpt>
      <trkpt lat="47.55813" lon="-2.31329">
        <ele>62.799999237061</ele>
        <time>2020-07-26T08:53:38.000Z</time>
      </trkpt>
      <trkpt lat="47.55814" lon="-2.31337">
        <ele>62.400001525879</ele>
        <time>2020-07-26T08:53:39.000Z</time>
      </trkpt>
      <trkpt lat="47.55813" lon="-2.31346">
        <ele>61.799999237061</ele>
        <time>2020-07-26T08:53:40.000Z</time>
      </trkpt>
      <trkpt lat="47.55812" lon="-2.31355">
        <ele>61.400001525879</ele>
        <time>2020-07-26T08:53:41.000Z</time>
      </trkpt>
      <trkpt lat="47.5581" lon="-2.31364">
        <ele>61</ele>
        <time>2020-07-26T08:53:42.000Z</time>
      </trkpt>
      <trkpt lat="47.55809" lon="-2.31373">
        <ele>60.400001525879</ele>
        <time>2020-07-26T08:53:43.000Z</time>
      </trkpt>
      <trkpt lat="47.55809" lon="-2.31382">
        <ele>60</ele>
        <time>2020-07-26T08:53:44.000Z</time>
      </trkpt>
      <trkpt lat="47.55808" lon="-2.31392">
        <ele>59.599998474121</ele>
        <time>2020-07-26T08:53:45.000Z</time>
      </trkpt>
      <trkpt lat="47.55809" lon="-2.31401">
        <ele>59.200000762939</ele>
        <time>2020-07-26T08:53:46.000Z</time>
      </trkpt>
      <trkpt lat="47.55814" lon="-2.31428">
        <ele>59.200000762939</ele>
        <time>2020-07-26T08:53:49.000Z</time>
      </trkpt>
      <trkpt lat="47.55817" lon="-2.31435">
        <ele>59.200000762939</ele>
        <time>2020-07-26T08:53:50.000Z</time>
      </trkpt>
      <trkpt lat="47.55826" lon="-2.31456">
        <ele>59.200000762939</ele>
        <time>2020-07-26T08:53:54.000Z</time>
      </trkpt>
      <trkpt lat="47.55828" lon="-2.31468">
        <ele>59.599998474121</ele>
        <time>2020-07-26T08:53:56.000Z</time>
      </trkpt>
      <trkpt lat="47.55828" lon="-2.31473">
        <ele>60.200000762939</ele>
        <time>2020-07-26T08:53:57.000Z</time>
      </trkpt>
      <trkpt lat="47.55828" lon="-2.31478">
        <ele>60.599998474121</ele>
        <time>2020-07-26T08:53:58.000Z</time>
      </trkpt>
      <trkpt lat="47.55826" lon="-2.31482">
        <ele>61.200000762939</ele>
        <time>2020-07-26T08:53:59.000Z</time>
      </trkpt>
      <trkpt lat="47.55825" lon="-2.31487">
        <ele>61.599998474121</ele>
        <time>2020-07-26T08:54:00.000Z</time>
      </trkpt>
      <trkpt lat="47.55816" lon="-2.31518">
        <ele>61.599998474121</ele>
        <time>2020-07-26T08:54:06.000Z</time>
      </trkpt>
      <trkpt lat="47.55816" lon="-2.31544">
        <ele>61.599998474121</ele>
        <time>2020-07-26T08:54:12.000Z</time>
      </trkpt>
      <trkpt lat="47.55817" lon="-2.31551">
        <ele>62</ele>
        <time>2020-07-26T08:54:14.000Z</time>
      </trkpt>
      <trkpt lat="47.55817" lon="-2.31555">
        <ele>62.400001525879</ele>
        <time>2020-07-26T08:54:15.000Z</time>
      </trkpt>
      <trkpt lat="47.55818" lon="-2.31558">
        <ele>62.799999237061</ele>
        <time>2020-07-26T08:54:16.000Z</time>
      </trkpt>
      <trkpt lat="47.55818" lon="-2.31561">
        <ele>63.400001525879</ele>
        <time>2020-07-26T08:54:17.000Z</time>
      </trkpt>
      <trkpt lat="47.55819" lon="-2.31565">
        <ele>63.799999237061</ele>
        <time>2020-07-26T08:54:18.000Z</time>
      </trkpt>
      <trkpt lat="47.5582" lon="-2.31568">
        <ele>63.799999237061</ele>
        <time>2020-07-26T08:54:19.000Z</time>
      </trkpt>
      <trkpt lat="47.55823" lon="-2.3159">
        <ele>63.799999237061</ele>
        <time>2020-07-26T08:54:25.000Z</time>
      </trkpt>
      <trkpt lat="47.55824" lon="-2.31593">
        <ele>64.199996948242</ele>
        <time>2020-07-26T08:54:26.000Z</time>
      </trkpt>
      <trkpt lat="47.55824" lon="-2.31597">
        <ele>65</ele>
        <time>2020-07-26T08:54:27.000Z</time>
      </trkpt>
      <trkpt lat="47.55825" lon="-2.31602">
        <ele>65.400001525879</ele>
        <time>2020-07-26T08:54:28.000Z</time>
      </trkpt>
      <trkpt lat="47.55826" lon="-2.31606">
        <ele>65.800003051758</ele>
        <time>2020-07-26T08:54:29.000Z</time>
      </trkpt>
      <trkpt lat="47.55828" lon="-2.31621">
        <ele>65.800003051758</ele>
        <time>2020-07-26T08:54:32.000Z</time>
      </trkpt>
      <trkpt lat="47.5583" lon="-2.31645">
        <ele>65.800003051758</ele>
        <time>2020-07-26T08:54:37.000Z</time>
      </trkpt>
      <trkpt lat="47.55829" lon="-2.31668">
        <ele>65.800003051758</ele>
        <time>2020-07-26T08:54:42.000Z</time>
      </trkpt>
      <trkpt lat="47.55822" lon="-2.31683">
        <ele>65.800003051758</ele>
        <time>2020-07-26T08:54:45.000Z</time>
      </trkpt>
      <trkpt lat="47.55811" lon="-2.31704">
        <ele>65.400001525879</ele>
        <time>2020-07-26T08:54:48.000Z</time>
      </trkpt>
      <trkpt lat="47.5581" lon="-2.31714">
        <ele>65</ele>
        <time>2020-07-26T08:54:49.000Z</time>
      </trkpt>
      <trkpt lat="47.5581" lon="-2.31723">
        <ele>64.599998474121</ele>
        <time>2020-07-26T08:54:50.000Z</time>
      </trkpt>
      <trkpt lat="47.55811" lon="-2.31732">
        <ele>63.799999237061</ele>
        <time>2020-07-26T08:54:51.000Z</time>
      </trkpt>
      <trkpt lat="47.55813" lon="-2.3175">
        <ele>63.799999237061</ele>
        <time>2020-07-26T08:54:53.000Z</time>
      </trkpt>
      <trkpt lat="47.55812" lon="-2.31784">
        <ele>63.799999237061</ele>
        <time>2020-07-26T08:54:58.000Z</time>
      </trkpt>
      <trkpt lat="47.55811" lon="-2.31789">
        <ele>63.400001525879</ele>
        <time>2020-07-26T08:55:01.000Z</time>
      </trkpt>
      <trkpt lat="47.55812" lon="-2.31791">
        <ele>63</ele>
        <time>2020-07-26T08:55:02.000Z</time>
      </trkpt>
      <trkpt lat="47.55812" lon="-2.31792">
        <ele>62.400001525879</ele>
        <time>2020-07-26T08:55:03.000Z</time>
      </trkpt>
      <trkpt lat="47.55813" lon="-2.31793">
        <ele>62</ele>
        <time>2020-07-26T08:55:04.000Z</time>
      </trkpt>
      <trkpt lat="47.55814" lon="-2.31794">
        <ele>61.599998474121</ele>
        <time>2020-07-26T08:55:05.000Z</time>
      </trkpt>
      <trkpt lat="47.55816" lon="-2.31796">
        <ele>61.599998474121</ele>
        <time>2020-07-26T08:55:07.000Z</time>
      </trkpt>
      <trkpt lat="47.55816" lon="-2.318">
        <ele>61.599998474121</ele>
        <time>2020-07-26T08:55:11.000Z</time>
      </trkpt>
      <trkpt lat="47.55812" lon="-2.31808">
        <ele>61.599998474121</ele>
        <time>2020-07-26T08:55:17.000Z</time>
      </trkpt>
      <trkpt lat="47.55811" lon="-2.31811">
        <ele>61.599998474121</ele>
        <time>2020-07-26T08:55:18.000Z</time>
      </trkpt>
      <trkpt lat="47.55806" lon="-2.31823">
        <ele>61.599998474121</ele>
        <time>2020-07-26T08:55:23.000Z</time>
      </trkpt>
      <trkpt lat="47.55803" lon="-2.31836">
        <ele>61.599998474121</ele>
        <time>2020-07-26T08:55:30.000Z</time>
      </trkpt>
      <trkpt lat="47.55802" lon="-2.31837">
        <ele>61.599998474121</ele>
        <time>2020-07-26T08:55:31.000Z</time>
      </trkpt>
      <trkpt lat="47.55797" lon="-2.31844">
        <ele>61.599998474121</ele>
        <time>2020-07-26T08:55:35.000Z</time>
      </trkpt>
      <trkpt lat="47.55796" lon="-2.31848">
        <ele>61.599998474121</ele>
        <time>2020-07-26T08:55:38.000Z</time>
      </trkpt>
      <trkpt lat="47.55794" lon="-2.31854">
        <ele>59.599998474121</ele>
        <time>2020-07-26T08:55:46.000Z</time>
      </trkpt>
      <trkpt lat="47.55793" lon="-2.31856">
        <ele>59.599998474121</ele>
        <time>2020-07-26T08:55:47.000Z</time>
      </trkpt>
      <trkpt lat="47.55782" lon="-2.31861">
        <ele>59.599998474121</ele>
        <time>2020-07-26T08:55:53.000Z</time>
      </trkpt>
      <trkpt lat="47.55779" lon="-2.31862">
        <ele>59.200000762939</ele>
        <time>2020-07-26T08:55:55.000Z</time>
      </trkpt>
      <trkpt lat="47.55777" lon="-2.31863">
        <ele>58.799999237061</ele>
        <time>2020-07-26T08:55:56.000Z</time>
      </trkpt>
      <trkpt lat="47.55775" lon="-2.31866">
        <ele>58.400001525879</ele>
        <time>2020-07-26T08:55:57.000Z</time>
      </trkpt>
      <trkpt lat="47.55773" lon="-2.31868">
        <ele>58</ele>
        <time>2020-07-26T08:55:58.000Z</time>
      </trkpt>
      <trkpt lat="47.55772" lon="-2.31869">
        <ele>57.599998474121</ele>
        <time>2020-07-26T08:55:59.000Z</time>
      </trkpt>
      <trkpt lat="47.5577" lon="-2.31871">
        <ele>57</ele>
        <time>2020-07-26T08:56:00.000Z</time>
      </trkpt>
      <trkpt lat="47.55768" lon="-2.31872">
        <ele>56.599998474121</ele>
        <time>2020-07-26T08:56:01.000Z</time>
      </trkpt>
      <trkpt lat="47.55766" lon="-2.31872">
        <ele>56.200000762939</ele>
        <time>2020-07-26T08:56:02.000Z</time>
      </trkpt>
      <trkpt lat="47.55764" lon="-2.3187">
        <ele>55.799999237061</ele>
        <time>2020-07-26T08:56:03.000Z</time>
      </trkpt>
      <trkpt lat="47.55762" lon="-2.31868">
        <ele>55.200000762939</ele>
        <time>2020-07-26T08:56:04.000Z</time>
      </trkpt>
      <trkpt lat="47.55761" lon="-2.31866">
        <ele>54.200000762939</ele>
        <time>2020-07-26T08:56:05.000Z</time>
      </trkpt>
      <trkpt lat="47.5576" lon="-2.31866">
        <ele>53.599998474121</ele>
        <time>2020-07-26T08:56:06.000Z</time>
      </trkpt>
      <trkpt lat="47.5578" lon="-2.31864">
        <ele>56.200000762939</ele>
        <time>2020-07-26T08:57:29.000Z</time>
      </trkpt>
      <trkpt lat="47.55781" lon="-2.31864">
        <ele>56.599998474121</ele>
        <time>2020-07-26T08:57:30.000Z</time>
      </trkpt>
      <trkpt lat="47.55783" lon="-2.31863">
        <ele>57.200000762939</ele>
        <time>2020-07-26T08:57:31.000Z</time>
      </trkpt>
      <trkpt lat="47.55785" lon="-2.31862">
        <ele>57.599998474121</ele>
        <time>2020-07-26T08:57:32.000Z</time>
      </trkpt>
      <trkpt lat="47.55786" lon="-2.3186">
        <ele>57.599998474121</ele>
        <time>2020-07-26T08:57:34.000Z</time>
      </trkpt>
      <trkpt lat="47.55789" lon="-2.31857">
        <ele>57.599998474121</ele>
        <time>2020-07-26T08:57:36.000Z</time>
      </trkpt>
      <trkpt lat="47.55791" lon="-2.31852">
        <ele>58</ele>
        <time>2020-07-26T08:57:39.000Z</time>
      </trkpt>
      <trkpt lat="47.55791" lon="-2.3185">
        <ele>58.400001525879</ele>
        <time>2020-07-26T08:57:40.000Z</time>
      </trkpt>
      <trkpt lat="47.55792" lon="-2.3185">
        <ele>58.799999237061</ele>
        <time>2020-07-26T08:57:41.000Z</time>
      </trkpt>
      <trkpt lat="47.55792" lon="-2.3185">
        <ele>59.200000762939</ele>
        <time>2020-07-26T08:57:42.000Z</time>
      </trkpt>
      <trkpt lat="47.55795" lon="-2.31845">
        <ele>59.599998474121</ele>
        <time>2020-07-26T08:58:15.000Z</time>
      </trkpt>
      <trkpt lat="47.55797" lon="-2.31839">
        <ele>59.599998474121</ele>
        <time>2020-07-26T08:58:18.000Z</time>
      </trkpt>
      <trkpt lat="47.55802" lon="-2.31825">
        <ele>59.599998474121</ele>
        <time>2020-07-26T08:58:24.000Z</time>
      </trkpt>
      <trkpt lat="47.55807" lon="-2.31816">
        <ele>60</ele>
        <time>2020-07-26T08:58:27.000Z</time>
      </trkpt>
      <trkpt lat="47.55808" lon="-2.31814">
        <ele>60.400001525879</ele>
        <time>2020-07-26T08:58:28.000Z</time>
      </trkpt>
      <trkpt lat="47.5581" lon="-2.31812">
        <ele>60.799999237061</ele>
        <time>2020-07-26T08:58:29.000Z</time>
      </trkpt>
      <trkpt lat="47.55812" lon="-2.31811">
        <ele>61.400001525879</ele>
        <time>2020-07-26T08:58:30.000Z</time>
      </trkpt>
      <trkpt lat="47.55813" lon="-2.31809">
        <ele>61.799999237061</ele>
        <time>2020-07-26T08:58:31.000Z</time>
      </trkpt>
      <trkpt lat="47.55815" lon="-2.31809">
        <ele>61.799999237061</ele>
        <time>2020-07-26T08:58:33.000Z</time>
      </trkpt>
      <trkpt lat="47.55813" lon="-2.31804">
        <ele>61.799999237061</ele>
        <time>2020-07-26T08:59:09.000Z</time>
      </trkpt>
      <trkpt lat="47.55812" lon="-2.31806">
        <ele>61.799999237061</ele>
        <time>2020-07-26T08:59:10.000Z</time>
      </trkpt>
      <trkpt lat="47.55811" lon="-2.31811">
        <ele>61.799999237061</ele>
        <time>2020-07-26T08:59:13.000Z</time>
      </trkpt>
      <trkpt lat="47.55808" lon="-2.31816">
        <ele>61.799999237061</ele>
        <time>2020-07-26T08:59:15.000Z</time>
      </trkpt>
      <trkpt lat="47.55803" lon="-2.31834">
        <ele>61.799999237061</ele>
        <time>2020-07-26T08:59:21.000Z</time>
      </trkpt>
      <trkpt lat="47.55803" lon="-2.31836">
        <ele>61.799999237061</ele>
        <time>2020-07-26T08:59:24.000Z</time>
      </trkpt>
      <trkpt lat="47.55802" lon="-2.3184">
        <ele>61.799999237061</ele>
        <time>2020-07-26T08:59:36.000Z</time>
      </trkpt>
      <trkpt lat="47.55802" lon="-2.31863">
        <ele>61.799999237061</ele>
        <time>2020-07-26T08:59:41.000Z</time>
      </trkpt>
      <trkpt lat="47.55803" lon="-2.31895">
        <ele>61.799999237061</ele>
        <time>2020-07-26T08:59:47.000Z</time>
      </trkpt>
      <trkpt lat="47.55807" lon="-2.31922">
        <ele>61.799999237061</ele>
        <time>2020-07-26T08:59:53.000Z</time>
      </trkpt>
      <trkpt lat="47.55809" lon="-2.31925">
        <ele>61.400001525879</ele>
        <time>2020-07-26T08:59:54.000Z</time>
      </trkpt>
      <trkpt lat="47.55812" lon="-2.31928">
        <ele>60.799999237061</ele>
        <time>2020-07-26T08:59:55.000Z</time>
      </trkpt>
      <trkpt lat="47.55814" lon="-2.31929">
        <ele>60.400001525879</ele>
        <time>2020-07-26T08:59:56.000Z</time>
      </trkpt>
      <trkpt lat="47.55815" lon="-2.31932">
        <ele>60</ele>
        <time>2020-07-26T08:59:57.000Z</time>
      </trkpt>
      <trkpt lat="47.55817" lon="-2.31933">
        <ele>59.599998474121</ele>
        <time>2020-07-26T08:59:58.000Z</time>
      </trkpt>
      <trkpt lat="47.55822" lon="-2.31937">
        <ele>59.599998474121</ele>
        <time>2020-07-26T09:00:02.000Z</time>
      </trkpt>
      <trkpt lat="47.55832" lon="-2.31939">
        <ele>59.599998474121</ele>
        <time>2020-07-26T09:00:08.000Z</time>
      </trkpt>
      <trkpt lat="47.55839" lon="-2.31945">
        <ele>59.599998474121</ele>
        <time>2020-07-26T09:00:13.000Z</time>
      </trkpt>
      <trkpt lat="47.55841" lon="-2.31945">
        <ele>59.599998474121</ele>
        <time>2020-07-26T09:00:14.000Z</time>
      </trkpt>
      <trkpt lat="47.55847" lon="-2.31943">
        <ele>60</ele>
        <time>2020-07-26T09:00:18.000Z</time>
      </trkpt>
      <trkpt lat="47.55848" lon="-2.31942">
        <ele>60.400001525879</ele>
        <time>2020-07-26T09:00:19.000Z</time>
      </trkpt>
      <trkpt lat="47.55848" lon="-2.31942">
        <ele>60.799999237061</ele>
        <time>2020-07-26T09:00:20.000Z</time>
      </trkpt>
      <trkpt lat="47.55848" lon="-2.31942">
        <ele>61.200000762939</ele>
        <time>2020-07-26T09:00:21.000Z</time>
      </trkpt>
      <trkpt lat="47.55849" lon="-2.31941">
        <ele>61.599998474121</ele>
        <time>2020-07-26T09:00:22.000Z</time>
      </trkpt>
      <trkpt lat="47.55851" lon="-2.31939">
        <ele>61.599998474121</ele>
        <time>2020-07-26T09:00:26.000Z</time>
      </trkpt>
      <trkpt lat="47.55855" lon="-2.31938">
        <ele>61.599998474121</ele>
        <time>2020-07-26T09:00:28.000Z</time>
      </trkpt>
      <trkpt lat="47.55858" lon="-2.31935">
        <ele>61.599998474121</ele>
        <time>2020-07-26T09:00:31.000Z</time>
      </trkpt>
      <trkpt lat="47.55858" lon="-2.31933">
        <ele>61.599998474121</ele>
        <time>2020-07-26T09:00:32.000Z</time>
      </trkpt>
      <trkpt lat="47.5586" lon="-2.31922">
        <ele>62</ele>
        <time>2020-07-26T09:00:36.000Z</time>
      </trkpt>
      <trkpt lat="47.55861" lon="-2.31919">
        <ele>62.799999237061</ele>
        <time>2020-07-26T09:00:37.000Z</time>
      </trkpt>
      <trkpt lat="47.55862" lon="-2.31917">
        <ele>63.200000762939</ele>
        <time>2020-07-26T09:00:38.000Z</time>
      </trkpt>
      <trkpt lat="47.55863" lon="-2.31916">
        <ele>63.599998474121</ele>
        <time>2020-07-26T09:00:39.000Z</time>
      </trkpt>
      <trkpt lat="47.55866" lon="-2.31912">
        <ele>63.599998474121</ele>
        <time>2020-07-26T09:00:41.000Z</time>
      </trkpt>
      <trkpt lat="47.55869" lon="-2.3191">
        <ele>63.599998474121</ele>
        <time>2020-07-26T09:00:43.000Z</time>
      </trkpt>
      <trkpt lat="47.55875" lon="-2.31908">
        <ele>63.599998474121</ele>
        <time>2020-07-26T09:00:46.000Z</time>
      </trkpt>
      <trkpt lat="47.55881" lon="-2.31899">
        <ele>63.599998474121</ele>
        <time>2020-07-26T09:00:52.000Z</time>
      </trkpt>
      <trkpt lat="47.55881" lon="-2.31895">
        <ele>63.599998474121</ele>
        <time>2020-07-26T09:00:54.000Z</time>
      </trkpt>
      <trkpt lat="47.55882" lon="-2.31885">
        <ele>63.599998474121</ele>
        <time>2020-07-26T09:00:57.000Z</time>
      </trkpt>
      <trkpt lat="47.55884" lon="-2.31875">
        <ele>64</ele>
        <time>2020-07-26T09:01:01.000Z</time>
      </trkpt>
      <trkpt lat="47.55885" lon="-2.3187">
        <ele>65</ele>
        <time>2020-07-26T09:01:02.000Z</time>
      </trkpt>
      <trkpt lat="47.55886" lon="-2.31867">
        <ele>65.400001525879</ele>
        <time>2020-07-26T09:01:03.000Z</time>
      </trkpt>
      <trkpt lat="47.55886" lon="-2.31862">
        <ele>65.800003051758</ele>
        <time>2020-07-26T09:01:04.000Z</time>
      </trkpt>
      <trkpt lat="47.55886" lon="-2.31852">
        <ele>65.800003051758</ele>
        <time>2020-07-26T09:01:07.000Z</time>
      </trkpt>
      <trkpt lat="47.55887" lon="-2.3185">
        <ele>65.800003051758</ele>
        <time>2020-07-26T09:01:08.000Z</time>
      </trkpt>
      <trkpt lat="47.55891" lon="-2.31848">
        <ele>65.800003051758</ele>
        <time>2020-07-26T09:01:10.000Z</time>
      </trkpt>
      <trkpt lat="47.55897" lon="-2.31849">
        <ele>65.800003051758</ele>
        <time>2020-07-26T09:01:14.000Z</time>
      </trkpt>
      <trkpt lat="47.55898" lon="-2.3185">
        <ele>65.800003051758</ele>
        <time>2020-07-26T09:01:15.000Z</time>
      </trkpt>
      <trkpt lat="47.55899" lon="-2.31852">
        <ele>65.800003051758</ele>
        <time>2020-07-26T09:01:16.000Z</time>
      </trkpt>
      <trkpt lat="47.55902" lon="-2.31865">
        <ele>65.800003051758</ele>
        <time>2020-07-26T09:01:22.000Z</time>
      </trkpt>
      <trkpt lat="47.55907" lon="-2.31866">
        <ele>65.800003051758</ele>
        <time>2020-07-26T09:01:26.000Z</time>
      </trkpt>
      <trkpt lat="47.55909" lon="-2.31866">
        <ele>65.800003051758</ele>
        <time>2020-07-26T09:01:27.000Z</time>
      </trkpt>
      <trkpt lat="47.55917" lon="-2.31862">
        <ele>65.800003051758</ele>
        <time>2020-07-26T09:01:32.000Z</time>
      </trkpt>
      <trkpt lat="47.55926" lon="-2.31866">
        <ele>65.800003051758</ele>
        <time>2020-07-26T09:01:38.000Z</time>
      </trkpt>
      <trkpt lat="47.55933" lon="-2.31872">
        <ele>65.800003051758</ele>
        <time>2020-07-26T09:01:44.000Z</time>
      </trkpt>
      <trkpt lat="47.55935" lon="-2.31871">
        <ele>65.800003051758</ele>
        <time>2020-07-26T09:01:45.000Z</time>
      </trkpt>
      <trkpt lat="47.55944" lon="-2.31868">
        <ele>65.800003051758</ele>
        <time>2020-07-26T09:01:49.000Z</time>
      </trkpt>
      <trkpt lat="47.55947" lon="-2.31868">
        <ele>65.400001525879</ele>
        <time>2020-07-26T09:01:50.000Z</time>
      </trkpt>
      <trkpt lat="47.55951" lon="-2.31868">
        <ele>64.599998474121</ele>
        <time>2020-07-26T09:01:51.000Z</time>
      </trkpt>
      <trkpt lat="47.55954" lon="-2.31869">
        <ele>64.199996948242</ele>
        <time>2020-07-26T09:01:52.000Z</time>
      </trkpt>
      <trkpt lat="47.55957" lon="-2.3187">
        <ele>63.799999237061</ele>
        <time>2020-07-26T09:01:53.000Z</time>
      </trkpt>
      <trkpt lat="47.55961" lon="-2.31871">
        <ele>63.799999237061</ele>
        <time>2020-07-26T09:01:54.000Z</time>
      </trkpt>
      <trkpt lat="47.55971" lon="-2.31873">
        <ele>63.200000762939</ele>
        <time>2020-07-26T09:01:57.000Z</time>
      </trkpt>
      <trkpt lat="47.55974" lon="-2.31875">
        <ele>62.799999237061</ele>
        <time>2020-07-26T09:01:58.000Z</time>
      </trkpt>
      <trkpt lat="47.55977" lon="-2.31878">
        <ele>62.400001525879</ele>
        <time>2020-07-26T09:01:59.000Z</time>
      </trkpt>
      <trkpt lat="47.5598" lon="-2.3188">
        <ele>62</ele>
        <time>2020-07-26T09:02:00.000Z</time>
      </trkpt>
      <trkpt lat="47.55982" lon="-2.31882">
        <ele>61.599998474121</ele>
        <time>2020-07-26T09:02:01.000Z</time>
      </trkpt>
      <trkpt lat="47.55985" lon="-2.31879">
        <ele>61.599998474121</ele>
        <time>2020-07-26T09:02:04.000Z</time>
      </trkpt>
      <trkpt lat="47.55982" lon="-2.3187">
        <ele>61.599998474121</ele>
        <time>2020-07-26T09:02:08.000Z</time>
      </trkpt>
      <trkpt lat="47.55985" lon="-2.31864">
        <ele>61.599998474121</ele>
        <time>2020-07-26T09:02:12.000Z</time>
      </trkpt>
      <trkpt lat="47.55988" lon="-2.31866">
        <ele>61.599998474121</ele>
        <time>2020-07-26T09:02:14.000Z</time>
      </trkpt>
      <trkpt lat="47.55992" lon="-2.3187">
        <ele>61.599998474121</ele>
        <time>2020-07-26T09:02:16.000Z</time>
      </trkpt>
      <trkpt lat="47.56001" lon="-2.31875">
        <ele>61.599998474121</ele>
        <time>2020-07-26T09:02:20.000Z</time>
      </trkpt>
      <trkpt lat="47.56007" lon="-2.31885">
        <ele>61.599998474121</ele>
        <time>2020-07-26T09:02:25.000Z</time>
      </trkpt>
      <trkpt lat="47.56009" lon="-2.31889">
        <ele>61.599998474121</ele>
        <time>2020-07-26T09:02:27.000Z</time>
      </trkpt>
      <trkpt lat="47.56012" lon="-2.31899">
        <ele>61.599998474121</ele>
        <time>2020-07-26T09:02:30.000Z</time>
      </trkpt>
      <trkpt lat="47.56014" lon="-2.31917">
        <ele>61.599998474121</ele>
        <time>2020-07-26T09:02:33.000Z</time>
      </trkpt>
      <trkpt lat="47.56016" lon="-2.31932">
        <ele>61.599998474121</ele>
        <time>2020-07-26T09:02:36.000Z</time>
      </trkpt>
      <trkpt lat="47.5602" lon="-2.31957">
        <ele>61.599998474121</ele>
        <time>2020-07-26T09:02:40.000Z</time>
      </trkpt>
      <trkpt lat="47.56024" lon="-2.3201">
        <ele>61.599998474121</ele>
        <time>2020-07-26T09:02:47.000Z</time>
      </trkpt>
      <trkpt lat="47.56025" lon="-2.32018">
        <ele>61.200000762939</ele>
        <time>2020-07-26T09:02:48.000Z</time>
      </trkpt>
      <trkpt lat="47.56026" lon="-2.32025">
        <ele>60.799999237061</ele>
        <time>2020-07-26T09:02:49.000Z</time>
      </trkpt>
      <trkpt lat="47.56027" lon="-2.32032">
        <ele>60.400001525879</ele>
        <time>2020-07-26T09:02:50.000Z</time>
      </trkpt>
      <trkpt lat="47.56028" lon="-2.32039">
        <ele>60</ele>
        <time>2020-07-26T09:02:51.000Z</time>
      </trkpt>
      <trkpt lat="47.56029" lon="-2.32046">
        <ele>59.599998474121</ele>
        <time>2020-07-26T09:02:52.000Z</time>
      </trkpt>
      <trkpt lat="47.56031" lon="-2.32061">
        <ele>59.599998474121</ele>
        <time>2020-07-26T09:02:54.000Z</time>
      </trkpt>
      <trkpt lat="47.56035" lon="-2.32095">
        <ele>59.599998474121</ele>
        <time>2020-07-26T09:02:59.000Z</time>
      </trkpt>
      <trkpt lat="47.56035" lon="-2.321">
        <ele>59.599998474121</ele>
        <time>2020-07-26T09:03:00.000Z</time>
      </trkpt>
      <trkpt lat="47.56035" lon="-2.32137">
        <ele>59.599998474121</ele>
        <time>2020-07-26T09:03:06.000Z</time>
      </trkpt>
      <trkpt lat="47.56029" lon="-2.32182">
        <ele>59.599998474121</ele>
        <time>2020-07-26T09:03:13.000Z</time>
      </trkpt>
      <trkpt lat="47.56026" lon="-2.32186">
        <ele>59.599998474121</ele>
        <time>2020-07-26T09:03:14.000Z</time>
      </trkpt>
      <trkpt lat="47.56011" lon="-2.32191">
        <ele>59.599998474121</ele>
        <time>2020-07-26T09:03:17.000Z</time>
      </trkpt>
      <trkpt lat="47.55998" lon="-2.32191">
        <ele>59.599998474121</ele>
        <time>2020-07-26T09:03:20.000Z</time>
      </trkpt>
      <trkpt lat="47.55988" lon="-2.32192">
        <ele>59.599998474121</ele>
        <time>2020-07-26T09:03:22.000Z</time>
      </trkpt>
      <trkpt lat="47.55979" lon="-2.32193">
        <ele>59.599998474121</ele>
        <time>2020-07-26T09:03:24.000Z</time>
      </trkpt>
      <trkpt lat="47.55962" lon="-2.322">
        <ele>59.599998474121</ele>
        <time>2020-07-26T09:03:28.000Z</time>
      </trkpt>
      <trkpt lat="47.55943" lon="-2.32211">
        <ele>59.599998474121</ele>
        <time>2020-07-26T09:03:32.000Z</time>
      </trkpt>
      <trkpt lat="47.5594" lon="-2.32217">
        <ele>59.599998474121</ele>
        <time>2020-07-26T09:03:33.000Z</time>
      </trkpt>
      <trkpt lat="47.5594" lon="-2.32234">
        <ele>59.599998474121</ele>
        <time>2020-07-26T09:03:35.000Z</time>
      </trkpt>
      <trkpt lat="47.55943" lon="-2.32249">
        <ele>59.599998474121</ele>
        <time>2020-07-26T09:03:37.000Z</time>
      </trkpt>
      <trkpt lat="47.55946" lon="-2.32266">
        <ele>59.200000762939</ele>
        <time>2020-07-26T09:03:39.000Z</time>
      </trkpt>
      <trkpt lat="47.55948" lon="-2.32274">
        <ele>58.799999237061</ele>
        <time>2020-07-26T09:03:40.000Z</time>
      </trkpt>
      <trkpt lat="47.5595" lon="-2.32283">
        <ele>58.400001525879</ele>
        <time>2020-07-26T09:03:41.000Z</time>
      </trkpt>
      <trkpt lat="47.55951" lon="-2.32292">
        <ele>58</ele>
        <time>2020-07-26T09:03:42.000Z</time>
      </trkpt>
      <trkpt lat="47.55951" lon="-2.323">
        <ele>57.599998474121</ele>
        <time>2020-07-26T09:03:43.000Z</time>
      </trkpt>
      <trkpt lat="47.55954" lon="-2.32324">
        <ele>57.599998474121</ele>
        <time>2020-07-26T09:03:46.000Z</time>
      </trkpt>
      <trkpt lat="47.55967" lon="-2.32368">
        <ele>57.599998474121</ele>
        <time>2020-07-26T09:03:53.000Z</time>
      </trkpt>
      <trkpt lat="47.55968" lon="-2.32375">
        <ele>57.599998474121</ele>
        <time>2020-07-26T09:03:54.000Z</time>
      </trkpt>
      <trkpt lat="47.55977" lon="-2.32387">
        <ele>57.599998474121</ele>
        <time>2020-07-26T09:03:57.000Z</time>
      </trkpt>
      <trkpt lat="47.5599" lon="-2.32385">
        <ele>57.599998474121</ele>
        <time>2020-07-26T09:04:00.000Z</time>
      </trkpt>
      <trkpt lat="47.55994" lon="-2.32383">
        <ele>57.599998474121</ele>
        <time>2020-07-26T09:04:01.000Z</time>
      </trkpt>
      <trkpt lat="47.56016" lon="-2.32368">
        <ele>57.599998474121</ele>
        <time>2020-07-26T09:04:07.000Z</time>
      </trkpt>
      <trkpt lat="47.56038" lon="-2.32361">
        <ele>57.599998474121</ele>
        <time>2020-07-26T09:04:13.000Z</time>
      </trkpt>
      <trkpt lat="47.56062" lon="-2.32361">
        <ele>57.599998474121</ele>
        <time>2020-07-26T09:04:18.000Z</time>
      </trkpt>
      <trkpt lat="47.56067" lon="-2.32362">
        <ele>57.599998474121</ele>
        <time>2020-07-26T09:04:19.000Z</time>
      </trkpt>
      <trkpt lat="47.56089" lon="-2.3236">
        <ele>57.599998474121</ele>
        <time>2020-07-26T09:04:23.000Z</time>
      </trkpt>
      <trkpt lat="47.56094" lon="-2.32358">
        <ele>57.599998474121</ele>
        <time>2020-07-26T09:04:24.000Z</time>
      </trkpt>
      <trkpt lat="47.56127" lon="-2.32348">
        <ele>57.599998474121</ele>
        <time>2020-07-26T09:04:31.000Z</time>
      </trkpt>
      <trkpt lat="47.56133" lon="-2.32346">
        <ele>57.599998474121</ele>
        <time>2020-07-26T09:04:34.000Z</time>
      </trkpt>
      <trkpt lat="47.56142" lon="-2.32346">
        <ele>57.200000762939</ele>
        <time>2020-07-26T09:04:40.000Z</time>
      </trkpt>
      <trkpt lat="47.56144" lon="-2.32345">
        <ele>56.799999237061</ele>
        <time>2020-07-26T09:04:41.000Z</time>
      </trkpt>
      <trkpt lat="47.56145" lon="-2.32343">
        <ele>56.400001525879</ele>
        <time>2020-07-26T09:04:42.000Z</time>
      </trkpt>
      <trkpt lat="47.56147" lon="-2.3234">
        <ele>56</ele>
        <time>2020-07-26T09:04:43.000Z</time>
      </trkpt>
      <trkpt lat="47.56149" lon="-2.32337">
        <ele>55.599998474121</ele>
        <time>2020-07-26T09:04:44.000Z</time>
      </trkpt>
      <trkpt lat="47.56151" lon="-2.32334">
        <ele>55.599998474121</ele>
        <time>2020-07-26T09:04:47.000Z</time>
      </trkpt>
      <trkpt lat="47.56152" lon="-2.32334">
        <ele>55.599998474121</ele>
        <time>2020-07-26T09:04:48.000Z</time>
      </trkpt>
      <trkpt lat="47.56155" lon="-2.32334">
        <ele>55.599998474121</ele>
        <time>2020-07-26T09:04:50.000Z</time>
      </trkpt>
      <trkpt lat="47.56158" lon="-2.3233">
        <ele>55.599998474121</ele>
        <time>2020-07-26T09:04:52.000Z</time>
      </trkpt>
      <trkpt lat="47.56158" lon="-2.32322">
        <ele>55.599998474121</ele>
        <time>2020-07-26T09:04:56.000Z</time>
      </trkpt>
      <trkpt lat="47.56159" lon="-2.32317">
        <ele>55.599998474121</ele>
        <time>2020-07-26T09:04:58.000Z</time>
      </trkpt>
      <trkpt lat="47.56159" lon="-2.3231">
        <ele>55.599998474121</ele>
        <time>2020-07-26T09:05:00.000Z</time>
      </trkpt>
      <trkpt lat="47.56153" lon="-2.323">
        <ele>55.599998474121</ele>
        <time>2020-07-26T09:05:05.000Z</time>
      </trkpt>
      <trkpt lat="47.56142" lon="-2.32301">
        <ele>55.599998474121</ele>
        <time>2020-07-26T09:05:11.000Z</time>
      </trkpt>
      <trkpt lat="47.56136" lon="-2.32302">
        <ele>56</ele>
        <time>2020-07-26T09:05:14.000Z</time>
      </trkpt>
      <trkpt lat="47.56134" lon="-2.32302">
        <ele>56.400001525879</ele>
        <time>2020-07-26T09:05:15.000Z</time>
      </trkpt>
      <trkpt lat="47.56133" lon="-2.323">
        <ele>56.799999237061</ele>
        <time>2020-07-26T09:05:16.000Z</time>
      </trkpt>
      <trkpt lat="47.56133" lon="-2.32298">
        <ele>57.200000762939</ele>
        <time>2020-07-26T09:05:17.000Z</time>
      </trkpt>
      <trkpt lat="47.56132" lon="-2.32296">
        <ele>57.599998474121</ele>
        <time>2020-07-26T09:05:18.000Z</time>
      </trkpt>
      <trkpt lat="47.56128" lon="-2.32286">
        <ele>57.599998474121</ele>
        <time>2020-07-26T09:05:22.000Z</time>
      </trkpt>
      <trkpt lat="47.56128" lon="-2.32275">
        <ele>57.599998474121</ele>
        <time>2020-07-26T09:05:26.000Z</time>
      </trkpt>
      <trkpt lat="47.56129" lon="-2.32273">
        <ele>57.599998474121</ele>
        <time>2020-07-26T09:05:27.000Z</time>
      </trkpt>
      <trkpt lat="47.56133" lon="-2.32258">
        <ele>57.599998474121</ele>
        <time>2020-07-26T09:05:32.000Z</time>
      </trkpt>
      <trkpt lat="47.56134" lon="-2.32255">
        <ele>57.599998474121</ele>
        <time>2020-07-26T09:05:33.000Z</time>
      </trkpt>
      <trkpt lat="47.56137" lon="-2.32254">
        <ele>57.599998474121</ele>
        <time>2020-07-26T09:05:36.000Z</time>
      </trkpt>
      <trkpt lat="47.5614" lon="-2.32257">
        <ele>57.599998474121</ele>
        <time>2020-07-26T09:05:38.000Z</time>
      </trkpt>
      <trkpt lat="47.56149" lon="-2.32262">
        <ele>57.599998474121</ele>
        <time>2020-07-26T09:05:44.000Z</time>
      </trkpt>
      <trkpt lat="47.56157" lon="-2.32269">
        <ele>57.599998474121</ele>
        <time>2020-07-26T09:05:51.000Z</time>
      </trkpt>
      <trkpt lat="47.56159" lon="-2.32272">
        <ele>57.599998474121</ele>
        <time>2020-07-26T09:05:53.000Z</time>
      </trkpt>
      <trkpt lat="47.56165" lon="-2.32278">
        <ele>57.599998474121</ele>
        <time>2020-07-26T09:05:56.000Z</time>
      </trkpt>
      <trkpt lat="47.56166" lon="-2.32281">
        <ele>57.200000762939</ele>
        <time>2020-07-26T09:05:57.000Z</time>
      </trkpt>
      <trkpt lat="47.56165" lon="-2.32283">
        <ele>56.799999237061</ele>
        <time>2020-07-26T09:05:58.000Z</time>
      </trkpt>
      <trkpt lat="47.56165" lon="-2.32285">
        <ele>55.799999237061</ele>
        <time>2020-07-26T09:05:59.000Z</time>
      </trkpt>
      <trkpt lat="47.56164" lon="-2.32288">
        <ele>55.400001525879</ele>
        <time>2020-07-26T09:06:00.000Z</time>
      </trkpt>
      <trkpt lat="47.56162" lon="-2.32308">
        <ele>55.400001525879</ele>
        <time>2020-07-26T09:06:05.000Z</time>
      </trkpt>
      <trkpt lat="47.56164" lon="-2.32313">
        <ele>55.400001525879</ele>
        <time>2020-07-26T09:06:07.000Z</time>
      </trkpt>
      <trkpt lat="47.56169" lon="-2.32318">
        <ele>55.400001525879</ele>
        <time>2020-07-26T09:06:09.000Z</time>
      </trkpt>
      <trkpt lat="47.56176" lon="-2.32316">
        <ele>55</ele>
        <time>2020-07-26T09:06:12.000Z</time>
      </trkpt>
      <trkpt lat="47.56178" lon="-2.32315">
        <ele>54.599998474121</ele>
        <time>2020-07-26T09:06:13.000Z</time>
      </trkpt>
      <trkpt lat="47.5618" lon="-2.32313">
        <ele>54.200000762939</ele>
        <time>2020-07-26T09:06:14.000Z</time>
      </trkpt>
      <trkpt lat="47.56179" lon="-2.32311">
        <ele>53.799999237061</ele>
        <time>2020-07-26T09:06:15.000Z</time>
      </trkpt>
      <trkpt lat="47.56178" lon="-2.32309">
        <ele>53.400001525879</ele>
        <time>2020-07-26T09:06:16.000Z</time>
      </trkpt>
      <trkpt lat="47.56176" lon="-2.32307">
        <ele>53.400001525879</ele>
        <time>2020-07-26T09:06:17.000Z</time>
      </trkpt>
      <trkpt lat="47.56177" lon="-2.32298">
        <ele>53.400001525879</ele>
        <time>2020-07-26T09:06:22.000Z</time>
      </trkpt>
      <trkpt lat="47.5618" lon="-2.32298">
        <ele>53.400001525879</ele>
        <time>2020-07-26T09:06:24.000Z</time>
      </trkpt>
      <trkpt lat="47.56181" lon="-2.32294">
        <ele>53.400001525879</ele>
        <time>2020-07-26T09:06:27.000Z</time>
      </trkpt>
      <trkpt lat="47.56181" lon="-2.32293">
        <ele>53.400001525879</ele>
        <time>2020-07-26T09:06:28.000Z</time>
      </trkpt>
      <trkpt lat="47.56182" lon="-2.32285">
        <ele>53.400001525879</ele>
        <time>2020-07-26T09:06:33.000Z</time>
      </trkpt>
      <trkpt lat="47.56181" lon="-2.3228">
        <ele>53.400001525879</ele>
        <time>2020-07-26T09:06:35.000Z</time>
      </trkpt>
      <trkpt lat="47.56179" lon="-2.32274">
        <ele>53.400001525879</ele>
        <time>2020-07-26T09:06:37.000Z</time>
      </trkpt>
      <trkpt lat="47.56176" lon="-2.32271">
        <ele>53.400001525879</ele>
        <time>2020-07-26T09:06:39.000Z</time>
      </trkpt>
      <trkpt lat="47.56175" lon="-2.32265">
        <ele>53.400001525879</ele>
        <time>2020-07-26T09:06:41.000Z</time>
      </trkpt>
      <trkpt lat="47.56179" lon="-2.32255">
        <ele>53.400001525879</ele>
        <time>2020-07-26T09:06:45.000Z</time>
      </trkpt>
      <trkpt lat="47.56187" lon="-2.32248">
        <ele>53.400001525879</ele>
        <time>2020-07-26T09:06:50.000Z</time>
      </trkpt>
      <trkpt lat="47.56198" lon="-2.32245">
        <ele>53.400001525879</ele>
        <time>2020-07-26T09:06:54.000Z</time>
      </trkpt>
      <trkpt lat="47.56206" lon="-2.32245">
        <ele>53.400001525879</ele>
        <time>2020-07-26T09:06:58.000Z</time>
      </trkpt>
      <trkpt lat="47.56209" lon="-2.32249">
        <ele>53</ele>
        <time>2020-07-26T09:07:00.000Z</time>
      </trkpt>
      <trkpt lat="47.56209" lon="-2.3225">
        <ele>52.400001525879</ele>
        <time>2020-07-26T09:07:01.000Z</time>
      </trkpt>
      <trkpt lat="47.56209" lon="-2.32253">
        <ele>52</ele>
        <time>2020-07-26T09:07:02.000Z</time>
      </trkpt>
      <trkpt lat="47.5621" lon="-2.32257">
        <ele>51.599998474121</ele>
        <time>2020-07-26T09:07:03.000Z</time>
      </trkpt>
      <trkpt lat="47.56209" lon="-2.3226">
        <ele>51</ele>
        <time>2020-07-26T09:07:04.000Z</time>
      </trkpt>
      <trkpt lat="47.56207" lon="-2.32265">
        <ele>51</ele>
        <time>2020-07-26T09:07:06.000Z</time>
      </trkpt>
      <trkpt lat="47.56206" lon="-2.32268">
        <ele>51</ele>
        <time>2020-07-26T09:07:07.000Z</time>
      </trkpt>
      <trkpt lat="47.56206" lon="-2.32271">
        <ele>51</ele>
        <time>2020-07-26T09:07:08.000Z</time>
      </trkpt>
      <trkpt lat="47.56208" lon="-2.32274">
        <ele>51</ele>
        <time>2020-07-26T09:07:10.000Z</time>
      </trkpt>
      <trkpt lat="47.5621" lon="-2.32271">
        <ele>51</ele>
        <time>2020-07-26T09:07:13.000Z</time>
      </trkpt>
      <trkpt lat="47.56211" lon="-2.3227">
        <ele>50.599998474121</ele>
        <time>2020-07-26T09:07:14.000Z</time>
      </trkpt>
      <trkpt lat="47.56212" lon="-2.32271">
        <ele>50.200000762939</ele>
        <time>2020-07-26T09:07:15.000Z</time>
      </trkpt>
      <trkpt lat="47.56213" lon="-2.32272">
        <ele>49.799999237061</ele>
        <time>2020-07-26T09:07:16.000Z</time>
      </trkpt>
      <trkpt lat="47.56215" lon="-2.32275">
        <ele>49.400001525879</ele>
        <time>2020-07-26T09:07:17.000Z</time>
      </trkpt>
      <trkpt lat="47.56215" lon="-2.32278">
        <ele>49</ele>
        <time>2020-07-26T09:07:18.000Z</time>
      </trkpt>
      <trkpt lat="47.56216" lon="-2.32288">
        <ele>48.599998474121</ele>
        <time>2020-07-26T09:07:22.000Z</time>
      </trkpt>
      <trkpt lat="47.56219" lon="-2.3229">
        <ele>48.200000762939</ele>
        <time>2020-07-26T09:07:23.000Z</time>
      </trkpt>
      <trkpt lat="47.5622" lon="-2.32293">
        <ele>47.799999237061</ele>
        <time>2020-07-26T09:07:24.000Z</time>
      </trkpt>
      <trkpt lat="47.56222" lon="-2.32296">
        <ele>47.400001525879</ele>
        <time>2020-07-26T09:07:25.000Z</time>
      </trkpt>
      <trkpt lat="47.56224" lon="-2.32295">
        <ele>47</ele>
        <time>2020-07-26T09:07:26.000Z</time>
      </trkpt>
      <trkpt lat="47.56226" lon="-2.32292">
        <ele>47</ele>
        <time>2020-07-26T09:07:27.000Z</time>
      </trkpt>
      <trkpt lat="47.56231" lon="-2.32283">
        <ele>47</ele>
        <time>2020-07-26T09:07:33.000Z</time>
      </trkpt>
      <trkpt lat="47.56234" lon="-2.32282">
        <ele>47</ele>
        <time>2020-07-26T09:07:34.000Z</time>
      </trkpt>
      <trkpt lat="47.56245" lon="-2.32283">
        <ele>47</ele>
        <time>2020-07-26T09:07:38.000Z</time>
      </trkpt>
      <trkpt lat="47.5625" lon="-2.32282">
        <ele>47</ele>
        <time>2020-07-26T09:07:40.000Z</time>
      </trkpt>
      <trkpt lat="47.56258" lon="-2.32277">
        <ele>47</ele>
        <time>2020-07-26T09:07:43.000Z</time>
      </trkpt>
      <trkpt lat="47.56266" lon="-2.32271">
        <ele>47</ele>
        <time>2020-07-26T09:07:48.000Z</time>
      </trkpt>
      <trkpt lat="47.56267" lon="-2.32271">
        <ele>47</ele>
        <time>2020-07-26T09:07:49.000Z</time>
      </trkpt>
      <trkpt lat="47.56269" lon="-2.32267">
        <ele>45</ele>
        <time>2020-07-26T09:08:12.000Z</time>
      </trkpt>
      <trkpt lat="47.56274" lon="-2.32261">
        <ele>45</ele>
        <time>2020-07-26T09:08:14.000Z</time>
      </trkpt>
      <trkpt lat="47.56283" lon="-2.32236">
        <ele>45</ele>
        <time>2020-07-26T09:08:19.000Z</time>
      </trkpt>
      <trkpt lat="47.56287" lon="-2.32209">
        <ele>45</ele>
        <time>2020-07-26T09:08:24.000Z</time>
      </trkpt>
      <trkpt lat="47.5629" lon="-2.32198">
        <ele>45</ele>
        <time>2020-07-26T09:08:29.000Z</time>
      </trkpt>
      <trkpt lat="47.5629" lon="-2.32184">
        <ele>45</ele>
        <time>2020-07-26T09:08:37.000Z</time>
      </trkpt>
      <trkpt lat="47.5629" lon="-2.3218">
        <ele>45</ele>
        <time>2020-07-26T09:08:38.000Z</time>
      </trkpt>
      <trkpt lat="47.56289" lon="-2.32175">
        <ele>45</ele>
        <time>2020-07-26T09:08:43.000Z</time>
      </trkpt>
      <trkpt lat="47.56289" lon="-2.32174">
        <ele>45</ele>
        <time>2020-07-26T09:08:44.000Z</time>
      </trkpt>
      <trkpt lat="47.56293" lon="-2.32144">
        <ele>44.200000762939</ele>
        <time>2020-07-26T09:09:10.000Z</time>
      </trkpt>
      <trkpt lat="47.56295" lon="-2.32136">
        <ele>44.200000762939</ele>
        <time>2020-07-26T09:09:13.000Z</time>
      </trkpt>
      <trkpt lat="47.56293" lon="-2.32124">
        <ele>44.200000762939</ele>
        <time>2020-07-26T09:09:17.000Z</time>
      </trkpt>
      <trkpt lat="47.56291" lon="-2.32117">
        <ele>44.200000762939</ele>
        <time>2020-07-26T09:09:19.000Z</time>
      </trkpt>
      <trkpt lat="47.56288" lon="-2.32103">
        <ele>44.200000762939</ele>
        <time>2020-07-26T09:09:25.000Z</time>
      </trkpt>
      <trkpt lat="47.56289" lon="-2.32094">
        <ele>44.200000762939</ele>
        <time>2020-07-26T09:09:29.000Z</time>
      </trkpt>
      <trkpt lat="47.56292" lon="-2.32088">
        <ele>44.200000762939</ele>
        <time>2020-07-26T09:09:32.000Z</time>
      </trkpt>
      <trkpt lat="47.56298" lon="-2.32069">
        <ele>44.200000762939</ele>
        <time>2020-07-26T09:09:38.000Z</time>
      </trkpt>
      <trkpt lat="47.56298" lon="-2.32068">
        <ele>44.599998474121</ele>
        <time>2020-07-26T09:09:39.000Z</time>
      </trkpt>
      <trkpt lat="47.56299" lon="-2.32065">
        <ele>45.400001525879</ele>
        <time>2020-07-26T09:09:40.000Z</time>
      </trkpt>
      <trkpt lat="47.56301" lon="-2.32062">
        <ele>46</ele>
        <time>2020-07-26T09:09:41.000Z</time>
      </trkpt>
      <trkpt lat="47.56302" lon="-2.32059">
        <ele>46.400001525879</ele>
        <time>2020-07-26T09:09:42.000Z</time>
      </trkpt>
      <trkpt lat="47.56305" lon="-2.32055">
        <ele>46.400001525879</ele>
        <time>2020-07-26T09:09:44.000Z</time>
      </trkpt>
      <trkpt lat="47.56308" lon="-2.3204">
        <ele>46.400001525879</ele>
        <time>2020-07-26T09:09:48.000Z</time>
      </trkpt>
      <trkpt lat="47.56307" lon="-2.32037">
        <ele>46.799999237061</ele>
        <time>2020-07-26T09:09:49.000Z</time>
      </trkpt>
      <trkpt lat="47.56306" lon="-2.32034">
        <ele>47.200000762939</ele>
        <time>2020-07-26T09:09:50.000Z</time>
      </trkpt>
      <trkpt lat="47.56305" lon="-2.32032">
        <ele>47.799999237061</ele>
        <time>2020-07-26T09:09:51.000Z</time>
      </trkpt>
      <trkpt lat="47.56304" lon="-2.32029">
        <ele>48.200000762939</ele>
        <time>2020-07-26T09:09:52.000Z</time>
      </trkpt>
      <trkpt lat="47.56302" lon="-2.32025">
        <ele>48.599998474121</ele>
        <time>2020-07-26T09:09:53.000Z</time>
      </trkpt>
      <trkpt lat="47.56301" lon="-2.32021">
        <ele>48.599998474121</ele>
        <time>2020-07-26T09:09:54.000Z</time>
      </trkpt>
      <trkpt lat="47.56301" lon="-2.32017">
        <ele>49.200000762939</ele>
        <time>2020-07-26T09:09:55.000Z</time>
      </trkpt>
      <trkpt lat="47.56301" lon="-2.32014">
        <ele>49.599998474121</ele>
        <time>2020-07-26T09:09:56.000Z</time>
      </trkpt>
      <trkpt lat="47.56301" lon="-2.3201">
        <ele>50</ele>
        <time>2020-07-26T09:09:57.000Z</time>
      </trkpt>
      <trkpt lat="47.56301" lon="-2.32007">
        <ele>50.400001525879</ele>
        <time>2020-07-26T09:09:58.000Z</time>
      </trkpt>
      <trkpt lat="47.56302" lon="-2.32005">
        <ele>50.799999237061</ele>
        <time>2020-07-26T09:09:59.000Z</time>
      </trkpt>
      <trkpt lat="47.56303" lon="-2.31995">
        <ele>50.799999237061</ele>
        <time>2020-07-26T09:10:02.000Z</time>
      </trkpt>
      <trkpt lat="47.56311" lon="-2.31978">
        <ele>50.799999237061</ele>
        <time>2020-07-26T09:10:09.000Z</time>
      </trkpt>
      <trkpt lat="47.56321" lon="-2.3198">
        <ele>50.799999237061</ele>
        <time>2020-07-26T09:10:13.000Z</time>
      </trkpt>
      <trkpt lat="47.56336" lon="-2.3197">
        <ele>50.799999237061</ele>
        <time>2020-07-26T09:10:17.000Z</time>
      </trkpt>
      <trkpt lat="47.56348" lon="-2.31968">
        <ele>50.799999237061</ele>
        <time>2020-07-26T09:10:21.000Z</time>
      </trkpt>
      <trkpt lat="47.56354" lon="-2.31963">
        <ele>50.400001525879</ele>
        <time>2020-07-26T09:10:23.000Z</time>
      </trkpt>
      <trkpt lat="47.56358" lon="-2.3196">
        <ele>50</ele>
        <time>2020-07-26T09:10:24.000Z</time>
      </trkpt>
      <trkpt lat="47.56361" lon="-2.31957">
        <ele>49.599998474121</ele>
        <time>2020-07-26T09:10:25.000Z</time>
      </trkpt>
      <trkpt lat="47.56363" lon="-2.31952">
        <ele>49.200000762939</ele>
        <time>2020-07-26T09:10:26.000Z</time>
      </trkpt>
      <trkpt lat="47.56365" lon="-2.31947">
        <ele>48.799999237061</ele>
        <time>2020-07-26T09:10:27.000Z</time>
      </trkpt>
      <trkpt lat="47.56371" lon="-2.31934">
        <ele>48.799999237061</ele>
        <time>2020-07-26T09:10:31.000Z</time>
      </trkpt>
      <trkpt lat="47.56372" lon="-2.31934">
        <ele>48.799999237061</ele>
        <time>2020-07-26T09:10:33.000Z</time>
      </trkpt>
      <trkpt lat="47.56373" lon="-2.31931">
        <ele>48.799999237061</ele>
        <time>2020-07-26T09:10:59.000Z</time>
      </trkpt>
      <trkpt lat="47.56378" lon="-2.31918">
        <ele>48.799999237061</ele>
        <time>2020-07-26T09:11:03.000Z</time>
      </trkpt>
      <trkpt lat="47.56381" lon="-2.31912">
        <ele>48.799999237061</ele>
        <time>2020-07-26T09:11:05.000Z</time>
      </trkpt>
      <trkpt lat="47.56395" lon="-2.31898">
        <ele>48.799999237061</ele>
        <time>2020-07-26T09:11:11.000Z</time>
      </trkpt>
      <trkpt lat="47.56404" lon="-2.31887">
        <ele>48.799999237061</ele>
        <time>2020-07-26T09:11:17.000Z</time>
      </trkpt>
      <trkpt lat="47.56406" lon="-2.31884">
        <ele>48.799999237061</ele>
        <time>2020-07-26T09:11:19.000Z</time>
      </trkpt>
      <trkpt lat="47.56405" lon="-2.3188">
        <ele>48.799999237061</ele>
        <time>2020-07-26T09:11:21.000Z</time>
      </trkpt>
      <trkpt lat="47.56404" lon="-2.31874">
        <ele>48.799999237061</ele>
        <time>2020-07-26T09:11:24.000Z</time>
      </trkpt>
      <trkpt lat="47.56405" lon="-2.31868">
        <ele>48.799999237061</ele>
        <time>2020-07-26T09:11:26.000Z</time>
      </trkpt>
      <trkpt lat="47.56413" lon="-2.31838">
        <ele>48.799999237061</ele>
        <time>2020-07-26T09:11:34.000Z</time>
      </trkpt>
      <trkpt lat="47.56418" lon="-2.31824">
        <ele>48.799999237061</ele>
        <time>2020-07-26T09:11:40.000Z</time>
      </trkpt>
      <trkpt lat="47.56422" lon="-2.31815">
        <ele>48.799999237061</ele>
        <time>2020-07-26T09:11:45.000Z</time>
      </trkpt>
      <trkpt lat="47.56424" lon="-2.31807">
        <ele>48.799999237061</ele>
        <time>2020-07-26T09:11:48.000Z</time>
      </trkpt>
      <trkpt lat="47.56427" lon="-2.31802">
        <ele>48.799999237061</ele>
        <time>2020-07-26T09:11:50.000Z</time>
      </trkpt>
      <trkpt lat="47.56429" lon="-2.31799">
        <ele>48.400001525879</ele>
        <time>2020-07-26T09:11:51.000Z</time>
      </trkpt>
      <trkpt lat="47.5643" lon="-2.31796">
        <ele>48</ele>
        <time>2020-07-26T09:11:52.000Z</time>
      </trkpt>
      <trkpt lat="47.56432" lon="-2.31793">
        <ele>47.400001525879</ele>
        <time>2020-07-26T09:11:53.000Z</time>
      </trkpt>
      <trkpt lat="47.56433" lon="-2.3179">
        <ele>47</ele>
        <time>2020-07-26T09:11:54.000Z</time>
      </trkpt>
      <trkpt lat="47.56434" lon="-2.31787">
        <ele>46.599998474121</ele>
        <time>2020-07-26T09:11:55.000Z</time>
      </trkpt>
      <trkpt lat="47.56435" lon="-2.31784">
        <ele>46.599998474121</ele>
        <time>2020-07-26T09:11:56.000Z</time>
      </trkpt>
      <trkpt lat="47.56439" lon="-2.31766">
        <ele>46.599998474121</ele>
        <time>2020-07-26T09:12:03.000Z</time>
      </trkpt>
      <trkpt lat="47.56438" lon="-2.31763">
        <ele>46.599998474121</ele>
        <time>2020-07-26T09:12:06.000Z</time>
      </trkpt>
      <trkpt lat="47.56436" lon="-2.3176">
        <ele>46.599998474121</ele>
        <time>2020-07-26T09:12:08.000Z</time>
      </trkpt>
      <trkpt lat="47.56433" lon="-2.31753">
        <ele>46.599998474121</ele>
        <time>2020-07-26T09:12:12.000Z</time>
      </trkpt>
      <trkpt lat="47.56434" lon="-2.31712">
        <ele>46.599998474121</ele>
        <time>2020-07-26T09:14:22.000Z</time>
      </trkpt>
      <trkpt lat="47.56434" lon="-2.3171">
        <ele>46.599998474121</ele>
        <time>2020-07-26T09:14:23.000Z</time>
      </trkpt>
      <trkpt lat="47.56436" lon="-2.31698">
        <ele>46.599998474121</ele>
        <time>2020-07-26T09:14:27.000Z</time>
      </trkpt>
      <trkpt lat="47.56436" lon="-2.31691">
        <ele>46.599998474121</ele>
        <time>2020-07-26T09:14:30.000Z</time>
      </trkpt>
      <trkpt lat="47.56436" lon="-2.31689">
        <ele>46.599998474121</ele>
        <time>2020-07-26T09:14:31.000Z</time>
      </trkpt>
      <trkpt lat="47.56435" lon="-2.31686">
        <ele>46.599998474121</ele>
        <time>2020-07-26T09:14:33.000Z</time>
      </trkpt>
      <trkpt lat="47.56431" lon="-2.31681">
        <ele>46.599998474121</ele>
        <time>2020-07-26T09:14:39.000Z</time>
      </trkpt>
      <trkpt lat="47.56428" lon="-2.31672">
        <ele>46.599998474121</ele>
        <time>2020-07-26T09:14:44.000Z</time>
      </trkpt>
      <trkpt lat="47.56429" lon="-2.31666">
        <ele>45.599998474121</ele>
        <time>2020-07-26T09:14:47.000Z</time>
      </trkpt>
      <trkpt lat="47.5643" lon="-2.31665">
        <ele>45.200000762939</ele>
        <time>2020-07-26T09:14:48.000Z</time>
      </trkpt>
      <trkpt lat="47.56431" lon="-2.31662">
        <ele>44.599998474121</ele>
        <time>2020-07-26T09:14:49.000Z</time>
      </trkpt>
      <trkpt lat="47.56433" lon="-2.31659">
        <ele>44.200000762939</ele>
        <time>2020-07-26T09:14:50.000Z</time>
      </trkpt>
      <trkpt lat="47.56441" lon="-2.31645">
        <ele>44.200000762939</ele>
        <time>2020-07-26T09:14:54.000Z</time>
      </trkpt>
      <trkpt lat="47.56455" lon="-2.31627">
        <ele>44.200000762939</ele>
        <time>2020-07-26T09:15:00.000Z</time>
      </trkpt>
      <trkpt lat="47.56469" lon="-2.3162">
        <ele>44.200000762939</ele>
        <time>2020-07-26T09:15:05.000Z</time>
      </trkpt>
      <trkpt lat="47.56486" lon="-2.31605">
        <ele>44.200000762939</ele>
        <time>2020-07-26T09:15:11.000Z</time>
      </trkpt>
      <trkpt lat="47.56497" lon="-2.31594">
        <ele>44.200000762939</ele>
        <time>2020-07-26T09:15:17.000Z</time>
      </trkpt>
      <trkpt lat="47.56503" lon="-2.31583">
        <ele>44.200000762939</ele>
        <time>2020-07-26T09:15:22.000Z</time>
      </trkpt>
      <trkpt lat="47.56508" lon="-2.31565">
        <ele>44.200000762939</ele>
        <time>2020-07-26T09:15:27.000Z</time>
      </trkpt>
      <trkpt lat="47.5651" lon="-2.31556">
        <ele>44.599998474121</ele>
        <time>2020-07-26T09:15:29.000Z</time>
      </trkpt>
      <trkpt lat="47.56512" lon="-2.31551">
        <ele>45</ele>
        <time>2020-07-26T09:15:30.000Z</time>
      </trkpt>
      <trkpt lat="47.56513" lon="-2.31547">
        <ele>45.400001525879</ele>
        <time>2020-07-26T09:15:31.000Z</time>
      </trkpt>
      <trkpt lat="47.56514" lon="-2.31542">
        <ele>45.799999237061</ele>
        <time>2020-07-26T09:15:32.000Z</time>
      </trkpt>
      <trkpt lat="47.56515" lon="-2.31537">
        <ele>46.200000762939</ele>
        <time>2020-07-26T09:15:33.000Z</time>
      </trkpt>
      <trkpt lat="47.56518" lon="-2.31511">
        <ele>46.200000762939</ele>
        <time>2020-07-26T09:15:38.000Z</time>
      </trkpt>
      <trkpt lat="47.56519" lon="-2.31483">
        <ele>46.799999237061</ele>
        <time>2020-07-26T09:15:44.000Z</time>
      </trkpt>
      <trkpt lat="47.56518" lon="-2.31478">
        <ele>47.200000762939</ele>
        <time>2020-07-26T09:15:45.000Z</time>
      </trkpt>
      <trkpt lat="47.56518" lon="-2.31474">
        <ele>47.599998474121</ele>
        <time>2020-07-26T09:15:46.000Z</time>
      </trkpt>
      <trkpt lat="47.56517" lon="-2.3147">
        <ele>48</ele>
        <time>2020-07-26T09:15:47.000Z</time>
      </trkpt>
      <trkpt lat="47.56516" lon="-2.31466">
        <ele>48.400001525879</ele>
        <time>2020-07-26T09:15:48.000Z</time>
      </trkpt>
      <trkpt lat="47.56511" lon="-2.31446">
        <ele>48.400001525879</ele>
        <time>2020-07-26T09:15:53.000Z</time>
      </trkpt>
      <trkpt lat="47.56509" lon="-2.31444">
        <ele>48.400001525879</ele>
        <time>2020-07-26T09:15:54.000Z</time>
      </trkpt>
      <trkpt lat="47.56503" lon="-2.31441">
        <ele>48.799999237061</ele>
        <time>2020-07-26T09:15:56.000Z</time>
      </trkpt>
      <trkpt lat="47.565" lon="-2.3144">
        <ele>49.200000762939</ele>
        <time>2020-07-26T09:15:57.000Z</time>
      </trkpt>
      <trkpt lat="47.56497" lon="-2.31438">
        <ele>49.599998474121</ele>
        <time>2020-07-26T09:15:58.000Z</time>
      </trkpt>
      <trkpt lat="47.56495" lon="-2.31437">
        <ele>50</ele>
        <time>2020-07-26T09:15:59.000Z</time>
      </trkpt>
      <trkpt lat="47.56492" lon="-2.31435">
        <ele>50.400001525879</ele>
        <time>2020-07-26T09:16:00.000Z</time>
      </trkpt>
      <trkpt lat="47.56489" lon="-2.31433">
        <ele>50.400001525879</ele>
        <time>2020-07-26T09:16:01.000Z</time>
      </trkpt>
      <trkpt lat="47.56484" lon="-2.31428">
        <ele>50.400001525879</ele>
        <time>2020-07-26T09:16:03.000Z</time>
      </trkpt>
      <trkpt lat="47.56475" lon="-2.31415">
        <ele>51</ele>
        <time>2020-07-26T09:16:07.000Z</time>
      </trkpt>
      <trkpt lat="47.56473" lon="-2.31411">
        <ele>51.400001525879</ele>
        <time>2020-07-26T09:16:08.000Z</time>
      </trkpt>
      <trkpt lat="47.56471" lon="-2.31405">
        <ele>51.799999237061</ele>
        <time>2020-07-26T09:16:09.000Z</time>
      </trkpt>
      <trkpt lat="47.56469" lon="-2.31399">
        <ele>52.200000762939</ele>
        <time>2020-07-26T09:16:10.000Z</time>
      </trkpt>
      <trkpt lat="47.56467" lon="-2.31392">
        <ele>52.599998474121</ele>
        <time>2020-07-26T09:16:11.000Z</time>
      </trkpt>
      <trkpt lat="47.56463" lon="-2.31379">
        <ele>52.599998474121</ele>
        <time>2020-07-26T09:16:13.000Z</time>
      </trkpt>
      <trkpt lat="47.56456" lon="-2.31343">
        <ele>53</ele>
        <time>2020-07-26T09:16:19.000Z</time>
      </trkpt>
      <trkpt lat="47.56456" lon="-2.31338">
        <ele>53.400001525879</ele>
        <time>2020-07-26T09:16:20.000Z</time>
      </trkpt>
      <trkpt lat="47.56455" lon="-2.31332">
        <ele>53.799999237061</ele>
        <time>2020-07-26T09:16:21.000Z</time>
      </trkpt>
      <trkpt lat="47.56454" lon="-2.31326">
        <ele>54.200000762939</ele>
        <time>2020-07-26T09:16:22.000Z</time>
      </trkpt>
      <trkpt lat="47.56453" lon="-2.3132">
        <ele>54.599998474121</ele>
        <time>2020-07-26T09:16:23.000Z</time>
      </trkpt>
      <trkpt lat="47.5645" lon="-2.31295">
        <ele>54.599998474121</ele>
        <time>2020-07-26T09:16:27.000Z</time>
      </trkpt>
      <trkpt lat="47.56442" lon="-2.31244">
        <ele>54.599998474121</ele>
        <time>2020-07-26T09:16:34.000Z</time>
      </trkpt>
      <trkpt lat="47.56434" lon="-2.31191">
        <ele>54.599998474121</ele>
        <time>2020-07-26T09:16:41.000Z</time>
      </trkpt>
      <trkpt lat="47.56428" lon="-2.31158">
        <ele>54.599998474121</ele>
        <time>2020-07-26T09:16:46.000Z</time>
      </trkpt>
      <trkpt lat="47.56425" lon="-2.31152">
        <ele>54.599998474121</ele>
        <time>2020-07-26T09:16:47.000Z</time>
      </trkpt>
      <trkpt lat="47.56414" lon="-2.31146">
        <ele>54.599998474121</ele>
        <time>2020-07-26T09:16:50.000Z</time>
      </trkpt>
      <trkpt lat="47.56411" lon="-2.31146">
        <ele>54.599998474121</ele>
        <time>2020-07-26T09:16:51.000Z</time>
      </trkpt>
      <trkpt lat="47.56403" lon="-2.31149">
        <ele>55</ele>
        <time>2020-07-26T09:16:54.000Z</time>
      </trkpt>
      <trkpt lat="47.56402" lon="-2.31151">
        <ele>55.400001525879</ele>
        <time>2020-07-26T09:16:55.000Z</time>
      </trkpt>
      <trkpt lat="47.56401" lon="-2.31153">
        <ele>56</ele>
        <time>2020-07-26T09:16:56.000Z</time>
      </trkpt>
      <trkpt lat="47.56399" lon="-2.31154">
        <ele>56.400001525879</ele>
        <time>2020-07-26T09:16:57.000Z</time>
      </trkpt>
      <trkpt lat="47.56398" lon="-2.31155">
        <ele>56.799999237061</ele>
        <time>2020-07-26T09:16:58.000Z</time>
      </trkpt>
      <trkpt lat="47.56393" lon="-2.31156">
        <ele>56.799999237061</ele>
        <time>2020-07-26T09:17:01.000Z</time>
      </trkpt>
      <trkpt lat="47.56385" lon="-2.31159">
        <ele>57.599998474121</ele>
        <time>2020-07-26T09:17:05.000Z</time>
      </trkpt>
      <trkpt lat="47.56383" lon="-2.3116">
        <ele>58.200000762939</ele>
        <time>2020-07-26T09:17:06.000Z</time>
      </trkpt>
      <trkpt lat="47.56381" lon="-2.31161">
        <ele>58.599998474121</ele>
        <time>2020-07-26T09:17:07.000Z</time>
      </trkpt>
      <trkpt lat="47.56378" lon="-2.31162">
        <ele>59</ele>
        <time>2020-07-26T09:17:08.000Z</time>
      </trkpt>
      <trkpt lat="47.56363" lon="-2.31169">
        <ele>59</ele>
        <time>2020-07-26T09:17:15.000Z</time>
      </trkpt>
      <trkpt lat="47.56358" lon="-2.3117">
        <ele>59.400001525879</ele>
        <time>2020-07-26T09:17:17.000Z</time>
      </trkpt>
      <trkpt lat="47.56356" lon="-2.3117">
        <ele>59.799999237061</ele>
        <time>2020-07-26T09:17:18.000Z</time>
      </trkpt>
      <trkpt lat="47.56354" lon="-2.3117">
        <ele>60.400001525879</ele>
        <time>2020-07-26T09:17:19.000Z</time>
      </trkpt>
      <trkpt lat="47.56351" lon="-2.31169">
        <ele>60.799999237061</ele>
        <time>2020-07-26T09:17:20.000Z</time>
      </trkpt>
      <trkpt lat="47.56348" lon="-2.31167">
        <ele>61.200000762939</ele>
        <time>2020-07-26T09:17:21.000Z</time>
      </trkpt>
      <trkpt lat="47.56341" lon="-2.31151">
        <ele>61.200000762939</ele>
        <time>2020-07-26T09:17:25.000Z</time>
      </trkpt>
      <trkpt lat="47.56331" lon="-2.31118">
        <ele>61.200000762939</ele>
        <time>2020-07-26T09:17:32.000Z</time>
      </trkpt>
      <trkpt lat="47.56327" lon="-2.31107">
        <ele>61.200000762939</ele>
        <time>2020-07-26T09:17:37.000Z</time>
      </trkpt>
      <trkpt lat="47.56327" lon="-2.31106">
        <ele>61.200000762939</ele>
        <time>2020-07-26T09:17:38.000Z</time>
      </trkpt>
      <trkpt lat="47.56327" lon="-2.31106">
        <ele>61.200000762939</ele>
        <time>2020-07-26T09:17:39.000Z</time>
      </trkpt>
      <trkpt lat="47.56337" lon="-2.31108">
        <ele>61.200000762939</ele>
        <time>2020-07-26T09:18:20.000Z</time>
      </trkpt>
      <trkpt lat="47.5634" lon="-2.3111">
        <ele>61.200000762939</ele>
        <time>2020-07-26T09:18:22.000Z</time>
      </trkpt>
      <trkpt lat="47.56344" lon="-2.31119">
        <ele>61.200000762939</ele>
        <time>2020-07-26T09:18:26.000Z</time>
      </trkpt>
      <trkpt lat="47.56345" lon="-2.3112">
        <ele>61.200000762939</ele>
        <time>2020-07-26T09:18:27.000Z</time>
      </trkpt>
      <trkpt lat="47.56354" lon="-2.3112">
        <ele>61.200000762939</ele>
        <time>2020-07-26T09:18:32.000Z</time>
      </trkpt>
      <trkpt lat="47.56356" lon="-2.31122">
        <ele>61.200000762939</ele>
        <time>2020-07-26T09:18:33.000Z</time>
      </trkpt>
      <trkpt lat="47.56358" lon="-2.31126">
        <ele>61.200000762939</ele>
        <time>2020-07-26T09:18:34.000Z</time>
      </trkpt>
      <trkpt lat="47.56362" lon="-2.31131">
        <ele>61.200000762939</ele>
        <time>2020-07-26T09:18:36.000Z</time>
      </trkpt>
      <trkpt lat="47.56367" lon="-2.31126">
        <ele>61.200000762939</ele>
        <time>2020-07-26T09:18:40.000Z</time>
      </trkpt>
      <trkpt lat="47.56368" lon="-2.3112">
        <ele>61.200000762939</ele>
        <time>2020-07-26T09:18:42.000Z</time>
      </trkpt>
      <trkpt lat="47.56368" lon="-2.31112">
        <ele>61.200000762939</ele>
        <time>2020-07-26T09:18:45.000Z</time>
      </trkpt>
      <trkpt lat="47.56371" lon="-2.31108">
        <ele>61.200000762939</ele>
        <time>2020-07-26T09:18:49.000Z</time>
      </trkpt>
      <trkpt lat="47.56373" lon="-2.31108">
        <ele>61.200000762939</ele>
        <time>2020-07-26T09:18:50.000Z</time>
      </trkpt>
      <trkpt lat="47.56374" lon="-2.31107">
        <ele>60.799999237061</ele>
        <time>2020-07-26T09:18:51.000Z</time>
      </trkpt>
      <trkpt lat="47.56376" lon="-2.31107">
        <ele>60.400001525879</ele>
        <time>2020-07-26T09:18:52.000Z</time>
      </trkpt>
      <trkpt lat="47.56377" lon="-2.31108">
        <ele>60</ele>
        <time>2020-07-26T09:18:53.000Z</time>
      </trkpt>
      <trkpt lat="47.56378" lon="-2.31109">
        <ele>59.599998474121</ele>
        <time>2020-07-26T09:18:54.000Z</time>
      </trkpt>
      <trkpt lat="47.56379" lon="-2.3111">
        <ele>59.200000762939</ele>
        <time>2020-07-26T09:18:55.000Z</time>
      </trkpt>
      <trkpt lat="47.56379" lon="-2.31111">
        <ele>59.200000762939</ele>
        <time>2020-07-26T09:18:56.000Z</time>
      </trkpt>
      <trkpt lat="47.56378" lon="-2.31117">
        <ele>59.200000762939</ele>
        <time>2020-07-26T09:19:00.000Z</time>
      </trkpt>
      <trkpt lat="47.56377" lon="-2.31117">
        <ele>59.200000762939</ele>
        <time>2020-07-26T09:19:01.000Z</time>
      </trkpt>
      <trkpt lat="47.56375" lon="-2.31122">
        <ele>59.200000762939</ele>
        <time>2020-07-26T09:19:06.000Z</time>
      </trkpt>
      <trkpt lat="47.56376" lon="-2.31123">
        <ele>59.200000762939</ele>
        <time>2020-07-26T09:19:07.000Z</time>
      </trkpt>
      <trkpt lat="47.5638" lon="-2.31131">
        <ele>59.200000762939</ele>
        <time>2020-07-26T09:19:10.000Z</time>
      </trkpt>
      <trkpt lat="47.56389" lon="-2.31144">
        <ele>59.200000762939</ele>
        <time>2020-07-26T09:19:16.000Z</time>
      </trkpt>
      <trkpt lat="47.56393" lon="-2.31143">
        <ele>59.200000762939</ele>
        <time>2020-07-26T09:19:19.000Z</time>
      </trkpt>
      <trkpt lat="47.56395" lon="-2.31139">
        <ele>59.200000762939</ele>
        <time>2020-07-26T09:19:21.000Z</time>
      </trkpt>
      <trkpt lat="47.56395" lon="-2.31137">
        <ele>58.799999237061</ele>
        <time>2020-07-26T09:19:22.000Z</time>
      </trkpt>
      <trkpt lat="47.56394" lon="-2.31134">
        <ele>58.400001525879</ele>
        <time>2020-07-26T09:19:23.000Z</time>
      </trkpt>
      <trkpt lat="47.56394" lon="-2.31131">
        <ele>57.799999237061</ele>
        <time>2020-07-26T09:19:24.000Z</time>
      </trkpt>
      <trkpt lat="47.56395" lon="-2.31128">
        <ele>57.400001525879</ele>
        <time>2020-07-26T09:19:25.000Z</time>
      </trkpt>
      <trkpt lat="47.56396" lon="-2.31123">
        <ele>57</ele>
        <time>2020-07-26T09:19:26.000Z</time>
      </trkpt>
      <trkpt lat="47.56398" lon="-2.31113">
        <ele>57</ele>
        <time>2020-07-26T09:19:29.000Z</time>
      </trkpt>
      <trkpt lat="47.56399" lon="-2.3111">
        <ele>57</ele>
        <time>2020-07-26T09:19:30.000Z</time>
      </trkpt>
      <trkpt lat="47.56402" lon="-2.31107">
        <ele>57</ele>
        <time>2020-07-26T09:19:33.000Z</time>
      </trkpt>
      <trkpt lat="47.56404" lon="-2.31109">
        <ele>57</ele>
        <time>2020-07-26T09:19:35.000Z</time>
      </trkpt>
      <trkpt lat="47.56409" lon="-2.31118">
        <ele>57</ele>
        <time>2020-07-26T09:19:39.000Z</time>
      </trkpt>
      <trkpt lat="47.56411" lon="-2.31121">
        <ele>57</ele>
        <time>2020-07-26T09:19:40.000Z</time>
      </trkpt>
      <trkpt lat="47.56417" lon="-2.31128">
        <ele>57</ele>
        <time>2020-07-26T09:19:43.000Z</time>
      </trkpt>
      <trkpt lat="47.56421" lon="-2.31121">
        <ele>57</ele>
        <time>2020-07-26T09:19:46.000Z</time>
      </trkpt>
      <trkpt lat="47.5642" lon="-2.31111">
        <ele>57</ele>
        <time>2020-07-26T09:19:48.000Z</time>
      </trkpt>
      <trkpt lat="47.56417" lon="-2.31093">
        <ele>57</ele>
        <time>2020-07-26T09:19:51.000Z</time>
      </trkpt>
      <trkpt lat="47.5641" lon="-2.31047">
        <ele>57</ele>
        <time>2020-07-26T09:19:58.000Z</time>
      </trkpt>
      <trkpt lat="47.56401" lon="-2.31019">
        <ele>57</ele>
        <time>2020-07-26T09:20:03.000Z</time>
      </trkpt>
      <trkpt lat="47.56388" lon="-2.30984">
        <ele>57</ele>
        <time>2020-07-26T09:20:09.000Z</time>
      </trkpt>
      <trkpt lat="47.56371" lon="-2.30939">
        <ele>57</ele>
        <time>2020-07-26T09:20:16.000Z</time>
      </trkpt>
      <trkpt lat="47.5636" lon="-2.30888">
        <ele>57</ele>
        <time>2020-07-26T09:20:23.000Z</time>
      </trkpt>
      <trkpt lat="47.56351" lon="-2.30833">
        <ele>57</ele>
        <time>2020-07-26T09:20:30.000Z</time>
      </trkpt>
      <trkpt lat="47.56342" lon="-2.30774">
        <ele>57</ele>
        <time>2020-07-26T09:20:37.000Z</time>
      </trkpt>
      <trkpt lat="47.56341" lon="-2.30767">
        <ele>56.599998474121</ele>
        <time>2020-07-26T09:20:38.000Z</time>
      </trkpt>
      <trkpt lat="47.5634" lon="-2.3076">
        <ele>56.200000762939</ele>
        <time>2020-07-26T09:20:39.000Z</time>
      </trkpt>
      <trkpt lat="47.5634" lon="-2.30753">
        <ele>55.799999237061</ele>
        <time>2020-07-26T09:20:40.000Z</time>
      </trkpt>
      <trkpt lat="47.56342" lon="-2.30745">
        <ele>55.400001525879</ele>
        <time>2020-07-26T09:20:41.000Z</time>
      </trkpt>
      <trkpt lat="47.56345" lon="-2.30739">
        <ele>55</ele>
        <time>2020-07-26T09:20:42.000Z</time>
      </trkpt>
      <trkpt lat="47.56352" lon="-2.30726">
        <ele>55</ele>
        <time>2020-07-26T09:20:44.000Z</time>
      </trkpt>
      <trkpt lat="47.56374" lon="-2.30689">
        <ele>55</ele>
        <time>2020-07-26T09:20:50.000Z</time>
      </trkpt>
      <trkpt lat="47.56378" lon="-2.30685">
        <ele>55</ele>
        <time>2020-07-26T09:20:51.000Z</time>
      </trkpt>
      <trkpt lat="47.56393" lon="-2.30678">
        <ele>55</ele>
        <time>2020-07-26T09:20:54.000Z</time>
      </trkpt>
      <trkpt lat="47.56403" lon="-2.30674">
        <ele>55</ele>
        <time>2020-07-26T09:20:56.000Z</time>
      </trkpt>
      <trkpt lat="47.56432" lon="-2.30663">
        <ele>55</ele>
        <time>2020-07-26T09:21:02.000Z</time>
      </trkpt>
      <trkpt lat="47.5645" lon="-2.30653">
        <ele>55</ele>
        <time>2020-07-26T09:21:07.000Z</time>
      </trkpt>
      <trkpt lat="47.56478" lon="-2.30637">
        <ele>55</ele>
        <time>2020-07-26T09:21:15.000Z</time>
      </trkpt>
      <trkpt lat="47.565" lon="-2.30617">
        <ele>55</ele>
        <time>2020-07-26T09:21:21.000Z</time>
      </trkpt>
      <trkpt lat="47.5651" lon="-2.30594">
        <ele>55</ele>
        <time>2020-07-26T09:21:26.000Z</time>
      </trkpt>
      <trkpt lat="47.5651" lon="-2.30587">
        <ele>55</ele>
        <time>2020-07-26T09:21:27.000Z</time>
      </trkpt>
      <trkpt lat="47.56509" lon="-2.30575">
        <ele>55</ele>
        <time>2020-07-26T09:21:29.000Z</time>
      </trkpt>
      <trkpt lat="47.56507" lon="-2.30562">
        <ele>55</ele>
        <time>2020-07-26T09:21:31.000Z</time>
      </trkpt>
      <trkpt lat="47.56506" lon="-2.30547">
        <ele>55</ele>
        <time>2020-07-26T09:21:33.000Z</time>
      </trkpt>
      <trkpt lat="47.56504" lon="-2.30516">
        <ele>55</ele>
        <time>2020-07-26T09:21:37.000Z</time>
      </trkpt>
      <trkpt lat="47.565" lon="-2.30493">
        <ele>54.400001525879</ele>
        <time>2020-07-26T09:21:40.000Z</time>
      </trkpt>
      <trkpt lat="47.56498" lon="-2.30485">
        <ele>54</ele>
        <time>2020-07-26T09:21:41.000Z</time>
      </trkpt>
      <trkpt lat="47.56495" lon="-2.30479">
        <ele>53.599998474121</ele>
        <time>2020-07-26T09:21:42.000Z</time>
      </trkpt>
      <trkpt lat="47.56491" lon="-2.30474">
        <ele>53</ele>
        <time>2020-07-26T09:21:43.000Z</time>
      </trkpt>
      <trkpt lat="47.56487" lon="-2.30471">
        <ele>52.599998474121</ele>
        <time>2020-07-26T09:21:44.000Z</time>
      </trkpt>
      <trkpt lat="47.56476" lon="-2.30469">
        <ele>52.599998474121</ele>
        <time>2020-07-26T09:21:46.000Z</time>
      </trkpt>
      <trkpt lat="47.56457" lon="-2.30469">
        <ele>52.599998474121</ele>
        <time>2020-07-26T09:21:49.000Z</time>
      </trkpt>
      <trkpt lat="47.5645" lon="-2.30471">
        <ele>52.200000762939</ele>
        <time>2020-07-26T09:21:50.000Z</time>
      </trkpt>
      <trkpt lat="47.56442" lon="-2.30474">
        <ele>51.799999237061</ele>
        <time>2020-07-26T09:21:51.000Z</time>
      </trkpt>
      <trkpt lat="47.56436" lon="-2.30478">
        <ele>51.400001525879</ele>
        <time>2020-07-26T09:21:52.000Z</time>
      </trkpt>
      <trkpt lat="47.56429" lon="-2.30481">
        <ele>51</ele>
        <time>2020-07-26T09:21:53.000Z</time>
      </trkpt>
      <trkpt lat="47.56423" lon="-2.30483">
        <ele>50.599998474121</ele>
        <time>2020-07-26T09:21:54.000Z</time>
      </trkpt>
      <trkpt lat="47.56409" lon="-2.30488">
        <ele>50.599998474121</ele>
        <time>2020-07-26T09:21:56.000Z</time>
      </trkpt>
      <trkpt lat="47.56383" lon="-2.30495">
        <ele>50.599998474121</ele>
        <time>2020-07-26T09:22:00.000Z</time>
      </trkpt>
      <trkpt lat="47.56377" lon="-2.30493">
        <ele>50.200000762939</ele>
        <time>2020-07-26T09:22:01.000Z</time>
      </trkpt>
      <trkpt lat="47.56372" lon="-2.30489">
        <ele>49.200000762939</ele>
        <time>2020-07-26T09:22:02.000Z</time>
      </trkpt>
      <trkpt lat="47.56367" lon="-2.30483">
        <ele>48.799999237061</ele>
        <time>2020-07-26T09:22:03.000Z</time>
      </trkpt>
      <trkpt lat="47.56365" lon="-2.30475">
        <ele>48.400001525879</ele>
        <time>2020-07-26T09:22:04.000Z</time>
      </trkpt>
      <trkpt lat="47.56363" lon="-2.30451">
        <ele>48.400001525879</ele>
        <time>2020-07-26T09:22:07.000Z</time>
      </trkpt>
      <trkpt lat="47.56363" lon="-2.30444">
        <ele>48.400001525879</ele>
        <time>2020-07-26T09:22:08.000Z</time>
      </trkpt>
      <trkpt lat="47.56361" lon="-2.30429">
        <ele>48.400001525879</ele>
        <time>2020-07-26T09:22:10.000Z</time>
      </trkpt>
      <trkpt lat="47.56362" lon="-2.30396">
        <ele>48.400001525879</ele>
        <time>2020-07-26T09:22:14.000Z</time>
      </trkpt>
      <trkpt lat="47.5637" lon="-2.30356">
        <ele>48.799999237061</ele>
        <time>2020-07-26T09:22:19.000Z</time>
      </trkpt>
      <trkpt lat="47.56372" lon="-2.30347">
        <ele>49.200000762939</ele>
        <time>2020-07-26T09:22:20.000Z</time>
      </trkpt>
      <trkpt lat="47.56373" lon="-2.30338">
        <ele>49.599998474121</ele>
        <time>2020-07-26T09:22:21.000Z</time>
      </trkpt>
      <trkpt lat="47.56375" lon="-2.3033">
        <ele>50</ele>
        <time>2020-07-26T09:22:22.000Z</time>
      </trkpt>
      <trkpt lat="47.56375" lon="-2.30321">
        <ele>50.400001525879</ele>
        <time>2020-07-26T09:22:23.000Z</time>
      </trkpt>
      <trkpt lat="47.56374" lon="-2.30305">
        <ele>50.400001525879</ele>
        <time>2020-07-26T09:22:25.000Z</time>
      </trkpt>
      <trkpt lat="47.56369" lon="-2.30279">
        <ele>50.400001525879</ele>
        <time>2020-07-26T09:22:28.000Z</time>
      </trkpt>
      <trkpt lat="47.56366" lon="-2.30263">
        <ele>50.400001525879</ele>
        <time>2020-07-26T09:22:30.000Z</time>
      </trkpt>
      <trkpt lat="47.56357" lon="-2.30186">
        <ele>50.400001525879</ele>
        <time>2020-07-26T09:22:39.000Z</time>
      </trkpt>
      <trkpt lat="47.56354" lon="-2.30162">
        <ele>50.799999237061</ele>
        <time>2020-07-26T09:22:42.000Z</time>
      </trkpt>
      <trkpt lat="47.56353" lon="-2.30154">
        <ele>51.200000762939</ele>
        <time>2020-07-26T09:22:43.000Z</time>
      </trkpt>
      <trkpt lat="47.56353" lon="-2.30147">
        <ele>51.799999237061</ele>
        <time>2020-07-26T09:22:44.000Z</time>
      </trkpt>
      <trkpt lat="47.56352" lon="-2.30139">
        <ele>52.200000762939</ele>
        <time>2020-07-26T09:22:45.000Z</time>
      </trkpt>
      <trkpt lat="47.56352" lon="-2.30132">
        <ele>52.599998474121</ele>
        <time>2020-07-26T09:22:46.000Z</time>
      </trkpt>
      <trkpt lat="47.56352" lon="-2.30125">
        <ele>52.599998474121</ele>
        <time>2020-07-26T09:22:47.000Z</time>
      </trkpt>
      <trkpt lat="47.56348" lon="-2.30094">
        <ele>52.599998474121</ele>
        <time>2020-07-26T09:22:51.000Z</time>
      </trkpt>
      <trkpt lat="47.56346" lon="-2.30086">
        <ele>53</ele>
        <time>2020-07-26T09:22:52.000Z</time>
      </trkpt>
      <trkpt lat="47.56345" lon="-2.30079">
        <ele>53.400001525879</ele>
        <time>2020-07-26T09:22:53.000Z</time>
      </trkpt>
      <trkpt lat="47.56344" lon="-2.30071">
        <ele>53.799999237061</ele>
        <time>2020-07-26T09:22:54.000Z</time>
      </trkpt>
      <trkpt lat="47.56342" lon="-2.30064">
        <ele>54.200000762939</ele>
        <time>2020-07-26T09:22:55.000Z</time>
      </trkpt>
      <trkpt lat="47.5634" lon="-2.30057">
        <ele>54.599998474121</ele>
        <time>2020-07-26T09:22:56.000Z</time>
      </trkpt>
      <trkpt lat="47.56335" lon="-2.30041">
        <ele>54.599998474121</ele>
        <time>2020-07-26T09:22:58.000Z</time>
      </trkpt>
      <trkpt lat="47.56331" lon="-2.30026">
        <ele>54.599998474121</ele>
        <time>2020-07-26T09:23:00.000Z</time>
      </trkpt>
      <trkpt lat="47.56322" lon="-2.29997">
        <ele>54.599998474121</ele>
        <time>2020-07-26T09:23:04.000Z</time>
      </trkpt>
      <trkpt lat="47.56307" lon="-2.29954">
        <ele>54.599998474121</ele>
        <time>2020-07-26T09:23:10.000Z</time>
      </trkpt>
      <trkpt lat="47.56285" lon="-2.29901">
        <ele>54.599998474121</ele>
        <time>2020-07-26T09:23:17.000Z</time>
      </trkpt>
      <trkpt lat="47.56284" lon="-2.29871">
        <ele>54.599998474121</ele>
        <time>2020-07-26T09:23:20.000Z</time>
      </trkpt>
      <trkpt lat="47.56285" lon="-2.2986">
        <ele>54.599998474121</ele>
        <time>2020-07-26T09:23:21.000Z</time>
      </trkpt>
      <trkpt lat="47.56286" lon="-2.2985">
        <ele>54.599998474121</ele>
        <time>2020-07-26T09:23:22.000Z</time>
      </trkpt>
      <trkpt lat="47.56284" lon="-2.29818">
        <ele>54.599998474121</ele>
        <time>2020-07-26T09:23:25.000Z</time>
      </trkpt>
      <trkpt lat="47.56275" lon="-2.29752">
        <ele>54.599998474121</ele>
        <time>2020-07-26T09:23:31.000Z</time>
      </trkpt>
      <trkpt lat="47.56264" lon="-2.29674">
        <ele>54.599998474121</ele>
        <time>2020-07-26T09:23:38.000Z</time>
      </trkpt>
      <trkpt lat="47.56261" lon="-2.29652">
        <ele>54.599998474121</ele>
        <time>2020-07-26T09:23:40.000Z</time>
      </trkpt>
      <trkpt lat="47.56257" lon="-2.29618">
        <ele>54.200000762939</ele>
        <time>2020-07-26T09:23:43.000Z</time>
      </trkpt>
      <trkpt lat="47.56256" lon="-2.29608">
        <ele>53.799999237061</ele>
        <time>2020-07-26T09:23:44.000Z</time>
      </trkpt>
      <trkpt lat="47.56255" lon="-2.296">
        <ele>53.400001525879</ele>
        <time>2020-07-26T09:23:45.000Z</time>
      </trkpt>
      <trkpt lat="47.56255" lon="-2.29593">
        <ele>52.799999237061</ele>
        <time>2020-07-26T09:23:46.000Z</time>
      </trkpt>
      <trkpt lat="47.56253" lon="-2.29587">
        <ele>52.400001525879</ele>
        <time>2020-07-26T09:23:47.000Z</time>
      </trkpt>
      <trkpt lat="47.56247" lon="-2.29577">
        <ele>52.400001525879</ele>
        <time>2020-07-26T09:23:50.000Z</time>
      </trkpt>
      <trkpt lat="47.56245" lon="-2.29575">
        <ele>52.400001525879</ele>
        <time>2020-07-26T09:23:51.000Z</time>
      </trkpt>
      <trkpt lat="47.56238" lon="-2.29574">
        <ele>52.400001525879</ele>
        <time>2020-07-26T09:23:55.000Z</time>
      </trkpt>
      <trkpt lat="47.56227" lon="-2.29573">
        <ele>52.400001525879</ele>
        <time>2020-07-26T09:24:01.000Z</time>
      </trkpt>
      <trkpt lat="47.56209" lon="-2.29579">
        <ele>52.400001525879</ele>
        <time>2020-07-26T09:24:09.000Z</time>
      </trkpt>
      <trkpt lat="47.56191" lon="-2.29587">
        <ele>52.400001525879</ele>
        <time>2020-07-26T09:24:16.000Z</time>
      </trkpt>
      <trkpt lat="47.56177" lon="-2.29597">
        <ele>52.400001525879</ele>
        <time>2020-07-26T09:24:22.000Z</time>
      </trkpt>
      <trkpt lat="47.56155" lon="-2.29617">
        <ele>52.400001525879</ele>
        <time>2020-07-26T09:24:30.000Z</time>
      </trkpt>
      <trkpt lat="47.56134" lon="-2.29637">
        <ele>52.400001525879</ele>
        <time>2020-07-26T09:24:37.000Z</time>
      </trkpt>
      <trkpt lat="47.56114" lon="-2.29656">
        <ele>52.400001525879</ele>
        <time>2020-07-26T09:24:44.000Z</time>
      </trkpt>
      <trkpt lat="47.56098" lon="-2.29676">
        <ele>52.400001525879</ele>
        <time>2020-07-26T09:24:51.000Z</time>
      </trkpt>
      <trkpt lat="47.56095" lon="-2.29678">
        <ele>52.400001525879</ele>
        <time>2020-07-26T09:24:53.000Z</time>
      </trkpt>
      <trkpt lat="47.56094" lon="-2.29679">
        <ele>52.400001525879</ele>
        <time>2020-07-26T09:24:55.000Z</time>
      </trkpt>
      <trkpt lat="47.56092" lon="-2.29679">
        <ele>52.400001525879</ele>
        <time>2020-07-26T09:25:05.000Z</time>
      </trkpt>
      <trkpt lat="47.56087" lon="-2.29674">
        <ele>52.400001525879</ele>
        <time>2020-07-26T09:25:08.000Z</time>
      </trkpt>
      <trkpt lat="47.56077" lon="-2.29656">
        <ele>52.400001525879</ele>
        <time>2020-07-26T09:25:13.000Z</time>
      </trkpt>
      <trkpt lat="47.56071" lon="-2.2965">
        <ele>52</ele>
        <time>2020-07-26T09:25:15.000Z</time>
      </trkpt>
      <trkpt lat="47.56067" lon="-2.29648">
        <ele>51.599998474121</ele>
        <time>2020-07-26T09:25:16.000Z</time>
      </trkpt>
      <trkpt lat="47.56064" lon="-2.29646">
        <ele>51.200000762939</ele>
        <time>2020-07-26T09:25:17.000Z</time>
      </trkpt>
      <trkpt lat="47.5606" lon="-2.29645">
        <ele>50.799999237061</ele>
        <time>2020-07-26T09:25:18.000Z</time>
      </trkpt>
      <trkpt lat="47.56055" lon="-2.29645">
        <ele>50.400001525879</ele>
        <time>2020-07-26T09:25:19.000Z</time>
      </trkpt>
      <trkpt lat="47.56043" lon="-2.29648">
        <ele>50.400001525879</ele>
        <time>2020-07-26T09:25:22.000Z</time>
      </trkpt>
      <trkpt lat="47.56029" lon="-2.29659">
        <ele>50</ele>
        <time>2020-07-26T09:25:26.000Z</time>
      </trkpt>
      <trkpt lat="47.56026" lon="-2.29661">
        <ele>49.599998474121</ele>
        <time>2020-07-26T09:25:27.000Z</time>
      </trkpt>
      <trkpt lat="47.56023" lon="-2.29662">
        <ele>49.200000762939</ele>
        <time>2020-07-26T09:25:28.000Z</time>
      </trkpt>
      <trkpt lat="47.56019" lon="-2.29662">
        <ele>48.799999237061</ele>
        <time>2020-07-26T09:25:29.000Z</time>
      </trkpt>
      <trkpt lat="47.56016" lon="-2.2966">
        <ele>48.400001525879</ele>
        <time>2020-07-26T09:25:30.000Z</time>
      </trkpt>
      <trkpt lat="47.56013" lon="-2.29658">
        <ele>48.400001525879</ele>
        <time>2020-07-26T09:25:31.000Z</time>
      </trkpt>
      <trkpt lat="47.5601" lon="-2.29643">
        <ele>48.400001525879</ele>
        <time>2020-07-26T09:25:35.000Z</time>
      </trkpt>
      <trkpt lat="47.56011" lon="-2.29639">
        <ele>48.400001525879</ele>
        <time>2020-07-26T09:25:36.000Z</time>
      </trkpt>
      <trkpt lat="47.56016" lon="-2.29625">
        <ele>48.400001525879</ele>
        <time>2020-07-26T09:25:40.000Z</time>
      </trkpt>
      <trkpt lat="47.56023" lon="-2.2961">
        <ele>48.400001525879</ele>
        <time>2020-07-26T09:25:44.000Z</time>
      </trkpt>
      <trkpt lat="47.5603" lon="-2.29602">
        <ele>48.400001525879</ele>
        <time>2020-07-26T09:25:48.000Z</time>
      </trkpt>
      <trkpt lat="47.56039" lon="-2.29585">
        <ele>48.400001525879</ele>
        <time>2020-07-26T09:25:55.000Z</time>
      </trkpt>
      <trkpt lat="47.56048" lon="-2.29571">
        <ele>48.400001525879</ele>
        <time>2020-07-26T09:26:01.000Z</time>
      </trkpt>
      <trkpt lat="47.56054" lon="-2.29564">
        <ele>48.400001525879</ele>
        <time>2020-07-26T09:26:04.000Z</time>
      </trkpt>
      <trkpt lat="47.56058" lon="-2.29564">
        <ele>48.400001525879</ele>
        <time>2020-07-26T09:26:06.000Z</time>
      </trkpt>
      <trkpt lat="47.56064" lon="-2.29567">
        <ele>48.400001525879</ele>
        <time>2020-07-26T09:26:09.000Z</time>
      </trkpt>
      <trkpt lat="47.56068" lon="-2.29567">
        <ele>48.400001525879</ele>
        <time>2020-07-26T09:26:12.000Z</time>
      </trkpt>
      <trkpt lat="47.56077" lon="-2.29559">
        <ele>48.400001525879</ele>
        <time>2020-07-26T09:26:17.000Z</time>
      </trkpt>
      <trkpt lat="47.5608" lon="-2.29557">
        <ele>48.400001525879</ele>
        <time>2020-07-26T09:26:19.000Z</time>
      </trkpt>
      <trkpt lat="47.56088" lon="-2.29549">
        <ele>48.400001525879</ele>
        <time>2020-07-26T09:26:24.000Z</time>
      </trkpt>
      <trkpt lat="47.56094" lon="-2.2954">
        <ele>48.400001525879</ele>
        <time>2020-07-26T09:26:28.000Z</time>
      </trkpt>
      <trkpt lat="47.56101" lon="-2.2954">
        <ele>48.400001525879</ele>
        <time>2020-07-26T09:26:30.000Z</time>
      </trkpt>
      <trkpt lat="47.56113" lon="-2.29532">
        <ele>48.400001525879</ele>
        <time>2020-07-26T09:26:35.000Z</time>
      </trkpt>
      <trkpt lat="47.56115" lon="-2.2953">
        <ele>48.400001525879</ele>
        <time>2020-07-26T09:26:36.000Z</time>
      </trkpt>
      <trkpt lat="47.56124" lon="-2.29517">
        <ele>48.400001525879</ele>
        <time>2020-07-26T09:26:41.000Z</time>
      </trkpt>
      <trkpt lat="47.56128" lon="-2.2951">
        <ele>48.400001525879</ele>
        <time>2020-07-26T09:26:44.000Z</time>
      </trkpt>
      <trkpt lat="47.56131" lon="-2.29507">
        <ele>48.400001525879</ele>
        <time>2020-07-26T09:26:46.000Z</time>
      </trkpt>
      <trkpt lat="47.56137" lon="-2.29501">
        <ele>48.400001525879</ele>
        <time>2020-07-26T09:26:49.000Z</time>
      </trkpt>
      <trkpt lat="47.5614" lon="-2.295">
        <ele>48.400001525879</ele>
        <time>2020-07-26T09:26:51.000Z</time>
      </trkpt>
      <trkpt lat="47.56142" lon="-2.295">
        <ele>48.400001525879</ele>
        <time>2020-07-26T09:26:52.000Z</time>
      </trkpt>
      <trkpt lat="47.56152" lon="-2.29506">
        <ele>48.400001525879</ele>
        <time>2020-07-26T09:26:57.000Z</time>
      </trkpt>
      <trkpt lat="47.56156" lon="-2.29506">
        <ele>48.400001525879</ele>
        <time>2020-07-26T09:27:00.000Z</time>
      </trkpt>
      <trkpt lat="47.56157" lon="-2.29504">
        <ele>48.400001525879</ele>
        <time>2020-07-26T09:27:01.000Z</time>
      </trkpt>
      <trkpt lat="47.56155" lon="-2.29494">
        <ele>48.400001525879</ele>
        <time>2020-07-26T09:27:06.000Z</time>
      </trkpt>
      <trkpt lat="47.56151" lon="-2.29489">
        <ele>48.400001525879</ele>
        <time>2020-07-26T09:27:09.000Z</time>
      </trkpt>
      <trkpt lat="47.56152" lon="-2.29485">
        <ele>48.400001525879</ele>
        <time>2020-07-26T09:27:11.000Z</time>
      </trkpt>
      <trkpt lat="47.56154" lon="-2.29487">
        <ele>48.400001525879</ele>
        <time>2020-07-26T09:27:14.000Z</time>
      </trkpt>
      <trkpt lat="47.56159" lon="-2.29491">
        <ele>48.400001525879</ele>
        <time>2020-07-26T09:27:16.000Z</time>
      </trkpt>
      <trkpt lat="47.56169" lon="-2.29491">
        <ele>48.400001525879</ele>
        <time>2020-07-26T09:27:20.000Z</time>
      </trkpt>
      <trkpt lat="47.56169" lon="-2.2949">
        <ele>48.400001525879</ele>
        <time>2020-07-26T09:27:21.000Z</time>
      </trkpt>
      <trkpt lat="47.56164" lon="-2.29484">
        <ele>48.400001525879</ele>
        <time>2020-07-26T09:27:25.000Z</time>
      </trkpt>
      <trkpt lat="47.56159" lon="-2.29477">
        <ele>48.400001525879</ele>
        <time>2020-07-26T09:27:30.000Z</time>
      </trkpt>
      <trkpt lat="47.56162" lon="-2.29477">
        <ele>48.400001525879</ele>
        <time>2020-07-26T09:27:34.000Z</time>
      </trkpt>
      <trkpt lat="47.56167" lon="-2.2948">
        <ele>48.400001525879</ele>
        <time>2020-07-26T09:27:38.000Z</time>
      </trkpt>
      <trkpt lat="47.56168" lon="-2.29478">
        <ele>48.400001525879</ele>
        <time>2020-07-26T09:27:39.000Z</time>
      </trkpt>
      <trkpt lat="47.56167" lon="-2.29474">
        <ele>48.400001525879</ele>
        <time>2020-07-26T09:27:42.000Z</time>
      </trkpt>
      <trkpt lat="47.56167" lon="-2.29472">
        <ele>48.400001525879</ele>
        <time>2020-07-26T09:27:43.000Z</time>
      </trkpt>
      <trkpt lat="47.56167" lon="-2.29461">
        <ele>48.400001525879</ele>
        <time>2020-07-26T09:27:47.000Z</time>
      </trkpt>
      <trkpt lat="47.56166" lon="-2.29457">
        <ele>48.400001525879</ele>
        <time>2020-07-26T09:27:49.000Z</time>
      </trkpt>
      <trkpt lat="47.56164" lon="-2.29456">
        <ele>48.400001525879</ele>
        <time>2020-07-26T09:27:51.000Z</time>
      </trkpt>
      <trkpt lat="47.56158" lon="-2.29449">
        <ele>48.400001525879</ele>
        <time>2020-07-26T09:27:56.000Z</time>
      </trkpt>
      <trkpt lat="47.56159" lon="-2.29443">
        <ele>48.400001525879</ele>
        <time>2020-07-26T09:27:59.000Z</time>
      </trkpt>
      <trkpt lat="47.56159" lon="-2.29437">
        <ele>48.400001525879</ele>
        <time>2020-07-26T09:28:01.000Z</time>
      </trkpt>
      <trkpt lat="47.56157" lon="-2.29435">
        <ele>48.400001525879</ele>
        <time>2020-07-26T09:28:03.000Z</time>
      </trkpt>
      <trkpt lat="47.56153" lon="-2.29434">
        <ele>48.400001525879</ele>
        <time>2020-07-26T09:28:05.000Z</time>
      </trkpt>
      <trkpt lat="47.56152" lon="-2.29433">
        <ele>48</ele>
        <time>2020-07-26T09:28:06.000Z</time>
      </trkpt>
      <trkpt lat="47.5615" lon="-2.29431">
        <ele>47.599998474121</ele>
        <time>2020-07-26T09:28:07.000Z</time>
      </trkpt>
      <trkpt lat="47.56149" lon="-2.2943">
        <ele>47.200000762939</ele>
        <time>2020-07-26T09:28:08.000Z</time>
      </trkpt>
      <trkpt lat="47.56147" lon="-2.29429">
        <ele>46.799999237061</ele>
        <time>2020-07-26T09:28:09.000Z</time>
      </trkpt>
      <trkpt lat="47.56145" lon="-2.29429">
        <ele>46.400001525879</ele>
        <time>2020-07-26T09:28:10.000Z</time>
      </trkpt>
      <trkpt lat="47.56143" lon="-2.29429">
        <ele>46.400001525879</ele>
        <time>2020-07-26T09:28:11.000Z</time>
      </trkpt>
      <trkpt lat="47.56141" lon="-2.29432">
        <ele>46.400001525879</ele>
        <time>2020-07-26T09:28:14.000Z</time>
      </trkpt>
      <trkpt lat="47.5614" lon="-2.29433">
        <ele>46.400001525879</ele>
        <time>2020-07-26T09:28:15.000Z</time>
      </trkpt>
      <trkpt lat="47.56125" lon="-2.29439">
        <ele>46.400001525879</ele>
        <time>2020-07-26T09:28:21.000Z</time>
      </trkpt>
      <trkpt lat="47.5612" lon="-2.29443">
        <ele>46.400001525879</ele>
        <time>2020-07-26T09:28:23.000Z</time>
      </trkpt>
      <trkpt lat="47.56107" lon="-2.2945">
        <ele>46.400001525879</ele>
        <time>2020-07-26T09:28:27.000Z</time>
      </trkpt>
      <trkpt lat="47.56103" lon="-2.2945">
        <ele>46.400001525879</ele>
        <time>2020-07-26T09:28:30.000Z</time>
      </trkpt>
      <trkpt lat="47.56098" lon="-2.29457">
        <ele>46.400001525879</ele>
        <time>2020-07-26T09:28:43.000Z</time>
      </trkpt>
      <trkpt lat="47.56097" lon="-2.29459">
        <ele>46.400001525879</ele>
        <time>2020-07-26T09:28:44.000Z</time>
      </trkpt>
      <trkpt lat="47.56096" lon="-2.29461">
        <ele>43.799999237061</ele>
        <time>2020-07-26T09:28:45.000Z</time>
      </trkpt>
      <trkpt lat="47.56096" lon="-2.29462">
        <ele>42.200000762939</ele>
        <time>2020-07-26T09:28:46.000Z</time>
      </trkpt>
      <trkpt lat="47.56104" lon="-2.29479">
        <ele>47.400001525879</ele>
        <time>2020-07-26T09:29:15.000Z</time>
      </trkpt>
      <trkpt lat="47.56106" lon="-2.29482">
        <ele>47.400001525879</ele>
        <time>2020-07-26T09:29:16.000Z</time>
      </trkpt>
      <trkpt lat="47.56103" lon="-2.2949">
        <ele>47.400001525879</ele>
        <time>2020-07-26T09:29:20.000Z</time>
      </trkpt>
      <trkpt lat="47.56102" lon="-2.2949">
        <ele>47.400001525879</ele>
        <time>2020-07-26T09:29:21.000Z</time>
      </trkpt>
      <trkpt lat="47.5609" lon="-2.29486">
        <ele>47.400001525879</ele>
        <time>2020-07-26T09:29:26.000Z</time>
      </trkpt>
      <trkpt lat="47.56088" lon="-2.29488">
        <ele>47.400001525879</ele>
        <time>2020-07-26T09:29:27.000Z</time>
      </trkpt>
      <trkpt lat="47.56084" lon="-2.29494">
        <ele>47.400001525879</ele>
        <time>2020-07-26T09:29:30.000Z</time>
      </trkpt>
      <trkpt lat="47.56081" lon="-2.29501">
        <ele>47.400001525879</ele>
        <time>2020-07-26T09:29:33.000Z</time>
      </trkpt>
      <trkpt lat="47.56078" lon="-2.29513">
        <ele>47.400001525879</ele>
        <time>2020-07-26T09:29:36.000Z</time>
      </trkpt>
      <trkpt lat="47.56069" lon="-2.2952">
        <ele>47.400001525879</ele>
        <time>2020-07-26T09:29:40.000Z</time>
      </trkpt>
      <trkpt lat="47.56064" lon="-2.29519">
        <ele>47.400001525879</ele>
        <time>2020-07-26T09:29:43.000Z</time>
      </trkpt>
      <trkpt lat="47.56062" lon="-2.29518">
        <ele>47.400001525879</ele>
        <time>2020-07-26T09:29:45.000Z</time>
      </trkpt>
      <trkpt lat="47.56063" lon="-2.29514">
        <ele>47.400001525879</ele>
        <time>2020-07-26T09:29:49.000Z</time>
      </trkpt>
      <trkpt lat="47.56065" lon="-2.29512">
        <ele>47.400001525879</ele>
        <time>2020-07-26T09:29:51.000Z</time>
      </trkpt>
      <trkpt lat="47.56067" lon="-2.29506">
        <ele>47.400001525879</ele>
        <time>2020-07-26T09:29:53.000Z</time>
      </trkpt>
      <trkpt lat="47.56068" lon="-2.29496">
        <ele>47.400001525879</ele>
        <time>2020-07-26T09:29:56.000Z</time>
      </trkpt>
      <trkpt lat="47.56075" lon="-2.29481">
        <ele>47.400001525879</ele>
        <time>2020-07-26T09:30:02.000Z</time>
      </trkpt>
      <trkpt lat="47.56075" lon="-2.29476">
        <ele>47.400001525879</ele>
        <time>2020-07-26T09:30:04.000Z</time>
      </trkpt>
      <trkpt lat="47.56074" lon="-2.29472">
        <ele>47.400001525879</ele>
        <time>2020-07-26T09:30:06.000Z</time>
      </trkpt>
      <trkpt lat="47.56074" lon="-2.29471">
        <ele>46.799999237061</ele>
        <time>2020-07-26T09:30:07.000Z</time>
      </trkpt>
      <trkpt lat="47.56074" lon="-2.29468">
        <ele>46.400001525879</ele>
        <time>2020-07-26T09:30:08.000Z</time>
      </trkpt>
      <trkpt lat="47.56073" lon="-2.29467">
        <ele>46</ele>
        <time>2020-07-26T09:30:09.000Z</time>
      </trkpt>
      <trkpt lat="47.56073" lon="-2.29465">
        <ele>45.400001525879</ele>
        <time>2020-07-26T09:30:10.000Z</time>
      </trkpt>
      <trkpt lat="47.56072" lon="-2.29462">
        <ele>45</ele>
        <time>2020-07-26T09:30:11.000Z</time>
      </trkpt>
      <trkpt lat="47.5607" lon="-2.29457">
        <ele>44.599998474121</ele>
        <time>2020-07-26T09:30:12.000Z</time>
      </trkpt>
      <trkpt lat="47.56069" lon="-2.29453">
        <ele>44</ele>
        <time>2020-07-26T09:30:13.000Z</time>
      </trkpt>
      <trkpt lat="47.5607" lon="-2.29449">
        <ele>43.599998474121</ele>
        <time>2020-07-26T09:30:14.000Z</time>
      </trkpt>
      <trkpt lat="47.5607" lon="-2.29445">
        <ele>43</ele>
        <time>2020-07-26T09:30:15.000Z</time>
      </trkpt>
      <trkpt lat="47.56071" lon="-2.29442">
        <ele>42.599998474121</ele>
        <time>2020-07-26T09:30:16.000Z</time>
      </trkpt>
      <trkpt lat="47.56071" lon="-2.29438">
        <ele>42.599998474121</ele>
        <time>2020-07-26T09:30:17.000Z</time>
      </trkpt>
      <trkpt lat="47.5607" lon="-2.29434">
        <ele>42.200000762939</ele>
        <time>2020-07-26T09:30:18.000Z</time>
      </trkpt>
      <trkpt lat="47.5607" lon="-2.29429">
        <ele>41.599998474121</ele>
        <time>2020-07-26T09:30:19.000Z</time>
      </trkpt>
      <trkpt lat="47.5607" lon="-2.29425">
        <ele>41.200000762939</ele>
        <time>2020-07-26T09:30:20.000Z</time>
      </trkpt>
      <trkpt lat="47.56069" lon="-2.29421">
        <ele>40.799999237061</ele>
        <time>2020-07-26T09:30:21.000Z</time>
      </trkpt>
      <trkpt lat="47.56069" lon="-2.29418">
        <ele>40.400001525879</ele>
        <time>2020-07-26T09:30:22.000Z</time>
      </trkpt>
      <trkpt lat="47.56069" lon="-2.2941">
        <ele>40.400001525879</ele>
        <time>2020-07-26T09:30:24.000Z</time>
      </trkpt>
      <trkpt lat="47.5607" lon="-2.29396">
        <ele>40</ele>
        <time>2020-07-26T09:30:27.000Z</time>
      </trkpt>
      <trkpt lat="47.56071" lon="-2.29393">
        <ele>39.400001525879</ele>
        <time>2020-07-26T09:30:28.000Z</time>
      </trkpt>
      <trkpt lat="47.56072" lon="-2.2939">
        <ele>39</ele>
        <time>2020-07-26T09:30:29.000Z</time>
      </trkpt>
      <trkpt lat="47.56073" lon="-2.29387">
        <ele>38.599998474121</ele>
        <time>2020-07-26T09:30:30.000Z</time>
      </trkpt>
      <trkpt lat="47.56074" lon="-2.29385">
        <ele>38.200000762939</ele>
        <time>2020-07-26T09:30:31.000Z</time>
      </trkpt>
      <trkpt lat="47.56074" lon="-2.29383">
        <ele>37.599998474121</ele>
        <time>2020-07-26T09:30:32.000Z</time>
      </trkpt>
      <trkpt lat="47.56062" lon="-2.29369">
        <ele>34</ele>
        <time>2020-07-26T09:30:58.000Z</time>
      </trkpt>
      <trkpt lat="47.56061" lon="-2.29367">
        <ele>33.599998474121</ele>
        <time>2020-07-26T09:30:59.000Z</time>
      </trkpt>
      <trkpt lat="47.56061" lon="-2.29365">
        <ele>33.200000762939</ele>
        <time>2020-07-26T09:31:00.000Z</time>
      </trkpt>
      <trkpt lat="47.56061" lon="-2.29363">
        <ele>32.799999237061</ele>
        <time>2020-07-26T09:31:01.000Z</time>
      </trkpt>
      <trkpt lat="47.56061" lon="-2.29362">
        <ele>32.400001525879</ele>
        <time>2020-07-26T09:31:02.000Z</time>
      </trkpt>
      <trkpt lat="47.56063" lon="-2.29349">
        <ele>32.400001525879</ele>
        <time>2020-07-26T09:31:06.000Z</time>
      </trkpt>
      <trkpt lat="47.56067" lon="-2.29335">
        <ele>32.799999237061</ele>
        <time>2020-07-26T09:31:11.000Z</time>
      </trkpt>
      <trkpt lat="47.56067" lon="-2.29331">
        <ele>33.200000762939</ele>
        <time>2020-07-26T09:31:12.000Z</time>
      </trkpt>
      <trkpt lat="47.56068" lon="-2.29328">
        <ele>33.599998474121</ele>
        <time>2020-07-26T09:31:13.000Z</time>
      </trkpt>
      <trkpt lat="47.56069" lon="-2.29324">
        <ele>34</ele>
        <time>2020-07-26T09:31:14.000Z</time>
      </trkpt>
      <trkpt lat="47.56069" lon="-2.29321">
        <ele>34.400001525879</ele>
        <time>2020-07-26T09:31:15.000Z</time>
      </trkpt>
      <trkpt lat="47.56072" lon="-2.29307">
        <ele>34.400001525879</ele>
        <time>2020-07-26T09:31:21.000Z</time>
      </trkpt>
      <trkpt lat="47.56073" lon="-2.29304">
        <ele>34.400001525879</ele>
        <time>2020-07-26T09:31:24.000Z</time>
      </trkpt>
      <trkpt lat="47.56062" lon="-2.29278">
        <ele>24.799999237061</ele>
        <time>2020-07-26T09:33:18.000Z</time>
      </trkpt>
      <trkpt lat="47.56062" lon="-2.29275">
        <ele>24.39999961853</ele>
        <time>2020-07-26T09:33:19.000Z</time>
      </trkpt>
      <trkpt lat="47.56063" lon="-2.29271">
        <ele>24</ele>
        <time>2020-07-26T09:33:20.000Z</time>
      </trkpt>
      <trkpt lat="47.56064" lon="-2.29267">
        <ele>23.60000038147</ele>
        <time>2020-07-26T09:33:21.000Z</time>
      </trkpt>
      <trkpt lat="47.56065" lon="-2.29254">
        <ele>23.60000038147</ele>
        <time>2020-07-26T09:33:24.000Z</time>
      </trkpt>
      <trkpt lat="47.56072" lon="-2.2923">
        <ele>23.60000038147</ele>
        <time>2020-07-26T09:33:30.000Z</time>
      </trkpt>
      <trkpt lat="47.56076" lon="-2.29216">
        <ele>24</ele>
        <time>2020-07-26T09:33:34.000Z</time>
      </trkpt>
      <trkpt lat="47.56077" lon="-2.29214">
        <ele>24.39999961853</ele>
        <time>2020-07-26T09:33:35.000Z</time>
      </trkpt>
      <trkpt lat="47.56078" lon="-2.29213">
        <ele>25.200000762939</ele>
        <time>2020-07-26T09:33:36.000Z</time>
      </trkpt>
      <trkpt lat="47.56079" lon="-2.29212">
        <ele>25.799999237061</ele>
        <time>2020-07-26T09:33:37.000Z</time>
      </trkpt>
      <trkpt lat="47.5609" lon="-2.29199">
        <ele>25.799999237061</ele>
        <time>2020-07-26T09:33:44.000Z</time>
      </trkpt>
      <trkpt lat="47.56113" lon="-2.29193">
        <ele>25.200000762939</ele>
        <time>2020-07-26T09:33:49.000Z</time>
      </trkpt>
      <trkpt lat="47.56118" lon="-2.2919">
        <ele>24.799999237061</ele>
        <time>2020-07-26T09:33:50.000Z</time>
      </trkpt>
      <trkpt lat="47.56122" lon="-2.29188">
        <ele>24.200000762939</ele>
        <time>2020-07-26T09:33:51.000Z</time>
      </trkpt>
      <trkpt lat="47.56125" lon="-2.29185">
        <ele>23.60000038147</ele>
        <time>2020-07-26T09:33:52.000Z</time>
      </trkpt>
      <trkpt lat="47.56129" lon="-2.29181">
        <ele>22.799999237061</ele>
        <time>2020-07-26T09:33:53.000Z</time>
      </trkpt>
      <trkpt lat="47.56133" lon="-2.29177">
        <ele>22.200000762939</ele>
        <time>2020-07-26T09:33:54.000Z</time>
      </trkpt>
      <trkpt lat="47.56136" lon="-2.29174">
        <ele>21.60000038147</ele>
        <time>2020-07-26T09:33:55.000Z</time>
      </trkpt>
      <trkpt lat="47.56139" lon="-2.29171">
        <ele>20.799999237061</ele>
        <time>2020-07-26T09:33:56.000Z</time>
      </trkpt>
      <trkpt lat="47.56143" lon="-2.29169">
        <ele>20.200000762939</ele>
        <time>2020-07-26T09:33:57.000Z</time>
      </trkpt>
      <trkpt lat="47.56146" lon="-2.29167">
        <ele>19.39999961853</ele>
        <time>2020-07-26T09:33:58.000Z</time>
      </trkpt>
      <trkpt lat="47.56149" lon="-2.29165">
        <ele>18.799999237061</ele>
        <time>2020-07-26T09:33:59.000Z</time>
      </trkpt>
      <trkpt lat="47.56152" lon="-2.29164">
        <ele>18.799999237061</ele>
        <time>2020-07-26T09:34:00.000Z</time>
      </trkpt>
      <trkpt lat="47.56161" lon="-2.29156">
        <ele>19.200000762939</ele>
        <time>2020-07-26T09:34:05.000Z</time>
      </trkpt>
      <trkpt lat="47.5616" lon="-2.29154">
        <ele>19.60000038147</ele>
        <time>2020-07-26T09:34:06.000Z</time>
      </trkpt>
      <trkpt lat="47.5616" lon="-2.29152">
        <ele>20</ele>
        <time>2020-07-26T09:34:07.000Z</time>
      </trkpt>
      <trkpt lat="47.56159" lon="-2.29151">
        <ele>20.39999961853</ele>
        <time>2020-07-26T09:34:08.000Z</time>
      </trkpt>
      <trkpt lat="47.56158" lon="-2.29149">
        <ele>20.799999237061</ele>
        <time>2020-07-26T09:34:09.000Z</time>
      </trkpt>
      <trkpt lat="47.56155" lon="-2.29147">
        <ele>20.799999237061</ele>
        <time>2020-07-26T09:34:11.000Z</time>
      </trkpt>
      <trkpt lat="47.56148" lon="-2.29143">
        <ele>21.200000762939</ele>
        <time>2020-07-26T09:34:16.000Z</time>
      </trkpt>
      <trkpt lat="47.56147" lon="-2.29141">
        <ele>21.60000038147</ele>
        <time>2020-07-26T09:34:17.000Z</time>
      </trkpt>
      <trkpt lat="47.56146" lon="-2.29139">
        <ele>22</ele>
        <time>2020-07-26T09:34:18.000Z</time>
      </trkpt>
      <trkpt lat="47.56144" lon="-2.29135">
        <ele>22.39999961853</ele>
        <time>2020-07-26T09:34:19.000Z</time>
      </trkpt>
      <trkpt lat="47.56143" lon="-2.29133">
        <ele>22.799999237061</ele>
        <time>2020-07-26T09:34:20.000Z</time>
      </trkpt>
      <trkpt lat="47.56139" lon="-2.29125">
        <ele>22.799999237061</ele>
        <time>2020-07-26T09:34:24.000Z</time>
      </trkpt>
      <trkpt lat="47.56137" lon="-2.29114">
        <ele>23.200000762939</ele>
        <time>2020-07-26T09:34:29.000Z</time>
      </trkpt>
      <trkpt lat="47.56137" lon="-2.29113">
        <ele>23.60000038147</ele>
        <time>2020-07-26T09:34:30.000Z</time>
      </trkpt>
      <trkpt lat="47.56136" lon="-2.29111">
        <ele>24.200000762939</ele>
        <time>2020-07-26T09:34:31.000Z</time>
      </trkpt>
      <trkpt lat="47.56135" lon="-2.2911">
        <ele>24.60000038147</ele>
        <time>2020-07-26T09:34:32.000Z</time>
      </trkpt>
      <trkpt lat="47.56134" lon="-2.29108">
        <ele>25</ele>
        <time>2020-07-26T09:34:33.000Z</time>
      </trkpt>
      <trkpt lat="47.5613" lon="-2.29099">
        <ele>25</ele>
        <time>2020-07-26T09:34:39.000Z</time>
      </trkpt>
      <trkpt lat="47.56128" lon="-2.29094">
        <ele>25</ele>
        <time>2020-07-26T09:35:21.000Z</time>
      </trkpt>
      <trkpt lat="47.56125" lon="-2.29083">
        <ele>25</ele>
        <time>2020-07-26T09:35:24.000Z</time>
      </trkpt>
      <trkpt lat="47.56113" lon="-2.2906">
        <ele>25</ele>
        <time>2020-07-26T09:35:31.000Z</time>
      </trkpt>
      <trkpt lat="47.56097" lon="-2.29044">
        <ele>25</ele>
        <time>2020-07-26T09:35:36.000Z</time>
      </trkpt>
      <trkpt lat="47.56081" lon="-2.29027">
        <ele>25</ele>
        <time>2020-07-26T09:35:40.000Z</time>
      </trkpt>
      <trkpt lat="47.56078" lon="-2.2902">
        <ele>25</ele>
        <time>2020-07-26T09:35:41.000Z</time>
      </trkpt>
      <trkpt lat="47.56073" lon="-2.29004">
        <ele>24.39999961853</ele>
        <time>2020-07-26T09:35:43.000Z</time>
      </trkpt>
      <trkpt lat="47.56071" lon="-2.28996">
        <ele>24</ele>
        <time>2020-07-26T09:35:44.000Z</time>
      </trkpt>
      <trkpt lat="47.5607" lon="-2.28988">
        <ele>23.60000038147</ele>
        <time>2020-07-26T09:35:45.000Z</time>
      </trkpt>
      <trkpt lat="47.56068" lon="-2.28979">
        <ele>23.200000762939</ele>
        <time>2020-07-26T09:35:46.000Z</time>
      </trkpt>
      <trkpt lat="47.56066" lon="-2.2897">
        <ele>22.60000038147</ele>
        <time>2020-07-26T09:35:47.000Z</time>
      </trkpt>
      <trkpt lat="47.5606" lon="-2.28932">
        <ele>22.200000762939</ele>
        <time>2020-07-26T09:35:51.000Z</time>
      </trkpt>
      <trkpt lat="47.56059" lon="-2.28922">
        <ele>21.799999237061</ele>
        <time>2020-07-26T09:35:52.000Z</time>
      </trkpt>
      <trkpt lat="47.56059" lon="-2.28913">
        <ele>21.39999961853</ele>
        <time>2020-07-26T09:35:53.000Z</time>
      </trkpt>
      <trkpt lat="47.56059" lon="-2.28903">
        <ele>21</ele>
        <time>2020-07-26T09:35:54.000Z</time>
      </trkpt>
      <trkpt lat="47.56061" lon="-2.28896">
        <ele>20.60000038147</ele>
        <time>2020-07-26T09:35:55.000Z</time>
      </trkpt>
      <trkpt lat="47.56064" lon="-2.28893">
        <ele>20.60000038147</ele>
        <time>2020-07-26T09:35:56.000Z</time>
      </trkpt>
      <trkpt lat="47.56074" lon="-2.28887">
        <ele>20.60000038147</ele>
        <time>2020-07-26T09:35:59.000Z</time>
      </trkpt>
      <trkpt lat="47.56079" lon="-2.2888">
        <ele>20.60000038147</ele>
        <time>2020-07-26T09:36:01.000Z</time>
      </trkpt>
      <trkpt lat="47.56083" lon="-2.28867">
        <ele>20.60000038147</ele>
        <time>2020-07-26T09:36:04.000Z</time>
      </trkpt>
      <trkpt lat="47.5608" lon="-2.2885">
        <ele>20.60000038147</ele>
        <time>2020-07-26T09:36:07.000Z</time>
      </trkpt>
      <trkpt lat="47.56078" lon="-2.28843">
        <ele>20.60000038147</ele>
        <time>2020-07-26T09:36:08.000Z</time>
      </trkpt>
      <trkpt lat="47.56078" lon="-2.28815">
        <ele>20.60000038147</ele>
        <time>2020-07-26T09:36:12.000Z</time>
      </trkpt>
      <trkpt lat="47.5608" lon="-2.28809">
        <ele>20.200000762939</ele>
        <time>2020-07-26T09:36:13.000Z</time>
      </trkpt>
      <trkpt lat="47.56084" lon="-2.28804">
        <ele>19.799999237061</ele>
        <time>2020-07-26T09:36:14.000Z</time>
      </trkpt>
      <trkpt lat="47.56087" lon="-2.288">
        <ele>19.200000762939</ele>
        <time>2020-07-26T09:36:15.000Z</time>
      </trkpt>
      <trkpt lat="47.56091" lon="-2.28796">
        <ele>18.799999237061</ele>
        <time>2020-07-26T09:36:16.000Z</time>
      </trkpt>
      <trkpt lat="47.56096" lon="-2.28793">
        <ele>18.39999961853</ele>
        <time>2020-07-26T09:36:17.000Z</time>
      </trkpt>
      <trkpt lat="47.56107" lon="-2.28788">
        <ele>18.39999961853</ele>
        <time>2020-07-26T09:36:20.000Z</time>
      </trkpt>
      <trkpt lat="47.56121" lon="-2.28774">
        <ele>18.39999961853</ele>
        <time>2020-07-26T09:36:25.000Z</time>
      </trkpt>
      <trkpt lat="47.56122" lon="-2.28753">
        <ele>18.39999961853</ele>
        <time>2020-07-26T09:36:28.000Z</time>
      </trkpt>
      <trkpt lat="47.56125" lon="-2.28728">
        <ele>18.39999961853</ele>
        <time>2020-07-26T09:36:32.000Z</time>
      </trkpt>
      <trkpt lat="47.56139" lon="-2.28714">
        <ele>18.39999961853</ele>
        <time>2020-07-26T09:36:36.000Z</time>
      </trkpt>
      <trkpt lat="47.56161" lon="-2.2869">
        <ele>18.39999961853</ele>
        <time>2020-07-26T09:36:43.000Z</time>
      </trkpt>
      <trkpt lat="47.5618" lon="-2.28672">
        <ele>18.39999961853</ele>
        <time>2020-07-26T09:36:50.000Z</time>
      </trkpt>
      <trkpt lat="47.56183" lon="-2.2867">
        <ele>18.799999237061</ele>
        <time>2020-07-26T09:36:51.000Z</time>
      </trkpt>
      <trkpt lat="47.56185" lon="-2.28667">
        <ele>19.200000762939</ele>
        <time>2020-07-26T09:36:52.000Z</time>
      </trkpt>
      <trkpt lat="47.56188" lon="-2.28665">
        <ele>19.60000038147</ele>
        <time>2020-07-26T09:36:53.000Z</time>
      </trkpt>
      <trkpt lat="47.56191" lon="-2.28663">
        <ele>20.39999961853</ele>
        <time>2020-07-26T09:36:54.000Z</time>
      </trkpt>
      <trkpt lat="47.56201" lon="-2.28654">
        <ele>20.39999961853</ele>
        <time>2020-07-26T09:36:58.000Z</time>
      </trkpt>
      <trkpt lat="47.56213" lon="-2.28645">
        <ele>21</ele>
        <time>2020-07-26T09:37:03.000Z</time>
      </trkpt>
      <trkpt lat="47.56215" lon="-2.28643">
        <ele>21.39999961853</ele>
        <time>2020-07-26T09:37:04.000Z</time>
      </trkpt>
      <trkpt lat="47.56218" lon="-2.28641">
        <ele>21.799999237061</ele>
        <time>2020-07-26T09:37:05.000Z</time>
      </trkpt>
      <trkpt lat="47.5622" lon="-2.28639">
        <ele>22.200000762939</ele>
        <time>2020-07-26T09:37:06.000Z</time>
      </trkpt>
      <trkpt lat="47.56223" lon="-2.28638">
        <ele>22.60000038147</ele>
        <time>2020-07-26T09:37:07.000Z</time>
      </trkpt>
      <trkpt lat="47.56237" lon="-2.2863">
        <ele>22.60000038147</ele>
        <time>2020-07-26T09:37:12.000Z</time>
      </trkpt>
      <trkpt lat="47.5624" lon="-2.28629">
        <ele>23</ele>
        <time>2020-07-26T09:37:13.000Z</time>
      </trkpt>
      <trkpt lat="47.56243" lon="-2.28627">
        <ele>23.39999961853</ele>
        <time>2020-07-26T09:37:14.000Z</time>
      </trkpt>
      <trkpt lat="47.56246" lon="-2.28626">
        <ele>23.799999237061</ele>
        <time>2020-07-26T09:37:15.000Z</time>
      </trkpt>
      <trkpt lat="47.56248" lon="-2.28625">
        <ele>24.200000762939</ele>
        <time>2020-07-26T09:37:16.000Z</time>
      </trkpt>
      <trkpt lat="47.56251" lon="-2.28625">
        <ele>24.60000038147</ele>
        <time>2020-07-26T09:37:17.000Z</time>
      </trkpt>
      <trkpt lat="47.56257" lon="-2.28622">
        <ele>25</ele>
        <time>2020-07-26T09:37:20.000Z</time>
      </trkpt>
      <trkpt lat="47.5626" lon="-2.28621">
        <ele>25.39999961853</ele>
        <time>2020-07-26T09:37:21.000Z</time>
      </trkpt>
      <trkpt lat="47.56262" lon="-2.2862">
        <ele>26</ele>
        <time>2020-07-26T09:37:22.000Z</time>
      </trkpt>
      <trkpt lat="47.56265" lon="-2.2862">
        <ele>26.39999961853</ele>
        <time>2020-07-26T09:37:23.000Z</time>
      </trkpt>
      <trkpt lat="47.56267" lon="-2.28619">
        <ele>26.799999237061</ele>
        <time>2020-07-26T09:37:24.000Z</time>
      </trkpt>
      <trkpt lat="47.56274" lon="-2.28617">
        <ele>27.200000762939</ele>
        <time>2020-07-26T09:37:27.000Z</time>
      </trkpt>
      <trkpt lat="47.56277" lon="-2.28617">
        <ele>27.60000038147</ele>
        <time>2020-07-26T09:37:28.000Z</time>
      </trkpt>
      <trkpt lat="47.5628" lon="-2.28617">
        <ele>28</ele>
        <time>2020-07-26T09:37:29.000Z</time>
      </trkpt>
      <trkpt lat="47.56282" lon="-2.28616">
        <ele>28.39999961853</ele>
        <time>2020-07-26T09:37:30.000Z</time>
      </trkpt>
      <trkpt lat="47.56285" lon="-2.28614">
        <ele>28.799999237061</ele>
        <time>2020-07-26T09:37:31.000Z</time>
      </trkpt>
      <trkpt lat="47.56293" lon="-2.28612">
        <ele>29.39999961853</ele>
        <time>2020-07-26T09:37:34.000Z</time>
      </trkpt>
      <trkpt lat="47.56296" lon="-2.28611">
        <ele>29.799999237061</ele>
        <time>2020-07-26T09:37:35.000Z</time>
      </trkpt>
      <trkpt lat="47.56298" lon="-2.2861">
        <ele>30.200000762939</ele>
        <time>2020-07-26T09:37:36.000Z</time>
      </trkpt>
      <trkpt lat="47.563" lon="-2.28609">
        <ele>30.60000038147</ele>
        <time>2020-07-26T09:37:37.000Z</time>
      </trkpt>
      <trkpt lat="47.56302" lon="-2.28608">
        <ele>31</ele>
        <time>2020-07-26T09:37:38.000Z</time>
      </trkpt>
      <trkpt lat="47.5631" lon="-2.28605">
        <ele>31.39999961853</ele>
        <time>2020-07-26T09:37:41.000Z</time>
      </trkpt>
      <trkpt lat="47.56312" lon="-2.28604">
        <ele>31.799999237061</ele>
        <time>2020-07-26T09:37:42.000Z</time>
      </trkpt>
      <trkpt lat="47.56314" lon="-2.28602">
        <ele>32.599998474121</ele>
        <time>2020-07-26T09:37:43.000Z</time>
      </trkpt>
      <trkpt lat="47.56317" lon="-2.28601">
        <ele>33</ele>
        <time>2020-07-26T09:37:44.000Z</time>
      </trkpt>
      <trkpt lat="47.56329" lon="-2.28591">
        <ele>33.400001525879</ele>
        <time>2020-07-26T09:37:49.000Z</time>
      </trkpt>
      <trkpt lat="47.56332" lon="-2.2859">
        <ele>33.799999237061</ele>
        <time>2020-07-26T09:37:50.000Z</time>
      </trkpt>
      <trkpt lat="47.56335" lon="-2.28587">
        <ele>34.200000762939</ele>
        <time>2020-07-26T09:37:51.000Z</time>
      </trkpt>
      <trkpt lat="47.56337" lon="-2.28585">
        <ele>34.599998474121</ele>
        <time>2020-07-26T09:37:52.000Z</time>
      </trkpt>
      <trkpt lat="47.56339" lon="-2.28583">
        <ele>35</ele>
        <time>2020-07-26T09:37:53.000Z</time>
      </trkpt>
      <trkpt lat="47.56341" lon="-2.28582">
        <ele>35</ele>
        <time>2020-07-26T09:37:54.000Z</time>
      </trkpt>
      <trkpt lat="47.56355" lon="-2.28572">
        <ele>35</ele>
        <time>2020-07-26T09:38:00.000Z</time>
      </trkpt>
      <trkpt lat="47.56357" lon="-2.28571">
        <ele>35.400001525879</ele>
        <time>2020-07-26T09:38:01.000Z</time>
      </trkpt>
      <trkpt lat="47.56359" lon="-2.2857">
        <ele>35.799999237061</ele>
        <time>2020-07-26T09:38:02.000Z</time>
      </trkpt>
      <trkpt lat="47.56361" lon="-2.2857">
        <ele>36.200000762939</ele>
        <time>2020-07-26T09:38:03.000Z</time>
      </trkpt>
      <trkpt lat="47.56363" lon="-2.2857">
        <ele>36.599998474121</ele>
        <time>2020-07-26T09:38:04.000Z</time>
      </trkpt>
      <trkpt lat="47.56364" lon="-2.2857">
        <ele>37</ele>
        <time>2020-07-26T09:38:05.000Z</time>
      </trkpt>
      <trkpt lat="47.56366" lon="-2.28569">
        <ele>37</ele>
        <time>2020-07-26T09:38:06.000Z</time>
      </trkpt>
      <trkpt lat="47.56376" lon="-2.28562">
        <ele>37.400001525879</ele>
        <time>2020-07-26T09:38:12.000Z</time>
      </trkpt>
      <trkpt lat="47.56379" lon="-2.2856">
        <ele>37.799999237061</ele>
        <time>2020-07-26T09:38:13.000Z</time>
      </trkpt>
      <trkpt lat="47.56381" lon="-2.28558">
        <ele>38.200000762939</ele>
        <time>2020-07-26T09:38:14.000Z</time>
      </trkpt>
      <trkpt lat="47.56382" lon="-2.28556">
        <ele>38.599998474121</ele>
        <time>2020-07-26T09:38:15.000Z</time>
      </trkpt>
      <trkpt lat="47.56384" lon="-2.28554">
        <ele>39</ele>
        <time>2020-07-26T09:38:16.000Z</time>
      </trkpt>
      <trkpt lat="47.56389" lon="-2.28551">
        <ele>39</ele>
        <time>2020-07-26T09:38:19.000Z</time>
      </trkpt>
      <trkpt lat="47.56401" lon="-2.28542">
        <ele>39</ele>
        <time>2020-07-26T09:38:27.000Z</time>
      </trkpt>
      <trkpt lat="47.56413" lon="-2.28534">
        <ele>39</ele>
        <time>2020-07-26T09:38:35.000Z</time>
      </trkpt>
      <trkpt lat="47.56425" lon="-2.28528">
        <ele>39</ele>
        <time>2020-07-26T09:38:42.000Z</time>
      </trkpt>
      <trkpt lat="47.5644" lon="-2.28521">
        <ele>39</ele>
        <time>2020-07-26T09:38:49.000Z</time>
      </trkpt>
      <trkpt lat="47.56442" lon="-2.2852">
        <ele>39</ele>
        <time>2020-07-26T09:38:52.000Z</time>
      </trkpt>
      <trkpt lat="47.56444" lon="-2.28518">
        <ele>39</ele>
        <time>2020-07-26T09:39:27.000Z</time>
      </trkpt>
      <trkpt lat="47.56447" lon="-2.28517">
        <ele>39</ele>
        <time>2020-07-26T09:39:28.000Z</time>
      </trkpt>
      <trkpt lat="47.56463" lon="-2.2851">
        <ele>38.599998474121</ele>
        <time>2020-07-26T09:39:33.000Z</time>
      </trkpt>
      <trkpt lat="47.56467" lon="-2.28508">
        <ele>38.200000762939</ele>
        <time>2020-07-26T09:39:34.000Z</time>
      </trkpt>
      <trkpt lat="47.56471" lon="-2.28506">
        <ele>37.799999237061</ele>
        <time>2020-07-26T09:39:35.000Z</time>
      </trkpt>
      <trkpt lat="47.56476" lon="-2.28504">
        <ele>37.400001525879</ele>
        <time>2020-07-26T09:39:36.000Z</time>
      </trkpt>
      <trkpt lat="47.56481" lon="-2.28502">
        <ele>37</ele>
        <time>2020-07-26T09:39:37.000Z</time>
      </trkpt>
      <trkpt lat="47.56487" lon="-2.285">
        <ele>37</ele>
        <time>2020-07-26T09:39:38.000Z</time>
      </trkpt>
      <trkpt lat="47.56498" lon="-2.28496">
        <ele>36.599998474121</ele>
        <time>2020-07-26T09:39:40.000Z</time>
      </trkpt>
      <trkpt lat="47.56505" lon="-2.28493">
        <ele>36.200000762939</ele>
        <time>2020-07-26T09:39:41.000Z</time>
      </trkpt>
      <trkpt lat="47.56511" lon="-2.2849">
        <ele>35.799999237061</ele>
        <time>2020-07-26T09:39:42.000Z</time>
      </trkpt>
      <trkpt lat="47.56517" lon="-2.28486">
        <ele>35.400001525879</ele>
        <time>2020-07-26T09:39:43.000Z</time>
      </trkpt>
      <trkpt lat="47.56524" lon="-2.28482">
        <ele>34.799999237061</ele>
        <time>2020-07-26T09:39:44.000Z</time>
      </trkpt>
      <trkpt lat="47.5653" lon="-2.28479">
        <ele>34.400001525879</ele>
        <time>2020-07-26T09:39:45.000Z</time>
      </trkpt>
      <trkpt lat="47.56536" lon="-2.28476">
        <ele>33.799999237061</ele>
        <time>2020-07-26T09:39:46.000Z</time>
      </trkpt>
      <trkpt lat="47.5654" lon="-2.28474">
        <ele>32.799999237061</ele>
        <time>2020-07-26T09:39:47.000Z</time>
      </trkpt>
      <trkpt lat="47.56545" lon="-2.28472">
        <ele>32.799999237061</ele>
        <time>2020-07-26T09:39:48.000Z</time>
      </trkpt>
      <trkpt lat="47.56575" lon="-2.28463">
        <ele>32.799999237061</ele>
        <time>2020-07-26T09:39:54.000Z</time>
      </trkpt>
      <trkpt lat="47.56583" lon="-2.28459">
        <ele>33.200000762939</ele>
        <time>2020-07-26T09:39:56.000Z</time>
      </trkpt>
      <trkpt lat="47.56587" lon="-2.28458">
        <ele>33.599998474121</ele>
        <time>2020-07-26T09:39:57.000Z</time>
      </trkpt>
      <trkpt lat="47.56592" lon="-2.28456">
        <ele>34</ele>
        <time>2020-07-26T09:39:58.000Z</time>
      </trkpt>
      <trkpt lat="47.56597" lon="-2.28454">
        <ele>34.400001525879</ele>
        <time>2020-07-26T09:39:59.000Z</time>
      </trkpt>
      <trkpt lat="47.56601" lon="-2.28453">
        <ele>34.799999237061</ele>
        <time>2020-07-26T09:40:00.000Z</time>
      </trkpt>
      <trkpt lat="47.56605" lon="-2.28451">
        <ele>34.799999237061</ele>
        <time>2020-07-26T09:40:01.000Z</time>
      </trkpt>
      <trkpt lat="47.56622" lon="-2.28444">
        <ele>34.799999237061</ele>
        <time>2020-07-26T09:40:05.000Z</time>
      </trkpt>
      <trkpt lat="47.56631" lon="-2.28441">
        <ele>35.200000762939</ele>
        <time>2020-07-26T09:40:07.000Z</time>
      </trkpt>
      <trkpt lat="47.56634" lon="-2.28439">
        <ele>35.599998474121</ele>
        <time>2020-07-26T09:40:08.000Z</time>
      </trkpt>
      <trkpt lat="47.56638" lon="-2.28437">
        <ele>36</ele>
        <time>2020-07-26T09:40:09.000Z</time>
      </trkpt>
      <trkpt lat="47.56641" lon="-2.28436">
        <ele>36.400001525879</ele>
        <time>2020-07-26T09:40:10.000Z</time>
      </trkpt>
      <trkpt lat="47.56644" lon="-2.28436">
        <ele>36.799999237061</ele>
        <time>2020-07-26T09:40:11.000Z</time>
      </trkpt>
      <trkpt lat="47.56651" lon="-2.28434">
        <ele>37.200000762939</ele>
        <time>2020-07-26T09:40:13.000Z</time>
      </trkpt>
      <trkpt lat="47.56653" lon="-2.28434">
        <ele>37.599998474121</ele>
        <time>2020-07-26T09:40:14.000Z</time>
      </trkpt>
      <trkpt lat="47.56656" lon="-2.28434">
        <ele>38</ele>
        <time>2020-07-26T09:40:15.000Z</time>
      </trkpt>
      <trkpt lat="47.56657" lon="-2.28434">
        <ele>38.400001525879</ele>
        <time>2020-07-26T09:40:16.000Z</time>
      </trkpt>
      <trkpt lat="47.56659" lon="-2.28433">
        <ele>38.799999237061</ele>
        <time>2020-07-26T09:40:17.000Z</time>
      </trkpt>
      <trkpt lat="47.56659" lon="-2.28433">
        <ele>38.799999237061</ele>
        <time>2020-07-26T09:40:19.000Z</time>
      </trkpt>
      <trkpt lat="47.56662" lon="-2.28436">
        <ele>39.200000762939</ele>
        <time>2020-07-26T09:40:40.000Z</time>
      </trkpt>
      <trkpt lat="47.56663" lon="-2.28438">
        <ele>39.599998474121</ele>
        <time>2020-07-26T09:40:41.000Z</time>
      </trkpt>
      <trkpt lat="47.56664" lon="-2.2844">
        <ele>40</ele>
        <time>2020-07-26T09:40:42.000Z</time>
      </trkpt>
      <trkpt lat="47.56665" lon="-2.28442">
        <ele>40.400001525879</ele>
        <time>2020-07-26T09:40:43.000Z</time>
      </trkpt>
      <trkpt lat="47.56666" lon="-2.28444">
        <ele>41</ele>
        <time>2020-07-26T09:40:44.000Z</time>
      </trkpt>
      <trkpt lat="47.56675" lon="-2.28464">
        <ele>41</ele>
        <time>2020-07-26T09:40:51.000Z</time>
      </trkpt>
      <trkpt lat="47.56678" lon="-2.28472">
        <ele>41.400001525879</ele>
        <time>2020-07-26T09:40:53.000Z</time>
      </trkpt>
      <trkpt lat="47.56679" lon="-2.28475">
        <ele>41.799999237061</ele>
        <time>2020-07-26T09:40:54.000Z</time>
      </trkpt>
      <trkpt lat="47.5668" lon="-2.28479">
        <ele>42.200000762939</ele>
        <time>2020-07-26T09:40:55.000Z</time>
      </trkpt>
      <trkpt lat="47.56682" lon="-2.28483">
        <ele>42.799999237061</ele>
        <time>2020-07-26T09:40:56.000Z</time>
      </trkpt>
      <trkpt lat="47.56683" lon="-2.28486">
        <ele>43.200000762939</ele>
        <time>2020-07-26T09:40:57.000Z</time>
      </trkpt>
      <trkpt lat="47.56685" lon="-2.2849">
        <ele>43.200000762939</ele>
        <time>2020-07-26T09:40:58.000Z</time>
      </trkpt>
      <trkpt lat="47.5669" lon="-2.28503">
        <ele>43.599998474121</ele>
        <time>2020-07-26T09:41:02.000Z</time>
      </trkpt>
      <trkpt lat="47.56692" lon="-2.28506">
        <ele>44</ele>
        <time>2020-07-26T09:41:03.000Z</time>
      </trkpt>
      <trkpt lat="47.56692" lon="-2.28512">
        <ele>44.400001525879</ele>
        <time>2020-07-26T09:41:04.000Z</time>
      </trkpt>
      <trkpt lat="47.56693" lon="-2.28516">
        <ele>44.799999237061</ele>
        <time>2020-07-26T09:41:05.000Z</time>
      </trkpt>
      <trkpt lat="47.56693" lon="-2.28521">
        <ele>45.200000762939</ele>
        <time>2020-07-26T09:41:06.000Z</time>
      </trkpt>
      <trkpt lat="47.567" lon="-2.28554">
        <ele>45.599998474121</ele>
        <time>2020-07-26T09:41:13.000Z</time>
      </trkpt>
      <trkpt lat="47.56701" lon="-2.28558">
        <ele>46</ele>
        <time>2020-07-26T09:41:14.000Z</time>
      </trkpt>
      <trkpt lat="47.56702" lon="-2.28562">
        <ele>46.400001525879</ele>
        <time>2020-07-26T09:41:15.000Z</time>
      </trkpt>
      <trkpt lat="47.56704" lon="-2.28565">
        <ele>46.799999237061</ele>
        <time>2020-07-26T09:41:16.000Z</time>
      </trkpt>
      <trkpt lat="47.56707" lon="-2.28567">
        <ele>47.400001525879</ele>
        <time>2020-07-26T09:41:17.000Z</time>
      </trkpt>
      <trkpt lat="47.56709" lon="-2.2857">
        <ele>47.400001525879</ele>
        <time>2020-07-26T09:41:18.000Z</time>
      </trkpt>
      <trkpt lat="47.56719" lon="-2.28573">
        <ele>47.400001525879</ele>
        <time>2020-07-26T09:41:22.000Z</time>
      </trkpt>
      <trkpt lat="47.56727" lon="-2.2857">
        <ele>48.200000762939</ele>
        <time>2020-07-26T09:41:25.000Z</time>
      </trkpt>
      <trkpt lat="47.5673" lon="-2.28569">
        <ele>48.599998474121</ele>
        <time>2020-07-26T09:41:26.000Z</time>
      </trkpt>
      <trkpt lat="47.56732" lon="-2.28567">
        <ele>49</ele>
        <time>2020-07-26T09:41:27.000Z</time>
      </trkpt>
      <trkpt lat="47.56735" lon="-2.28565">
        <ele>49.400001525879</ele>
        <time>2020-07-26T09:41:28.000Z</time>
      </trkpt>
      <trkpt lat="47.56738" lon="-2.28563">
        <ele>49.400001525879</ele>
        <time>2020-07-26T09:41:29.000Z</time>
      </trkpt>
      <trkpt lat="47.56753" lon="-2.28559">
        <ele>49.400001525879</ele>
        <time>2020-07-26T09:41:35.000Z</time>
      </trkpt>
      <trkpt lat="47.56762" lon="-2.28554">
        <ele>49.799999237061</ele>
        <time>2020-07-26T09:41:38.000Z</time>
      </trkpt>
      <trkpt lat="47.56764" lon="-2.28553">
        <ele>50.200000762939</ele>
        <time>2020-07-26T09:41:39.000Z</time>
      </trkpt>
      <trkpt lat="47.56767" lon="-2.2855">
        <ele>50.599998474121</ele>
        <time>2020-07-26T09:41:40.000Z</time>
      </trkpt>
      <trkpt lat="47.5677" lon="-2.28549">
        <ele>51</ele>
        <time>2020-07-26T09:41:41.000Z</time>
      </trkpt>
      <trkpt lat="47.56773" lon="-2.28547">
        <ele>51.400001525879</ele>
        <time>2020-07-26T09:41:42.000Z</time>
      </trkpt>
      <trkpt lat="47.56784" lon="-2.28541">
        <ele>51.400001525879</ele>
        <time>2020-07-26T09:41:46.000Z</time>
      </trkpt>
      <trkpt lat="47.56791" lon="-2.28537">
        <ele>52</ele>
        <time>2020-07-26T09:41:49.000Z</time>
      </trkpt>
      <trkpt lat="47.56794" lon="-2.28536">
        <ele>52.400001525879</ele>
        <time>2020-07-26T09:41:50.000Z</time>
      </trkpt>
      <trkpt lat="47.56796" lon="-2.28535">
        <ele>53.200000762939</ele>
        <time>2020-07-26T09:41:51.000Z</time>
      </trkpt>
      <trkpt lat="47.56798" lon="-2.28534">
        <ele>53.599998474121</ele>
        <time>2020-07-26T09:41:52.000Z</time>
      </trkpt>
      <trkpt lat="47.56803" lon="-2.28533">
        <ele>53.599998474121</ele>
        <time>2020-07-26T09:41:54.000Z</time>
      </trkpt>
      <trkpt lat="47.56807" lon="-2.28532">
        <ele>54</ele>
        <time>2020-07-26T09:41:56.000Z</time>
      </trkpt>
      <trkpt lat="47.5681" lon="-2.28531">
        <ele>54.400001525879</ele>
        <time>2020-07-26T09:41:57.000Z</time>
      </trkpt>
      <trkpt lat="47.56812" lon="-2.2853">
        <ele>55</ele>
        <time>2020-07-26T09:41:58.000Z</time>
      </trkpt>
      <trkpt lat="47.56815" lon="-2.28528">
        <ele>55.400001525879</ele>
        <time>2020-07-26T09:41:59.000Z</time>
      </trkpt>
      <trkpt lat="47.56819" lon="-2.28526">
        <ele>55.799999237061</ele>
        <time>2020-07-26T09:42:00.000Z</time>
      </trkpt>
      <trkpt lat="47.56834" lon="-2.28518">
        <ele>55.799999237061</ele>
        <time>2020-07-26T09:42:04.000Z</time>
      </trkpt>
      <trkpt lat="47.56847" lon="-2.2851">
        <ele>55.799999237061</ele>
        <time>2020-07-26T09:42:09.000Z</time>
      </trkpt>
      <trkpt lat="47.56866" lon="-2.285">
        <ele>55.799999237061</ele>
        <time>2020-07-26T09:42:16.000Z</time>
      </trkpt>
      <trkpt lat="47.56866" lon="-2.285">
        <ele>55.799999237061</ele>
        <time>2020-07-26T09:42:17.000Z</time>
      </trkpt>
      <trkpt lat="47.56872" lon="-2.28498">
        <ele>55.799999237061</ele>
        <time>2020-07-26T09:42:40.000Z</time>
      </trkpt>
      <trkpt lat="47.56871" lon="-2.28499">
        <ele>55.799999237061</ele>
        <time>2020-07-26T09:42:41.000Z</time>
      </trkpt>
      <trkpt lat="47.56872" lon="-2.28498">
        <ele>55.799999237061</ele>
        <time>2020-07-26T09:42:42.000Z</time>
      </trkpt>
      <trkpt lat="47.56872" lon="-2.28497">
        <ele>53.799999237061</ele>
        <time>2020-07-26T09:45:20.000Z</time>
      </trkpt>
      <trkpt lat="47.56869" lon="-2.28497">
        <ele>53.799999237061</ele>
        <time>2020-07-26T09:45:22.000Z</time>
      </trkpt>
      <trkpt lat="47.56862" lon="-2.28501">
        <ele>53.799999237061</ele>
        <time>2020-07-26T09:45:26.000Z</time>
      </trkpt>
      <trkpt lat="47.56858" lon="-2.28502">
        <ele>53.799999237061</ele>
        <time>2020-07-26T09:45:28.000Z</time>
      </trkpt>
      <trkpt lat="47.56843" lon="-2.2851">
        <ele>54.200000762939</ele>
        <time>2020-07-26T09:45:34.000Z</time>
      </trkpt>
      <trkpt lat="47.56841" lon="-2.28512">
        <ele>54.599998474121</ele>
        <time>2020-07-26T09:45:35.000Z</time>
      </trkpt>
      <trkpt lat="47.56839" lon="-2.28513">
        <ele>55</ele>
        <time>2020-07-26T09:45:36.000Z</time>
      </trkpt>
      <trkpt lat="47.56837" lon="-2.28514">
        <ele>55.400001525879</ele>
        <time>2020-07-26T09:45:37.000Z</time>
      </trkpt>
      <trkpt lat="47.56834" lon="-2.28515">
        <ele>55.799999237061</ele>
        <time>2020-07-26T09:45:38.000Z</time>
      </trkpt>
      <trkpt lat="47.56826" lon="-2.28518">
        <ele>55.799999237061</ele>
        <time>2020-07-26T09:45:42.000Z</time>
      </trkpt>
      <trkpt lat="47.5681" lon="-2.28525">
        <ele>55.799999237061</ele>
        <time>2020-07-26T09:45:49.000Z</time>
      </trkpt>
      <trkpt lat="47.56793" lon="-2.28532">
        <ele>55.799999237061</ele>
        <time>2020-07-26T09:45:53.000Z</time>
      </trkpt>
      <trkpt lat="47.56774" lon="-2.28542">
        <ele>55.400001525879</ele>
        <time>2020-07-26T09:45:57.000Z</time>
      </trkpt>
      <trkpt lat="47.56768" lon="-2.28545">
        <ele>54.599998474121</ele>
        <time>2020-07-26T09:45:58.000Z</time>
      </trkpt>
      <trkpt lat="47.56762" lon="-2.28549">
        <ele>54.200000762939</ele>
        <time>2020-07-26T09:45:59.000Z</time>
      </trkpt>
      <trkpt lat="47.56756" lon="-2.28552">
        <ele>53.799999237061</ele>
        <time>2020-07-26T09:46:00.000Z</time>
      </trkpt>
      <trkpt lat="47.56737" lon="-2.28561">
        <ele>53.400001525879</ele>
        <time>2020-07-26T09:46:03.000Z</time>
      </trkpt>
      <trkpt lat="47.5673" lon="-2.28564">
        <ele>52.799999237061</ele>
        <time>2020-07-26T09:46:04.000Z</time>
      </trkpt>
      <trkpt lat="47.56724" lon="-2.28567">
        <ele>52.400001525879</ele>
        <time>2020-07-26T09:46:05.000Z</time>
      </trkpt>
      <trkpt lat="47.56717" lon="-2.28571">
        <ele>52</ele>
        <time>2020-07-26T09:46:06.000Z</time>
      </trkpt>
      <trkpt lat="47.56711" lon="-2.28574">
        <ele>51.400001525879</ele>
        <time>2020-07-26T09:46:07.000Z</time>
      </trkpt>
      <trkpt lat="47.56697" lon="-2.28583">
        <ele>51</ele>
        <time>2020-07-26T09:46:09.000Z</time>
      </trkpt>
      <trkpt lat="47.5669" lon="-2.28588">
        <ele>50.599998474121</ele>
        <time>2020-07-26T09:46:10.000Z</time>
      </trkpt>
      <trkpt lat="47.56684" lon="-2.28593">
        <ele>50.200000762939</ele>
        <time>2020-07-26T09:46:11.000Z</time>
      </trkpt>
      <trkpt lat="47.56679" lon="-2.28599">
        <ele>49.799999237061</ele>
        <time>2020-07-26T09:46:12.000Z</time>
      </trkpt>
      <trkpt lat="47.56676" lon="-2.28606">
        <ele>49.400001525879</ele>
        <time>2020-07-26T09:46:13.000Z</time>
      </trkpt>
      <trkpt lat="47.56674" lon="-2.28614">
        <ele>49.400001525879</ele>
        <time>2020-07-26T09:46:14.000Z</time>
      </trkpt>
      <trkpt lat="47.56675" lon="-2.28643">
        <ele>49.400001525879</ele>
        <time>2020-07-26T09:46:18.000Z</time>
      </trkpt>
      <trkpt lat="47.56679" lon="-2.28669">
        <ele>49.400001525879</ele>
        <time>2020-07-26T09:46:22.000Z</time>
      </trkpt>
      <trkpt lat="47.56681" lon="-2.28683">
        <ele>49.400001525879</ele>
        <time>2020-07-26T09:46:24.000Z</time>
      </trkpt>
      <trkpt lat="47.56686" lon="-2.28717">
        <ele>49.400001525879</ele>
        <time>2020-07-26T09:46:30.000Z</time>
      </trkpt>
      <trkpt lat="47.56688" lon="-2.28727">
        <ele>49.799999237061</ele>
        <time>2020-07-26T09:46:32.000Z</time>
      </trkpt>
      <trkpt lat="47.56688" lon="-2.28733">
        <ele>50.200000762939</ele>
        <time>2020-07-26T09:46:33.000Z</time>
      </trkpt>
      <trkpt lat="47.56689" lon="-2.28737">
        <ele>50.599998474121</ele>
        <time>2020-07-26T09:46:34.000Z</time>
      </trkpt>
      <trkpt lat="47.5669" lon="-2.28742">
        <ele>51</ele>
        <time>2020-07-26T09:46:35.000Z</time>
      </trkpt>
      <trkpt lat="47.5669" lon="-2.28747">
        <ele>51.400001525879</ele>
        <time>2020-07-26T09:46:36.000Z</time>
      </trkpt>
      <trkpt lat="47.56693" lon="-2.28767">
        <ele>51.400001525879</ele>
        <time>2020-07-26T09:46:40.000Z</time>
      </trkpt>
      <trkpt lat="47.56697" lon="-2.28803">
        <ele>51.400001525879</ele>
        <time>2020-07-26T09:46:47.000Z</time>
      </trkpt>
      <trkpt lat="47.56704" lon="-2.28844">
        <ele>51.400001525879</ele>
        <time>2020-07-26T09:46:55.000Z</time>
      </trkpt>
      <trkpt lat="47.5671" lon="-2.28872">
        <ele>51.400001525879</ele>
        <time>2020-07-26T09:47:01.000Z</time>
      </trkpt>
      <trkpt lat="47.56712" lon="-2.28874">
        <ele>51.400001525879</ele>
        <time>2020-07-26T09:47:02.000Z</time>
      </trkpt>
      <trkpt lat="47.56716" lon="-2.28874">
        <ele>51.400001525879</ele>
        <time>2020-07-26T09:47:05.000Z</time>
      </trkpt>
      <trkpt lat="47.56716" lon="-2.28875">
        <ele>51.400001525879</ele>
        <time>2020-07-26T09:47:06.000Z</time>
      </trkpt>
      <trkpt lat="47.56715" lon="-2.28882">
        <ele>51.400001525879</ele>
        <time>2020-07-26T09:47:52.000Z</time>
      </trkpt>
      <trkpt lat="47.56714" lon="-2.28884">
        <ele>51.400001525879</ele>
        <time>2020-07-26T09:47:53.000Z</time>
      </trkpt>
      <trkpt lat="47.56702" lon="-2.28898">
        <ele>51.400001525879</ele>
        <time>2020-07-26T09:47:58.000Z</time>
      </trkpt>
      <trkpt lat="47.56699" lon="-2.28902">
        <ele>51.400001525879</ele>
        <time>2020-07-26T09:47:59.000Z</time>
      </trkpt>
      <trkpt lat="47.56682" lon="-2.28913">
        <ele>51.400001525879</ele>
        <time>2020-07-26T09:48:03.000Z</time>
      </trkpt>
      <trkpt lat="47.56664" lon="-2.28926">
        <ele>51.400001525879</ele>
        <time>2020-07-26T09:48:07.000Z</time>
      </trkpt>
      <trkpt lat="47.5666" lon="-2.28932">
        <ele>51.400001525879</ele>
        <time>2020-07-26T09:48:08.000Z</time>
      </trkpt>
      <trkpt lat="47.56656" lon="-2.28953">
        <ele>51.400001525879</ele>
        <time>2020-07-26T09:48:11.000Z</time>
      </trkpt>
      <trkpt lat="47.56657" lon="-2.28971">
        <ele>51.400001525879</ele>
        <time>2020-07-26T09:48:14.000Z</time>
      </trkpt>
      <trkpt lat="47.56658" lon="-2.28989">
        <ele>51.400001525879</ele>
        <time>2020-07-26T09:48:17.000Z</time>
      </trkpt>
      <trkpt lat="47.56658" lon="-2.29008">
        <ele>51.400001525879</ele>
        <time>2020-07-26T09:48:20.000Z</time>
      </trkpt>
      <trkpt lat="47.56665" lon="-2.29026">
        <ele>51.400001525879</ele>
        <time>2020-07-26T09:48:23.000Z</time>
      </trkpt>
      <trkpt lat="47.56677" lon="-2.29031">
        <ele>51.400001525879</ele>
        <time>2020-07-26T09:48:26.000Z</time>
      </trkpt>
      <trkpt lat="47.56686" lon="-2.29029">
        <ele>51.400001525879</ele>
        <time>2020-07-26T09:48:28.000Z</time>
      </trkpt>
      <trkpt lat="47.56691" lon="-2.29028">
        <ele>51.799999237061</ele>
        <time>2020-07-26T09:48:29.000Z</time>
      </trkpt>
      <trkpt lat="47.56695" lon="-2.29028">
        <ele>52.200000762939</ele>
        <time>2020-07-26T09:48:30.000Z</time>
      </trkpt>
      <trkpt lat="47.567" lon="-2.29027">
        <ele>52.599998474121</ele>
        <time>2020-07-26T09:48:31.000Z</time>
      </trkpt>
      <trkpt lat="47.56704" lon="-2.29026">
        <ele>53</ele>
        <time>2020-07-26T09:48:32.000Z</time>
      </trkpt>
      <trkpt lat="47.56709" lon="-2.29025">
        <ele>53.400001525879</ele>
        <time>2020-07-26T09:48:33.000Z</time>
      </trkpt>
      <trkpt lat="47.56748" lon="-2.29019">
        <ele>53.400001525879</ele>
        <time>2020-07-26T09:48:41.000Z</time>
      </trkpt>
      <trkpt lat="47.56752" lon="-2.29019">
        <ele>53.400001525879</ele>
        <time>2020-07-26T09:48:42.000Z</time>
      </trkpt>
      <trkpt lat="47.56759" lon="-2.29024">
        <ele>53.400001525879</ele>
        <time>2020-07-26T09:48:44.000Z</time>
      </trkpt>
      <trkpt lat="47.56768" lon="-2.29044">
        <ele>53.400001525879</ele>
        <time>2020-07-26T09:48:48.000Z</time>
      </trkpt>
      <trkpt lat="47.56769" lon="-2.29057">
        <ele>53.400001525879</ele>
        <time>2020-07-26T09:48:50.000Z</time>
      </trkpt>
      <trkpt lat="47.56772" lon="-2.29091">
        <ele>53.400001525879</ele>
        <time>2020-07-26T09:48:56.000Z</time>
      </trkpt>
      <trkpt lat="47.56771" lon="-2.2913">
        <ele>53.400001525879</ele>
        <time>2020-07-26T09:49:03.000Z</time>
      </trkpt>
      <trkpt lat="47.56768" lon="-2.29175">
        <ele>53.400001525879</ele>
        <time>2020-07-26T09:49:10.000Z</time>
      </trkpt>
      <trkpt lat="47.56768" lon="-2.29187">
        <ele>53.400001525879</ele>
        <time>2020-07-26T09:49:12.000Z</time>
      </trkpt>
      <trkpt lat="47.56773" lon="-2.29206">
        <ele>53.400001525879</ele>
        <time>2020-07-26T09:49:15.000Z</time>
      </trkpt>
      <trkpt lat="47.56776" lon="-2.29211">
        <ele>53.400001525879</ele>
        <time>2020-07-26T09:49:16.000Z</time>
      </trkpt>
      <trkpt lat="47.56789" lon="-2.29241">
        <ele>53.400001525879</ele>
        <time>2020-07-26T09:49:21.000Z</time>
      </trkpt>
      <trkpt lat="47.56791" lon="-2.29247">
        <ele>53.400001525879</ele>
        <time>2020-07-26T09:49:22.000Z</time>
      </trkpt>
      <trkpt lat="47.56796" lon="-2.2927">
        <ele>53.400001525879</ele>
        <time>2020-07-26T09:49:27.000Z</time>
      </trkpt>
      <trkpt lat="47.56799" lon="-2.29296">
        <ele>53.799999237061</ele>
        <time>2020-07-26T09:49:32.000Z</time>
      </trkpt>
      <trkpt lat="47.568" lon="-2.29302">
        <ele>54.400001525879</ele>
        <time>2020-07-26T09:49:33.000Z</time>
      </trkpt>
      <trkpt lat="47.56801" lon="-2.29309">
        <ele>54.799999237061</ele>
        <time>2020-07-26T09:49:34.000Z</time>
      </trkpt>
      <trkpt lat="47.56802" lon="-2.29315">
        <ele>55.200000762939</ele>
        <time>2020-07-26T09:49:35.000Z</time>
      </trkpt>
      <trkpt lat="47.56803" lon="-2.29322">
        <ele>55.599998474121</ele>
        <time>2020-07-26T09:49:36.000Z</time>
      </trkpt>
      <trkpt lat="47.56809" lon="-2.2935">
        <ele>55.599998474121</ele>
        <time>2020-07-26T09:49:40.000Z</time>
      </trkpt>
      <trkpt lat="47.56824" lon="-2.29411">
        <ele>55.599998474121</ele>
        <time>2020-07-26T09:49:48.000Z</time>
      </trkpt>
      <trkpt lat="47.5684" lon="-2.29473">
        <ele>55.599998474121</ele>
        <time>2020-07-26T09:49:56.000Z</time>
      </trkpt>
      <trkpt lat="47.56858" lon="-2.29545">
        <ele>55.599998474121</ele>
        <time>2020-07-26T09:50:06.000Z</time>
      </trkpt>
      <trkpt lat="47.56871" lon="-2.2959">
        <ele>55.599998474121</ele>
        <time>2020-07-26T09:50:13.000Z</time>
      </trkpt>
      <trkpt lat="47.56875" lon="-2.29602">
        <ele>55.599998474121</ele>
        <time>2020-07-26T09:50:15.000Z</time>
      </trkpt>
      <trkpt lat="47.56887" lon="-2.2962">
        <ele>55.599998474121</ele>
        <time>2020-07-26T09:50:19.000Z</time>
      </trkpt>
      <trkpt lat="47.5691" lon="-2.29627">
        <ele>55.599998474121</ele>
        <time>2020-07-26T09:50:24.000Z</time>
      </trkpt>
      <trkpt lat="47.56915" lon="-2.29627">
        <ele>55.599998474121</ele>
        <time>2020-07-26T09:50:25.000Z</time>
      </trkpt>
      <trkpt lat="47.56944" lon="-2.29633">
        <ele>55.599998474121</ele>
        <time>2020-07-26T09:50:30.000Z</time>
      </trkpt>
      <trkpt lat="47.56957" lon="-2.29636">
        <ele>55.599998474121</ele>
        <time>2020-07-26T09:50:32.000Z</time>
      </trkpt>
      <trkpt lat="47.56973" lon="-2.29639">
        <ele>55</ele>
        <time>2020-07-26T09:50:34.000Z</time>
      </trkpt>
      <trkpt lat="47.5698" lon="-2.2964">
        <ele>54.599998474121</ele>
        <time>2020-07-26T09:50:35.000Z</time>
      </trkpt>
      <trkpt lat="47.56986" lon="-2.29641">
        <ele>54.200000762939</ele>
        <time>2020-07-26T09:50:36.000Z</time>
      </trkpt>
      <trkpt lat="47.56992" lon="-2.29643">
        <ele>53.400001525879</ele>
        <time>2020-07-26T09:50:37.000Z</time>
      </trkpt>
      <trkpt lat="47.56998" lon="-2.29644">
        <ele>52.799999237061</ele>
        <time>2020-07-26T09:50:38.000Z</time>
      </trkpt>
      <trkpt lat="47.57004" lon="-2.29643">
        <ele>52.200000762939</ele>
        <time>2020-07-26T09:50:39.000Z</time>
      </trkpt>
      <trkpt lat="47.57009" lon="-2.2964">
        <ele>51.400001525879</ele>
        <time>2020-07-26T09:50:40.000Z</time>
      </trkpt>
      <trkpt lat="47.57013" lon="-2.29633">
        <ele>50.799999237061</ele>
        <time>2020-07-26T09:50:41.000Z</time>
      </trkpt>
      <trkpt lat="47.57014" lon="-2.29625">
        <ele>50.400001525879</ele>
        <time>2020-07-26T09:50:42.000Z</time>
      </trkpt>
      <trkpt lat="47.57015" lon="-2.29616">
        <ele>49.799999237061</ele>
        <time>2020-07-26T09:50:43.000Z</time>
      </trkpt>
      <trkpt lat="47.57014" lon="-2.29607">
        <ele>49.200000762939</ele>
        <time>2020-07-26T09:50:44.000Z</time>
      </trkpt>
      <trkpt lat="47.57014" lon="-2.29597">
        <ele>48.599998474121</ele>
        <time>2020-07-26T09:50:45.000Z</time>
      </trkpt>
      <trkpt lat="47.57013" lon="-2.29568">
        <ele>48.599998474121</ele>
        <time>2020-07-26T09:50:48.000Z</time>
      </trkpt>
      <trkpt lat="47.57015" lon="-2.29549">
        <ele>48.599998474121</ele>
        <time>2020-07-26T09:50:50.000Z</time>
      </trkpt>
      <trkpt lat="47.57026" lon="-2.29525">
        <ele>48.599998474121</ele>
        <time>2020-07-26T09:50:53.000Z</time>
      </trkpt>
      <trkpt lat="47.57037" lon="-2.29513">
        <ele>48.599998474121</ele>
        <time>2020-07-26T09:50:55.000Z</time>
      </trkpt>
      <trkpt lat="47.57054" lon="-2.29498">
        <ele>48.599998474121</ele>
        <time>2020-07-26T09:50:58.000Z</time>
      </trkpt>
      <trkpt lat="47.57072" lon="-2.29483">
        <ele>48.200000762939</ele>
        <time>2020-07-26T09:51:01.000Z</time>
      </trkpt>
      <trkpt lat="47.57078" lon="-2.29478">
        <ele>47.799999237061</ele>
        <time>2020-07-26T09:51:02.000Z</time>
      </trkpt>
      <trkpt lat="47.57084" lon="-2.29472">
        <ele>47.400001525879</ele>
        <time>2020-07-26T09:51:03.000Z</time>
      </trkpt>
      <trkpt lat="47.57089" lon="-2.29465">
        <ele>47</ele>
        <time>2020-07-26T09:51:04.000Z</time>
      </trkpt>
      <trkpt lat="47.57095" lon="-2.29457">
        <ele>46.599998474121</ele>
        <time>2020-07-26T09:51:05.000Z</time>
      </trkpt>
      <trkpt lat="47.571" lon="-2.29449">
        <ele>46.599998474121</ele>
        <time>2020-07-26T09:51:06.000Z</time>
      </trkpt>
      <trkpt lat="47.57107" lon="-2.29429">
        <ele>46.599998474121</ele>
        <time>2020-07-26T09:51:08.000Z</time>
      </trkpt>
      <trkpt lat="47.5711" lon="-2.29418">
        <ele>46.200000762939</ele>
        <time>2020-07-26T09:51:09.000Z</time>
      </trkpt>
      <trkpt lat="47.57113" lon="-2.29408">
        <ele>45.599998474121</ele>
        <time>2020-07-26T09:51:10.000Z</time>
      </trkpt>
      <trkpt lat="47.57115" lon="-2.29397">
        <ele>45.200000762939</ele>
        <time>2020-07-26T09:51:11.000Z</time>
      </trkpt>
      <trkpt lat="47.57117" lon="-2.29386">
        <ele>44.799999237061</ele>
        <time>2020-07-26T09:51:12.000Z</time>
      </trkpt>
      <trkpt lat="47.57119" lon="-2.29374">
        <ele>44.400001525879</ele>
        <time>2020-07-26T09:51:13.000Z</time>
      </trkpt>
      <trkpt lat="47.57124" lon="-2.29349">
        <ele>44</ele>
        <time>2020-07-26T09:51:15.000Z</time>
      </trkpt>
      <trkpt lat="47.57126" lon="-2.29337">
        <ele>43.599998474121</ele>
        <time>2020-07-26T09:51:16.000Z</time>
      </trkpt>
      <trkpt lat="47.57129" lon="-2.29324">
        <ele>43.200000762939</ele>
        <time>2020-07-26T09:51:17.000Z</time>
      </trkpt>
      <trkpt lat="47.57132" lon="-2.29311">
        <ele>42.799999237061</ele>
        <time>2020-07-26T09:51:18.000Z</time>
      </trkpt>
      <trkpt lat="47.57136" lon="-2.293">
        <ele>42.400001525879</ele>
        <time>2020-07-26T09:51:19.000Z</time>
      </trkpt>
      <trkpt lat="47.57148" lon="-2.29281">
        <ele>42</ele>
        <time>2020-07-26T09:51:21.000Z</time>
      </trkpt>
      <trkpt lat="47.57156" lon="-2.29273">
        <ele>41.599998474121</ele>
        <time>2020-07-26T09:51:22.000Z</time>
      </trkpt>
      <trkpt lat="47.57163" lon="-2.29264">
        <ele>41</ele>
        <time>2020-07-26T09:51:23.000Z</time>
      </trkpt>
      <trkpt lat="47.57169" lon="-2.29256">
        <ele>40.599998474121</ele>
        <time>2020-07-26T09:51:24.000Z</time>
      </trkpt>
      <trkpt lat="47.57174" lon="-2.29249">
        <ele>40.200000762939</ele>
        <time>2020-07-26T09:51:25.000Z</time>
      </trkpt>
      <trkpt lat="47.57179" lon="-2.29241">
        <ele>40.200000762939</ele>
        <time>2020-07-26T09:51:26.000Z</time>
      </trkpt>
      <trkpt lat="47.57183" lon="-2.29235">
        <ele>40.200000762939</ele>
        <time>2020-07-26T09:51:27.000Z</time>
      </trkpt>
      <trkpt lat="47.57187" lon="-2.29224">
        <ele>40.200000762939</ele>
        <time>2020-07-26T09:51:29.000Z</time>
      </trkpt>
      <trkpt lat="47.572" lon="-2.29208">
        <ele>40.200000762939</ele>
        <time>2020-07-26T09:51:34.000Z</time>
      </trkpt>
      <trkpt lat="47.57204" lon="-2.29207">
        <ele>40.599998474121</ele>
        <time>2020-07-26T09:51:35.000Z</time>
      </trkpt>
      <trkpt lat="47.57207" lon="-2.29206">
        <ele>41</ele>
        <time>2020-07-26T09:51:36.000Z</time>
      </trkpt>
      <trkpt lat="47.57211" lon="-2.29206">
        <ele>41.400001525879</ele>
        <time>2020-07-26T09:51:37.000Z</time>
      </trkpt>
      <trkpt lat="47.57215" lon="-2.29206">
        <ele>42</ele>
        <time>2020-07-26T09:51:38.000Z</time>
      </trkpt>
      <trkpt lat="47.57218" lon="-2.29205">
        <ele>42.400001525879</ele>
        <time>2020-07-26T09:51:39.000Z</time>
      </trkpt>
      <trkpt lat="47.57221" lon="-2.29205">
        <ele>42.400001525879</ele>
        <time>2020-07-26T09:51:40.000Z</time>
      </trkpt>
      <trkpt lat="47.57224" lon="-2.29205">
        <ele>42.799999237061</ele>
        <time>2020-07-26T09:51:41.000Z</time>
      </trkpt>
      <trkpt lat="47.57228" lon="-2.29205">
        <ele>43.200000762939</ele>
        <time>2020-07-26T09:51:42.000Z</time>
      </trkpt>
      <trkpt lat="47.57231" lon="-2.29206">
        <ele>43.799999237061</ele>
        <time>2020-07-26T09:51:43.000Z</time>
      </trkpt>
      <trkpt lat="47.57234" lon="-2.29206">
        <ele>44.200000762939</ele>
        <time>2020-07-26T09:51:44.000Z</time>
      </trkpt>
      <trkpt lat="47.57236" lon="-2.29206">
        <ele>45.200000762939</ele>
        <time>2020-07-26T09:51:45.000Z</time>
      </trkpt>
      <trkpt lat="47.57239" lon="-2.29206">
        <ele>45.599998474121</ele>
        <time>2020-07-26T09:51:46.000Z</time>
      </trkpt>
      <trkpt lat="47.57242" lon="-2.29206">
        <ele>46</ele>
        <time>2020-07-26T09:51:47.000Z</time>
      </trkpt>
      <trkpt lat="47.57245" lon="-2.29206">
        <ele>46.400001525879</ele>
        <time>2020-07-26T09:51:48.000Z</time>
      </trkpt>
      <trkpt lat="47.57247" lon="-2.29206">
        <ele>46.799999237061</ele>
        <time>2020-07-26T09:51:49.000Z</time>
      </trkpt>
      <trkpt lat="47.57257" lon="-2.29205">
        <ele>47.200000762939</ele>
        <time>2020-07-26T09:51:52.000Z</time>
      </trkpt>
      <trkpt lat="47.57261" lon="-2.29205">
        <ele>47.599998474121</ele>
        <time>2020-07-26T09:51:53.000Z</time>
      </trkpt>
      <trkpt lat="47.57265" lon="-2.29205">
        <ele>48.200000762939</ele>
        <time>2020-07-26T09:51:54.000Z</time>
      </trkpt>
      <trkpt lat="47.57269" lon="-2.29204">
        <ele>48.599998474121</ele>
        <time>2020-07-26T09:51:55.000Z</time>
      </trkpt>
      <trkpt lat="47.57273" lon="-2.29202">
        <ele>49</ele>
        <time>2020-07-26T09:51:56.000Z</time>
      </trkpt>
      <trkpt lat="47.57284" lon="-2.29194">
        <ele>49.400001525879</ele>
        <time>2020-07-26T09:51:59.000Z</time>
      </trkpt>
      <trkpt lat="47.57287" lon="-2.29192">
        <ele>49.799999237061</ele>
        <time>2020-07-26T09:52:00.000Z</time>
      </trkpt>
      <trkpt lat="47.5729" lon="-2.29189">
        <ele>50.200000762939</ele>
        <time>2020-07-26T09:52:01.000Z</time>
      </trkpt>
      <trkpt lat="47.57294" lon="-2.29186">
        <ele>50.799999237061</ele>
        <time>2020-07-26T09:52:02.000Z</time>
      </trkpt>
      <trkpt lat="47.57297" lon="-2.29185">
        <ele>51.200000762939</ele>
        <time>2020-07-26T09:52:03.000Z</time>
      </trkpt>
      <trkpt lat="47.57304" lon="-2.29184">
        <ele>51.599998474121</ele>
        <time>2020-07-26T09:52:05.000Z</time>
      </trkpt>
      <trkpt lat="47.57308" lon="-2.29183">
        <ele>52</ele>
        <time>2020-07-26T09:52:06.000Z</time>
      </trkpt>
      <trkpt lat="47.57312" lon="-2.29183">
        <ele>52.400001525879</ele>
        <time>2020-07-26T09:52:07.000Z</time>
      </trkpt>
      <trkpt lat="47.57315" lon="-2.29183">
        <ele>53</ele>
        <time>2020-07-26T09:52:08.000Z</time>
      </trkpt>
      <trkpt lat="47.57319" lon="-2.29183">
        <ele>53.400001525879</ele>
        <time>2020-07-26T09:52:09.000Z</time>
      </trkpt>
      <trkpt lat="47.57333" lon="-2.29183">
        <ele>53.400001525879</ele>
        <time>2020-07-26T09:52:13.000Z</time>
      </trkpt>
      <trkpt lat="47.57353" lon="-2.2918">
        <ele>53.400001525879</ele>
        <time>2020-07-26T09:52:20.000Z</time>
      </trkpt>
      <trkpt lat="47.57355" lon="-2.2918">
        <ele>53.799999237061</ele>
        <time>2020-07-26T09:52:21.000Z</time>
      </trkpt>
      <trkpt lat="47.57357" lon="-2.2918">
        <ele>54.200000762939</ele>
        <time>2020-07-26T09:52:22.000Z</time>
      </trkpt>
      <trkpt lat="47.57357" lon="-2.29179">
        <ele>54.599998474121</ele>
        <time>2020-07-26T09:52:23.000Z</time>
      </trkpt>
      <trkpt lat="47.57358" lon="-2.29179">
        <ele>55</ele>
        <time>2020-07-26T09:52:24.000Z</time>
      </trkpt>
      <trkpt lat="47.57359" lon="-2.2918">
        <ele>55.400001525879</ele>
        <time>2020-07-26T09:52:40.000Z</time>
      </trkpt>
      <trkpt lat="47.57365" lon="-2.29181">
        <ele>55.400001525879</ele>
        <time>2020-07-26T09:52:43.000Z</time>
      </trkpt>
      <trkpt lat="47.57386" lon="-2.29182">
        <ele>55.400001525879</ele>
        <time>2020-07-26T09:52:50.000Z</time>
      </trkpt>
      <trkpt lat="47.57411" lon="-2.29183">
        <ele>55.400001525879</ele>
        <time>2020-07-26T09:52:57.000Z</time>
      </trkpt>
      <trkpt lat="47.57445" lon="-2.2918">
        <ele>55</ele>
        <time>2020-07-26T09:53:04.000Z</time>
      </trkpt>
      <trkpt lat="47.5745" lon="-2.29179">
        <ele>54.400001525879</ele>
        <time>2020-07-26T09:53:05.000Z</time>
      </trkpt>
      <trkpt lat="47.57455" lon="-2.29178">
        <ele>54</ele>
        <time>2020-07-26T09:53:06.000Z</time>
      </trkpt>
      <trkpt lat="47.57459" lon="-2.29176">
        <ele>53.599998474121</ele>
        <time>2020-07-26T09:53:07.000Z</time>
      </trkpt>
      <trkpt lat="47.57462" lon="-2.29175">
        <ele>53</ele>
        <time>2020-07-26T09:53:08.000Z</time>
      </trkpt>
      <trkpt lat="47.57466" lon="-2.29173">
        <ele>52.599998474121</ele>
        <time>2020-07-26T09:53:09.000Z</time>
      </trkpt>
      <trkpt lat="47.57468" lon="-2.29172">
        <ele>52.200000762939</ele>
        <time>2020-07-26T09:53:10.000Z</time>
      </trkpt>
      <trkpt lat="47.57471" lon="-2.2917">
        <ele>51.799999237061</ele>
        <time>2020-07-26T09:53:11.000Z</time>
      </trkpt>
      <trkpt lat="47.57475" lon="-2.29168">
        <ele>51.400001525879</ele>
        <time>2020-07-26T09:53:12.000Z</time>
      </trkpt>
      <trkpt lat="47.57479" lon="-2.29167">
        <ele>51</ele>
        <time>2020-07-26T09:53:13.000Z</time>
      </trkpt>
      <trkpt lat="47.57483" lon="-2.29166">
        <ele>51</ele>
        <time>2020-07-26T09:53:14.000Z</time>
      </trkpt>
      <trkpt lat="47.57492" lon="-2.29165">
        <ele>50.400001525879</ele>
        <time>2020-07-26T09:53:16.000Z</time>
      </trkpt>
      <trkpt lat="47.57497" lon="-2.29164">
        <ele>50</ele>
        <time>2020-07-26T09:53:17.000Z</time>
      </trkpt>
      <trkpt lat="47.57503" lon="-2.29164">
        <ele>49.599998474121</ele>
        <time>2020-07-26T09:53:18.000Z</time>
      </trkpt>
      <trkpt lat="47.57509" lon="-2.29164">
        <ele>49.200000762939</ele>
        <time>2020-07-26T09:53:19.000Z</time>
      </trkpt>
      <trkpt lat="47.57514" lon="-2.29165">
        <ele>48.799999237061</ele>
        <time>2020-07-26T09:53:20.000Z</time>
      </trkpt>
      <trkpt lat="47.57519" lon="-2.29166">
        <ele>48.400001525879</ele>
        <time>2020-07-26T09:53:21.000Z</time>
      </trkpt>
      <trkpt lat="47.57524" lon="-2.29167">
        <ele>47.799999237061</ele>
        <time>2020-07-26T09:53:22.000Z</time>
      </trkpt>
      <trkpt lat="47.57528" lon="-2.29169">
        <ele>46.799999237061</ele>
        <time>2020-07-26T09:53:23.000Z</time>
      </trkpt>
      <trkpt lat="47.57532" lon="-2.29171">
        <ele>46.200000762939</ele>
        <time>2020-07-26T09:53:24.000Z</time>
      </trkpt>
      <trkpt lat="47.57536" lon="-2.29172">
        <ele>45.599998474121</ele>
        <time>2020-07-26T09:53:25.000Z</time>
      </trkpt>
      <trkpt lat="47.57539" lon="-2.29171">
        <ele>45</ele>
        <time>2020-07-26T09:53:26.000Z</time>
      </trkpt>
      <trkpt lat="47.57542" lon="-2.29168">
        <ele>44.400001525879</ele>
        <time>2020-07-26T09:53:27.000Z</time>
      </trkpt>
      <trkpt lat="47.57544" lon="-2.29162">
        <ele>43.799999237061</ele>
        <time>2020-07-26T09:53:28.000Z</time>
      </trkpt>
      <trkpt lat="47.57544" lon="-2.29155">
        <ele>43.200000762939</ele>
        <time>2020-07-26T09:53:29.000Z</time>
      </trkpt>
      <trkpt lat="47.57545" lon="-2.29147">
        <ele>42.799999237061</ele>
        <time>2020-07-26T09:53:30.000Z</time>
      </trkpt>
      <trkpt lat="47.57545" lon="-2.2914">
        <ele>42.200000762939</ele>
        <time>2020-07-26T09:53:31.000Z</time>
      </trkpt>
      <trkpt lat="47.57547" lon="-2.29133">
        <ele>41.599998474121</ele>
        <time>2020-07-26T09:53:32.000Z</time>
      </trkpt>
      <trkpt lat="47.57548" lon="-2.29125">
        <ele>41.200000762939</ele>
        <time>2020-07-26T09:53:33.000Z</time>
      </trkpt>
      <trkpt lat="47.57551" lon="-2.29119">
        <ele>40.599998474121</ele>
        <time>2020-07-26T09:53:34.000Z</time>
      </trkpt>
      <trkpt lat="47.57553" lon="-2.29113">
        <ele>39.799999237061</ele>
        <time>2020-07-26T09:53:35.000Z</time>
      </trkpt>
      <trkpt lat="47.57557" lon="-2.29108">
        <ele>39</ele>
        <time>2020-07-26T09:53:36.000Z</time>
      </trkpt>
      <trkpt lat="47.5756" lon="-2.29104">
        <ele>38.400001525879</ele>
        <time>2020-07-26T09:53:37.000Z</time>
      </trkpt>
      <trkpt lat="47.57562" lon="-2.29101">
        <ele>37.400001525879</ele>
        <time>2020-07-26T09:53:38.000Z</time>
      </trkpt>
      <trkpt lat="47.57564" lon="-2.29099">
        <ele>36.599998474121</ele>
        <time>2020-07-26T09:53:39.000Z</time>
      </trkpt>
      <trkpt lat="47.57566" lon="-2.29097">
        <ele>35.799999237061</ele>
        <time>2020-07-26T09:53:40.000Z</time>
      </trkpt>
      <trkpt lat="47.57568" lon="-2.29095">
        <ele>34.799999237061</ele>
        <time>2020-07-26T09:53:41.000Z</time>
      </trkpt>
      <trkpt lat="47.57569" lon="-2.29093">
        <ele>34</ele>
        <time>2020-07-26T09:53:42.000Z</time>
      </trkpt>
      <trkpt lat="47.57571" lon="-2.29087">
        <ele>33.599998474121</ele>
        <time>2020-07-26T09:53:44.000Z</time>
      </trkpt>
      <trkpt lat="47.57572" lon="-2.29084">
        <ele>33.200000762939</ele>
        <time>2020-07-26T09:53:45.000Z</time>
      </trkpt>
      <trkpt lat="47.57573" lon="-2.29082">
        <ele>32.799999237061</ele>
        <time>2020-07-26T09:53:46.000Z</time>
      </trkpt>
      <trkpt lat="47.57574" lon="-2.2908">
        <ele>32.400001525879</ele>
        <time>2020-07-26T09:53:47.000Z</time>
      </trkpt>
      <trkpt lat="47.57575" lon="-2.29078">
        <ele>32</ele>
        <time>2020-07-26T09:53:48.000Z</time>
      </trkpt>
      <trkpt lat="47.57579" lon="-2.29073">
        <ele>32</ele>
        <time>2020-07-26T09:53:51.000Z</time>
      </trkpt>
      <trkpt lat="47.5758" lon="-2.29072">
        <ele>32</ele>
        <time>2020-07-26T09:53:53.000Z</time>
      </trkpt>
      <trkpt lat="47.5758" lon="-2.29076">
        <ele>32</ele>
        <time>2020-07-26T09:54:34.000Z</time>
      </trkpt>
      <trkpt lat="47.57578" lon="-2.29078">
        <ele>32</ele>
        <time>2020-07-26T09:54:35.000Z</time>
      </trkpt>
      <trkpt lat="47.57574" lon="-2.2909">
        <ele>32</ele>
        <time>2020-07-26T09:54:39.000Z</time>
      </trkpt>
      <trkpt lat="47.57575" lon="-2.29094">
        <ele>32</ele>
        <time>2020-07-26T09:54:40.000Z</time>
      </trkpt>
      <trkpt lat="47.57584" lon="-2.29108">
        <ele>32</ele>
        <time>2020-07-26T09:54:44.000Z</time>
      </trkpt>
      <trkpt lat="47.57587" lon="-2.29111">
        <ele>32</ele>
        <time>2020-07-26T09:54:45.000Z</time>
      </trkpt>
      <trkpt lat="47.57602" lon="-2.29121">
        <ele>32</ele>
        <time>2020-07-26T09:54:50.000Z</time>
      </trkpt>
      <trkpt lat="47.57615" lon="-2.29132">
        <ele>32</ele>
        <time>2020-07-26T09:54:56.000Z</time>
      </trkpt>
      <trkpt lat="47.57631" lon="-2.29143">
        <ele>32</ele>
        <time>2020-07-26T09:55:01.000Z</time>
      </trkpt>
      <trkpt lat="47.57643" lon="-2.29137">
        <ele>32</ele>
        <time>2020-07-26T09:55:04.000Z</time>
      </trkpt>
      <trkpt lat="47.57647" lon="-2.29133">
        <ele>32</ele>
        <time>2020-07-26T09:55:05.000Z</time>
      </trkpt>
      <trkpt lat="47.57653" lon="-2.29127">
        <ele>31.39999961853</ele>
        <time>2020-07-26T09:55:06.000Z</time>
      </trkpt>
      <trkpt lat="47.57658" lon="-2.29122">
        <ele>31</ele>
        <time>2020-07-26T09:55:07.000Z</time>
      </trkpt>
      <trkpt lat="47.57665" lon="-2.29116">
        <ele>30.60000038147</ele>
        <time>2020-07-26T09:55:08.000Z</time>
      </trkpt>
      <trkpt lat="47.57672" lon="-2.2911">
        <ele>29.799999237061</ele>
        <time>2020-07-26T09:55:09.000Z</time>
      </trkpt>
      <trkpt lat="47.57679" lon="-2.29104">
        <ele>29</ele>
        <time>2020-07-26T09:55:10.000Z</time>
      </trkpt>
      <trkpt lat="47.57688" lon="-2.29097">
        <ele>28</ele>
        <time>2020-07-26T09:55:11.000Z</time>
      </trkpt>
      <trkpt lat="47.57697" lon="-2.29088">
        <ele>27</ele>
        <time>2020-07-26T09:55:12.000Z</time>
      </trkpt>
      <trkpt lat="47.57705" lon="-2.29081">
        <ele>25.60000038147</ele>
        <time>2020-07-26T09:55:13.000Z</time>
      </trkpt>
      <trkpt lat="47.57712" lon="-2.29074">
        <ele>24.200000762939</ele>
        <time>2020-07-26T09:55:14.000Z</time>
      </trkpt>
      <trkpt lat="47.5772" lon="-2.29068">
        <ele>22.799999237061</ele>
        <time>2020-07-26T09:55:15.000Z</time>
      </trkpt>
      <trkpt lat="47.57728" lon="-2.29063">
        <ele>21.39999961853</ele>
        <time>2020-07-26T09:55:16.000Z</time>
      </trkpt>
      <trkpt lat="47.57735" lon="-2.29059">
        <ele>20.200000762939</ele>
        <time>2020-07-26T09:55:17.000Z</time>
      </trkpt>
      <trkpt lat="47.57741" lon="-2.29056">
        <ele>18.799999237061</ele>
        <time>2020-07-26T09:55:18.000Z</time>
      </trkpt>
      <trkpt lat="47.57746" lon="-2.29054">
        <ele>17.60000038147</ele>
        <time>2020-07-26T09:55:19.000Z</time>
      </trkpt>
      <trkpt lat="47.57752" lon="-2.29052">
        <ele>16.60000038147</ele>
        <time>2020-07-26T09:55:20.000Z</time>
      </trkpt>
      <trkpt lat="47.57757" lon="-2.2905">
        <ele>15.60000038147</ele>
        <time>2020-07-26T09:55:21.000Z</time>
      </trkpt>
      <trkpt lat="47.57763" lon="-2.29046">
        <ele>14.60000038147</ele>
        <time>2020-07-26T09:55:22.000Z</time>
      </trkpt>
      <trkpt lat="47.57769" lon="-2.29043">
        <ele>13.39999961853</ele>
        <time>2020-07-26T09:55:23.000Z</time>
      </trkpt>
      <trkpt lat="47.57775" lon="-2.29039">
        <ele>12.39999961853</ele>
        <time>2020-07-26T09:55:24.000Z</time>
      </trkpt>
      <trkpt lat="47.5778" lon="-2.29033">
        <ele>11.199999809265</ele>
        <time>2020-07-26T09:55:25.000Z</time>
      </trkpt>
      <trkpt lat="47.57784" lon="-2.29027">
        <ele>9</ele>
        <time>2020-07-26T09:55:26.000Z</time>
      </trkpt>
      <trkpt lat="47.57787" lon="-2.29021">
        <ele>7.8000001907349</ele>
        <time>2020-07-26T09:55:27.000Z</time>
      </trkpt>
      <trkpt lat="47.5779" lon="-2.28992">
        <ele>7.8000001907349</ele>
        <time>2020-07-26T09:55:31.000Z</time>
      </trkpt>
      <trkpt lat="47.5779" lon="-2.28985">
        <ele>7.8000001907349</ele>
        <time>2020-07-26T09:55:32.000Z</time>
      </trkpt>
      <trkpt lat="47.57789" lon="-2.28963">
        <ele>7.8000001907349</ele>
        <time>2020-07-26T09:55:35.000Z</time>
      </trkpt>
      <trkpt lat="47.57792" lon="-2.28956">
        <ele>7.8000001907349</ele>
        <time>2020-07-26T09:55:37.000Z</time>
      </trkpt>
      <trkpt lat="47.57798" lon="-2.28958">
        <ele>7.8000001907349</ele>
        <time>2020-07-26T09:55:41.000Z</time>
      </trkpt>
      <trkpt lat="47.57799" lon="-2.28961">
        <ele>8.3999996185303</ele>
        <time>2020-07-26T09:55:42.000Z</time>
      </trkpt>
      <trkpt lat="47.578" lon="-2.28963">
        <ele>8.8000001907349</ele>
        <time>2020-07-26T09:55:43.000Z</time>
      </trkpt>
      <trkpt lat="47.57802" lon="-2.28966">
        <ele>9.1999998092651</ele>
        <time>2020-07-26T09:55:44.000Z</time>
      </trkpt>
      <trkpt lat="47.57803" lon="-2.28969">
        <ele>9.8000001907349</ele>
        <time>2020-07-26T09:55:45.000Z</time>
      </trkpt>
      <trkpt lat="47.57805" lon="-2.28971">
        <ele>10.199999809265</ele>
        <time>2020-07-26T09:55:46.000Z</time>
      </trkpt>
      <trkpt lat="47.57808" lon="-2.28976">
        <ele>10.60000038147</ele>
        <time>2020-07-26T09:55:48.000Z</time>
      </trkpt>
      <trkpt lat="47.5781" lon="-2.2898">
        <ele>11</ele>
        <time>2020-07-26T09:55:49.000Z</time>
      </trkpt>
      <trkpt lat="47.57811" lon="-2.28983">
        <ele>11.60000038147</ele>
        <time>2020-07-26T09:55:50.000Z</time>
      </trkpt>
      <trkpt lat="47.57813" lon="-2.28986">
        <ele>12.39999961853</ele>
        <time>2020-07-26T09:55:51.000Z</time>
      </trkpt>
      <trkpt lat="47.57814" lon="-2.2899">
        <ele>12.39999961853</ele>
        <time>2020-07-26T09:55:52.000Z</time>
      </trkpt>
      <trkpt lat="47.57818" lon="-2.28996">
        <ele>12.800000190735</ele>
        <time>2020-07-26T09:55:54.000Z</time>
      </trkpt>
      <trkpt lat="47.5782" lon="-2.28999">
        <ele>13.199999809265</ele>
        <time>2020-07-26T09:55:55.000Z</time>
      </trkpt>
      <trkpt lat="47.57821" lon="-2.29002">
        <ele>13.800000190735</ele>
        <time>2020-07-26T09:55:56.000Z</time>
      </trkpt>
      <trkpt lat="47.57823" lon="-2.29004">
        <ele>14.199999809265</ele>
        <time>2020-07-26T09:55:57.000Z</time>
      </trkpt>
      <trkpt lat="47.57825" lon="-2.29007">
        <ele>14.60000038147</ele>
        <time>2020-07-26T09:55:58.000Z</time>
      </trkpt>
      <trkpt lat="47.57827" lon="-2.29013">
        <ele>14.60000038147</ele>
        <time>2020-07-26T09:56:00.000Z</time>
      </trkpt>
      <trkpt lat="47.57831" lon="-2.2902">
        <ele>15</ele>
        <time>2020-07-26T09:56:03.000Z</time>
      </trkpt>
      <trkpt lat="47.57832" lon="-2.29021">
        <ele>15.39999961853</ele>
        <time>2020-07-26T09:56:04.000Z</time>
      </trkpt>
      <trkpt lat="47.57834" lon="-2.29023">
        <ele>16</ele>
        <time>2020-07-26T09:56:05.000Z</time>
      </trkpt>
      <trkpt lat="47.57836" lon="-2.29024">
        <ele>16.39999961853</ele>
        <time>2020-07-26T09:56:06.000Z</time>
      </trkpt>
      <trkpt lat="47.57837" lon="-2.29026">
        <ele>16.799999237061</ele>
        <time>2020-07-26T09:56:07.000Z</time>
      </trkpt>
      <trkpt lat="47.5784" lon="-2.29025">
        <ele>17.200000762939</ele>
        <time>2020-07-26T09:56:10.000Z</time>
      </trkpt>
      <trkpt lat="47.57841" lon="-2.29025">
        <ele>17.60000038147</ele>
        <time>2020-07-26T09:56:11.000Z</time>
      </trkpt>
      <trkpt lat="47.57842" lon="-2.29025">
        <ele>18</ele>
        <time>2020-07-26T09:56:12.000Z</time>
      </trkpt>
      <trkpt lat="47.57843" lon="-2.29023">
        <ele>18.39999961853</ele>
        <time>2020-07-26T09:56:13.000Z</time>
      </trkpt>
      <trkpt lat="47.57844" lon="-2.29022">
        <ele>19</ele>
        <time>2020-07-26T09:56:14.000Z</time>
      </trkpt>
      <trkpt lat="47.5785" lon="-2.29016">
        <ele>19.39999961853</ele>
        <time>2020-07-26T09:56:17.000Z</time>
      </trkpt>
      <trkpt lat="47.57852" lon="-2.29013">
        <ele>19.799999237061</ele>
        <time>2020-07-26T09:56:18.000Z</time>
      </trkpt>
      <trkpt lat="47.57855" lon="-2.29011">
        <ele>20.200000762939</ele>
        <time>2020-07-26T09:56:19.000Z</time>
      </trkpt>
      <trkpt lat="47.57857" lon="-2.29009">
        <ele>20.799999237061</ele>
        <time>2020-07-26T09:56:20.000Z</time>
      </trkpt>
      <trkpt lat="47.5786" lon="-2.29007">
        <ele>21.200000762939</ele>
        <time>2020-07-26T09:56:21.000Z</time>
      </trkpt>
      <trkpt lat="47.57864" lon="-2.29003">
        <ele>21.200000762939</ele>
        <time>2020-07-26T09:56:23.000Z</time>
      </trkpt>
      <trkpt lat="47.57871" lon="-2.28994">
        <ele>21.60000038147</ele>
        <time>2020-07-26T09:56:27.000Z</time>
      </trkpt>
      <trkpt lat="47.57873" lon="-2.28992">
        <ele>22</ele>
        <time>2020-07-26T09:56:28.000Z</time>
      </trkpt>
      <trkpt lat="47.57877" lon="-2.28989">
        <ele>22.39999961853</ele>
        <time>2020-07-26T09:56:29.000Z</time>
      </trkpt>
      <trkpt lat="47.57879" lon="-2.28986">
        <ele>22.799999237061</ele>
        <time>2020-07-26T09:56:30.000Z</time>
      </trkpt>
      <trkpt lat="47.57882" lon="-2.28982">
        <ele>23.200000762939</ele>
        <time>2020-07-26T09:56:31.000Z</time>
      </trkpt>
      <trkpt lat="47.57895" lon="-2.28978">
        <ele>23.200000762939</ele>
        <time>2020-07-26T09:56:35.000Z</time>
      </trkpt>
      <trkpt lat="47.57916" lon="-2.28989">
        <ele>23.200000762939</ele>
        <time>2020-07-26T09:56:41.000Z</time>
      </trkpt>
      <trkpt lat="47.5794" lon="-2.28996">
        <ele>23.200000762939</ele>
        <time>2020-07-26T09:56:48.000Z</time>
      </trkpt>
      <trkpt lat="47.57959" lon="-2.29003">
        <ele>23.200000762939</ele>
        <time>2020-07-26T09:56:54.000Z</time>
      </trkpt>
      <trkpt lat="47.57979" lon="-2.29015">
        <ele>23.200000762939</ele>
        <time>2020-07-26T09:57:00.000Z</time>
      </trkpt>
      <trkpt lat="47.57985" lon="-2.29019">
        <ele>23.60000038147</ele>
        <time>2020-07-26T09:57:02.000Z</time>
      </trkpt>
      <trkpt lat="47.57988" lon="-2.29022">
        <ele>24</ele>
        <time>2020-07-26T09:57:03.000Z</time>
      </trkpt>
      <trkpt lat="47.5799" lon="-2.29025">
        <ele>24.60000038147</ele>
        <time>2020-07-26T09:57:04.000Z</time>
      </trkpt>
      <trkpt lat="47.57991" lon="-2.29028">
        <ele>25.39999961853</ele>
        <time>2020-07-26T09:57:05.000Z</time>
      </trkpt>
      <trkpt lat="47.57993" lon="-2.2903">
        <ele>25.39999961853</ele>
        <time>2020-07-26T09:57:06.000Z</time>
      </trkpt>
      <trkpt lat="47.57995" lon="-2.29043">
        <ele>25.39999961853</ele>
        <time>2020-07-26T09:57:10.000Z</time>
      </trkpt>
      <trkpt lat="47.57993" lon="-2.29054">
        <ele>25.39999961853</ele>
        <time>2020-07-26T09:57:14.000Z</time>
      </trkpt>
      <trkpt lat="47.57993" lon="-2.29055">
        <ele>25.39999961853</ele>
        <time>2020-07-26T09:57:15.000Z</time>
      </trkpt>
      <trkpt lat="47.57997" lon="-2.29061">
        <ele>25.39999961853</ele>
        <time>2020-07-26T09:57:20.000Z</time>
      </trkpt>
      <trkpt lat="47.58" lon="-2.29066">
        <ele>25.39999961853</ele>
        <time>2020-07-26T09:58:34.000Z</time>
      </trkpt>
      <trkpt lat="47.58009" lon="-2.2908">
        <ele>25.39999961853</ele>
        <time>2020-07-26T09:58:40.000Z</time>
      </trkpt>
      <trkpt lat="47.58014" lon="-2.29082">
        <ele>25.39999961853</ele>
        <time>2020-07-26T09:58:43.000Z</time>
      </trkpt>
      <trkpt lat="47.58015" lon="-2.2908">
        <ele>25.39999961853</ele>
        <time>2020-07-26T09:58:44.000Z</time>
      </trkpt>
      <trkpt lat="47.58022" lon="-2.29078">
        <ele>24.799999237061</ele>
        <time>2020-07-26T09:58:47.000Z</time>
      </trkpt>
      <trkpt lat="47.58024" lon="-2.29078">
        <ele>24.39999961853</ele>
        <time>2020-07-26T09:58:48.000Z</time>
      </trkpt>
      <trkpt lat="47.58028" lon="-2.29079">
        <ele>24</ele>
        <time>2020-07-26T09:58:49.000Z</time>
      </trkpt>
      <trkpt lat="47.58031" lon="-2.2908">
        <ele>23.39999961853</ele>
        <time>2020-07-26T09:58:50.000Z</time>
      </trkpt>
      <trkpt lat="47.58035" lon="-2.29081">
        <ele>23</ele>
        <time>2020-07-26T09:58:51.000Z</time>
      </trkpt>
      <trkpt lat="47.58047" lon="-2.29082">
        <ele>23</ele>
        <time>2020-07-26T09:58:54.000Z</time>
      </trkpt>
      <trkpt lat="47.58061" lon="-2.2908">
        <ele>22.60000038147</ele>
        <time>2020-07-26T09:58:58.000Z</time>
      </trkpt>
      <trkpt lat="47.58065" lon="-2.29081">
        <ele>22.200000762939</ele>
        <time>2020-07-26T09:58:59.000Z</time>
      </trkpt>
      <trkpt lat="47.58068" lon="-2.29082">
        <ele>21.799999237061</ele>
        <time>2020-07-26T09:59:00.000Z</time>
      </trkpt>
      <trkpt lat="47.58072" lon="-2.29084">
        <ele>21.39999961853</ele>
        <time>2020-07-26T09:59:01.000Z</time>
      </trkpt>
      <trkpt lat="47.58074" lon="-2.29084">
        <ele>21</ele>
        <time>2020-07-26T09:59:02.000Z</time>
      </trkpt>
      <trkpt lat="47.58083" lon="-2.29088">
        <ele>21</ele>
        <time>2020-07-26T09:59:05.000Z</time>
      </trkpt>
      <trkpt lat="47.58086" lon="-2.29096">
        <ele>21</ele>
        <time>2020-07-26T09:59:08.000Z</time>
      </trkpt>
      <trkpt lat="47.58086" lon="-2.29103">
        <ele>21.39999961853</ele>
        <time>2020-07-26T09:59:10.000Z</time>
      </trkpt>
      <trkpt lat="47.58086" lon="-2.29107">
        <ele>21.799999237061</ele>
        <time>2020-07-26T09:59:11.000Z</time>
      </trkpt>
      <trkpt lat="47.58086" lon="-2.29111">
        <ele>22.200000762939</ele>
        <time>2020-07-26T09:59:12.000Z</time>
      </trkpt>
      <trkpt lat="47.58087" lon="-2.29115">
        <ele>22.60000038147</ele>
        <time>2020-07-26T09:59:13.000Z</time>
      </trkpt>
      <trkpt lat="47.58086" lon="-2.29118">
        <ele>23</ele>
        <time>2020-07-26T09:59:14.000Z</time>
      </trkpt>
      <trkpt lat="47.58084" lon="-2.29123">
        <ele>23</ele>
        <time>2020-07-26T09:59:16.000Z</time>
      </trkpt>
      <trkpt lat="47.58076" lon="-2.29133">
        <ele>23</ele>
        <time>2020-07-26T09:59:22.000Z</time>
      </trkpt>
      <trkpt lat="47.5807" lon="-2.29135">
        <ele>23</ele>
        <time>2020-07-26T09:59:27.000Z</time>
      </trkpt>
      <trkpt lat="47.58063" lon="-2.29146">
        <ele>23</ele>
        <time>2020-07-26T09:59:32.000Z</time>
      </trkpt>
      <trkpt lat="47.58058" lon="-2.29159">
        <ele>23</ele>
        <time>2020-07-26T09:59:36.000Z</time>
      </trkpt>
      <trkpt lat="47.58056" lon="-2.29163">
        <ele>23</ele>
        <time>2020-07-26T09:59:37.000Z</time>
      </trkpt>
      <trkpt lat="47.58051" lon="-2.29183">
        <ele>23</ele>
        <time>2020-07-26T09:59:42.000Z</time>
      </trkpt>
      <trkpt lat="47.58051" lon="-2.29192">
        <ele>23.39999961853</ele>
        <time>2020-07-26T09:59:44.000Z</time>
      </trkpt>
      <trkpt lat="47.58051" lon="-2.29196">
        <ele>23.799999237061</ele>
        <time>2020-07-26T09:59:45.000Z</time>
      </trkpt>
      <trkpt lat="47.58052" lon="-2.292">
        <ele>24.200000762939</ele>
        <time>2020-07-26T09:59:46.000Z</time>
      </trkpt>
      <trkpt lat="47.58053" lon="-2.29205">
        <ele>24.60000038147</ele>
        <time>2020-07-26T09:59:47.000Z</time>
      </trkpt>
      <trkpt lat="47.58054" lon="-2.2921">
        <ele>25</ele>
        <time>2020-07-26T09:59:48.000Z</time>
      </trkpt>
      <trkpt lat="47.58058" lon="-2.29234">
        <ele>25</ele>
        <time>2020-07-26T09:59:53.000Z</time>
      </trkpt>
      <trkpt lat="47.58063" lon="-2.29253">
        <ele>25</ele>
        <time>2020-07-26T10:00:00.000Z</time>
      </trkpt>
      <trkpt lat="47.58068" lon="-2.29265">
        <ele>25</ele>
        <time>2020-07-26T10:00:07.000Z</time>
      </trkpt>
      <trkpt lat="47.58075" lon="-2.29281">
        <ele>25</ele>
        <time>2020-07-26T10:00:12.000Z</time>
      </trkpt>
      <trkpt lat="47.58084" lon="-2.293">
        <ele>24.60000038147</ele>
        <time>2020-07-26T10:00:17.000Z</time>
      </trkpt>
      <trkpt lat="47.58086" lon="-2.29302">
        <ele>24.200000762939</ele>
        <time>2020-07-26T10:00:18.000Z</time>
      </trkpt>
      <trkpt lat="47.58088" lon="-2.29305">
        <ele>23.799999237061</ele>
        <time>2020-07-26T10:00:19.000Z</time>
      </trkpt>
      <trkpt lat="47.58089" lon="-2.29308">
        <ele>23.39999961853</ele>
        <time>2020-07-26T10:00:20.000Z</time>
      </trkpt>
      <trkpt lat="47.58091" lon="-2.2931">
        <ele>23</ele>
        <time>2020-07-26T10:00:21.000Z</time>
      </trkpt>
      <trkpt lat="47.58093" lon="-2.29309">
        <ele>23</ele>
        <time>2020-07-26T10:00:24.000Z</time>
      </trkpt>
      <trkpt lat="47.58093" lon="-2.29305">
        <ele>23</ele>
        <time>2020-07-26T10:00:26.000Z</time>
      </trkpt>
      <trkpt lat="47.58091" lon="-2.29299">
        <ele>22.60000038147</ele>
        <time>2020-07-26T10:00:28.000Z</time>
      </trkpt>
      <trkpt lat="47.5809" lon="-2.29296">
        <ele>22.200000762939</ele>
        <time>2020-07-26T10:00:29.000Z</time>
      </trkpt>
      <trkpt lat="47.58089" lon="-2.29291">
        <ele>21.799999237061</ele>
        <time>2020-07-26T10:00:30.000Z</time>
      </trkpt>
      <trkpt lat="47.58089" lon="-2.29285">
        <ele>21.200000762939</ele>
        <time>2020-07-26T10:00:31.000Z</time>
      </trkpt>
      <trkpt lat="47.58087" lon="-2.29279">
        <ele>20.799999237061</ele>
        <time>2020-07-26T10:00:32.000Z</time>
      </trkpt>
      <trkpt lat="47.58086" lon="-2.29273">
        <ele>20.39999961853</ele>
        <time>2020-07-26T10:00:33.000Z</time>
      </trkpt>
      <trkpt lat="47.58085" lon="-2.29267">
        <ele>19.799999237061</ele>
        <time>2020-07-26T10:00:34.000Z</time>
      </trkpt>
      <trkpt lat="47.58083" lon="-2.29262">
        <ele>19.39999961853</ele>
        <time>2020-07-26T10:00:35.000Z</time>
      </trkpt>
      <trkpt lat="47.58082" lon="-2.29255">
        <ele>19</ele>
        <time>2020-07-26T10:00:36.000Z</time>
      </trkpt>
      <trkpt lat="47.5808" lon="-2.29249">
        <ele>18.39999961853</ele>
        <time>2020-07-26T10:00:37.000Z</time>
      </trkpt>
      <trkpt lat="47.58079" lon="-2.29241">
        <ele>18</ele>
        <time>2020-07-26T10:00:38.000Z</time>
      </trkpt>
      <trkpt lat="47.58078" lon="-2.29234">
        <ele>17.60000038147</ele>
        <time>2020-07-26T10:00:39.000Z</time>
      </trkpt>
      <trkpt lat="47.58077" lon="-2.29227">
        <ele>17.200000762939</ele>
        <time>2020-07-26T10:00:40.000Z</time>
      </trkpt>
      <trkpt lat="47.58077" lon="-2.2922">
        <ele>16.60000038147</ele>
        <time>2020-07-26T10:00:41.000Z</time>
      </trkpt>
      <trkpt lat="47.58076" lon="-2.29214">
        <ele>16.200000762939</ele>
        <time>2020-07-26T10:00:42.000Z</time>
      </trkpt>
      <trkpt lat="47.58075" lon="-2.29205">
        <ele>15.800000190735</ele>
        <time>2020-07-26T10:00:45.000Z</time>
      </trkpt>
      <trkpt lat="47.58076" lon="-2.29204">
        <ele>15.199999809265</ele>
        <time>2020-07-26T10:00:46.000Z</time>
      </trkpt>
      <trkpt lat="47.58078" lon="-2.29204">
        <ele>14.39999961853</ele>
        <time>2020-07-26T10:00:47.000Z</time>
      </trkpt>
      <trkpt lat="47.58079" lon="-2.29206">
        <ele>13.800000190735</ele>
        <time>2020-07-26T10:00:48.000Z</time>
      </trkpt>
      <trkpt lat="47.58081" lon="-2.29208">
        <ele>13.39999961853</ele>
        <time>2020-07-26T10:00:49.000Z</time>
      </trkpt>
      <trkpt lat="47.58082" lon="-2.29211">
        <ele>13</ele>
        <time>2020-07-26T10:00:50.000Z</time>
      </trkpt>
      <trkpt lat="47.58083" lon="-2.29214">
        <ele>12.39999961853</ele>
        <time>2020-07-26T10:00:51.000Z</time>
      </trkpt>
      <trkpt lat="47.58084" lon="-2.29217">
        <ele>11.800000190735</ele>
        <time>2020-07-26T10:00:52.000Z</time>
      </trkpt>
      <trkpt lat="47.58085" lon="-2.2922">
        <ele>11.199999809265</ele>
        <time>2020-07-26T10:00:53.000Z</time>
      </trkpt>
      <trkpt lat="47.58087" lon="-2.29223">
        <ele>10.60000038147</ele>
        <time>2020-07-26T10:00:54.000Z</time>
      </trkpt>
      <trkpt lat="47.58089" lon="-2.29226">
        <ele>10</ele>
        <time>2020-07-26T10:00:55.000Z</time>
      </trkpt>
      <trkpt lat="47.58091" lon="-2.29229">
        <ele>9.1999998092651</ele>
        <time>2020-07-26T10:00:56.000Z</time>
      </trkpt>
      <trkpt lat="47.58094" lon="-2.29232">
        <ele>8.6000003814697</ele>
        <time>2020-07-26T10:00:57.000Z</time>
      </trkpt>
      <trkpt lat="47.58097" lon="-2.29236">
        <ele>8</ele>
        <time>2020-07-26T10:00:58.000Z</time>
      </trkpt>
      <trkpt lat="47.58099" lon="-2.29239">
        <ele>7.1999998092651</ele>
        <time>2020-07-26T10:00:59.000Z</time>
      </trkpt>
      <trkpt lat="47.58102" lon="-2.29244">
        <ele>6.8000001907349</ele>
        <time>2020-07-26T10:01:00.000Z</time>
      </trkpt>
      <trkpt lat="47.58105" lon="-2.2925">
        <ele>6.4000000953674</ele>
        <time>2020-07-26T10:01:01.000Z</time>
      </trkpt>
      <trkpt lat="47.58108" lon="-2.29254">
        <ele>6</ele>
        <time>2020-07-26T10:01:02.000Z</time>
      </trkpt>
      <trkpt lat="47.5811" lon="-2.29259">
        <ele>5.5999999046326</ele>
        <time>2020-07-26T10:01:03.000Z</time>
      </trkpt>
      <trkpt lat="47.58113" lon="-2.29264">
        <ele>5.1999998092651</ele>
        <time>2020-07-26T10:01:04.000Z</time>
      </trkpt>
      <trkpt lat="47.58129" lon="-2.29281">
        <ele>5.1999998092651</ele>
        <time>2020-07-26T10:01:08.000Z</time>
      </trkpt>
      <trkpt lat="47.58146" lon="-2.293">
        <ele>5.1999998092651</ele>
        <time>2020-07-26T10:01:13.000Z</time>
      </trkpt>
      <trkpt lat="47.58154" lon="-2.29318">
        <ele>5.1999998092651</ele>
        <time>2020-07-26T10:01:18.000Z</time>
      </trkpt>
      <trkpt lat="47.58161" lon="-2.29332">
        <ele>5.1999998092651</ele>
        <time>2020-07-26T10:01:22.000Z</time>
      </trkpt>
      <trkpt lat="47.58166" lon="-2.29334">
        <ele>5.1999998092651</ele>
        <time>2020-07-26T10:01:24.000Z</time>
      </trkpt>
      <trkpt lat="47.58172" lon="-2.29333">
        <ele>5.1999998092651</ele>
        <time>2020-07-26T10:01:27.000Z</time>
      </trkpt>
      <trkpt lat="47.58177" lon="-2.29332">
        <ele>5.1999998092651</ele>
        <time>2020-07-26T10:01:29.000Z</time>
      </trkpt>
      <trkpt lat="47.58191" lon="-2.29331">
        <ele>5.1999998092651</ele>
        <time>2020-07-26T10:01:37.000Z</time>
      </trkpt>
      <trkpt lat="47.58192" lon="-2.29332">
        <ele>5.1999998092651</ele>
        <time>2020-07-26T10:01:38.000Z</time>
      </trkpt>
      <trkpt lat="47.58197" lon="-2.2934">
        <ele>5.1999998092651</ele>
        <time>2020-07-26T10:01:43.000Z</time>
      </trkpt>
      <trkpt lat="47.582" lon="-2.29349">
        <ele>5.1999998092651</ele>
        <time>2020-07-26T10:01:47.000Z</time>
      </trkpt>
      <trkpt lat="47.582" lon="-2.29351">
        <ele>5.1999998092651</ele>
        <time>2020-07-26T10:01:48.000Z</time>
      </trkpt>
      <trkpt lat="47.58201" lon="-2.29353">
        <ele>5.1999998092651</ele>
        <time>2020-07-26T10:01:49.000Z</time>
      </trkpt>
      <trkpt lat="47.5821" lon="-2.29372">
        <ele>5.1999998092651</ele>
        <time>2020-07-26T10:01:55.000Z</time>
      </trkpt>
      <trkpt lat="47.58219" lon="-2.29382">
        <ele>6</ele>
        <time>2020-07-26T10:02:01.000Z</time>
      </trkpt>
      <trkpt lat="47.58221" lon="-2.29383">
        <ele>6.4000000953674</ele>
        <time>2020-07-26T10:02:02.000Z</time>
      </trkpt>
      <trkpt lat="47.58222" lon="-2.29384">
        <ele>6.8000001907349</ele>
        <time>2020-07-26T10:02:03.000Z</time>
      </trkpt>
      <trkpt lat="47.58225" lon="-2.29386">
        <ele>7.1999998092651</ele>
        <time>2020-07-26T10:02:04.000Z</time>
      </trkpt>
      <trkpt lat="47.5824" lon="-2.29396">
        <ele>7.1999998092651</ele>
        <time>2020-07-26T10:02:10.000Z</time>
      </trkpt>
      <trkpt lat="47.58252" lon="-2.29412">
        <ele>7.1999998092651</ele>
        <time>2020-07-26T10:02:16.000Z</time>
      </trkpt>
      <trkpt lat="47.58256" lon="-2.29417">
        <ele>7.8000001907349</ele>
        <time>2020-07-26T10:02:19.000Z</time>
      </trkpt>
      <trkpt lat="47.58257" lon="-2.29417">
        <ele>8.1999998092651</ele>
        <time>2020-07-26T10:02:20.000Z</time>
      </trkpt>
      <trkpt lat="47.58258" lon="-2.29419">
        <ele>8.6000003814697</ele>
        <time>2020-07-26T10:02:21.000Z</time>
      </trkpt>
      <trkpt lat="47.58259" lon="-2.2942">
        <ele>9</ele>
        <time>2020-07-26T10:02:22.000Z</time>
      </trkpt>
      <trkpt lat="47.5826" lon="-2.29422">
        <ele>9.3999996185303</ele>
        <time>2020-07-26T10:02:23.000Z</time>
      </trkpt>
      <trkpt lat="47.58261" lon="-2.29423">
        <ele>9.3999996185303</ele>
        <time>2020-07-26T10:02:24.000Z</time>
      </trkpt>
      <trkpt lat="47.58267" lon="-2.29429">
        <ele>9.8000001907349</ele>
        <time>2020-07-26T10:02:29.000Z</time>
      </trkpt>
      <trkpt lat="47.58269" lon="-2.2943">
        <ele>10.199999809265</ele>
        <time>2020-07-26T10:02:30.000Z</time>
      </trkpt>
      <trkpt lat="47.58271" lon="-2.2943">
        <ele>10.800000190735</ele>
        <time>2020-07-26T10:02:31.000Z</time>
      </trkpt>
      <trkpt lat="47.58273" lon="-2.29432">
        <ele>11.199999809265</ele>
        <time>2020-07-26T10:02:32.000Z</time>
      </trkpt>
      <trkpt lat="47.58276" lon="-2.29434">
        <ele>11.60000038147</ele>
        <time>2020-07-26T10:02:33.000Z</time>
      </trkpt>
      <trkpt lat="47.58282" lon="-2.29439">
        <ele>12</ele>
        <time>2020-07-26T10:02:36.000Z</time>
      </trkpt>
      <trkpt lat="47.58285" lon="-2.2944">
        <ele>12.39999961853</ele>
        <time>2020-07-26T10:02:37.000Z</time>
      </trkpt>
      <trkpt lat="47.58288" lon="-2.29441">
        <ele>12.800000190735</ele>
        <time>2020-07-26T10:02:38.000Z</time>
      </trkpt>
      <trkpt lat="47.58291" lon="-2.29442">
        <ele>13.199999809265</ele>
        <time>2020-07-26T10:02:39.000Z</time>
      </trkpt>
      <trkpt lat="47.58295" lon="-2.29444">
        <ele>13.60000038147</ele>
        <time>2020-07-26T10:02:40.000Z</time>
      </trkpt>
      <trkpt lat="47.5831" lon="-2.29451">
        <ele>14.199999809265</ele>
        <time>2020-07-26T10:02:45.000Z</time>
      </trkpt>
      <trkpt lat="47.58313" lon="-2.29453">
        <ele>14.60000038147</ele>
        <time>2020-07-26T10:02:46.000Z</time>
      </trkpt>
      <trkpt lat="47.58316" lon="-2.29454">
        <ele>15</ele>
        <time>2020-07-26T10:02:47.000Z</time>
      </trkpt>
      <trkpt lat="47.58319" lon="-2.29456">
        <ele>15.39999961853</ele>
        <time>2020-07-26T10:02:48.000Z</time>
      </trkpt>
      <trkpt lat="47.58322" lon="-2.29458">
        <ele>15.800000190735</ele>
        <time>2020-07-26T10:02:49.000Z</time>
      </trkpt>
      <trkpt lat="47.58337" lon="-2.29464">
        <ele>15.800000190735</ele>
        <time>2020-07-26T10:02:54.000Z</time>
      </trkpt>
      <trkpt lat="47.58343" lon="-2.29465">
        <ele>16.200000762939</ele>
        <time>2020-07-26T10:02:56.000Z</time>
      </trkpt>
      <trkpt lat="47.58345" lon="-2.29466">
        <ele>16.60000038147</ele>
        <time>2020-07-26T10:02:57.000Z</time>
      </trkpt>
      <trkpt lat="47.58348" lon="-2.29467">
        <ele>17</ele>
        <time>2020-07-26T10:02:58.000Z</time>
      </trkpt>
      <trkpt lat="47.58351" lon="-2.29468">
        <ele>17.39999961853</ele>
        <time>2020-07-26T10:02:59.000Z</time>
      </trkpt>
      <trkpt lat="47.58354" lon="-2.29468">
        <ele>17.799999237061</ele>
        <time>2020-07-26T10:03:00.000Z</time>
      </trkpt>
      <trkpt lat="47.58358" lon="-2.29468">
        <ele>17.799999237061</ele>
        <time>2020-07-26T10:03:01.000Z</time>
      </trkpt>
      <trkpt lat="47.58378" lon="-2.29471">
        <ele>17.799999237061</ele>
        <time>2020-07-26T10:03:08.000Z</time>
      </trkpt>
      <trkpt lat="47.58381" lon="-2.29471">
        <ele>18.200000762939</ele>
        <time>2020-07-26T10:03:09.000Z</time>
      </trkpt>
      <trkpt lat="47.58384" lon="-2.29471">
        <ele>18.60000038147</ele>
        <time>2020-07-26T10:03:10.000Z</time>
      </trkpt>
      <trkpt lat="47.58386" lon="-2.29471">
        <ele>19.200000762939</ele>
        <time>2020-07-26T10:03:11.000Z</time>
      </trkpt>
      <trkpt lat="47.58389" lon="-2.29472">
        <ele>19.60000038147</ele>
        <time>2020-07-26T10:03:12.000Z</time>
      </trkpt>
      <trkpt lat="47.58392" lon="-2.29472">
        <ele>20</ele>
        <time>2020-07-26T10:03:13.000Z</time>
      </trkpt>
      <trkpt lat="47.58395" lon="-2.29473">
        <ele>20</ele>
        <time>2020-07-26T10:03:14.000Z</time>
      </trkpt>
      <trkpt lat="47.58411" lon="-2.29473">
        <ele>20.39999961853</ele>
        <time>2020-07-26T10:03:20.000Z</time>
      </trkpt>
      <trkpt lat="47.58414" lon="-2.29473">
        <ele>20.799999237061</ele>
        <time>2020-07-26T10:03:21.000Z</time>
      </trkpt>
      <trkpt lat="47.58417" lon="-2.29474">
        <ele>21.200000762939</ele>
        <time>2020-07-26T10:03:22.000Z</time>
      </trkpt>
      <trkpt lat="47.58419" lon="-2.29475">
        <ele>21.60000038147</ele>
        <time>2020-07-26T10:03:23.000Z</time>
      </trkpt>
      <trkpt lat="47.58421" lon="-2.29475">
        <ele>22</ele>
        <time>2020-07-26T10:03:24.000Z</time>
      </trkpt>
      <trkpt lat="47.58436" lon="-2.29475">
        <ele>22</ele>
        <time>2020-07-26T10:03:29.000Z</time>
      </trkpt>
      <trkpt lat="47.58449" lon="-2.29473">
        <ele>22.39999961853</ele>
        <time>2020-07-26T10:03:34.000Z</time>
      </trkpt>
      <trkpt lat="47.58452" lon="-2.29472">
        <ele>23</ele>
        <time>2020-07-26T10:03:35.000Z</time>
      </trkpt>
      <trkpt lat="47.58455" lon="-2.29471">
        <ele>23.39999961853</ele>
        <time>2020-07-26T10:03:36.000Z</time>
      </trkpt>
      <trkpt lat="47.58459" lon="-2.29469">
        <ele>23.799999237061</ele>
        <time>2020-07-26T10:03:37.000Z</time>
      </trkpt>
      <trkpt lat="47.58462" lon="-2.29468">
        <ele>24.200000762939</ele>
        <time>2020-07-26T10:03:38.000Z</time>
      </trkpt>
      <trkpt lat="47.58482" lon="-2.29463">
        <ele>24.60000038147</ele>
        <time>2020-07-26T10:03:45.000Z</time>
      </trkpt>
      <trkpt lat="47.58485" lon="-2.29463">
        <ele>25</ele>
        <time>2020-07-26T10:03:46.000Z</time>
      </trkpt>
      <trkpt lat="47.58488" lon="-2.29463">
        <ele>25.39999961853</ele>
        <time>2020-07-26T10:03:47.000Z</time>
      </trkpt>
      <trkpt lat="47.5849" lon="-2.29463">
        <ele>25.799999237061</ele>
        <time>2020-07-26T10:03:48.000Z</time>
      </trkpt>
      <trkpt lat="47.58492" lon="-2.29463">
        <ele>26.200000762939</ele>
        <time>2020-07-26T10:03:49.000Z</time>
      </trkpt>
      <trkpt lat="47.58494" lon="-2.29462">
        <ele>26.200000762939</ele>
        <time>2020-07-26T10:03:50.000Z</time>
      </trkpt>
      <trkpt lat="47.58498" lon="-2.29463">
        <ele>26.200000762939</ele>
        <time>2020-07-26T10:03:54.000Z</time>
      </trkpt>
      <trkpt lat="47.58502" lon="-2.29466">
        <ele>26.200000762939</ele>
        <time>2020-07-26T10:04:10.000Z</time>
      </trkpt>
      <trkpt lat="47.58511" lon="-2.29477">
        <ele>26.200000762939</ele>
        <time>2020-07-26T10:04:14.000Z</time>
      </trkpt>
      <trkpt lat="47.58513" lon="-2.29493">
        <ele>26.200000762939</ele>
        <time>2020-07-26T10:04:19.000Z</time>
      </trkpt>
      <trkpt lat="47.58518" lon="-2.2952">
        <ele>26.799999237061</ele>
        <time>2020-07-26T10:04:26.000Z</time>
      </trkpt>
      <trkpt lat="47.58519" lon="-2.29525">
        <ele>27.200000762939</ele>
        <time>2020-07-26T10:04:27.000Z</time>
      </trkpt>
      <trkpt lat="47.58519" lon="-2.29529">
        <ele>27.60000038147</ele>
        <time>2020-07-26T10:04:28.000Z</time>
      </trkpt>
      <trkpt lat="47.58519" lon="-2.29533">
        <ele>28</ele>
        <time>2020-07-26T10:04:29.000Z</time>
      </trkpt>
      <trkpt lat="47.5852" lon="-2.29537">
        <ele>28.60000038147</ele>
        <time>2020-07-26T10:04:30.000Z</time>
      </trkpt>
      <trkpt lat="47.58523" lon="-2.29545">
        <ele>29</ele>
        <time>2020-07-26T10:04:32.000Z</time>
      </trkpt>
      <trkpt lat="47.58524" lon="-2.29548">
        <ele>29.39999961853</ele>
        <time>2020-07-26T10:04:33.000Z</time>
      </trkpt>
      <trkpt lat="47.58525" lon="-2.29551">
        <ele>29.799999237061</ele>
        <time>2020-07-26T10:04:34.000Z</time>
      </trkpt>
      <trkpt lat="47.58526" lon="-2.29555">
        <ele>30.200000762939</ele>
        <time>2020-07-26T10:04:35.000Z</time>
      </trkpt>
      <trkpt lat="47.58527" lon="-2.29558">
        <ele>30.60000038147</ele>
        <time>2020-07-26T10:04:36.000Z</time>
      </trkpt>
      <trkpt lat="47.5853" lon="-2.29566">
        <ele>31.200000762939</ele>
        <time>2020-07-26T10:04:39.000Z</time>
      </trkpt>
      <trkpt lat="47.58531" lon="-2.29569">
        <ele>31.60000038147</ele>
        <time>2020-07-26T10:04:40.000Z</time>
      </trkpt>
      <trkpt lat="47.58533" lon="-2.29572">
        <ele>32</ele>
        <time>2020-07-26T10:04:41.000Z</time>
      </trkpt>
      <trkpt lat="47.58534" lon="-2.29576">
        <ele>32.599998474121</ele>
        <time>2020-07-26T10:04:42.000Z</time>
      </trkpt>
      <trkpt lat="47.58536" lon="-2.2958">
        <ele>33</ele>
        <time>2020-07-26T10:04:43.000Z</time>
      </trkpt>
      <trkpt lat="47.58542" lon="-2.29587">
        <ele>33.400001525879</ele>
        <time>2020-07-26T10:04:46.000Z</time>
      </trkpt>
      <trkpt lat="47.58544" lon="-2.29589">
        <ele>33.799999237061</ele>
        <time>2020-07-26T10:04:47.000Z</time>
      </trkpt>
      <trkpt lat="47.58545" lon="-2.2959">
        <ele>34.400001525879</ele>
        <time>2020-07-26T10:04:48.000Z</time>
      </trkpt>
      <trkpt lat="47.58548" lon="-2.29591">
        <ele>34.799999237061</ele>
        <time>2020-07-26T10:04:49.000Z</time>
      </trkpt>
      <trkpt lat="47.5855" lon="-2.29593">
        <ele>35.200000762939</ele>
        <time>2020-07-26T10:04:50.000Z</time>
      </trkpt>
      <trkpt lat="47.58552" lon="-2.29594">
        <ele>35.200000762939</ele>
        <time>2020-07-26T10:04:51.000Z</time>
      </trkpt>
      <trkpt lat="47.58555" lon="-2.29597">
        <ele>35.599998474121</ele>
        <time>2020-07-26T10:04:53.000Z</time>
      </trkpt>
      <trkpt lat="47.58557" lon="-2.29598">
        <ele>36</ele>
        <time>2020-07-26T10:04:54.000Z</time>
      </trkpt>
      <trkpt lat="47.58559" lon="-2.29599">
        <ele>36.400001525879</ele>
        <time>2020-07-26T10:04:55.000Z</time>
      </trkpt>
      <trkpt lat="47.58561" lon="-2.296">
        <ele>37</ele>
        <time>2020-07-26T10:04:56.000Z</time>
      </trkpt>
      <trkpt lat="47.58563" lon="-2.29601">
        <ele>37.400001525879</ele>
        <time>2020-07-26T10:04:57.000Z</time>
      </trkpt>
      <trkpt lat="47.58565" lon="-2.29601">
        <ele>37.400001525879</ele>
        <time>2020-07-26T10:04:58.000Z</time>
      </trkpt>
      <trkpt lat="47.58569" lon="-2.29602">
        <ele>37.799999237061</ele>
        <time>2020-07-26T10:05:01.000Z</time>
      </trkpt>
      <trkpt lat="47.58571" lon="-2.29602">
        <ele>38.200000762939</ele>
        <time>2020-07-26T10:05:02.000Z</time>
      </trkpt>
      <trkpt lat="47.58573" lon="-2.29601">
        <ele>38.599998474121</ele>
        <time>2020-07-26T10:05:03.000Z</time>
      </trkpt>
      <trkpt lat="47.58576" lon="-2.296">
        <ele>39</ele>
        <time>2020-07-26T10:05:04.000Z</time>
      </trkpt>
      <trkpt lat="47.58579" lon="-2.296">
        <ele>39.400001525879</ele>
        <time>2020-07-26T10:05:05.000Z</time>
      </trkpt>
      <trkpt lat="47.58581" lon="-2.296">
        <ele>39.400001525879</ele>
        <time>2020-07-26T10:05:06.000Z</time>
      </trkpt>
      <trkpt lat="47.58596" lon="-2.29601">
        <ele>39.400001525879</ele>
        <time>2020-07-26T10:05:12.000Z</time>
      </trkpt>
      <trkpt lat="47.58599" lon="-2.29601">
        <ele>39.799999237061</ele>
        <time>2020-07-26T10:05:13.000Z</time>
      </trkpt>
      <trkpt lat="47.586" lon="-2.29601">
        <ele>40.200000762939</ele>
        <time>2020-07-26T10:05:14.000Z</time>
      </trkpt>
      <trkpt lat="47.58603" lon="-2.29601">
        <ele>40.599998474121</ele>
        <time>2020-07-26T10:05:15.000Z</time>
      </trkpt>
      <trkpt lat="47.58606" lon="-2.29601">
        <ele>41</ele>
        <time>2020-07-26T10:05:16.000Z</time>
      </trkpt>
      <trkpt lat="47.58608" lon="-2.29602">
        <ele>41.400001525879</ele>
        <time>2020-07-26T10:05:17.000Z</time>
      </trkpt>
      <trkpt lat="47.58629" lon="-2.29609">
        <ele>41.400001525879</ele>
        <time>2020-07-26T10:05:24.000Z</time>
      </trkpt>
      <trkpt lat="47.58645" lon="-2.29623">
        <ele>42</ele>
        <time>2020-07-26T10:05:30.000Z</time>
      </trkpt>
      <trkpt lat="47.58648" lon="-2.29626">
        <ele>42.400001525879</ele>
        <time>2020-07-26T10:05:31.000Z</time>
      </trkpt>
      <trkpt lat="47.58651" lon="-2.29628">
        <ele>42.799999237061</ele>
        <time>2020-07-26T10:05:32.000Z</time>
      </trkpt>
      <trkpt lat="47.58654" lon="-2.2963">
        <ele>43.200000762939</ele>
        <time>2020-07-26T10:05:33.000Z</time>
      </trkpt>
      <trkpt lat="47.58659" lon="-2.29633">
        <ele>43.599998474121</ele>
        <time>2020-07-26T10:05:34.000Z</time>
      </trkpt>
      <trkpt lat="47.58669" lon="-2.29639">
        <ele>43.599998474121</ele>
        <time>2020-07-26T10:05:37.000Z</time>
      </trkpt>
      <trkpt lat="47.58686" lon="-2.29658">
        <ele>43.599998474121</ele>
        <time>2020-07-26T10:05:43.000Z</time>
      </trkpt>
      <trkpt lat="47.58703" lon="-2.29679">
        <ele>43.599998474121</ele>
        <time>2020-07-26T10:05:49.000Z</time>
      </trkpt>
      <trkpt lat="47.58717" lon="-2.29697">
        <ele>43.599998474121</ele>
        <time>2020-07-26T10:05:55.000Z</time>
      </trkpt>
      <trkpt lat="47.58734" lon="-2.29713">
        <ele>43.599998474121</ele>
        <time>2020-07-26T10:06:00.000Z</time>
      </trkpt>
      <trkpt lat="47.58738" lon="-2.29717">
        <ele>43.599998474121</ele>
        <time>2020-07-26T10:06:01.000Z</time>
      </trkpt>
      <trkpt lat="47.58762" lon="-2.29734">
        <ele>43.599998474121</ele>
        <time>2020-07-26T10:06:07.000Z</time>
      </trkpt>
      <trkpt lat="47.58792" lon="-2.29754">
        <ele>43.599998474121</ele>
        <time>2020-07-26T10:06:15.000Z</time>
      </trkpt>
      <trkpt lat="47.58819" lon="-2.29779">
        <ele>43.599998474121</ele>
        <time>2020-07-26T10:06:21.000Z</time>
      </trkpt>
      <trkpt lat="47.58824" lon="-2.29785">
        <ele>43.599998474121</ele>
        <time>2020-07-26T10:06:22.000Z</time>
      </trkpt>
      <trkpt lat="47.58831" lon="-2.298">
        <ele>43.200000762939</ele>
        <time>2020-07-26T10:06:24.000Z</time>
      </trkpt>
      <trkpt lat="47.58834" lon="-2.29809">
        <ele>42.799999237061</ele>
        <time>2020-07-26T10:06:25.000Z</time>
      </trkpt>
      <trkpt lat="47.58835" lon="-2.29818">
        <ele>42.200000762939</ele>
        <time>2020-07-26T10:06:26.000Z</time>
      </trkpt>
      <trkpt lat="47.58837" lon="-2.29827">
        <ele>41.799999237061</ele>
        <time>2020-07-26T10:06:27.000Z</time>
      </trkpt>
      <trkpt lat="47.58838" lon="-2.29836">
        <ele>41.400001525879</ele>
        <time>2020-07-26T10:06:28.000Z</time>
      </trkpt>
      <trkpt lat="47.58839" lon="-2.29855">
        <ele>41.400001525879</ele>
        <time>2020-07-26T10:06:30.000Z</time>
      </trkpt>
      <trkpt lat="47.58841" lon="-2.29895">
        <ele>41.400001525879</ele>
        <time>2020-07-26T10:06:35.000Z</time>
      </trkpt>
      <trkpt lat="47.58844" lon="-2.29909">
        <ele>41.400001525879</ele>
        <time>2020-07-26T10:06:39.000Z</time>
      </trkpt>
      <trkpt lat="47.58848" lon="-2.29924">
        <ele>41.400001525879</ele>
        <time>2020-07-26T10:06:45.000Z</time>
      </trkpt>
      <trkpt lat="47.58857" lon="-2.29946">
        <ele>41.400001525879</ele>
        <time>2020-07-26T10:06:52.000Z</time>
      </trkpt>
      <trkpt lat="47.58869" lon="-2.29971">
        <ele>41.400001525879</ele>
        <time>2020-07-26T10:06:58.000Z</time>
      </trkpt>
      <trkpt lat="47.58878" lon="-2.29996">
        <ele>41.400001525879</ele>
        <time>2020-07-26T10:07:03.000Z</time>
      </trkpt>
      <trkpt lat="47.58887" lon="-2.30014">
        <ele>41.400001525879</ele>
        <time>2020-07-26T10:07:08.000Z</time>
      </trkpt>
      <trkpt lat="47.589" lon="-2.30037">
        <ele>41.400001525879</ele>
        <time>2020-07-26T10:07:14.000Z</time>
      </trkpt>
      <trkpt lat="47.58914" lon="-2.30063">
        <ele>41.400001525879</ele>
        <time>2020-07-26T10:07:21.000Z</time>
      </trkpt>
      <trkpt lat="47.58914" lon="-2.3007">
        <ele>41.400001525879</ele>
        <time>2020-07-26T10:07:24.000Z</time>
      </trkpt>
      <trkpt lat="47.58913" lon="-2.30072">
        <ele>41.400001525879</ele>
        <time>2020-07-26T10:07:25.000Z</time>
      </trkpt>
      <trkpt lat="47.58908" lon="-2.30079">
        <ele>41.799999237061</ele>
        <time>2020-07-26T10:07:29.000Z</time>
      </trkpt>
      <trkpt lat="47.58907" lon="-2.3008">
        <ele>42.200000762939</ele>
        <time>2020-07-26T10:07:30.000Z</time>
      </trkpt>
      <trkpt lat="47.58905" lon="-2.30082">
        <ele>42.799999237061</ele>
        <time>2020-07-26T10:07:31.000Z</time>
      </trkpt>
      <trkpt lat="47.58904" lon="-2.30084">
        <ele>43.200000762939</ele>
        <time>2020-07-26T10:07:32.000Z</time>
      </trkpt>
      <trkpt lat="47.58903" lon="-2.30085">
        <ele>43.599998474121</ele>
        <time>2020-07-26T10:07:33.000Z</time>
      </trkpt>
      <trkpt lat="47.58894" lon="-2.30096">
        <ele>43.599998474121</ele>
        <time>2020-07-26T10:07:40.000Z</time>
      </trkpt>
      <trkpt lat="47.58888" lon="-2.301">
        <ele>43.599998474121</ele>
        <time>2020-07-26T10:07:47.000Z</time>
      </trkpt>
      <trkpt lat="47.58885" lon="-2.30102">
        <ele>43.599998474121</ele>
        <time>2020-07-26T10:07:51.000Z</time>
      </trkpt>
      <trkpt lat="47.58884" lon="-2.30105">
        <ele>43.599998474121</ele>
        <time>2020-07-26T10:09:59.000Z</time>
      </trkpt>
      <trkpt lat="47.58885" lon="-2.30105">
        <ele>43.599998474121</ele>
        <time>2020-07-26T10:10:00.000Z</time>
      </trkpt>
      <trkpt lat="47.5889" lon="-2.30118">
        <ele>43.599998474121</ele>
        <time>2020-07-26T10:10:05.000Z</time>
      </trkpt>
      <trkpt lat="47.5889" lon="-2.30121">
        <ele>43.599998474121</ele>
        <time>2020-07-26T10:10:06.000Z</time>
      </trkpt>
      <trkpt lat="47.58891" lon="-2.30125">
        <ele>43.599998474121</ele>
        <time>2020-07-26T10:10:07.000Z</time>
      </trkpt>
      <trkpt lat="47.58894" lon="-2.30139">
        <ele>43.599998474121</ele>
        <time>2020-07-26T10:10:11.000Z</time>
      </trkpt>
      <trkpt lat="47.58896" lon="-2.30143">
        <ele>44</ele>
        <time>2020-07-26T10:10:12.000Z</time>
      </trkpt>
      <trkpt lat="47.58897" lon="-2.30146">
        <ele>44.400001525879</ele>
        <time>2020-07-26T10:10:13.000Z</time>
      </trkpt>
      <trkpt lat="47.58899" lon="-2.30149">
        <ele>44.799999237061</ele>
        <time>2020-07-26T10:10:14.000Z</time>
      </trkpt>
      <trkpt lat="47.58901" lon="-2.30152">
        <ele>45.799999237061</ele>
        <time>2020-07-26T10:10:15.000Z</time>
      </trkpt>
      <trkpt lat="47.58908" lon="-2.30163">
        <ele>45.799999237061</ele>
        <time>2020-07-26T10:10:18.000Z</time>
      </trkpt>
      <trkpt lat="47.58922" lon="-2.30182">
        <ele>46.200000762939</ele>
        <time>2020-07-26T10:10:25.000Z</time>
      </trkpt>
      <trkpt lat="47.58925" lon="-2.30184">
        <ele>46.599998474121</ele>
        <time>2020-07-26T10:10:26.000Z</time>
      </trkpt>
      <trkpt lat="47.58926" lon="-2.30188">
        <ele>47</ele>
        <time>2020-07-26T10:10:27.000Z</time>
      </trkpt>
      <trkpt lat="47.58928" lon="-2.30191">
        <ele>47.400001525879</ele>
        <time>2020-07-26T10:10:28.000Z</time>
      </trkpt>
      <trkpt lat="47.5893" lon="-2.30194">
        <ele>47.799999237061</ele>
        <time>2020-07-26T10:10:29.000Z</time>
      </trkpt>
      <trkpt lat="47.58934" lon="-2.30202">
        <ele>47.799999237061</ele>
        <time>2020-07-26T10:10:31.000Z</time>
      </trkpt>
      <trkpt lat="47.58949" lon="-2.30222">
        <ele>48.200000762939</ele>
        <time>2020-07-26T10:10:36.000Z</time>
      </trkpt>
      <trkpt lat="47.58951" lon="-2.30226">
        <ele>48.599998474121</ele>
        <time>2020-07-26T10:10:37.000Z</time>
      </trkpt>
      <trkpt lat="47.58953" lon="-2.30229">
        <ele>49</ele>
        <time>2020-07-26T10:10:38.000Z</time>
      </trkpt>
      <trkpt lat="47.58956" lon="-2.30232">
        <ele>49.400001525879</ele>
        <time>2020-07-26T10:10:39.000Z</time>
      </trkpt>
      <trkpt lat="47.58957" lon="-2.30234">
        <ele>49.799999237061</ele>
        <time>2020-07-26T10:10:40.000Z</time>
      </trkpt>
      <trkpt lat="47.58964" lon="-2.30243">
        <ele>49.799999237061</ele>
        <time>2020-07-26T10:10:44.000Z</time>
      </trkpt>
      <trkpt lat="47.58968" lon="-2.30248">
        <ele>50.400001525879</ele>
        <time>2020-07-26T10:10:46.000Z</time>
      </trkpt>
      <trkpt lat="47.5897" lon="-2.3025">
        <ele>50.799999237061</ele>
        <time>2020-07-26T10:10:47.000Z</time>
      </trkpt>
      <trkpt lat="47.58973" lon="-2.30253">
        <ele>51.200000762939</ele>
        <time>2020-07-26T10:10:48.000Z</time>
      </trkpt>
      <trkpt lat="47.58975" lon="-2.30256">
        <ele>51.599998474121</ele>
        <time>2020-07-26T10:10:49.000Z</time>
      </trkpt>
      <trkpt lat="47.58977" lon="-2.3026">
        <ele>52</ele>
        <time>2020-07-26T10:10:50.000Z</time>
      </trkpt>
      <trkpt lat="47.58979" lon="-2.30263">
        <ele>52</ele>
        <time>2020-07-26T10:10:51.000Z</time>
      </trkpt>
      <trkpt lat="47.58993" lon="-2.30278">
        <ele>52</ele>
        <time>2020-07-26T10:10:58.000Z</time>
      </trkpt>
      <trkpt lat="47.58995" lon="-2.30281">
        <ele>52.400001525879</ele>
        <time>2020-07-26T10:10:59.000Z</time>
      </trkpt>
      <trkpt lat="47.58997" lon="-2.30285">
        <ele>52.799999237061</ele>
        <time>2020-07-26T10:11:00.000Z</time>
      </trkpt>
      <trkpt lat="47.59" lon="-2.30288">
        <ele>53.200000762939</ele>
        <time>2020-07-26T10:11:01.000Z</time>
      </trkpt>
      <trkpt lat="47.59002" lon="-2.3029">
        <ele>53.799999237061</ele>
        <time>2020-07-26T10:11:02.000Z</time>
      </trkpt>
      <trkpt lat="47.59004" lon="-2.30292">
        <ele>54.200000762939</ele>
        <time>2020-07-26T10:11:03.000Z</time>
      </trkpt>
      <trkpt lat="47.59007" lon="-2.30293">
        <ele>54.200000762939</ele>
        <time>2020-07-26T10:11:04.000Z</time>
      </trkpt>
      <trkpt lat="47.5901" lon="-2.303">
        <ele>54.200000762939</ele>
        <time>2020-07-26T10:11:07.000Z</time>
      </trkpt>
      <trkpt lat="47.59012" lon="-2.30304">
        <ele>54.200000762939</ele>
        <time>2020-07-26T10:11:09.000Z</time>
      </trkpt>
      <trkpt lat="47.59012" lon="-2.30307">
        <ele>54.599998474121</ele>
        <time>2020-07-26T10:11:10.000Z</time>
      </trkpt>
      <trkpt lat="47.59013" lon="-2.3031">
        <ele>55</ele>
        <time>2020-07-26T10:11:11.000Z</time>
      </trkpt>
      <trkpt lat="47.59013" lon="-2.30314">
        <ele>55.400001525879</ele>
        <time>2020-07-26T10:11:12.000Z</time>
      </trkpt>
      <trkpt lat="47.59013" lon="-2.30316">
        <ele>55.799999237061</ele>
        <time>2020-07-26T10:11:13.000Z</time>
      </trkpt>
      <trkpt lat="47.59014" lon="-2.30319">
        <ele>56.200000762939</ele>
        <time>2020-07-26T10:11:14.000Z</time>
      </trkpt>
      <trkpt lat="47.59014" lon="-2.30323">
        <ele>56.200000762939</ele>
        <time>2020-07-26T10:11:16.000Z</time>
      </trkpt>
      <trkpt lat="47.59011" lon="-2.30328">
        <ele>56.200000762939</ele>
        <time>2020-07-26T10:11:22.000Z</time>
      </trkpt>
      <trkpt lat="47.5901" lon="-2.30329">
        <ele>56.200000762939</ele>
        <time>2020-07-26T10:11:23.000Z</time>
      </trkpt>
      <trkpt lat="47.59004" lon="-2.30324">
        <ele>56.200000762939</ele>
        <time>2020-07-26T10:11:35.000Z</time>
      </trkpt>
      <trkpt lat="47.58997" lon="-2.30318">
        <ele>56.200000762939</ele>
        <time>2020-07-26T10:11:38.000Z</time>
      </trkpt>
      <trkpt lat="47.58992" lon="-2.3031">
        <ele>56.200000762939</ele>
        <time>2020-07-26T10:11:42.000Z</time>
      </trkpt>
      <trkpt lat="47.58991" lon="-2.30304">
        <ele>56.200000762939</ele>
        <time>2020-07-26T10:11:44.000Z</time>
      </trkpt>
      <trkpt lat="47.5899" lon="-2.30296">
        <ele>56.200000762939</ele>
        <time>2020-07-26T10:11:47.000Z</time>
      </trkpt>
      <trkpt lat="47.58987" lon="-2.30283">
        <ele>55.799999237061</ele>
        <time>2020-07-26T10:11:51.000Z</time>
      </trkpt>
      <trkpt lat="47.58986" lon="-2.3028">
        <ele>55.400001525879</ele>
        <time>2020-07-26T10:11:52.000Z</time>
      </trkpt>
      <trkpt lat="47.58985" lon="-2.30276">
        <ele>54.799999237061</ele>
        <time>2020-07-26T10:11:53.000Z</time>
      </trkpt>
      <trkpt lat="47.58983" lon="-2.30272">
        <ele>54</ele>
        <time>2020-07-26T10:11:54.000Z</time>
      </trkpt>
      <trkpt lat="47.58974" lon="-2.30257">
        <ele>53.599998474121</ele>
        <time>2020-07-26T10:11:58.000Z</time>
      </trkpt>
      <trkpt lat="47.58972" lon="-2.30255">
        <ele>53</ele>
        <time>2020-07-26T10:11:59.000Z</time>
      </trkpt>
      <trkpt lat="47.58969" lon="-2.30255">
        <ele>52.599998474121</ele>
        <time>2020-07-26T10:12:00.000Z</time>
      </trkpt>
      <trkpt lat="47.58966" lon="-2.30253">
        <ele>52</ele>
        <time>2020-07-26T10:12:01.000Z</time>
      </trkpt>
      <trkpt lat="47.58964" lon="-2.30251">
        <ele>51.599998474121</ele>
        <time>2020-07-26T10:12:02.000Z</time>
      </trkpt>
      <trkpt lat="47.58958" lon="-2.30248">
        <ele>51.599998474121</ele>
        <time>2020-07-26T10:12:04.000Z</time>
      </trkpt>
      <trkpt lat="47.58944" lon="-2.30254">
        <ele>51.599998474121</ele>
        <time>2020-07-26T10:12:09.000Z</time>
      </trkpt>
      <trkpt lat="47.58942" lon="-2.30258">
        <ele>51.200000762939</ele>
        <time>2020-07-26T10:12:10.000Z</time>
      </trkpt>
      <trkpt lat="47.5894" lon="-2.3026">
        <ele>50.799999237061</ele>
        <time>2020-07-26T10:12:11.000Z</time>
      </trkpt>
      <trkpt lat="47.58937" lon="-2.30262">
        <ele>50.400001525879</ele>
        <time>2020-07-26T10:12:12.000Z</time>
      </trkpt>
      <trkpt lat="47.58936" lon="-2.30266">
        <ele>50</ele>
        <time>2020-07-26T10:12:13.000Z</time>
      </trkpt>
      <trkpt lat="47.58935" lon="-2.30269">
        <ele>49.599998474121</ele>
        <time>2020-07-26T10:12:14.000Z</time>
      </trkpt>
      <trkpt lat="47.58934" lon="-2.30274">
        <ele>49.599998474121</ele>
        <time>2020-07-26T10:12:15.000Z</time>
      </trkpt>
      <trkpt lat="47.58933" lon="-2.30296">
        <ele>49.599998474121</ele>
        <time>2020-07-26T10:12:21.000Z</time>
      </trkpt>
      <trkpt lat="47.58932" lon="-2.30326">
        <ele>49.599998474121</ele>
        <time>2020-07-26T10:12:27.000Z</time>
      </trkpt>
      <trkpt lat="47.58932" lon="-2.30353">
        <ele>49.599998474121</ele>
        <time>2020-07-26T10:12:32.000Z</time>
      </trkpt>
      <trkpt lat="47.58936" lon="-2.30357">
        <ele>49.599998474121</ele>
        <time>2020-07-26T10:12:35.000Z</time>
      </trkpt>
      <trkpt lat="47.58942" lon="-2.3035">
        <ele>49.599998474121</ele>
        <time>2020-07-26T10:12:40.000Z</time>
      </trkpt>
      <trkpt lat="47.58941" lon="-2.30346">
        <ele>49.599998474121</ele>
        <time>2020-07-26T10:12:42.000Z</time>
      </trkpt>
      <trkpt lat="47.58938" lon="-2.30341">
        <ele>49.599998474121</ele>
        <time>2020-07-26T10:12:45.000Z</time>
      </trkpt>
      <trkpt lat="47.58932" lon="-2.30326">
        <ele>49.599998474121</ele>
        <time>2020-07-26T10:12:50.000Z</time>
      </trkpt>
      <trkpt lat="47.58932" lon="-2.30321">
        <ele>49.599998474121</ele>
        <time>2020-07-26T10:12:52.000Z</time>
      </trkpt>
      <trkpt lat="47.58936" lon="-2.30319">
        <ele>49.599998474121</ele>
        <time>2020-07-26T10:12:54.000Z</time>
      </trkpt>
      <trkpt lat="47.58938" lon="-2.30312">
        <ele>49.599998474121</ele>
        <time>2020-07-26T10:12:57.000Z</time>
      </trkpt>
      <trkpt lat="47.5894" lon="-2.30309">
        <ele>50</ele>
        <time>2020-07-26T10:12:58.000Z</time>
      </trkpt>
      <trkpt lat="47.58941" lon="-2.30307">
        <ele>50.400001525879</ele>
        <time>2020-07-26T10:12:59.000Z</time>
      </trkpt>
      <trkpt lat="47.58942" lon="-2.30305">
        <ele>50.799999237061</ele>
        <time>2020-07-26T10:13:00.000Z</time>
      </trkpt>
      <trkpt lat="47.58944" lon="-2.30304">
        <ele>51.200000762939</ele>
        <time>2020-07-26T10:13:01.000Z</time>
      </trkpt>
      <trkpt lat="47.58946" lon="-2.30304">
        <ele>51.599998474121</ele>
        <time>2020-07-26T10:13:02.000Z</time>
      </trkpt>
      <trkpt lat="47.58951" lon="-2.30308">
        <ele>51.599998474121</ele>
        <time>2020-07-26T10:13:04.000Z</time>
      </trkpt>
      <trkpt lat="47.58952" lon="-2.30309">
        <ele>51.599998474121</ele>
        <time>2020-07-26T10:13:05.000Z</time>
      </trkpt>
      <trkpt lat="47.58955" lon="-2.30312">
        <ele>52</ele>
        <time>2020-07-26T10:13:07.000Z</time>
      </trkpt>
      <trkpt lat="47.58956" lon="-2.30315">
        <ele>52.400001525879</ele>
        <time>2020-07-26T10:13:08.000Z</time>
      </trkpt>
      <trkpt lat="47.58957" lon="-2.30317">
        <ele>53.200000762939</ele>
        <time>2020-07-26T10:13:09.000Z</time>
      </trkpt>
      <trkpt lat="47.58957" lon="-2.3032">
        <ele>53.599998474121</ele>
        <time>2020-07-26T10:13:10.000Z</time>
      </trkpt>
      <trkpt lat="47.58962" lon="-2.30336">
        <ele>53.599998474121</ele>
        <time>2020-07-26T10:13:17.000Z</time>
      </trkpt>
      <trkpt lat="47.58964" lon="-2.3034">
        <ele>54</ele>
        <time>2020-07-26T10:13:19.000Z</time>
      </trkpt>
      <trkpt lat="47.58965" lon="-2.30341">
        <ele>54.599998474121</ele>
        <time>2020-07-26T10:13:20.000Z</time>
      </trkpt>
      <trkpt lat="47.58966" lon="-2.30342">
        <ele>55</ele>
        <time>2020-07-26T10:13:21.000Z</time>
      </trkpt>
      <trkpt lat="47.58967" lon="-2.30344">
        <ele>55.400001525879</ele>
        <time>2020-07-26T10:13:22.000Z</time>
      </trkpt>
      <trkpt lat="47.58968" lon="-2.30345">
        <ele>55.799999237061</ele>
        <time>2020-07-26T10:13:23.000Z</time>
      </trkpt>
      <trkpt lat="47.58969" lon="-2.30347">
        <ele>55.799999237061</ele>
        <time>2020-07-26T10:13:24.000Z</time>
      </trkpt>
      <trkpt lat="47.5897" lon="-2.30353">
        <ele>55.799999237061</ele>
        <time>2020-07-26T10:13:26.000Z</time>
      </trkpt>
      <trkpt lat="47.58972" lon="-2.3036">
        <ele>55.799999237061</ele>
        <time>2020-07-26T10:13:28.000Z</time>
      </trkpt>
      <trkpt lat="47.58975" lon="-2.30368">
        <ele>55.799999237061</ele>
        <time>2020-07-26T10:13:31.000Z</time>
      </trkpt>
      <trkpt lat="47.58981" lon="-2.30376">
        <ele>55.799999237061</ele>
        <time>2020-07-26T10:13:35.000Z</time>
      </trkpt>
      <trkpt lat="47.58986" lon="-2.30385">
        <ele>55.799999237061</ele>
        <time>2020-07-26T10:13:40.000Z</time>
      </trkpt>
      <trkpt lat="47.58988" lon="-2.30391">
        <ele>55.799999237061</ele>
        <time>2020-07-26T10:13:42.000Z</time>
      </trkpt>
      <trkpt lat="47.58987" lon="-2.304">
        <ele>55.799999237061</ele>
        <time>2020-07-26T10:13:45.000Z</time>
      </trkpt>
      <trkpt lat="47.58987" lon="-2.30403">
        <ele>55.799999237061</ele>
        <time>2020-07-26T10:13:47.000Z</time>
      </trkpt>
      <trkpt lat="47.58985" lon="-2.30416">
        <ele>55.400001525879</ele>
        <time>2020-07-26T10:13:52.000Z</time>
      </trkpt>
      <trkpt lat="47.58987" lon="-2.30419">
        <ele>55</ele>
        <time>2020-07-26T10:13:53.000Z</time>
      </trkpt>
      <trkpt lat="47.58988" lon="-2.30421">
        <ele>54.400001525879</ele>
        <time>2020-07-26T10:13:54.000Z</time>
      </trkpt>
      <trkpt lat="47.58988" lon="-2.30421">
        <ele>54</ele>
        <time>2020-07-26T10:13:55.000Z</time>
      </trkpt>
      <trkpt lat="47.5899" lon="-2.30423">
        <ele>53.599998474121</ele>
        <time>2020-07-26T10:13:56.000Z</time>
      </trkpt>
      <trkpt lat="47.58992" lon="-2.30421">
        <ele>53.599998474121</ele>
        <time>2020-07-26T10:13:58.000Z</time>
      </trkpt>
      <trkpt lat="47.59" lon="-2.30414">
        <ele>53.599998474121</ele>
        <time>2020-07-26T10:14:03.000Z</time>
      </trkpt>
      <trkpt lat="47.59011" lon="-2.30422">
        <ele>53.599998474121</ele>
        <time>2020-07-26T10:14:08.000Z</time>
      </trkpt>
      <trkpt lat="47.59015" lon="-2.30431">
        <ele>53.599998474121</ele>
        <time>2020-07-26T10:14:11.000Z</time>
      </trkpt>
      <trkpt lat="47.59018" lon="-2.30435">
        <ele>53.599998474121</ele>
        <time>2020-07-26T10:14:12.000Z</time>
      </trkpt>
      <trkpt lat="47.5902" lon="-2.30436">
        <ele>53.599998474121</ele>
        <time>2020-07-26T10:14:13.000Z</time>
      </trkpt>
      <trkpt lat="47.5903" lon="-2.30439">
        <ele>53.599998474121</ele>
        <time>2020-07-26T10:14:18.000Z</time>
      </trkpt>
      <trkpt lat="47.59031" lon="-2.30439">
        <ele>53.599998474121</ele>
        <time>2020-07-26T10:14:19.000Z</time>
      </trkpt>
      <trkpt lat="47.59033" lon="-2.30441">
        <ele>53.599998474121</ele>
        <time>2020-07-26T10:14:20.000Z</time>
      </trkpt>
      <trkpt lat="47.59038" lon="-2.30448">
        <ele>53.599998474121</ele>
        <time>2020-07-26T10:14:23.000Z</time>
      </trkpt>
      <trkpt lat="47.59044" lon="-2.30459">
        <ele>53.599998474121</ele>
        <time>2020-07-26T10:14:29.000Z</time>
      </trkpt>
      <trkpt lat="47.59048" lon="-2.30467">
        <ele>53.599998474121</ele>
        <time>2020-07-26T10:14:32.000Z</time>
      </trkpt>
      <trkpt lat="47.59049" lon="-2.30469">
        <ele>53.599998474121</ele>
        <time>2020-07-26T10:14:34.000Z</time>
      </trkpt>
      <trkpt lat="47.59049" lon="-2.30469">
        <ele>53.599998474121</ele>
        <time>2020-07-26T10:14:35.000Z</time>
      </trkpt>
      <trkpt lat="47.59052" lon="-2.30477">
        <ele>53.599998474121</ele>
        <time>2020-07-26T10:15:22.000Z</time>
      </trkpt>
      <trkpt lat="47.59054" lon="-2.30481">
        <ele>53.599998474121</ele>
        <time>2020-07-26T10:15:23.000Z</time>
      </trkpt>
      <trkpt lat="47.59057" lon="-2.30499">
        <ele>53.599998474121</ele>
        <time>2020-07-26T10:15:28.000Z</time>
      </trkpt>
      <trkpt lat="47.59056" lon="-2.30504">
        <ele>53.599998474121</ele>
        <time>2020-07-26T10:15:29.000Z</time>
      </trkpt>
      <trkpt lat="47.59048" lon="-2.30519">
        <ele>53.599998474121</ele>
        <time>2020-07-26T10:15:33.000Z</time>
      </trkpt>
      <trkpt lat="47.59038" lon="-2.3053">
        <ele>53.599998474121</ele>
        <time>2020-07-26T10:15:36.000Z</time>
      </trkpt>
      <trkpt lat="47.59032" lon="-2.30536">
        <ele>53.599998474121</ele>
        <time>2020-07-26T10:15:38.000Z</time>
      </trkpt>
      <trkpt lat="47.59017" lon="-2.3055">
        <ele>53.599998474121</ele>
        <time>2020-07-26T10:15:43.000Z</time>
      </trkpt>
      <trkpt lat="47.59013" lon="-2.30552">
        <ele>54</ele>
        <time>2020-07-26T10:15:45.000Z</time>
      </trkpt>
      <trkpt lat="47.59011" lon="-2.30553">
        <ele>54.400001525879</ele>
        <time>2020-07-26T10:15:46.000Z</time>
      </trkpt>
      <trkpt lat="47.59009" lon="-2.30555">
        <ele>55</ele>
        <time>2020-07-26T10:15:47.000Z</time>
      </trkpt>
      <trkpt lat="47.59007" lon="-2.30557">
        <ele>55.400001525879</ele>
        <time>2020-07-26T10:15:48.000Z</time>
      </trkpt>
      <trkpt lat="47.59004" lon="-2.3056">
        <ele>55.799999237061</ele>
        <time>2020-07-26T10:15:49.000Z</time>
      </trkpt>
      <trkpt lat="47.58991" lon="-2.30571">
        <ele>55.799999237061</ele>
        <time>2020-07-26T10:15:53.000Z</time>
      </trkpt>
      <trkpt lat="47.58971" lon="-2.30596">
        <ele>55.799999237061</ele>
        <time>2020-07-26T10:16:00.000Z</time>
      </trkpt>
      <trkpt lat="47.58969" lon="-2.30601">
        <ele>56.200000762939</ele>
        <time>2020-07-26T10:16:01.000Z</time>
      </trkpt>
      <trkpt lat="47.58967" lon="-2.30605">
        <ele>57</ele>
        <time>2020-07-26T10:16:02.000Z</time>
      </trkpt>
      <trkpt lat="47.58965" lon="-2.3061">
        <ele>57.400001525879</ele>
        <time>2020-07-26T10:16:03.000Z</time>
      </trkpt>
      <trkpt lat="47.58963" lon="-2.30614">
        <ele>57.799999237061</ele>
        <time>2020-07-26T10:16:04.000Z</time>
      </trkpt>
      <trkpt lat="47.58961" lon="-2.30617">
        <ele>57.799999237061</ele>
        <time>2020-07-26T10:16:05.000Z</time>
      </trkpt>
      <trkpt lat="47.58944" lon="-2.30644">
        <ele>57.799999237061</ele>
        <time>2020-07-26T10:16:13.000Z</time>
      </trkpt>
      <trkpt lat="47.58932" lon="-2.30667">
        <ele>58.200000762939</ele>
        <time>2020-07-26T10:16:19.000Z</time>
      </trkpt>
      <trkpt lat="47.5893" lon="-2.30671">
        <ele>58.599998474121</ele>
        <time>2020-07-26T10:16:20.000Z</time>
      </trkpt>
      <trkpt lat="47.58928" lon="-2.30674">
        <ele>59</ele>
        <time>2020-07-26T10:16:21.000Z</time>
      </trkpt>
      <trkpt lat="47.58927" lon="-2.30678">
        <ele>59.400001525879</ele>
        <time>2020-07-26T10:16:22.000Z</time>
      </trkpt>
      <trkpt lat="47.58926" lon="-2.30682">
        <ele>59.799999237061</ele>
        <time>2020-07-26T10:16:23.000Z</time>
      </trkpt>
      <trkpt lat="47.58926" lon="-2.30687">
        <ele>59.799999237061</ele>
        <time>2020-07-26T10:16:24.000Z</time>
      </trkpt>
      <trkpt lat="47.5893" lon="-2.30703">
        <ele>60.200000762939</ele>
        <time>2020-07-26T10:16:28.000Z</time>
      </trkpt>
      <trkpt lat="47.58931" lon="-2.30706">
        <ele>60.599998474121</ele>
        <time>2020-07-26T10:16:29.000Z</time>
      </trkpt>
      <trkpt lat="47.58932" lon="-2.3071">
        <ele>61</ele>
        <time>2020-07-26T10:16:30.000Z</time>
      </trkpt>
      <trkpt lat="47.58934" lon="-2.30714">
        <ele>61.400001525879</ele>
        <time>2020-07-26T10:16:31.000Z</time>
      </trkpt>
      <trkpt lat="47.58935" lon="-2.30718">
        <ele>62</ele>
        <time>2020-07-26T10:16:32.000Z</time>
      </trkpt>
      <trkpt lat="47.58938" lon="-2.30723">
        <ele>62</ele>
        <time>2020-07-26T10:16:34.000Z</time>
      </trkpt>
      <trkpt lat="47.58943" lon="-2.30727">
        <ele>62.400001525879</ele>
        <time>2020-07-26T10:16:36.000Z</time>
      </trkpt>
      <trkpt lat="47.58946" lon="-2.30729">
        <ele>62.799999237061</ele>
        <time>2020-07-26T10:16:37.000Z</time>
      </trkpt>
      <trkpt lat="47.58948" lon="-2.30731">
        <ele>63.200000762939</ele>
        <time>2020-07-26T10:16:38.000Z</time>
      </trkpt>
      <trkpt lat="47.5895" lon="-2.30732">
        <ele>63.599998474121</ele>
        <time>2020-07-26T10:16:39.000Z</time>
      </trkpt>
      <trkpt lat="47.58952" lon="-2.30735">
        <ele>64</ele>
        <time>2020-07-26T10:16:40.000Z</time>
      </trkpt>
      <trkpt lat="47.58955" lon="-2.30738">
        <ele>64</ele>
        <time>2020-07-26T10:16:41.000Z</time>
      </trkpt>
      <trkpt lat="47.58961" lon="-2.30754">
        <ele>64.400001525879</ele>
        <time>2020-07-26T10:16:46.000Z</time>
      </trkpt>
      <trkpt lat="47.58962" lon="-2.30758">
        <ele>64.800003051758</ele>
        <time>2020-07-26T10:16:47.000Z</time>
      </trkpt>
      <trkpt lat="47.58962" lon="-2.30762">
        <ele>65.199996948242</ele>
        <time>2020-07-26T10:16:48.000Z</time>
      </trkpt>
      <trkpt lat="47.58962" lon="-2.30767">
        <ele>65.599998474121</ele>
        <time>2020-07-26T10:16:49.000Z</time>
      </trkpt>
      <trkpt lat="47.58963" lon="-2.30771">
        <ele>66</ele>
        <time>2020-07-26T10:16:50.000Z</time>
      </trkpt>
      <trkpt lat="47.58964" lon="-2.30782">
        <ele>66</ele>
        <time>2020-07-26T10:16:53.000Z</time>
      </trkpt>
      <trkpt lat="47.58967" lon="-2.30787">
        <ele>66</ele>
        <time>2020-07-26T10:16:56.000Z</time>
      </trkpt>
      <trkpt lat="47.58968" lon="-2.30786">
        <ele>66</ele>
        <time>2020-07-26T10:16:58.000Z</time>
      </trkpt>
      <trkpt lat="47.5897" lon="-2.30785">
        <ele>66</ele>
        <time>2020-07-26T10:17:13.000Z</time>
      </trkpt>
      <trkpt lat="47.58978" lon="-2.30782">
        <ele>66</ele>
        <time>2020-07-26T10:17:16.000Z</time>
      </trkpt>
      <trkpt lat="47.58994" lon="-2.30783">
        <ele>66</ele>
        <time>2020-07-26T10:17:21.000Z</time>
      </trkpt>
      <trkpt lat="47.58996" lon="-2.30785">
        <ele>66</ele>
        <time>2020-07-26T10:17:24.000Z</time>
      </trkpt>
      <trkpt lat="47.59001" lon="-2.30785">
        <ele>66</ele>
        <time>2020-07-26T10:17:30.000Z</time>
      </trkpt>
      <trkpt lat="47.59011" lon="-2.30791">
        <ele>66</ele>
        <time>2020-07-26T10:17:34.000Z</time>
      </trkpt>
      <trkpt lat="47.59013" lon="-2.30796">
        <ele>66</ele>
        <time>2020-07-26T10:17:35.000Z</time>
      </trkpt>
      <trkpt lat="47.59016" lon="-2.3081">
        <ele>66</ele>
        <time>2020-07-26T10:17:38.000Z</time>
      </trkpt>
      <trkpt lat="47.59017" lon="-2.30818">
        <ele>66</ele>
        <time>2020-07-26T10:17:40.000Z</time>
      </trkpt>
      <trkpt lat="47.59021" lon="-2.30845">
        <ele>66</ele>
        <time>2020-07-26T10:17:45.000Z</time>
      </trkpt>
      <trkpt lat="47.59021" lon="-2.30852">
        <ele>66</ele>
        <time>2020-07-26T10:17:46.000Z</time>
      </trkpt>
      <trkpt lat="47.59021" lon="-2.30858">
        <ele>66</ele>
        <time>2020-07-26T10:17:47.000Z</time>
      </trkpt>
      <trkpt lat="47.59019" lon="-2.30873">
        <ele>66</ele>
        <time>2020-07-26T10:17:50.000Z</time>
      </trkpt>
      <trkpt lat="47.59017" lon="-2.30877">
        <ele>66</ele>
        <time>2020-07-26T10:17:51.000Z</time>
      </trkpt>
      <trkpt lat="47.5901" lon="-2.30907">
        <ele>66</ele>
        <time>2020-07-26T10:17:57.000Z</time>
      </trkpt>
      <trkpt lat="47.59005" lon="-2.30947">
        <ele>66</ele>
        <time>2020-07-26T10:18:05.000Z</time>
      </trkpt>
      <trkpt lat="47.59008" lon="-2.30977">
        <ele>66</ele>
        <time>2020-07-26T10:18:10.000Z</time>
      </trkpt>
      <trkpt lat="47.59017" lon="-2.31006">
        <ele>66</ele>
        <time>2020-07-26T10:18:16.000Z</time>
      </trkpt>
      <trkpt lat="47.59026" lon="-2.31029">
        <ele>66</ele>
        <time>2020-07-26T10:18:21.000Z</time>
      </trkpt>
      <trkpt lat="47.59035" lon="-2.31059">
        <ele>66</ele>
        <time>2020-07-26T10:18:27.000Z</time>
      </trkpt>
      <trkpt lat="47.59042" lon="-2.31082">
        <ele>66.599998474121</ele>
        <time>2020-07-26T10:18:32.000Z</time>
      </trkpt>
      <trkpt lat="47.59043" lon="-2.31087">
        <ele>67</ele>
        <time>2020-07-26T10:18:33.000Z</time>
      </trkpt>
      <trkpt lat="47.59044" lon="-2.31092">
        <ele>67.400001525879</ele>
        <time>2020-07-26T10:18:34.000Z</time>
      </trkpt>
      <trkpt lat="47.59045" lon="-2.31097">
        <ele>67.800003051758</ele>
        <time>2020-07-26T10:18:35.000Z</time>
      </trkpt>
      <trkpt lat="47.59046" lon="-2.31102">
        <ele>68.400001525879</ele>
        <time>2020-07-26T10:18:36.000Z</time>
      </trkpt>
      <trkpt lat="47.59047" lon="-2.31111">
        <ele>68.400001525879</ele>
        <time>2020-07-26T10:18:39.000Z</time>
      </trkpt>
      <trkpt lat="47.59051" lon="-2.31123">
        <ele>68.400001525879</ele>
        <time>2020-07-26T10:18:47.000Z</time>
      </trkpt>
      <trkpt lat="47.59053" lon="-2.31123">
        <ele>68.400001525879</ele>
        <time>2020-07-26T10:18:49.000Z</time>
      </trkpt>
      <trkpt lat="47.59058" lon="-2.31126">
        <ele>68.400001525879</ele>
        <time>2020-07-26T10:18:54.000Z</time>
      </trkpt>
      <trkpt lat="47.59067" lon="-2.31119">
        <ele>68.400001525879</ele>
        <time>2020-07-26T10:19:01.000Z</time>
      </trkpt>
      <trkpt lat="47.59078" lon="-2.3112">
        <ele>68.400001525879</ele>
        <time>2020-07-26T10:19:07.000Z</time>
      </trkpt>
      <trkpt lat="47.5908" lon="-2.31134">
        <ele>68.400001525879</ele>
        <time>2020-07-26T10:19:11.000Z</time>
      </trkpt>
      <trkpt lat="47.59079" lon="-2.31137">
        <ele>68.800003051758</ele>
        <time>2020-07-26T10:19:12.000Z</time>
      </trkpt>
      <trkpt lat="47.59077" lon="-2.31138">
        <ele>69.199996948242</ele>
        <time>2020-07-26T10:19:13.000Z</time>
      </trkpt>
      <trkpt lat="47.59076" lon="-2.31139">
        <ele>69.599998474121</ele>
        <time>2020-07-26T10:19:14.000Z</time>
      </trkpt>
      <trkpt lat="47.59074" lon="-2.3114">
        <ele>70</ele>
        <time>2020-07-26T10:19:15.000Z</time>
      </trkpt>
      <trkpt lat="47.59073" lon="-2.31144">
        <ele>70.400001525879</ele>
        <time>2020-07-26T10:19:16.000Z</time>
      </trkpt>
      <trkpt lat="47.59073" lon="-2.31146">
        <ele>70.400001525879</ele>
        <time>2020-07-26T10:19:17.000Z</time>
      </trkpt>
      <trkpt lat="47.59076" lon="-2.31165">
        <ele>70.400001525879</ele>
        <time>2020-07-26T10:19:22.000Z</time>
      </trkpt>
      <trkpt lat="47.59077" lon="-2.31169">
        <ele>70.400001525879</ele>
        <time>2020-07-26T10:19:23.000Z</time>
      </trkpt>
      <trkpt lat="47.59079" lon="-2.31171">
        <ele>70.400001525879</ele>
        <time>2020-07-26T10:19:24.000Z</time>
      </trkpt>
      <trkpt lat="47.59085" lon="-2.31174">
        <ele>70.400001525879</ele>
        <time>2020-07-26T10:19:26.000Z</time>
      </trkpt>
      <trkpt lat="47.59096" lon="-2.31182">
        <ele>70.400001525879</ele>
        <time>2020-07-26T10:19:32.000Z</time>
      </trkpt>
      <trkpt lat="47.59098" lon="-2.31184">
        <ele>70.400001525879</ele>
        <time>2020-07-26T10:19:33.000Z</time>
      </trkpt>
      <trkpt lat="47.59097" lon="-2.31191">
        <ele>70.400001525879</ele>
        <time>2020-07-26T10:19:36.000Z</time>
      </trkpt>
      <trkpt lat="47.59093" lon="-2.31195">
        <ele>70.400001525879</ele>
        <time>2020-07-26T10:19:38.000Z</time>
      </trkpt>
      <trkpt lat="47.59091" lon="-2.31198">
        <ele>70.400001525879</ele>
        <time>2020-07-26T10:19:39.000Z</time>
      </trkpt>
      <trkpt lat="47.59091" lon="-2.31202">
        <ele>70.400001525879</ele>
        <time>2020-07-26T10:19:40.000Z</time>
      </trkpt>
      <trkpt lat="47.59096" lon="-2.31215">
        <ele>70.400001525879</ele>
        <time>2020-07-26T10:19:44.000Z</time>
      </trkpt>
      <trkpt lat="47.59096" lon="-2.31223">
        <ele>70.400001525879</ele>
        <time>2020-07-26T10:19:47.000Z</time>
      </trkpt>
      <trkpt lat="47.59095" lon="-2.31225">
        <ele>70.400001525879</ele>
        <time>2020-07-26T10:19:48.000Z</time>
      </trkpt>
      <trkpt lat="47.59093" lon="-2.31238">
        <ele>70.400001525879</ele>
        <time>2020-07-26T10:19:52.000Z</time>
      </trkpt>
      <trkpt lat="47.59094" lon="-2.31241">
        <ele>70.400001525879</ele>
        <time>2020-07-26T10:19:53.000Z</time>
      </trkpt>
      <trkpt lat="47.59098" lon="-2.31246">
        <ele>70.400001525879</ele>
        <time>2020-07-26T10:19:58.000Z</time>
      </trkpt>
      <trkpt lat="47.59099" lon="-2.31239">
        <ele>70.400001525879</ele>
        <time>2020-07-26T10:19:59.000Z</time>
      </trkpt>
      <trkpt lat="47.59101" lon="-2.3123">
        <ele>70.400001525879</ele>
        <time>2020-07-26T10:20:01.000Z</time>
      </trkpt>
      <trkpt lat="47.59109" lon="-2.3121">
        <ele>70.400001525879</ele>
        <time>2020-07-26T10:20:07.000Z</time>
      </trkpt>
      <trkpt lat="47.59109" lon="-2.31207">
        <ele>70.400001525879</ele>
        <time>2020-07-26T10:20:08.000Z</time>
      </trkpt>
      <trkpt lat="47.59108" lon="-2.31199">
        <ele>70.400001525879</ele>
        <time>2020-07-26T10:20:10.000Z</time>
      </trkpt>
      <trkpt lat="47.59109" lon="-2.31195">
        <ele>70.400001525879</ele>
        <time>2020-07-26T10:20:12.000Z</time>
      </trkpt>
      <trkpt lat="47.5911" lon="-2.31187">
        <ele>70.400001525879</ele>
        <time>2020-07-26T10:20:14.000Z</time>
      </trkpt>
      <trkpt lat="47.59109" lon="-2.31177">
        <ele>70.400001525879</ele>
        <time>2020-07-26T10:20:16.000Z</time>
      </trkpt>
      <trkpt lat="47.59108" lon="-2.31174">
        <ele>70.400001525879</ele>
        <time>2020-07-26T10:20:17.000Z</time>
      </trkpt>
      <trkpt lat="47.59107" lon="-2.31173">
        <ele>70.400001525879</ele>
        <time>2020-07-26T10:20:18.000Z</time>
      </trkpt>
      <trkpt lat="47.59102" lon="-2.31172">
        <ele>70.400001525879</ele>
        <time>2020-07-26T10:20:20.000Z</time>
      </trkpt>
      <trkpt lat="47.59091" lon="-2.31173">
        <ele>70.400001525879</ele>
        <time>2020-07-26T10:20:24.000Z</time>
      </trkpt>
      <trkpt lat="47.59089" lon="-2.3117">
        <ele>70.400001525879</ele>
        <time>2020-07-26T10:20:26.000Z</time>
      </trkpt>
      <trkpt lat="47.5909" lon="-2.31167">
        <ele>70.400001525879</ele>
        <time>2020-07-26T10:20:28.000Z</time>
      </trkpt>
      <trkpt lat="47.59091" lon="-2.31165">
        <ele>70.400001525879</ele>
        <time>2020-07-26T10:20:29.000Z</time>
      </trkpt>
      <trkpt lat="47.59098" lon="-2.31161">
        <ele>70.400001525879</ele>
        <time>2020-07-26T10:20:33.000Z</time>
      </trkpt>
      <trkpt lat="47.59102" lon="-2.31162">
        <ele>70.400001525879</ele>
        <time>2020-07-26T10:20:36.000Z</time>
      </trkpt>
      <trkpt lat="47.59106" lon="-2.31164">
        <ele>70.400001525879</ele>
        <time>2020-07-26T10:20:39.000Z</time>
      </trkpt>
      <trkpt lat="47.59118" lon="-2.31172">
        <ele>70.400001525879</ele>
        <time>2020-07-26T10:20:44.000Z</time>
      </trkpt>
      <trkpt lat="47.5912" lon="-2.31176">
        <ele>70.400001525879</ele>
        <time>2020-07-26T10:20:45.000Z</time>
      </trkpt>
      <trkpt lat="47.59119" lon="-2.31186">
        <ele>70.400001525879</ele>
        <time>2020-07-26T10:20:47.000Z</time>
      </trkpt>
      <trkpt lat="47.59121" lon="-2.31201">
        <ele>70.400001525879</ele>
        <time>2020-07-26T10:20:52.000Z</time>
      </trkpt>
      <trkpt lat="47.59123" lon="-2.3122">
        <ele>70.400001525879</ele>
        <time>2020-07-26T10:20:57.000Z</time>
      </trkpt>
      <trkpt lat="47.59122" lon="-2.31226">
        <ele>70.400001525879</ele>
        <time>2020-07-26T10:20:59.000Z</time>
      </trkpt>
      <trkpt lat="47.5912" lon="-2.31228">
        <ele>70.400001525879</ele>
        <time>2020-07-26T10:21:01.000Z</time>
      </trkpt>
      <trkpt lat="47.59114" lon="-2.31243">
        <ele>70.400001525879</ele>
        <time>2020-07-26T10:21:06.000Z</time>
      </trkpt>
      <trkpt lat="47.59114" lon="-2.31249">
        <ele>70.400001525879</ele>
        <time>2020-07-26T10:21:08.000Z</time>
      </trkpt>
      <trkpt lat="47.59114" lon="-2.31258">
        <ele>70.400001525879</ele>
        <time>2020-07-26T10:21:11.000Z</time>
      </trkpt>
      <trkpt lat="47.59114" lon="-2.31273">
        <ele>70</ele>
        <time>2020-07-26T10:21:15.000Z</time>
      </trkpt>
      <trkpt lat="47.59114" lon="-2.31278">
        <ele>69.400001525879</ele>
        <time>2020-07-26T10:21:16.000Z</time>
      </trkpt>
      <trkpt lat="47.59114" lon="-2.31282">
        <ele>69</ele>
        <time>2020-07-26T10:21:17.000Z</time>
      </trkpt>
      <trkpt lat="47.59114" lon="-2.31286">
        <ele>68.599998474121</ele>
        <time>2020-07-26T10:21:18.000Z</time>
      </trkpt>
      <trkpt lat="47.59115" lon="-2.31287">
        <ele>68</ele>
        <time>2020-07-26T10:21:19.000Z</time>
      </trkpt>
      <trkpt lat="47.59118" lon="-2.31295">
        <ele>68</ele>
        <time>2020-07-26T10:21:23.000Z</time>
      </trkpt>
      <trkpt lat="47.59121" lon="-2.31302">
        <ele>68</ele>
        <time>2020-07-26T10:21:26.000Z</time>
      </trkpt>
      <trkpt lat="47.59122" lon="-2.31304">
        <ele>68</ele>
        <time>2020-07-26T10:21:28.000Z</time>
      </trkpt>
      <trkpt lat="47.59128" lon="-2.31303">
        <ele>68</ele>
        <time>2020-07-26T10:22:03.000Z</time>
      </trkpt>
      <trkpt lat="47.59128" lon="-2.31292">
        <ele>68</ele>
        <time>2020-07-26T10:22:09.000Z</time>
      </trkpt>
      <trkpt lat="47.59126" lon="-2.31273">
        <ele>68</ele>
        <time>2020-07-26T10:22:16.000Z</time>
      </trkpt>
      <trkpt lat="47.59128" lon="-2.3127">
        <ele>68</ele>
        <time>2020-07-26T10:22:17.000Z</time>
      </trkpt>
      <trkpt lat="47.59133" lon="-2.31264">
        <ele>68</ele>
        <time>2020-07-26T10:22:20.000Z</time>
      </trkpt>
      <trkpt lat="47.59138" lon="-2.3125">
        <ele>68</ele>
        <time>2020-07-26T10:22:24.000Z</time>
      </trkpt>
      <trkpt lat="47.59134" lon="-2.31235">
        <ele>68</ele>
        <time>2020-07-26T10:22:28.000Z</time>
      </trkpt>
      <trkpt lat="47.59132" lon="-2.31232">
        <ele>68</ele>
        <time>2020-07-26T10:22:29.000Z</time>
      </trkpt>
      <trkpt lat="47.59132" lon="-2.31222">
        <ele>68.400001525879</ele>
        <time>2020-07-26T10:22:32.000Z</time>
      </trkpt>
      <trkpt lat="47.59133" lon="-2.31219">
        <ele>68.800003051758</ele>
        <time>2020-07-26T10:22:33.000Z</time>
      </trkpt>
      <trkpt lat="47.59134" lon="-2.31213">
        <ele>69.199996948242</ele>
        <time>2020-07-26T10:22:34.000Z</time>
      </trkpt>
      <trkpt lat="47.59134" lon="-2.31209">
        <ele>69.599998474121</ele>
        <time>2020-07-26T10:22:35.000Z</time>
      </trkpt>
      <trkpt lat="47.59135" lon="-2.31204">
        <ele>70</ele>
        <time>2020-07-26T10:22:36.000Z</time>
      </trkpt>
      <trkpt lat="47.59135" lon="-2.31194">
        <ele>70</ele>
        <time>2020-07-26T10:22:38.000Z</time>
      </trkpt>
      <trkpt lat="47.59137" lon="-2.31179">
        <ele>70</ele>
        <time>2020-07-26T10:22:42.000Z</time>
      </trkpt>
      <trkpt lat="47.59142" lon="-2.31175">
        <ele>70</ele>
        <time>2020-07-26T10:22:44.000Z</time>
      </trkpt>
      <trkpt lat="47.5915" lon="-2.31178">
        <ele>70</ele>
        <time>2020-07-26T10:22:48.000Z</time>
      </trkpt>
      <trkpt lat="47.5915" lon="-2.31182">
        <ele>70</ele>
        <time>2020-07-26T10:22:49.000Z</time>
      </trkpt>
      <trkpt lat="47.59151" lon="-2.31194">
        <ele>70</ele>
        <time>2020-07-26T10:22:52.000Z</time>
      </trkpt>
      <trkpt lat="47.59147" lon="-2.31209">
        <ele>70</ele>
        <time>2020-07-26T10:22:56.000Z</time>
      </trkpt>
      <trkpt lat="47.59148" lon="-2.31212">
        <ele>70</ele>
        <time>2020-07-26T10:22:57.000Z</time>
      </trkpt>
      <trkpt lat="47.59151" lon="-2.31215">
        <ele>70</ele>
        <time>2020-07-26T10:22:59.000Z</time>
      </trkpt>
      <trkpt lat="47.59153" lon="-2.3121">
        <ele>70</ele>
        <time>2020-07-26T10:23:01.000Z</time>
      </trkpt>
      <trkpt lat="47.59156" lon="-2.31198">
        <ele>69.599998474121</ele>
        <time>2020-07-26T10:23:04.000Z</time>
      </trkpt>
      <trkpt lat="47.59156" lon="-2.31195">
        <ele>69.199996948242</ele>
        <time>2020-07-26T10:23:05.000Z</time>
      </trkpt>
      <trkpt lat="47.59157" lon="-2.31192">
        <ele>68.800003051758</ele>
        <time>2020-07-26T10:23:06.000Z</time>
      </trkpt>
      <trkpt lat="47.59157" lon="-2.31187">
        <ele>68.400001525879</ele>
        <time>2020-07-26T10:23:07.000Z</time>
      </trkpt>
      <trkpt lat="47.59158" lon="-2.31183">
        <ele>68</ele>
        <time>2020-07-26T10:23:08.000Z</time>
      </trkpt>
      <trkpt lat="47.5916" lon="-2.31179">
        <ele>68</ele>
        <time>2020-07-26T10:23:09.000Z</time>
      </trkpt>
      <trkpt lat="47.59164" lon="-2.31175">
        <ele>68</ele>
        <time>2020-07-26T10:23:11.000Z</time>
      </trkpt>
      <trkpt lat="47.59172" lon="-2.31178">
        <ele>68</ele>
        <time>2020-07-26T10:23:14.000Z</time>
      </trkpt>
      <trkpt lat="47.59173" lon="-2.31181">
        <ele>67.599998474121</ele>
        <time>2020-07-26T10:23:15.000Z</time>
      </trkpt>
      <trkpt lat="47.59172" lon="-2.31184">
        <ele>67.199996948242</ele>
        <time>2020-07-26T10:23:16.000Z</time>
      </trkpt>
      <trkpt lat="47.5917" lon="-2.31186">
        <ele>66.800003051758</ele>
        <time>2020-07-26T10:23:17.000Z</time>
      </trkpt>
      <trkpt lat="47.59168" lon="-2.31188">
        <ele>66.400001525879</ele>
        <time>2020-07-26T10:23:18.000Z</time>
      </trkpt>
      <trkpt lat="47.59165" lon="-2.31191">
        <ele>66</ele>
        <time>2020-07-26T10:23:19.000Z</time>
      </trkpt>
      <trkpt lat="47.59164" lon="-2.31197">
        <ele>66</ele>
        <time>2020-07-26T10:23:21.000Z</time>
      </trkpt>
      <trkpt lat="47.59164" lon="-2.312">
        <ele>66</ele>
        <time>2020-07-26T10:23:22.000Z</time>
      </trkpt>
      <trkpt lat="47.59166" lon="-2.31207">
        <ele>66</ele>
        <time>2020-07-26T10:23:24.000Z</time>
      </trkpt>
      <trkpt lat="47.59169" lon="-2.31214">
        <ele>66</ele>
        <time>2020-07-26T10:23:26.000Z</time>
      </trkpt>
      <trkpt lat="47.5917" lon="-2.31218">
        <ele>66</ele>
        <time>2020-07-26T10:23:27.000Z</time>
      </trkpt>
      <trkpt lat="47.59167" lon="-2.31227">
        <ele>66</ele>
        <time>2020-07-26T10:23:30.000Z</time>
      </trkpt>
      <trkpt lat="47.59157" lon="-2.31244">
        <ele>66</ele>
        <time>2020-07-26T10:23:34.000Z</time>
      </trkpt>
      <trkpt lat="47.59148" lon="-2.31268">
        <ele>66</ele>
        <time>2020-07-26T10:23:40.000Z</time>
      </trkpt>
      <trkpt lat="47.59147" lon="-2.31279">
        <ele>66</ele>
        <time>2020-07-26T10:23:45.000Z</time>
      </trkpt>
      <trkpt lat="47.59151" lon="-2.31282">
        <ele>66</ele>
        <time>2020-07-26T10:23:48.000Z</time>
      </trkpt>
      <trkpt lat="47.59155" lon="-2.31284">
        <ele>66</ele>
        <time>2020-07-26T10:23:50.000Z</time>
      </trkpt>
      <trkpt lat="47.59161" lon="-2.31294">
        <ele>66</ele>
        <time>2020-07-26T10:23:55.000Z</time>
      </trkpt>
      <trkpt lat="47.59166" lon="-2.31303">
        <ele>65.599998474121</ele>
        <time>2020-07-26T10:24:01.000Z</time>
      </trkpt>
      <trkpt lat="47.59167" lon="-2.31303">
        <ele>65.199996948242</ele>
        <time>2020-07-26T10:24:02.000Z</time>
      </trkpt>
      <trkpt lat="47.59168" lon="-2.31302">
        <ele>64.800003051758</ele>
        <time>2020-07-26T10:24:03.000Z</time>
      </trkpt>
      <trkpt lat="47.59168" lon="-2.313">
        <ele>64.199996948242</ele>
        <time>2020-07-26T10:24:04.000Z</time>
      </trkpt>
      <trkpt lat="47.59168" lon="-2.31298">
        <ele>63.799999237061</ele>
        <time>2020-07-26T10:24:05.000Z</time>
      </trkpt>
      <trkpt lat="47.59168" lon="-2.31295">
        <ele>63.799999237061</ele>
        <time>2020-07-26T10:24:06.000Z</time>
      </trkpt>
      <trkpt lat="47.59166" lon="-2.31287">
        <ele>63.799999237061</ele>
        <time>2020-07-26T10:24:10.000Z</time>
      </trkpt>
      <trkpt lat="47.59164" lon="-2.31282">
        <ele>63.799999237061</ele>
        <time>2020-07-26T10:24:12.000Z</time>
      </trkpt>
      <trkpt lat="47.59161" lon="-2.31279">
        <ele>63.799999237061</ele>
        <time>2020-07-26T10:24:14.000Z</time>
      </trkpt>
      <trkpt lat="47.59156" lon="-2.31275">
        <ele>63.799999237061</ele>
        <time>2020-07-26T10:24:17.000Z</time>
      </trkpt>
      <trkpt lat="47.59156" lon="-2.31265">
        <ele>63.799999237061</ele>
        <time>2020-07-26T10:24:21.000Z</time>
      </trkpt>
      <trkpt lat="47.59156" lon="-2.31264">
        <ele>63.799999237061</ele>
        <time>2020-07-26T10:24:22.000Z</time>
      </trkpt>
      <trkpt lat="47.59158" lon="-2.31262">
        <ele>63.799999237061</ele>
        <time>2020-07-26T10:24:23.000Z</time>
      </trkpt>
      <trkpt lat="47.59161" lon="-2.3126">
        <ele>63.799999237061</ele>
        <time>2020-07-26T10:24:25.000Z</time>
      </trkpt>
      <trkpt lat="47.59164" lon="-2.3126">
        <ele>63.799999237061</ele>
        <time>2020-07-26T10:24:27.000Z</time>
      </trkpt>
      <trkpt lat="47.59166" lon="-2.31262">
        <ele>63.799999237061</ele>
        <time>2020-07-26T10:24:28.000Z</time>
      </trkpt>
      <trkpt lat="47.5917" lon="-2.31273">
        <ele>63.799999237061</ele>
        <time>2020-07-26T10:24:32.000Z</time>
      </trkpt>
      <trkpt lat="47.59175" lon="-2.31288">
        <ele>63.799999237061</ele>
        <time>2020-07-26T10:24:37.000Z</time>
      </trkpt>
      <trkpt lat="47.59175" lon="-2.3129">
        <ele>63.799999237061</ele>
        <time>2020-07-26T10:24:38.000Z</time>
      </trkpt>
      <trkpt lat="47.59176" lon="-2.31293">
        <ele>63.799999237061</ele>
        <time>2020-07-26T10:24:39.000Z</time>
      </trkpt>
      <trkpt lat="47.5918" lon="-2.31305">
        <ele>63.799999237061</ele>
        <time>2020-07-26T10:24:44.000Z</time>
      </trkpt>
      <trkpt lat="47.59184" lon="-2.31305">
        <ele>63.799999237061</ele>
        <time>2020-07-26T10:24:47.000Z</time>
      </trkpt>
      <trkpt lat="47.59184" lon="-2.31302">
        <ele>63.400001525879</ele>
        <time>2020-07-26T10:24:48.000Z</time>
      </trkpt>
      <trkpt lat="47.59185" lon="-2.313">
        <ele>63</ele>
        <time>2020-07-26T10:24:49.000Z</time>
      </trkpt>
      <trkpt lat="47.59185" lon="-2.31296">
        <ele>62.599998474121</ele>
        <time>2020-07-26T10:24:50.000Z</time>
      </trkpt>
      <trkpt lat="47.59186" lon="-2.31293">
        <ele>62.200000762939</ele>
        <time>2020-07-26T10:24:51.000Z</time>
      </trkpt>
      <trkpt lat="47.59187" lon="-2.3129">
        <ele>61.799999237061</ele>
        <time>2020-07-26T10:24:52.000Z</time>
      </trkpt>
      <trkpt lat="47.5919" lon="-2.31279">
        <ele>61.799999237061</ele>
        <time>2020-07-26T10:24:55.000Z</time>
      </trkpt>
      <trkpt lat="47.59193" lon="-2.31254">
        <ele>61.799999237061</ele>
        <time>2020-07-26T10:25:01.000Z</time>
      </trkpt>
      <trkpt lat="47.59194" lon="-2.3125">
        <ele>61.799999237061</ele>
        <time>2020-07-26T10:25:02.000Z</time>
      </trkpt>
      <trkpt lat="47.59199" lon="-2.31243">
        <ele>61.799999237061</ele>
        <time>2020-07-26T10:25:05.000Z</time>
      </trkpt>
      <trkpt lat="47.59206" lon="-2.31251">
        <ele>61.799999237061</ele>
        <time>2020-07-26T10:25:09.000Z</time>
      </trkpt>
      <trkpt lat="47.59203" lon="-2.31258">
        <ele>61.799999237061</ele>
        <time>2020-07-26T10:25:13.000Z</time>
      </trkpt>
      <trkpt lat="47.592" lon="-2.31272">
        <ele>61.799999237061</ele>
        <time>2020-07-26T10:25:19.000Z</time>
      </trkpt>
      <trkpt lat="47.59202" lon="-2.31275">
        <ele>61.799999237061</ele>
        <time>2020-07-26T10:25:21.000Z</time>
      </trkpt>
      <trkpt lat="47.59208" lon="-2.3128">
        <ele>61.799999237061</ele>
        <time>2020-07-26T10:25:24.000Z</time>
      </trkpt>
      <trkpt lat="47.59212" lon="-2.31284">
        <ele>61.799999237061</ele>
        <time>2020-07-26T10:25:26.000Z</time>
      </trkpt>
      <trkpt lat="47.59213" lon="-2.31294">
        <ele>61.799999237061</ele>
        <time>2020-07-26T10:25:30.000Z</time>
      </trkpt>
      <trkpt lat="47.59213" lon="-2.31305">
        <ele>61.799999237061</ele>
        <time>2020-07-26T10:25:33.000Z</time>
      </trkpt>
      <trkpt lat="47.59216" lon="-2.31315">
        <ele>61.400001525879</ele>
        <time>2020-07-26T10:25:36.000Z</time>
      </trkpt>
      <trkpt lat="47.59217" lon="-2.31319">
        <ele>61</ele>
        <time>2020-07-26T10:25:37.000Z</time>
      </trkpt>
      <trkpt lat="47.59217" lon="-2.31323">
        <ele>60.599998474121</ele>
        <time>2020-07-26T10:25:38.000Z</time>
      </trkpt>
      <trkpt lat="47.59216" lon="-2.31328">
        <ele>60.200000762939</ele>
        <time>2020-07-26T10:25:39.000Z</time>
      </trkpt>
      <trkpt lat="47.59214" lon="-2.31332">
        <ele>59.799999237061</ele>
        <time>2020-07-26T10:25:40.000Z</time>
      </trkpt>
      <trkpt lat="47.59213" lon="-2.31335">
        <ele>59.799999237061</ele>
        <time>2020-07-26T10:25:41.000Z</time>
      </trkpt>
      <trkpt lat="47.59206" lon="-2.31337">
        <ele>59.799999237061</ele>
        <time>2020-07-26T10:25:45.000Z</time>
      </trkpt>
      <trkpt lat="47.59197" lon="-2.31335">
        <ele>59.799999237061</ele>
        <time>2020-07-26T10:25:50.000Z</time>
      </trkpt>
      <trkpt lat="47.59195" lon="-2.31336">
        <ele>59.799999237061</ele>
        <time>2020-07-26T10:25:51.000Z</time>
      </trkpt>
      <trkpt lat="47.59194" lon="-2.31341">
        <ele>59.799999237061</ele>
        <time>2020-07-26T10:25:54.000Z</time>
      </trkpt>
      <trkpt lat="47.59194" lon="-2.31342">
        <ele>59.799999237061</ele>
        <time>2020-07-26T10:25:55.000Z</time>
      </trkpt>
      <trkpt lat="47.59189" lon="-2.31342">
        <ele>59.799999237061</ele>
        <time>2020-07-26T10:26:00.000Z</time>
      </trkpt>
      <trkpt lat="47.59188" lon="-2.31341">
        <ele>59.799999237061</ele>
        <time>2020-07-26T10:26:01.000Z</time>
      </trkpt>
      <trkpt lat="47.5918" lon="-2.3134">
        <ele>60.200000762939</ele>
        <time>2020-07-26T10:26:05.000Z</time>
      </trkpt>
      <trkpt lat="47.59178" lon="-2.31341">
        <ele>60.599998474121</ele>
        <time>2020-07-26T10:26:06.000Z</time>
      </trkpt>
      <trkpt lat="47.59177" lon="-2.31344">
        <ele>61</ele>
        <time>2020-07-26T10:26:07.000Z</time>
      </trkpt>
      <trkpt lat="47.59176" lon="-2.31347">
        <ele>61.400001525879</ele>
        <time>2020-07-26T10:26:08.000Z</time>
      </trkpt>
      <trkpt lat="47.59175" lon="-2.31352">
        <ele>61.799999237061</ele>
        <time>2020-07-26T10:26:09.000Z</time>
      </trkpt>
      <trkpt lat="47.5917" lon="-2.31372">
        <ele>61.799999237061</ele>
        <time>2020-07-26T10:26:14.000Z</time>
      </trkpt>
      <trkpt lat="47.59168" lon="-2.31378">
        <ele>61.799999237061</ele>
        <time>2020-07-26T10:26:16.000Z</time>
      </trkpt>
      <trkpt lat="47.59165" lon="-2.31381">
        <ele>61.799999237061</ele>
        <time>2020-07-26T10:26:18.000Z</time>
      </trkpt>
      <trkpt lat="47.59149" lon="-2.31379">
        <ele>61.799999237061</ele>
        <time>2020-07-26T10:26:24.000Z</time>
      </trkpt>
      <trkpt lat="47.59146" lon="-2.31377">
        <ele>61.799999237061</ele>
        <time>2020-07-26T10:26:26.000Z</time>
      </trkpt>
      <trkpt lat="47.59143" lon="-2.3138">
        <ele>61.799999237061</ele>
        <time>2020-07-26T10:26:28.000Z</time>
      </trkpt>
      <trkpt lat="47.59142" lon="-2.31381">
        <ele>61.799999237061</ele>
        <time>2020-07-26T10:26:29.000Z</time>
      </trkpt>
      <trkpt lat="47.59139" lon="-2.31386">
        <ele>62.200000762939</ele>
        <time>2020-07-26T10:26:31.000Z</time>
      </trkpt>
      <trkpt lat="47.59137" lon="-2.31388">
        <ele>62.799999237061</ele>
        <time>2020-07-26T10:26:32.000Z</time>
      </trkpt>
      <trkpt lat="47.59134" lon="-2.31388">
        <ele>63.200000762939</ele>
        <time>2020-07-26T10:26:33.000Z</time>
      </trkpt>
      <trkpt lat="47.59132" lon="-2.31388">
        <ele>63.599998474121</ele>
        <time>2020-07-26T10:26:34.000Z</time>
      </trkpt>
      <trkpt lat="47.59129" lon="-2.31388">
        <ele>64</ele>
        <time>2020-07-26T10:26:35.000Z</time>
      </trkpt>
      <trkpt lat="47.59125" lon="-2.31385">
        <ele>64</ele>
        <time>2020-07-26T10:26:37.000Z</time>
      </trkpt>
      <trkpt lat="47.59123" lon="-2.31384">
        <ele>64</ele>
        <time>2020-07-26T10:26:38.000Z</time>
      </trkpt>
      <trkpt lat="47.59121" lon="-2.31384">
        <ele>64</ele>
        <time>2020-07-26T10:26:39.000Z</time>
      </trkpt>
      <trkpt lat="47.59117" lon="-2.31385">
        <ele>64.400001525879</ele>
        <time>2020-07-26T10:26:41.000Z</time>
      </trkpt>
      <trkpt lat="47.59115" lon="-2.31385">
        <ele>64.800003051758</ele>
        <time>2020-07-26T10:26:42.000Z</time>
      </trkpt>
      <trkpt lat="47.59112" lon="-2.31385">
        <ele>65.599998474121</ele>
        <time>2020-07-26T10:26:43.000Z</time>
      </trkpt>
      <trkpt lat="47.5911" lon="-2.31385">
        <ele>66</ele>
        <time>2020-07-26T10:26:44.000Z</time>
      </trkpt>
      <trkpt lat="47.59108" lon="-2.31384">
        <ele>66</ele>
        <time>2020-07-26T10:26:45.000Z</time>
      </trkpt>
      <trkpt lat="47.59106" lon="-2.31378">
        <ele>66</ele>
        <time>2020-07-26T10:26:49.000Z</time>
      </trkpt>
      <trkpt lat="47.59104" lon="-2.31373">
        <ele>66</ele>
        <time>2020-07-26T10:28:14.000Z</time>
      </trkpt>
      <trkpt lat="47.59103" lon="-2.31366">
        <ele>66</ele>
        <time>2020-07-26T10:28:16.000Z</time>
      </trkpt>
      <trkpt lat="47.59105" lon="-2.31344">
        <ele>66</ele>
        <time>2020-07-26T10:28:22.000Z</time>
      </trkpt>
      <trkpt lat="47.59104" lon="-2.31338">
        <ele>66</ele>
        <time>2020-07-26T10:28:24.000Z</time>
      </trkpt>
      <trkpt lat="47.591" lon="-2.31335">
        <ele>66</ele>
        <time>2020-07-26T10:28:27.000Z</time>
      </trkpt>
      <trkpt lat="47.59098" lon="-2.31335">
        <ele>66.400001525879</ele>
        <time>2020-07-26T10:28:28.000Z</time>
      </trkpt>
      <trkpt lat="47.59097" lon="-2.31335">
        <ele>66.800003051758</ele>
        <time>2020-07-26T10:28:29.000Z</time>
      </trkpt>
      <trkpt lat="47.59096" lon="-2.31335">
        <ele>67.199996948242</ele>
        <time>2020-07-26T10:28:30.000Z</time>
      </trkpt>
      <trkpt lat="47.59094" lon="-2.31335">
        <ele>67.599998474121</ele>
        <time>2020-07-26T10:28:31.000Z</time>
      </trkpt>
      <trkpt lat="47.59093" lon="-2.31336">
        <ele>68</ele>
        <time>2020-07-26T10:28:32.000Z</time>
      </trkpt>
      <trkpt lat="47.59092" lon="-2.31337">
        <ele>68</ele>
        <time>2020-07-26T10:28:33.000Z</time>
      </trkpt>
      <trkpt lat="47.5909" lon="-2.31337">
        <ele>68</ele>
        <time>2020-07-26T10:28:35.000Z</time>
      </trkpt>
      <trkpt lat="47.59086" lon="-2.31333">
        <ele>68</ele>
        <time>2020-07-26T10:28:38.000Z</time>
      </trkpt>
      <trkpt lat="47.59077" lon="-2.31316">
        <ele>68</ele>
        <time>2020-07-26T10:28:44.000Z</time>
      </trkpt>
      <trkpt lat="47.59073" lon="-2.31291">
        <ele>68</ele>
        <time>2020-07-26T10:28:51.000Z</time>
      </trkpt>
      <trkpt lat="47.59069" lon="-2.3127">
        <ele>68</ele>
        <time>2020-07-26T10:28:56.000Z</time>
      </trkpt>
      <trkpt lat="47.59055" lon="-2.3125">
        <ele>68</ele>
        <time>2020-07-26T10:29:02.000Z</time>
      </trkpt>
      <trkpt lat="47.59042" lon="-2.31234">
        <ele>68</ele>
        <time>2020-07-26T10:29:08.000Z</time>
      </trkpt>
      <trkpt lat="47.59024" lon="-2.31217">
        <ele>68</ele>
        <time>2020-07-26T10:29:14.000Z</time>
      </trkpt>
      <trkpt lat="47.59007" lon="-2.31201">
        <ele>68</ele>
        <time>2020-07-26T10:29:19.000Z</time>
      </trkpt>
      <trkpt lat="47.5899" lon="-2.31177">
        <ele>68</ele>
        <time>2020-07-26T10:29:25.000Z</time>
      </trkpt>
      <trkpt lat="47.58981" lon="-2.31138">
        <ele>68</ele>
        <time>2020-07-26T10:29:30.000Z</time>
      </trkpt>
      <trkpt lat="47.58963" lon="-2.31075">
        <ele>68</ele>
        <time>2020-07-26T10:29:38.000Z</time>
      </trkpt>
      <trkpt lat="47.58944" lon="-2.31013">
        <ele>68</ele>
        <time>2020-07-26T10:29:46.000Z</time>
      </trkpt>
      <trkpt lat="47.58942" lon="-2.30992">
        <ele>68</ele>
        <time>2020-07-26T10:29:50.000Z</time>
      </trkpt>
      <trkpt lat="47.5894" lon="-2.30982">
        <ele>68</ele>
        <time>2020-07-26T10:29:52.000Z</time>
      </trkpt>
      <trkpt lat="47.58934" lon="-2.30957">
        <ele>68</ele>
        <time>2020-07-26T10:29:57.000Z</time>
      </trkpt>
      <trkpt lat="47.5893" lon="-2.30934">
        <ele>67.599998474121</ele>
        <time>2020-07-26T10:30:01.000Z</time>
      </trkpt>
      <trkpt lat="47.58929" lon="-2.30927">
        <ele>67.199996948242</ele>
        <time>2020-07-26T10:30:02.000Z</time>
      </trkpt>
      <trkpt lat="47.58928" lon="-2.30921">
        <ele>66.800003051758</ele>
        <time>2020-07-26T10:30:03.000Z</time>
      </trkpt>
      <trkpt lat="47.58927" lon="-2.30915">
        <ele>66.400001525879</ele>
        <time>2020-07-26T10:30:04.000Z</time>
      </trkpt>
      <trkpt lat="47.58927" lon="-2.30909">
        <ele>66</ele>
        <time>2020-07-26T10:30:05.000Z</time>
      </trkpt>
      <trkpt lat="47.58926" lon="-2.30892">
        <ele>66</ele>
        <time>2020-07-26T10:30:08.000Z</time>
      </trkpt>
      <trkpt lat="47.58925" lon="-2.30872">
        <ele>66</ele>
        <time>2020-07-26T10:30:13.000Z</time>
      </trkpt>
      <trkpt lat="47.58924" lon="-2.30872">
        <ele>66</ele>
        <time>2020-07-26T10:30:15.000Z</time>
      </trkpt>
      <trkpt lat="47.58922" lon="-2.30875">
        <ele>66</ele>
        <time>2020-07-26T10:30:17.000Z</time>
      </trkpt>
      <trkpt lat="47.5891" lon="-2.30892">
        <ele>65.599998474121</ele>
        <time>2020-07-26T10:30:23.000Z</time>
      </trkpt>
      <trkpt lat="47.58907" lon="-2.30895">
        <ele>65.199996948242</ele>
        <time>2020-07-26T10:30:24.000Z</time>
      </trkpt>
      <trkpt lat="47.58904" lon="-2.30898">
        <ele>64.400001525879</ele>
        <time>2020-07-26T10:30:25.000Z</time>
      </trkpt>
      <trkpt lat="47.58902" lon="-2.309">
        <ele>64</ele>
        <time>2020-07-26T10:30:26.000Z</time>
      </trkpt>
      <trkpt lat="47.58893" lon="-2.30906">
        <ele>64</ele>
        <time>2020-07-26T10:30:29.000Z</time>
      </trkpt>
      <trkpt lat="47.58884" lon="-2.30919">
        <ele>64</ele>
        <time>2020-07-26T10:30:34.000Z</time>
      </trkpt>
      <trkpt lat="47.58867" lon="-2.30948">
        <ele>64</ele>
        <time>2020-07-26T10:30:41.000Z</time>
      </trkpt>
      <trkpt lat="47.58851" lon="-2.30968">
        <ele>64</ele>
        <time>2020-07-26T10:30:46.000Z</time>
      </trkpt>
      <trkpt lat="47.58837" lon="-2.30984">
        <ele>63.599998474121</ele>
        <time>2020-07-26T10:30:49.000Z</time>
      </trkpt>
      <trkpt lat="47.58832" lon="-2.3099">
        <ele>62.799999237061</ele>
        <time>2020-07-26T10:30:50.000Z</time>
      </trkpt>
      <trkpt lat="47.58828" lon="-2.30996">
        <ele>62.400001525879</ele>
        <time>2020-07-26T10:30:51.000Z</time>
      </trkpt>
      <trkpt lat="47.58825" lon="-2.31001">
        <ele>62</ele>
        <time>2020-07-26T10:30:52.000Z</time>
      </trkpt>
      <trkpt lat="47.58806" lon="-2.31026">
        <ele>62</ele>
        <time>2020-07-26T10:30:57.000Z</time>
      </trkpt>
      <trkpt lat="47.58803" lon="-2.31031">
        <ele>62</ele>
        <time>2020-07-26T10:30:58.000Z</time>
      </trkpt>
      <trkpt lat="47.58786" lon="-2.31052">
        <ele>61.400001525879</ele>
        <time>2020-07-26T10:31:02.000Z</time>
      </trkpt>
      <trkpt lat="47.58783" lon="-2.31059">
        <ele>61</ele>
        <time>2020-07-26T10:31:03.000Z</time>
      </trkpt>
      <trkpt lat="47.5878" lon="-2.31065">
        <ele>60.599998474121</ele>
        <time>2020-07-26T10:31:04.000Z</time>
      </trkpt>
      <trkpt lat="47.58777" lon="-2.31071">
        <ele>60.200000762939</ele>
        <time>2020-07-26T10:31:05.000Z</time>
      </trkpt>
      <trkpt lat="47.58774" lon="-2.31076">
        <ele>59.799999237061</ele>
        <time>2020-07-26T10:31:06.000Z</time>
      </trkpt>
      <trkpt lat="47.5877" lon="-2.31082">
        <ele>59.400001525879</ele>
        <time>2020-07-26T10:31:07.000Z</time>
      </trkpt>
      <trkpt lat="47.58767" lon="-2.31087">
        <ele>59</ele>
        <time>2020-07-26T10:31:08.000Z</time>
      </trkpt>
      <trkpt lat="47.58763" lon="-2.31092">
        <ele>58.599998474121</ele>
        <time>2020-07-26T10:31:09.000Z</time>
      </trkpt>
      <trkpt lat="47.58758" lon="-2.31097">
        <ele>58.200000762939</ele>
        <time>2020-07-26T10:31:10.000Z</time>
      </trkpt>
      <trkpt lat="47.58753" lon="-2.31102">
        <ele>57.799999237061</ele>
        <time>2020-07-26T10:31:11.000Z</time>
      </trkpt>
      <trkpt lat="47.58748" lon="-2.31106">
        <ele>57.400001525879</ele>
        <time>2020-07-26T10:31:12.000Z</time>
      </trkpt>
      <trkpt lat="47.58744" lon="-2.3111">
        <ele>57</ele>
        <time>2020-07-26T10:31:13.000Z</time>
      </trkpt>
      <trkpt lat="47.58739" lon="-2.31113">
        <ele>56</ele>
        <time>2020-07-26T10:31:14.000Z</time>
      </trkpt>
      <trkpt lat="47.58735" lon="-2.31115">
        <ele>55.599998474121</ele>
        <time>2020-07-26T10:31:15.000Z</time>
      </trkpt>
      <trkpt lat="47.58731" lon="-2.31118">
        <ele>55.200000762939</ele>
        <time>2020-07-26T10:31:16.000Z</time>
      </trkpt>
      <trkpt lat="47.58729" lon="-2.3112">
        <ele>54.799999237061</ele>
        <time>2020-07-26T10:31:17.000Z</time>
      </trkpt>
      <trkpt lat="47.58726" lon="-2.31123">
        <ele>54.400001525879</ele>
        <time>2020-07-26T10:31:18.000Z</time>
      </trkpt>
      <trkpt lat="47.58724" lon="-2.31125">
        <ele>54</ele>
        <time>2020-07-26T10:31:19.000Z</time>
      </trkpt>
      <trkpt lat="47.58723" lon="-2.31128">
        <ele>53.599998474121</ele>
        <time>2020-07-26T10:31:20.000Z</time>
      </trkpt>
      <trkpt lat="47.58715" lon="-2.31137">
        <ele>53.599998474121</ele>
        <time>2020-07-26T10:31:24.000Z</time>
      </trkpt>
      <trkpt lat="47.5871" lon="-2.31144">
        <ele>53</ele>
        <time>2020-07-26T10:31:26.000Z</time>
      </trkpt>
      <trkpt lat="47.58706" lon="-2.31147">
        <ele>52.599998474121</ele>
        <time>2020-07-26T10:31:27.000Z</time>
      </trkpt>
      <trkpt lat="47.58704" lon="-2.31152">
        <ele>52.200000762939</ele>
        <time>2020-07-26T10:31:28.000Z</time>
      </trkpt>
      <trkpt lat="47.58701" lon="-2.31156">
        <ele>51.799999237061</ele>
        <time>2020-07-26T10:31:29.000Z</time>
      </trkpt>
      <trkpt lat="47.58698" lon="-2.31161">
        <ele>51.400001525879</ele>
        <time>2020-07-26T10:31:30.000Z</time>
      </trkpt>
      <trkpt lat="47.5869" lon="-2.3118">
        <ele>51</ele>
        <time>2020-07-26T10:31:33.000Z</time>
      </trkpt>
      <trkpt lat="47.58687" lon="-2.31185">
        <ele>50.400001525879</ele>
        <time>2020-07-26T10:31:34.000Z</time>
      </trkpt>
      <trkpt lat="47.58684" lon="-2.3119">
        <ele>50</ele>
        <time>2020-07-26T10:31:35.000Z</time>
      </trkpt>
      <trkpt lat="47.5868" lon="-2.31193">
        <ele>49.599998474121</ele>
        <time>2020-07-26T10:31:36.000Z</time>
      </trkpt>
      <trkpt lat="47.58675" lon="-2.31196">
        <ele>49.200000762939</ele>
        <time>2020-07-26T10:31:37.000Z</time>
      </trkpt>
      <trkpt lat="47.58671" lon="-2.312">
        <ele>48.599998474121</ele>
        <time>2020-07-26T10:31:38.000Z</time>
      </trkpt>
      <trkpt lat="47.58666" lon="-2.31205">
        <ele>47.599998474121</ele>
        <time>2020-07-26T10:31:39.000Z</time>
      </trkpt>
      <trkpt lat="47.58662" lon="-2.3121">
        <ele>47.200000762939</ele>
        <time>2020-07-26T10:31:40.000Z</time>
      </trkpt>
      <trkpt lat="47.58658" lon="-2.31215">
        <ele>46.599998474121</ele>
        <time>2020-07-26T10:31:41.000Z</time>
      </trkpt>
      <trkpt lat="47.58655" lon="-2.31221">
        <ele>46.200000762939</ele>
        <time>2020-07-26T10:31:42.000Z</time>
      </trkpt>
      <trkpt lat="47.58652" lon="-2.31228">
        <ele>45.599998474121</ele>
        <time>2020-07-26T10:31:43.000Z</time>
      </trkpt>
      <trkpt lat="47.58649" lon="-2.31233">
        <ele>44.799999237061</ele>
        <time>2020-07-26T10:31:44.000Z</time>
      </trkpt>
      <trkpt lat="47.58648" lon="-2.3124">
        <ele>44.200000762939</ele>
        <time>2020-07-26T10:31:45.000Z</time>
      </trkpt>
      <trkpt lat="47.58647" lon="-2.31246">
        <ele>43.599998474121</ele>
        <time>2020-07-26T10:31:46.000Z</time>
      </trkpt>
      <trkpt lat="47.58647" lon="-2.31252">
        <ele>43</ele>
        <time>2020-07-26T10:31:47.000Z</time>
      </trkpt>
      <trkpt lat="47.58648" lon="-2.31259">
        <ele>42.400001525879</ele>
        <time>2020-07-26T10:31:48.000Z</time>
      </trkpt>
      <trkpt lat="47.58648" lon="-2.31263">
        <ele>41.799999237061</ele>
        <time>2020-07-26T10:31:49.000Z</time>
      </trkpt>
      <trkpt lat="47.58649" lon="-2.31268">
        <ele>41.200000762939</ele>
        <time>2020-07-26T10:31:50.000Z</time>
      </trkpt>
      <trkpt lat="47.58651" lon="-2.31273">
        <ele>40.599998474121</ele>
        <time>2020-07-26T10:31:51.000Z</time>
      </trkpt>
      <trkpt lat="47.58656" lon="-2.31283">
        <ele>40.599998474121</ele>
        <time>2020-07-26T10:31:53.000Z</time>
      </trkpt>
      <trkpt lat="47.58675" lon="-2.31322">
        <ele>40.599998474121</ele>
        <time>2020-07-26T10:32:01.000Z</time>
      </trkpt>
      <trkpt lat="47.58684" lon="-2.31344">
        <ele>41</ele>
        <time>2020-07-26T10:32:06.000Z</time>
      </trkpt>
      <trkpt lat="47.58685" lon="-2.31349">
        <ele>41.400001525879</ele>
        <time>2020-07-26T10:32:07.000Z</time>
      </trkpt>
      <trkpt lat="47.58686" lon="-2.31355">
        <ele>41.799999237061</ele>
        <time>2020-07-26T10:32:08.000Z</time>
      </trkpt>
      <trkpt lat="47.58687" lon="-2.31361">
        <ele>42.200000762939</ele>
        <time>2020-07-26T10:32:09.000Z</time>
      </trkpt>
      <trkpt lat="47.58688" lon="-2.31367">
        <ele>42.599998474121</ele>
        <time>2020-07-26T10:32:10.000Z</time>
      </trkpt>
      <trkpt lat="47.5869" lon="-2.31392">
        <ele>42.599998474121</ele>
        <time>2020-07-26T10:32:14.000Z</time>
      </trkpt>
      <trkpt lat="47.5869" lon="-2.31413">
        <ele>42.599998474121</ele>
        <time>2020-07-26T10:32:17.000Z</time>
      </trkpt>
      <trkpt lat="47.58691" lon="-2.31432">
        <ele>42.599998474121</ele>
        <time>2020-07-26T10:32:20.000Z</time>
      </trkpt>
      <trkpt lat="47.58691" lon="-2.31449">
        <ele>42.599998474121</ele>
        <time>2020-07-26T10:32:23.000Z</time>
      </trkpt>
      <trkpt lat="47.58693" lon="-2.31475">
        <ele>42.599998474121</ele>
        <time>2020-07-26T10:32:27.000Z</time>
      </trkpt>
      <trkpt lat="47.58696" lon="-2.31517">
        <ele>42.599998474121</ele>
        <time>2020-07-26T10:32:34.000Z</time>
      </trkpt>
      <trkpt lat="47.58694" lon="-2.31522">
        <ele>42.599998474121</ele>
        <time>2020-07-26T10:32:35.000Z</time>
      </trkpt>
      <trkpt lat="47.58687" lon="-2.31528">
        <ele>42.599998474121</ele>
        <time>2020-07-26T10:32:37.000Z</time>
      </trkpt>
      <trkpt lat="47.58681" lon="-2.31529">
        <ele>42.599998474121</ele>
        <time>2020-07-26T10:32:39.000Z</time>
      </trkpt>
      <trkpt lat="47.58679" lon="-2.3153">
        <ele>42.599998474121</ele>
        <time>2020-07-26T10:32:40.000Z</time>
      </trkpt>
      <trkpt lat="47.58677" lon="-2.31532">
        <ele>42.599998474121</ele>
        <time>2020-07-26T10:32:41.000Z</time>
      </trkpt>
      <trkpt lat="47.58672" lon="-2.31533">
        <ele>42.599998474121</ele>
        <time>2020-07-26T10:32:45.000Z</time>
      </trkpt>
      <trkpt lat="47.58675" lon="-2.3153">
        <ele>42.599998474121</ele>
        <time>2020-07-26T10:32:49.000Z</time>
      </trkpt>
      <trkpt lat="47.5868" lon="-2.3153">
        <ele>42.599998474121</ele>
        <time>2020-07-26T10:32:52.000Z</time>
      </trkpt>
      <trkpt lat="47.58686" lon="-2.31529">
        <ele>42.599998474121</ele>
        <time>2020-07-26T10:32:55.000Z</time>
      </trkpt>
      <trkpt lat="47.58691" lon="-2.3153">
        <ele>42.599998474121</ele>
        <time>2020-07-26T10:32:58.000Z</time>
      </trkpt>
      <trkpt lat="47.58694" lon="-2.31527">
        <ele>42.599998474121</ele>
        <time>2020-07-26T10:33:00.000Z</time>
      </trkpt>
      <trkpt lat="47.58698" lon="-2.31526">
        <ele>42.599998474121</ele>
        <time>2020-07-26T10:33:02.000Z</time>
      </trkpt>
      <trkpt lat="47.58704" lon="-2.31529">
        <ele>42.599998474121</ele>
        <time>2020-07-26T10:33:05.000Z</time>
      </trkpt>
      <trkpt lat="47.58707" lon="-2.31535">
        <ele>42.599998474121</ele>
        <time>2020-07-26T10:33:07.000Z</time>
      </trkpt>
      <trkpt lat="47.5871" lon="-2.31543">
        <ele>42.599998474121</ele>
        <time>2020-07-26T10:33:09.000Z</time>
      </trkpt>
      <trkpt lat="47.58715" lon="-2.3157">
        <ele>42.599998474121</ele>
        <time>2020-07-26T10:33:14.000Z</time>
      </trkpt>
      <trkpt lat="47.58715" lon="-2.31598">
        <ele>42.599998474121</ele>
        <time>2020-07-26T10:33:19.000Z</time>
      </trkpt>
      <trkpt lat="47.58714" lon="-2.31615">
        <ele>42.200000762939</ele>
        <time>2020-07-26T10:33:22.000Z</time>
      </trkpt>
      <trkpt lat="47.58714" lon="-2.31621">
        <ele>41.799999237061</ele>
        <time>2020-07-26T10:33:23.000Z</time>
      </trkpt>
      <trkpt lat="47.58714" lon="-2.31627">
        <ele>41.400001525879</ele>
        <time>2020-07-26T10:33:24.000Z</time>
      </trkpt>
      <trkpt lat="47.58714" lon="-2.31633">
        <ele>41</ele>
        <time>2020-07-26T10:33:25.000Z</time>
      </trkpt>
      <trkpt lat="47.58714" lon="-2.31639">
        <ele>40.599998474121</ele>
        <time>2020-07-26T10:33:26.000Z</time>
      </trkpt>
      <trkpt lat="47.58715" lon="-2.31658">
        <ele>40.200000762939</ele>
        <time>2020-07-26T10:33:29.000Z</time>
      </trkpt>
      <trkpt lat="47.58716" lon="-2.31664">
        <ele>39.799999237061</ele>
        <time>2020-07-26T10:33:30.000Z</time>
      </trkpt>
      <trkpt lat="47.58717" lon="-2.31671">
        <ele>39.200000762939</ele>
        <time>2020-07-26T10:33:31.000Z</time>
      </trkpt>
      <trkpt lat="47.58718" lon="-2.3168">
        <ele>38.799999237061</ele>
        <time>2020-07-26T10:33:32.000Z</time>
      </trkpt>
      <trkpt lat="47.58719" lon="-2.31687">
        <ele>38.400001525879</ele>
        <time>2020-07-26T10:33:33.000Z</time>
      </trkpt>
      <trkpt lat="47.5872" lon="-2.3171">
        <ele>38</ele>
        <time>2020-07-26T10:33:37.000Z</time>
      </trkpt>
      <trkpt lat="47.58719" lon="-2.31715">
        <ele>37.599998474121</ele>
        <time>2020-07-26T10:33:38.000Z</time>
      </trkpt>
      <trkpt lat="47.58719" lon="-2.31719">
        <ele>37.200000762939</ele>
        <time>2020-07-26T10:33:39.000Z</time>
      </trkpt>
      <trkpt lat="47.5872" lon="-2.31725">
        <ele>36.599998474121</ele>
        <time>2020-07-26T10:33:40.000Z</time>
      </trkpt>
      <trkpt lat="47.58721" lon="-2.31731">
        <ele>36.200000762939</ele>
        <time>2020-07-26T10:33:41.000Z</time>
      </trkpt>
      <trkpt lat="47.58721" lon="-2.31737">
        <ele>36.200000762939</ele>
        <time>2020-07-26T10:33:42.000Z</time>
      </trkpt>
      <trkpt lat="47.58727" lon="-2.3176">
        <ele>36.200000762939</ele>
        <time>2020-07-26T10:33:47.000Z</time>
      </trkpt>
      <trkpt lat="47.58734" lon="-2.3177">
        <ele>36.200000762939</ele>
        <time>2020-07-26T10:33:51.000Z</time>
      </trkpt>
      <trkpt lat="47.58731" lon="-2.31782">
        <ele>36.200000762939</ele>
        <time>2020-07-26T10:33:55.000Z</time>
      </trkpt>
      <trkpt lat="47.5873" lon="-2.31801">
        <ele>36.200000762939</ele>
        <time>2020-07-26T10:33:59.000Z</time>
      </trkpt>
      <trkpt lat="47.5873" lon="-2.3181">
        <ele>36.200000762939</ele>
        <time>2020-07-26T10:34:01.000Z</time>
      </trkpt>
      <trkpt lat="47.58729" lon="-2.31819">
        <ele>36.200000762939</ele>
        <time>2020-07-26T10:34:03.000Z</time>
      </trkpt>
      <trkpt lat="47.58724" lon="-2.31822">
        <ele>36.200000762939</ele>
        <time>2020-07-26T10:34:05.000Z</time>
      </trkpt>
      <trkpt lat="47.58713" lon="-2.3182">
        <ele>36.200000762939</ele>
        <time>2020-07-26T10:34:09.000Z</time>
      </trkpt>
      <trkpt lat="47.58705" lon="-2.31818">
        <ele>36.599998474121</ele>
        <time>2020-07-26T10:34:12.000Z</time>
      </trkpt>
      <trkpt lat="47.58703" lon="-2.31819">
        <ele>37</ele>
        <time>2020-07-26T10:34:13.000Z</time>
      </trkpt>
      <trkpt lat="47.58701" lon="-2.31821">
        <ele>37.400001525879</ele>
        <time>2020-07-26T10:34:14.000Z</time>
      </trkpt>
      <trkpt lat="47.58699" lon="-2.31823">
        <ele>37.799999237061</ele>
        <time>2020-07-26T10:34:15.000Z</time>
      </trkpt>
      <trkpt lat="47.58698" lon="-2.31826">
        <ele>38.200000762939</ele>
        <time>2020-07-26T10:34:16.000Z</time>
      </trkpt>
      <trkpt lat="47.58696" lon="-2.31836">
        <ele>38.200000762939</ele>
        <time>2020-07-26T10:34:19.000Z</time>
      </trkpt>
      <trkpt lat="47.58695" lon="-2.31839">
        <ele>38.200000762939</ele>
        <time>2020-07-26T10:34:20.000Z</time>
      </trkpt>
      <trkpt lat="47.58694" lon="-2.31851">
        <ele>38.599998474121</ele>
        <time>2020-07-26T10:34:24.000Z</time>
      </trkpt>
      <trkpt lat="47.58693" lon="-2.31854">
        <ele>39</ele>
        <time>2020-07-26T10:34:25.000Z</time>
      </trkpt>
      <trkpt lat="47.58693" lon="-2.31857">
        <ele>39.599998474121</ele>
        <time>2020-07-26T10:34:26.000Z</time>
      </trkpt>
      <trkpt lat="47.58692" lon="-2.3186">
        <ele>40</ele>
        <time>2020-07-26T10:34:27.000Z</time>
      </trkpt>
      <trkpt lat="47.58691" lon="-2.31864">
        <ele>40.400001525879</ele>
        <time>2020-07-26T10:34:28.000Z</time>
      </trkpt>
      <trkpt lat="47.58689" lon="-2.31883">
        <ele>41.200000762939</ele>
        <time>2020-07-26T10:34:33.000Z</time>
      </trkpt>
      <trkpt lat="47.58688" lon="-2.31887">
        <ele>41.599998474121</ele>
        <time>2020-07-26T10:34:34.000Z</time>
      </trkpt>
      <trkpt lat="47.58687" lon="-2.31891">
        <ele>42.200000762939</ele>
        <time>2020-07-26T10:34:35.000Z</time>
      </trkpt>
      <trkpt lat="47.58686" lon="-2.31896">
        <ele>42.599998474121</ele>
        <time>2020-07-26T10:34:36.000Z</time>
      </trkpt>
      <trkpt lat="47.58681" lon="-2.31916">
        <ele>42.599998474121</ele>
        <time>2020-07-26T10:34:41.000Z</time>
      </trkpt>
      <trkpt lat="47.58672" lon="-2.3193">
        <ele>43</ele>
        <time>2020-07-26T10:34:45.000Z</time>
      </trkpt>
      <trkpt lat="47.5867" lon="-2.31934">
        <ele>43.400001525879</ele>
        <time>2020-07-26T10:34:46.000Z</time>
      </trkpt>
      <trkpt lat="47.58667" lon="-2.31937">
        <ele>43.799999237061</ele>
        <time>2020-07-26T10:34:47.000Z</time>
      </trkpt>
      <trkpt lat="47.58665" lon="-2.3194">
        <ele>44.200000762939</ele>
        <time>2020-07-26T10:34:48.000Z</time>
      </trkpt>
      <trkpt lat="47.58663" lon="-2.31944">
        <ele>44.599998474121</ele>
        <time>2020-07-26T10:34:49.000Z</time>
      </trkpt>
      <trkpt lat="47.58655" lon="-2.31957">
        <ele>44.599998474121</ele>
        <time>2020-07-26T10:34:53.000Z</time>
      </trkpt>
      <trkpt lat="47.58647" lon="-2.31968">
        <ele>45</ele>
        <time>2020-07-26T10:34:57.000Z</time>
      </trkpt>
      <trkpt lat="47.58645" lon="-2.31971">
        <ele>45.400001525879</ele>
        <time>2020-07-26T10:34:58.000Z</time>
      </trkpt>
      <trkpt lat="47.58643" lon="-2.31974">
        <ele>45.799999237061</ele>
        <time>2020-07-26T10:34:59.000Z</time>
      </trkpt>
      <trkpt lat="47.58641" lon="-2.31977">
        <ele>46.400001525879</ele>
        <time>2020-07-26T10:35:00.000Z</time>
      </trkpt>
      <trkpt lat="47.5864" lon="-2.3198">
        <ele>46.799999237061</ele>
        <time>2020-07-26T10:35:01.000Z</time>
      </trkpt>
      <trkpt lat="47.58631" lon="-2.31995">
        <ele>46.799999237061</ele>
        <time>2020-07-26T10:35:07.000Z</time>
      </trkpt>
      <trkpt lat="47.58627" lon="-2.31998">
        <ele>46.799999237061</ele>
        <time>2020-07-26T10:35:09.000Z</time>
      </trkpt>
      <trkpt lat="47.58624" lon="-2.31997">
        <ele>46.799999237061</ele>
        <time>2020-07-26T10:35:11.000Z</time>
      </trkpt>
      <trkpt lat="47.5862" lon="-2.31994">
        <ele>46.799999237061</ele>
        <time>2020-07-26T10:35:13.000Z</time>
      </trkpt>
      <trkpt lat="47.58611" lon="-2.31984">
        <ele>46.799999237061</ele>
        <time>2020-07-26T10:35:18.000Z</time>
      </trkpt>
      <trkpt lat="47.58601" lon="-2.31971">
        <ele>46.799999237061</ele>
        <time>2020-07-26T10:35:25.000Z</time>
      </trkpt>
      <trkpt lat="47.58594" lon="-2.31957">
        <ele>46.799999237061</ele>
        <time>2020-07-26T10:35:31.000Z</time>
      </trkpt>
      <trkpt lat="47.58592" lon="-2.31957">
        <ele>46.799999237061</ele>
        <time>2020-07-26T10:35:33.000Z</time>
      </trkpt>
      <trkpt lat="47.5859" lon="-2.31961">
        <ele>46.799999237061</ele>
        <time>2020-07-26T10:35:35.000Z</time>
      </trkpt>
      <trkpt lat="47.5858" lon="-2.31965">
        <ele>46.799999237061</ele>
        <time>2020-07-26T10:35:40.000Z</time>
      </trkpt>
      <trkpt lat="47.58574" lon="-2.3196">
        <ele>46.799999237061</ele>
        <time>2020-07-26T10:35:43.000Z</time>
      </trkpt>
      <trkpt lat="47.5857" lon="-2.31956">
        <ele>46.799999237061</ele>
        <time>2020-07-26T10:35:45.000Z</time>
      </trkpt>
      <trkpt lat="47.58566" lon="-2.31954">
        <ele>46.799999237061</ele>
        <time>2020-07-26T10:35:47.000Z</time>
      </trkpt>
      <trkpt lat="47.5856" lon="-2.31956">
        <ele>46.799999237061</ele>
        <time>2020-07-26T10:35:50.000Z</time>
      </trkpt>
      <trkpt lat="47.58556" lon="-2.31964">
        <ele>46.799999237061</ele>
        <time>2020-07-26T10:35:53.000Z</time>
      </trkpt>
      <trkpt lat="47.58555" lon="-2.31969">
        <ele>46.799999237061</ele>
        <time>2020-07-26T10:35:55.000Z</time>
      </trkpt>
      <trkpt lat="47.58556" lon="-2.31975">
        <ele>46.799999237061</ele>
        <time>2020-07-26T10:35:57.000Z</time>
      </trkpt>
      <trkpt lat="47.58556" lon="-2.31988">
        <ele>46.799999237061</ele>
        <time>2020-07-26T10:36:01.000Z</time>
      </trkpt>
      <trkpt lat="47.58557" lon="-2.31994">
        <ele>46.400001525879</ele>
        <time>2020-07-26T10:36:03.000Z</time>
      </trkpt>
      <trkpt lat="47.58559" lon="-2.31997">
        <ele>45.799999237061</ele>
        <time>2020-07-26T10:36:04.000Z</time>
      </trkpt>
      <trkpt lat="47.58561" lon="-2.31999">
        <ele>45.400001525879</ele>
        <time>2020-07-26T10:36:05.000Z</time>
      </trkpt>
      <trkpt lat="47.58563" lon="-2.32001">
        <ele>45</ele>
        <time>2020-07-26T10:36:06.000Z</time>
      </trkpt>
      <trkpt lat="47.58565" lon="-2.32002">
        <ele>44.599998474121</ele>
        <time>2020-07-26T10:36:07.000Z</time>
      </trkpt>
      <trkpt lat="47.58567" lon="-2.32007">
        <ele>44.599998474121</ele>
        <time>2020-07-26T10:36:10.000Z</time>
      </trkpt>
      <trkpt lat="47.58567" lon="-2.32011">
        <ele>44.599998474121</ele>
        <time>2020-07-26T10:36:12.000Z</time>
      </trkpt>
      <trkpt lat="47.5857" lon="-2.32013">
        <ele>44.599998474121</ele>
        <time>2020-07-26T10:36:18.000Z</time>
      </trkpt>
      <trkpt lat="47.58572" lon="-2.32014">
        <ele>44.599998474121</ele>
        <time>2020-07-26T10:36:19.000Z</time>
      </trkpt>
      <trkpt lat="47.58579" lon="-2.32016">
        <ele>44.599998474121</ele>
        <time>2020-07-26T10:36:23.000Z</time>
      </trkpt>
      <trkpt lat="47.58584" lon="-2.32017">
        <ele>44.599998474121</ele>
        <time>2020-07-26T10:36:26.000Z</time>
      </trkpt>
      <trkpt lat="47.58586" lon="-2.32018">
        <ele>44.599998474121</ele>
        <time>2020-07-26T10:36:27.000Z</time>
      </trkpt>
      <trkpt lat="47.58592" lon="-2.32018">
        <ele>44.599998474121</ele>
        <time>2020-07-26T10:36:30.000Z</time>
      </trkpt>
      <trkpt lat="47.58594" lon="-2.32017">
        <ele>44.599998474121</ele>
        <time>2020-07-26T10:36:31.000Z</time>
      </trkpt>
      <trkpt lat="47.58598" lon="-2.32008">
        <ele>44.599998474121</ele>
        <time>2020-07-26T10:36:35.000Z</time>
      </trkpt>
      <trkpt lat="47.58598" lon="-2.32006">
        <ele>44.599998474121</ele>
        <time>2020-07-26T10:36:36.000Z</time>
      </trkpt>
      <trkpt lat="47.58602" lon="-2.31998">
        <ele>44.599998474121</ele>
        <time>2020-07-26T10:36:39.000Z</time>
      </trkpt>
      <trkpt lat="47.58604" lon="-2.31997">
        <ele>45</ele>
        <time>2020-07-26T10:36:40.000Z</time>
      </trkpt>
      <trkpt lat="47.58605" lon="-2.31996">
        <ele>45.400001525879</ele>
        <time>2020-07-26T10:36:41.000Z</time>
      </trkpt>
      <trkpt lat="47.58606" lon="-2.31995">
        <ele>45.799999237061</ele>
        <time>2020-07-26T10:36:42.000Z</time>
      </trkpt>
      <trkpt lat="47.58606" lon="-2.31995">
        <ele>46.200000762939</ele>
        <time>2020-07-26T10:36:43.000Z</time>
      </trkpt>
      <trkpt lat="47.58607" lon="-2.31994">
        <ele>46.599998474121</ele>
        <time>2020-07-26T10:36:44.000Z</time>
      </trkpt>
      <trkpt lat="47.58606" lon="-2.31993">
        <ele>46.599998474121</ele>
        <time>2020-07-26T10:36:46.000Z</time>
      </trkpt>
      <trkpt lat="47.58602" lon="-2.31994">
        <ele>46.599998474121</ele>
        <time>2020-07-26T10:36:50.000Z</time>
      </trkpt>
      <trkpt lat="47.58601" lon="-2.31997">
        <ele>46.599998474121</ele>
        <time>2020-07-26T10:37:02.000Z</time>
      </trkpt>
      <trkpt lat="47.58601" lon="-2.31999">
        <ele>46.599998474121</ele>
        <time>2020-07-26T10:37:03.000Z</time>
      </trkpt>
      <trkpt lat="47.58598" lon="-2.32011">
        <ele>46.599998474121</ele>
        <time>2020-07-26T10:37:07.000Z</time>
      </trkpt>
      <trkpt lat="47.58597" lon="-2.32014">
        <ele>46.599998474121</ele>
        <time>2020-07-26T10:37:08.000Z</time>
      </trkpt>
      <trkpt lat="47.58595" lon="-2.3203">
        <ele>46.599998474121</ele>
        <time>2020-07-26T10:37:13.000Z</time>
      </trkpt>
      <trkpt lat="47.58596" lon="-2.32037">
        <ele>46.200000762939</ele>
        <time>2020-07-26T10:37:15.000Z</time>
      </trkpt>
      <trkpt lat="47.58597" lon="-2.32039">
        <ele>45.799999237061</ele>
        <time>2020-07-26T10:37:16.000Z</time>
      </trkpt>
      <trkpt lat="47.58598" lon="-2.32039">
        <ele>45.400001525879</ele>
        <time>2020-07-26T10:37:17.000Z</time>
      </trkpt>
      <trkpt lat="47.58599" lon="-2.3204">
        <ele>45</ele>
        <time>2020-07-26T10:37:18.000Z</time>
      </trkpt>
      <trkpt lat="47.586" lon="-2.32041">
        <ele>44.599998474121</ele>
        <time>2020-07-26T10:37:19.000Z</time>
      </trkpt>
      <trkpt lat="47.5861" lon="-2.3205">
        <ele>44.599998474121</ele>
        <time>2020-07-26T10:37:25.000Z</time>
      </trkpt>
      <trkpt lat="47.58618" lon="-2.32064">
        <ele>44.599998474121</ele>
        <time>2020-07-26T10:37:31.000Z</time>
      </trkpt>
      <trkpt lat="47.58617" lon="-2.32066">
        <ele>44.599998474121</ele>
        <time>2020-07-26T10:37:32.000Z</time>
      </trkpt>
      <trkpt lat="47.58614" lon="-2.32068">
        <ele>44.200000762939</ele>
        <time>2020-07-26T10:37:34.000Z</time>
      </trkpt>
      <trkpt lat="47.58613" lon="-2.32067">
        <ele>43.799999237061</ele>
        <time>2020-07-26T10:37:35.000Z</time>
      </trkpt>
      <trkpt lat="47.58611" lon="-2.32065">
        <ele>43.200000762939</ele>
        <time>2020-07-26T10:37:36.000Z</time>
      </trkpt>
      <trkpt lat="47.58609" lon="-2.32065">
        <ele>42.799999237061</ele>
        <time>2020-07-26T10:37:37.000Z</time>
      </trkpt>
      <trkpt lat="47.58607" lon="-2.32065">
        <ele>42.400001525879</ele>
        <time>2020-07-26T10:37:38.000Z</time>
      </trkpt>
      <trkpt lat="47.58605" lon="-2.32067">
        <ele>42.400001525879</ele>
        <time>2020-07-26T10:37:40.000Z</time>
      </trkpt>
      <trkpt lat="47.58605" lon="-2.32069">
        <ele>42.400001525879</ele>
        <time>2020-07-26T10:37:41.000Z</time>
      </trkpt>
      <trkpt lat="47.58607" lon="-2.32074">
        <ele>42.400001525879</ele>
        <time>2020-07-26T10:37:43.000Z</time>
      </trkpt>
      <trkpt lat="47.58608" lon="-2.3208">
        <ele>42</ele>
        <time>2020-07-26T10:37:45.000Z</time>
      </trkpt>
      <trkpt lat="47.58611" lon="-2.32082">
        <ele>41.599998474121</ele>
        <time>2020-07-26T10:37:46.000Z</time>
      </trkpt>
      <trkpt lat="47.58613" lon="-2.32084">
        <ele>41</ele>
        <time>2020-07-26T10:37:47.000Z</time>
      </trkpt>
      <trkpt lat="47.58614" lon="-2.32086">
        <ele>40.599998474121</ele>
        <time>2020-07-26T10:37:48.000Z</time>
      </trkpt>
      <trkpt lat="47.58614" lon="-2.32087">
        <ele>40.200000762939</ele>
        <time>2020-07-26T10:37:49.000Z</time>
      </trkpt>
      <trkpt lat="47.58614" lon="-2.32092">
        <ele>39.799999237061</ele>
        <time>2020-07-26T10:37:52.000Z</time>
      </trkpt>
      <trkpt lat="47.58613" lon="-2.32093">
        <ele>39.400001525879</ele>
        <time>2020-07-26T10:37:53.000Z</time>
      </trkpt>
      <trkpt lat="47.58612" lon="-2.32094">
        <ele>39</ele>
        <time>2020-07-26T10:37:54.000Z</time>
      </trkpt>
      <trkpt lat="47.5861" lon="-2.32095">
        <ele>38.599998474121</ele>
        <time>2020-07-26T10:37:55.000Z</time>
      </trkpt>
      <trkpt lat="47.58608" lon="-2.32095">
        <ele>38.200000762939</ele>
        <time>2020-07-26T10:37:56.000Z</time>
      </trkpt>
      <trkpt lat="47.58602" lon="-2.32093">
        <ele>38.200000762939</ele>
        <time>2020-07-26T10:37:59.000Z</time>
      </trkpt>
      <trkpt lat="47.58595" lon="-2.32095">
        <ele>37.799999237061</ele>
        <time>2020-07-26T10:38:02.000Z</time>
      </trkpt>
      <trkpt lat="47.58593" lon="-2.32096">
        <ele>37.400001525879</ele>
        <time>2020-07-26T10:38:03.000Z</time>
      </trkpt>
      <trkpt lat="47.5859" lon="-2.32096">
        <ele>37</ele>
        <time>2020-07-26T10:38:04.000Z</time>
      </trkpt>
      <trkpt lat="47.58588" lon="-2.32095">
        <ele>36.599998474121</ele>
        <time>2020-07-26T10:38:05.000Z</time>
      </trkpt>
      <trkpt lat="47.58586" lon="-2.32095">
        <ele>36.200000762939</ele>
        <time>2020-07-26T10:38:06.000Z</time>
      </trkpt>
      <trkpt lat="47.58581" lon="-2.32095">
        <ele>35.799999237061</ele>
        <time>2020-07-26T10:38:08.000Z</time>
      </trkpt>
      <trkpt lat="47.58579" lon="-2.32096">
        <ele>35.400001525879</ele>
        <time>2020-07-26T10:38:09.000Z</time>
      </trkpt>
      <trkpt lat="47.58576" lon="-2.32096">
        <ele>34.799999237061</ele>
        <time>2020-07-26T10:38:10.000Z</time>
      </trkpt>
      <trkpt lat="47.58573" lon="-2.32096">
        <ele>34.400001525879</ele>
        <time>2020-07-26T10:38:11.000Z</time>
      </trkpt>
      <trkpt lat="47.58571" lon="-2.32095">
        <ele>34</ele>
        <time>2020-07-26T10:38:12.000Z</time>
      </trkpt>
      <trkpt lat="47.58568" lon="-2.32094">
        <ele>33.400001525879</ele>
        <time>2020-07-26T10:38:13.000Z</time>
      </trkpt>
      <trkpt lat="47.58566" lon="-2.32094">
        <ele>32.799999237061</ele>
        <time>2020-07-26T10:38:14.000Z</time>
      </trkpt>
      <trkpt lat="47.58564" lon="-2.32094">
        <ele>31.799999237061</ele>
        <time>2020-07-26T10:38:15.000Z</time>
      </trkpt>
      <trkpt lat="47.58561" lon="-2.32093">
        <ele>31.200000762939</ele>
        <time>2020-07-26T10:38:16.000Z</time>
      </trkpt>
      <trkpt lat="47.58558" lon="-2.32092">
        <ele>30.799999237061</ele>
        <time>2020-07-26T10:38:17.000Z</time>
      </trkpt>
      <trkpt lat="47.58555" lon="-2.32091">
        <ele>30.200000762939</ele>
        <time>2020-07-26T10:38:18.000Z</time>
      </trkpt>
      <trkpt lat="47.58552" lon="-2.32091">
        <ele>29.799999237061</ele>
        <time>2020-07-26T10:38:19.000Z</time>
      </trkpt>
      <trkpt lat="47.5854" lon="-2.32096">
        <ele>29.200000762939</ele>
        <time>2020-07-26T10:38:23.000Z</time>
      </trkpt>
      <trkpt lat="47.58538" lon="-2.32097">
        <ele>28.799999237061</ele>
        <time>2020-07-26T10:38:24.000Z</time>
      </trkpt>
      <trkpt lat="47.58536" lon="-2.32096">
        <ele>28.200000762939</ele>
        <time>2020-07-26T10:38:25.000Z</time>
      </trkpt>
      <trkpt lat="47.58534" lon="-2.32093">
        <ele>27.799999237061</ele>
        <time>2020-07-26T10:38:26.000Z</time>
      </trkpt>
      <trkpt lat="47.58532" lon="-2.32091">
        <ele>27.200000762939</ele>
        <time>2020-07-26T10:38:27.000Z</time>
      </trkpt>
      <trkpt lat="47.5853" lon="-2.32089">
        <ele>27.200000762939</ele>
        <time>2020-07-26T10:38:28.000Z</time>
      </trkpt>
      <trkpt lat="47.58511" lon="-2.32085">
        <ele>27.200000762939</ele>
        <time>2020-07-26T10:38:34.000Z</time>
      </trkpt>
      <trkpt lat="47.58488" lon="-2.3208">
        <ele>27.799999237061</ele>
        <time>2020-07-26T10:38:39.000Z</time>
      </trkpt>
      <trkpt lat="47.58484" lon="-2.32081">
        <ele>28.200000762939</ele>
        <time>2020-07-26T10:38:40.000Z</time>
      </trkpt>
      <trkpt lat="47.58481" lon="-2.32081">
        <ele>29</ele>
        <time>2020-07-26T10:38:41.000Z</time>
      </trkpt>
      <trkpt lat="47.58477" lon="-2.32082">
        <ele>29.39999961853</ele>
        <time>2020-07-26T10:38:42.000Z</time>
      </trkpt>
      <trkpt lat="47.58473" lon="-2.32083">
        <ele>29.799999237061</ele>
        <time>2020-07-26T10:38:43.000Z</time>
      </trkpt>
      <trkpt lat="47.5847" lon="-2.32083">
        <ele>30.200000762939</ele>
        <time>2020-07-26T10:38:44.000Z</time>
      </trkpt>
      <trkpt lat="47.58467" lon="-2.32083">
        <ele>30.60000038147</ele>
        <time>2020-07-26T10:38:45.000Z</time>
      </trkpt>
      <trkpt lat="47.58463" lon="-2.32083">
        <ele>31</ele>
        <time>2020-07-26T10:38:46.000Z</time>
      </trkpt>
      <trkpt lat="47.5846" lon="-2.32082">
        <ele>31.39999961853</ele>
        <time>2020-07-26T10:38:47.000Z</time>
      </trkpt>
      <trkpt lat="47.58458" lon="-2.3208">
        <ele>31.39999961853</ele>
        <time>2020-07-26T10:38:48.000Z</time>
      </trkpt>
      <trkpt lat="47.58457" lon="-2.32075">
        <ele>31.39999961853</ele>
        <time>2020-07-26T10:38:51.000Z</time>
      </trkpt>
      <trkpt lat="47.58458" lon="-2.32075">
        <ele>31.39999961853</ele>
        <time>2020-07-26T10:38:53.000Z</time>
      </trkpt>
      <trkpt lat="47.58461" lon="-2.32074">
        <ele>31.39999961853</ele>
        <time>2020-07-26T10:38:55.000Z</time>
      </trkpt>
      <trkpt lat="47.58462" lon="-2.32071">
        <ele>31.39999961853</ele>
        <time>2020-07-26T10:38:56.000Z</time>
      </trkpt>
      <trkpt lat="47.58467" lon="-2.32067">
        <ele>32</ele>
        <time>2020-07-26T10:38:59.000Z</time>
      </trkpt>
      <trkpt lat="47.58469" lon="-2.32067">
        <ele>32.400001525879</ele>
        <time>2020-07-26T10:39:00.000Z</time>
      </trkpt>
      <trkpt lat="47.58471" lon="-2.32066">
        <ele>32.799999237061</ele>
        <time>2020-07-26T10:39:01.000Z</time>
      </trkpt>
      <trkpt lat="47.58474" lon="-2.32067">
        <ele>33.200000762939</ele>
        <time>2020-07-26T10:39:02.000Z</time>
      </trkpt>
      <trkpt lat="47.58477" lon="-2.32067">
        <ele>33.599998474121</ele>
        <time>2020-07-26T10:39:03.000Z</time>
      </trkpt>
      <trkpt lat="47.58483" lon="-2.32066">
        <ele>33.599998474121</ele>
        <time>2020-07-26T10:39:06.000Z</time>
      </trkpt>
      <trkpt lat="47.58486" lon="-2.32064">
        <ele>33.599998474121</ele>
        <time>2020-07-26T10:39:08.000Z</time>
      </trkpt>
      <trkpt lat="47.58487" lon="-2.32062">
        <ele>33.599998474121</ele>
        <time>2020-07-26T10:39:09.000Z</time>
      </trkpt>
      <trkpt lat="47.58485" lon="-2.32054">
        <ele>33.599998474121</ele>
        <time>2020-07-26T10:39:15.000Z</time>
      </trkpt>
      <trkpt lat="47.58482" lon="-2.32052">
        <ele>33.599998474121</ele>
        <time>2020-07-26T10:39:17.000Z</time>
      </trkpt>
      <trkpt lat="47.58478" lon="-2.32053">
        <ele>33.599998474121</ele>
        <time>2020-07-26T10:39:20.000Z</time>
      </trkpt>
      <trkpt lat="47.5847" lon="-2.32055">
        <ele>33.599998474121</ele>
        <time>2020-07-26T10:39:23.000Z</time>
      </trkpt>
      <trkpt lat="47.58465" lon="-2.32051">
        <ele>33.599998474121</ele>
        <time>2020-07-26T10:39:26.000Z</time>
      </trkpt>
      <trkpt lat="47.58461" lon="-2.32041">
        <ele>33.599998474121</ele>
        <time>2020-07-26T10:39:31.000Z</time>
      </trkpt>
      <trkpt lat="47.58462" lon="-2.32034">
        <ele>33.599998474121</ele>
        <time>2020-07-26T10:39:34.000Z</time>
      </trkpt>
      <trkpt lat="47.58462" lon="-2.32027">
        <ele>33.599998474121</ele>
        <time>2020-07-26T10:39:36.000Z</time>
      </trkpt>
      <trkpt lat="47.58462" lon="-2.32013">
        <ele>33.599998474121</ele>
        <time>2020-07-26T10:39:41.000Z</time>
      </trkpt>
      <trkpt lat="47.58462" lon="-2.3201">
        <ele>33.599998474121</ele>
        <time>2020-07-26T10:39:43.000Z</time>
      </trkpt>
      <trkpt lat="47.58459" lon="-2.32005">
        <ele>33.599998474121</ele>
        <time>2020-07-26T10:40:07.000Z</time>
      </trkpt>
      <trkpt lat="47.58459" lon="-2.32002">
        <ele>33.599998474121</ele>
        <time>2020-07-26T10:40:09.000Z</time>
      </trkpt>
      <trkpt lat="47.58459" lon="-2.31991">
        <ele>33.599998474121</ele>
        <time>2020-07-26T10:40:14.000Z</time>
      </trkpt>
      <trkpt lat="47.58459" lon="-2.31988">
        <ele>33.599998474121</ele>
        <time>2020-07-26T10:40:15.000Z</time>
      </trkpt>
      <trkpt lat="47.58454" lon="-2.31966">
        <ele>33.599998474121</ele>
        <time>2020-07-26T10:40:21.000Z</time>
      </trkpt>
      <trkpt lat="47.58452" lon="-2.3194">
        <ele>33.599998474121</ele>
        <time>2020-07-26T10:40:27.000Z</time>
      </trkpt>
      <trkpt lat="47.58452" lon="-2.31924">
        <ele>33.599998474121</ele>
        <time>2020-07-26T10:40:31.000Z</time>
      </trkpt>
      <trkpt lat="47.5845" lon="-2.31917">
        <ele>33.599998474121</ele>
        <time>2020-07-26T10:40:33.000Z</time>
      </trkpt>
      <trkpt lat="47.5845" lon="-2.3191">
        <ele>33.599998474121</ele>
        <time>2020-07-26T10:40:38.000Z</time>
      </trkpt>
      <trkpt lat="47.5845" lon="-2.31901">
        <ele>33.599998474121</ele>
        <time>2020-07-26T10:40:43.000Z</time>
      </trkpt>
      <trkpt lat="47.58449" lon="-2.319">
        <ele>33.599998474121</ele>
        <time>2020-07-26T10:40:44.000Z</time>
      </trkpt>
      <trkpt lat="47.5844" lon="-2.31902">
        <ele>33.599998474121</ele>
        <time>2020-07-26T10:40:49.000Z</time>
      </trkpt>
      <trkpt lat="47.58438" lon="-2.31904">
        <ele>33.200000762939</ele>
        <time>2020-07-26T10:40:50.000Z</time>
      </trkpt>
      <trkpt lat="47.58438" lon="-2.31907">
        <ele>32.599998474121</ele>
        <time>2020-07-26T10:40:51.000Z</time>
      </trkpt>
      <trkpt lat="47.58437" lon="-2.31908">
        <ele>32.200000762939</ele>
        <time>2020-07-26T10:40:52.000Z</time>
      </trkpt>
      <trkpt lat="47.58437" lon="-2.31911">
        <ele>31.799999237061</ele>
        <time>2020-07-26T10:40:53.000Z</time>
      </trkpt>
      <trkpt lat="47.58437" lon="-2.31913">
        <ele>31.200000762939</ele>
        <time>2020-07-26T10:40:54.000Z</time>
      </trkpt>
      <trkpt lat="47.58436" lon="-2.31915">
        <ele>31.200000762939</ele>
        <time>2020-07-26T10:40:55.000Z</time>
      </trkpt>
      <trkpt lat="47.58435" lon="-2.31921">
        <ele>30.799999237061</ele>
        <time>2020-07-26T10:40:57.000Z</time>
      </trkpt>
      <trkpt lat="47.58434" lon="-2.31923">
        <ele>30.200000762939</ele>
        <time>2020-07-26T10:40:58.000Z</time>
      </trkpt>
      <trkpt lat="47.58434" lon="-2.31926">
        <ele>29.60000038147</ele>
        <time>2020-07-26T10:40:59.000Z</time>
      </trkpt>
      <trkpt lat="47.58434" lon="-2.31931">
        <ele>29</ele>
        <time>2020-07-26T10:41:00.000Z</time>
      </trkpt>
      <trkpt lat="47.58434" lon="-2.31935">
        <ele>28.60000038147</ele>
        <time>2020-07-26T10:41:01.000Z</time>
      </trkpt>
      <trkpt lat="47.58435" lon="-2.31938">
        <ele>28</ele>
        <time>2020-07-26T10:41:02.000Z</time>
      </trkpt>
      <trkpt lat="47.58436" lon="-2.31941">
        <ele>27.39999961853</ele>
        <time>2020-07-26T10:41:03.000Z</time>
      </trkpt>
      <trkpt lat="47.58437" lon="-2.31944">
        <ele>27</ele>
        <time>2020-07-26T10:41:04.000Z</time>
      </trkpt>
      <trkpt lat="47.58438" lon="-2.31948">
        <ele>26.39999961853</ele>
        <time>2020-07-26T10:41:05.000Z</time>
      </trkpt>
      <trkpt lat="47.58439" lon="-2.31958">
        <ele>26.39999961853</ele>
        <time>2020-07-26T10:41:08.000Z</time>
      </trkpt>
      <trkpt lat="47.58432" lon="-2.31966">
        <ele>25.799999237061</ele>
        <time>2020-07-26T10:41:12.000Z</time>
      </trkpt>
      <trkpt lat="47.5843" lon="-2.31966">
        <ele>25.39999961853</ele>
        <time>2020-07-26T10:41:13.000Z</time>
      </trkpt>
      <trkpt lat="47.58428" lon="-2.31965">
        <ele>24.799999237061</ele>
        <time>2020-07-26T10:41:14.000Z</time>
      </trkpt>
      <trkpt lat="47.58427" lon="-2.31964">
        <ele>24.200000762939</ele>
        <time>2020-07-26T10:41:15.000Z</time>
      </trkpt>
      <trkpt lat="47.58426" lon="-2.31961">
        <ele>23.799999237061</ele>
        <time>2020-07-26T10:41:16.000Z</time>
      </trkpt>
      <trkpt lat="47.58424" lon="-2.31958">
        <ele>23.39999961853</ele>
        <time>2020-07-26T10:41:17.000Z</time>
      </trkpt>
      <trkpt lat="47.58422" lon="-2.31954">
        <ele>23</ele>
        <time>2020-07-26T10:41:18.000Z</time>
      </trkpt>
      <trkpt lat="47.58421" lon="-2.31948">
        <ele>22.39999961853</ele>
        <time>2020-07-26T10:41:19.000Z</time>
      </trkpt>
      <trkpt lat="47.58421" lon="-2.31943">
        <ele>22</ele>
        <time>2020-07-26T10:41:20.000Z</time>
      </trkpt>
      <trkpt lat="47.58421" lon="-2.31937">
        <ele>21.60000038147</ele>
        <time>2020-07-26T10:41:21.000Z</time>
      </trkpt>
      <trkpt lat="47.58421" lon="-2.31907">
        <ele>21.60000038147</ele>
        <time>2020-07-26T10:41:26.000Z</time>
      </trkpt>
      <trkpt lat="47.58422" lon="-2.31873">
        <ele>21.60000038147</ele>
        <time>2020-07-26T10:41:32.000Z</time>
      </trkpt>
      <trkpt lat="47.58422" lon="-2.31871">
        <ele>21.60000038147</ele>
        <time>2020-07-26T10:41:34.000Z</time>
      </trkpt>
      <trkpt lat="47.5842" lon="-2.31868">
        <ele>21.60000038147</ele>
        <time>2020-07-26T10:41:42.000Z</time>
      </trkpt>
      <trkpt lat="47.58407" lon="-2.31863">
        <ele>21.60000038147</ele>
        <time>2020-07-26T10:41:46.000Z</time>
      </trkpt>
      <trkpt lat="47.58393" lon="-2.31861">
        <ele>21.200000762939</ele>
        <time>2020-07-26T10:41:49.000Z</time>
      </trkpt>
      <trkpt lat="47.5839" lon="-2.3186">
        <ele>20.799999237061</ele>
        <time>2020-07-26T10:41:50.000Z</time>
      </trkpt>
      <trkpt lat="47.58388" lon="-2.31859">
        <ele>20.39999961853</ele>
        <time>2020-07-26T10:41:51.000Z</time>
      </trkpt>
      <trkpt lat="47.58386" lon="-2.3186">
        <ele>20</ele>
        <time>2020-07-26T10:41:52.000Z</time>
      </trkpt>
      <trkpt lat="47.58384" lon="-2.3186">
        <ele>19.60000038147</ele>
        <time>2020-07-26T10:41:53.000Z</time>
      </trkpt>
      <trkpt lat="47.58371" lon="-2.31855">
        <ele>19.60000038147</ele>
        <time>2020-07-26T10:41:59.000Z</time>
      </trkpt>
      <trkpt lat="47.5837" lon="-2.31851">
        <ele>19.60000038147</ele>
        <time>2020-07-26T10:42:00.000Z</time>
      </trkpt>
      <trkpt lat="47.58365" lon="-2.31824">
        <ele>19.60000038147</ele>
        <time>2020-07-26T10:42:06.000Z</time>
      </trkpt>
      <trkpt lat="47.58362" lon="-2.31806">
        <ele>19.60000038147</ele>
        <time>2020-07-26T10:42:09.000Z</time>
      </trkpt>
      <trkpt lat="47.58356" lon="-2.31788">
        <ele>19.60000038147</ele>
        <time>2020-07-26T10:42:12.000Z</time>
      </trkpt>
      <trkpt lat="47.58353" lon="-2.31781">
        <ele>19.60000038147</ele>
        <time>2020-07-26T10:42:13.000Z</time>
      </trkpt>
      <trkpt lat="47.58343" lon="-2.3175">
        <ele>19.60000038147</ele>
        <time>2020-07-26T10:42:18.000Z</time>
      </trkpt>
      <trkpt lat="47.58336" lon="-2.31714">
        <ele>19.60000038147</ele>
        <time>2020-07-26T10:42:24.000Z</time>
      </trkpt>
      <trkpt lat="47.58333" lon="-2.31683">
        <ele>19.60000038147</ele>
        <time>2020-07-26T10:42:28.000Z</time>
      </trkpt>
      <trkpt lat="47.58329" lon="-2.31669">
        <ele>19.60000038147</ele>
        <time>2020-07-26T10:42:30.000Z</time>
      </trkpt>
      <trkpt lat="47.58324" lon="-2.3164">
        <ele>19.60000038147</ele>
        <time>2020-07-26T10:42:34.000Z</time>
      </trkpt>
      <trkpt lat="47.58323" lon="-2.31624">
        <ele>19.60000038147</ele>
        <time>2020-07-26T10:42:36.000Z</time>
      </trkpt>
      <trkpt lat="47.58319" lon="-2.31585">
        <ele>19.60000038147</ele>
        <time>2020-07-26T10:42:42.000Z</time>
      </trkpt>
      <trkpt lat="47.58318" lon="-2.31547">
        <ele>19.60000038147</ele>
        <time>2020-07-26T10:42:48.000Z</time>
      </trkpt>
      <trkpt lat="47.58316" lon="-2.31499">
        <ele>19.60000038147</ele>
        <time>2020-07-26T10:42:55.000Z</time>
      </trkpt>
      <trkpt lat="47.58317" lon="-2.31456">
        <ele>19.60000038147</ele>
        <time>2020-07-26T10:43:01.000Z</time>
      </trkpt>
      <trkpt lat="47.58314" lon="-2.31438">
        <ele>19.60000038147</ele>
        <time>2020-07-26T10:43:04.000Z</time>
      </trkpt>
      <trkpt lat="47.58312" lon="-2.31435">
        <ele>20</ele>
        <time>2020-07-26T10:43:05.000Z</time>
      </trkpt>
      <trkpt lat="47.5831" lon="-2.31435">
        <ele>20.39999961853</ele>
        <time>2020-07-26T10:43:06.000Z</time>
      </trkpt>
      <trkpt lat="47.58308" lon="-2.31435">
        <ele>20.799999237061</ele>
        <time>2020-07-26T10:43:07.000Z</time>
      </trkpt>
      <trkpt lat="47.58307" lon="-2.31436">
        <ele>21.200000762939</ele>
        <time>2020-07-26T10:43:08.000Z</time>
      </trkpt>
      <trkpt lat="47.58306" lon="-2.31438">
        <ele>21.60000038147</ele>
        <time>2020-07-26T10:43:09.000Z</time>
      </trkpt>
      <trkpt lat="47.58305" lon="-2.31447">
        <ele>21.60000038147</ele>
        <time>2020-07-26T10:43:12.000Z</time>
      </trkpt>
      <trkpt lat="47.58303" lon="-2.31453">
        <ele>22</ele>
        <time>2020-07-26T10:43:14.000Z</time>
      </trkpt>
      <trkpt lat="47.58302" lon="-2.31455">
        <ele>22.60000038147</ele>
        <time>2020-07-26T10:43:15.000Z</time>
      </trkpt>
      <trkpt lat="47.58301" lon="-2.31458">
        <ele>23</ele>
        <time>2020-07-26T10:43:16.000Z</time>
      </trkpt>
      <trkpt lat="47.583" lon="-2.3146">
        <ele>23.39999961853</ele>
        <time>2020-07-26T10:43:17.000Z</time>
      </trkpt>
      <trkpt lat="47.58298" lon="-2.31463">
        <ele>24</ele>
        <time>2020-07-26T10:43:18.000Z</time>
      </trkpt>
      <trkpt lat="47.58293" lon="-2.31469">
        <ele>24.39999961853</ele>
        <time>2020-07-26T10:43:21.000Z</time>
      </trkpt>
      <trkpt lat="47.58291" lon="-2.31471">
        <ele>24.799999237061</ele>
        <time>2020-07-26T10:43:22.000Z</time>
      </trkpt>
      <trkpt lat="47.58289" lon="-2.31473">
        <ele>25.39999961853</ele>
        <time>2020-07-26T10:43:23.000Z</time>
      </trkpt>
      <trkpt lat="47.58286" lon="-2.31476">
        <ele>25.799999237061</ele>
        <time>2020-07-26T10:43:24.000Z</time>
      </trkpt>
      <trkpt lat="47.58284" lon="-2.31478">
        <ele>26.200000762939</ele>
        <time>2020-07-26T10:43:25.000Z</time>
      </trkpt>
      <trkpt lat="47.58277" lon="-2.31488">
        <ele>26.200000762939</ele>
        <time>2020-07-26T10:43:29.000Z</time>
      </trkpt>
      <trkpt lat="47.58275" lon="-2.3149">
        <ele>26.60000038147</ele>
        <time>2020-07-26T10:43:30.000Z</time>
      </trkpt>
      <trkpt lat="47.58273" lon="-2.31492">
        <ele>27.200000762939</ele>
        <time>2020-07-26T10:43:31.000Z</time>
      </trkpt>
      <trkpt lat="47.58271" lon="-2.31495">
        <ele>27.60000038147</ele>
        <time>2020-07-26T10:43:32.000Z</time>
      </trkpt>
      <trkpt lat="47.5827" lon="-2.31497">
        <ele>28</ele>
        <time>2020-07-26T10:43:33.000Z</time>
      </trkpt>
      <trkpt lat="47.58268" lon="-2.315">
        <ele>28.39999961853</ele>
        <time>2020-07-26T10:43:34.000Z</time>
      </trkpt>
      <trkpt lat="47.58265" lon="-2.31503">
        <ele>28.39999961853</ele>
        <time>2020-07-26T10:43:35.000Z</time>
      </trkpt>
      <trkpt lat="47.58252" lon="-2.3152">
        <ele>28.799999237061</ele>
        <time>2020-07-26T10:43:41.000Z</time>
      </trkpt>
      <trkpt lat="47.58249" lon="-2.31523">
        <ele>29.200000762939</ele>
        <time>2020-07-26T10:43:42.000Z</time>
      </trkpt>
      <trkpt lat="47.58247" lon="-2.31526">
        <ele>29.60000038147</ele>
        <time>2020-07-26T10:43:43.000Z</time>
      </trkpt>
      <trkpt lat="47.58245" lon="-2.31529">
        <ele>30</ele>
        <time>2020-07-26T10:43:44.000Z</time>
      </trkpt>
      <trkpt lat="47.58243" lon="-2.31532">
        <ele>30.39999961853</ele>
        <time>2020-07-26T10:43:45.000Z</time>
      </trkpt>
      <trkpt lat="47.58236" lon="-2.31543">
        <ele>31</ele>
        <time>2020-07-26T10:43:49.000Z</time>
      </trkpt>
      <trkpt lat="47.58234" lon="-2.31547">
        <ele>31.39999961853</ele>
        <time>2020-07-26T10:43:50.000Z</time>
      </trkpt>
      <trkpt lat="47.58232" lon="-2.3155">
        <ele>31.799999237061</ele>
        <time>2020-07-26T10:43:51.000Z</time>
      </trkpt>
      <trkpt lat="47.58231" lon="-2.31553">
        <ele>32.200000762939</ele>
        <time>2020-07-26T10:43:52.000Z</time>
      </trkpt>
      <trkpt lat="47.58229" lon="-2.31556">
        <ele>32.599998474121</ele>
        <time>2020-07-26T10:43:53.000Z</time>
      </trkpt>
      <trkpt lat="47.58224" lon="-2.31562">
        <ele>32.599998474121</ele>
        <time>2020-07-26T10:43:55.000Z</time>
      </trkpt>
      <trkpt lat="47.58216" lon="-2.31571">
        <ele>33</ele>
        <time>2020-07-26T10:43:58.000Z</time>
      </trkpt>
      <trkpt lat="47.58215" lon="-2.31574">
        <ele>33.400001525879</ele>
        <time>2020-07-26T10:43:59.000Z</time>
      </trkpt>
      <trkpt lat="47.58213" lon="-2.31577">
        <ele>33.799999237061</ele>
        <time>2020-07-26T10:44:00.000Z</time>
      </trkpt>
      <trkpt lat="47.58211" lon="-2.3158">
        <ele>34.200000762939</ele>
        <time>2020-07-26T10:44:01.000Z</time>
      </trkpt>
      <trkpt lat="47.58209" lon="-2.31584">
        <ele>34.599998474121</ele>
        <time>2020-07-26T10:44:02.000Z</time>
      </trkpt>
      <trkpt lat="47.58204" lon="-2.31591">
        <ele>35.200000762939</ele>
        <time>2020-07-26T10:44:05.000Z</time>
      </trkpt>
      <trkpt lat="47.58202" lon="-2.31594">
        <ele>35.599998474121</ele>
        <time>2020-07-26T10:44:06.000Z</time>
      </trkpt>
      <trkpt lat="47.582" lon="-2.31596">
        <ele>36</ele>
        <time>2020-07-26T10:44:07.000Z</time>
      </trkpt>
      <trkpt lat="47.58199" lon="-2.31599">
        <ele>36.599998474121</ele>
        <time>2020-07-26T10:44:08.000Z</time>
      </trkpt>
      <trkpt lat="47.58198" lon="-2.31601">
        <ele>37</ele>
        <time>2020-07-26T10:44:09.000Z</time>
      </trkpt>
      <trkpt lat="47.58191" lon="-2.31615">
        <ele>37</ele>
        <time>2020-07-26T10:44:14.000Z</time>
      </trkpt>
      <trkpt lat="47.5819" lon="-2.31618">
        <ele>37.400001525879</ele>
        <time>2020-07-26T10:44:15.000Z</time>
      </trkpt>
      <trkpt lat="47.58189" lon="-2.31622">
        <ele>37.799999237061</ele>
        <time>2020-07-26T10:44:16.000Z</time>
      </trkpt>
      <trkpt lat="47.58188" lon="-2.31626">
        <ele>38.200000762939</ele>
        <time>2020-07-26T10:44:17.000Z</time>
      </trkpt>
      <trkpt lat="47.58188" lon="-2.3163">
        <ele>38.599998474121</ele>
        <time>2020-07-26T10:44:18.000Z</time>
      </trkpt>
      <trkpt lat="47.58187" lon="-2.31634">
        <ele>39</ele>
        <time>2020-07-26T10:44:19.000Z</time>
      </trkpt>
      <trkpt lat="47.58186" lon="-2.31637">
        <ele>39</ele>
        <time>2020-07-26T10:44:20.000Z</time>
      </trkpt>
      <trkpt lat="47.5818" lon="-2.31666">
        <ele>39</ele>
        <time>2020-07-26T10:44:27.000Z</time>
      </trkpt>
      <trkpt lat="47.58178" lon="-2.31673">
        <ele>39.400001525879</ele>
        <time>2020-07-26T10:44:29.000Z</time>
      </trkpt>
      <trkpt lat="47.58177" lon="-2.31677">
        <ele>40</ele>
        <time>2020-07-26T10:44:30.000Z</time>
      </trkpt>
      <trkpt lat="47.58176" lon="-2.31681">
        <ele>40.400001525879</ele>
        <time>2020-07-26T10:44:31.000Z</time>
      </trkpt>
      <trkpt lat="47.58175" lon="-2.31685">
        <ele>40.799999237061</ele>
        <time>2020-07-26T10:44:32.000Z</time>
      </trkpt>
      <trkpt lat="47.58174" lon="-2.3169">
        <ele>41.200000762939</ele>
        <time>2020-07-26T10:44:33.000Z</time>
      </trkpt>
      <trkpt lat="47.58167" lon="-2.31721">
        <ele>41.200000762939</ele>
        <time>2020-07-26T10:44:40.000Z</time>
      </trkpt>
      <trkpt lat="47.58166" lon="-2.31747">
        <ele>41.599998474121</ele>
        <time>2020-07-26T10:44:46.000Z</time>
      </trkpt>
      <trkpt lat="47.58166" lon="-2.31751">
        <ele>42</ele>
        <time>2020-07-26T10:44:47.000Z</time>
      </trkpt>
      <trkpt lat="47.58166" lon="-2.31755">
        <ele>42.400001525879</ele>
        <time>2020-07-26T10:44:48.000Z</time>
      </trkpt>
      <trkpt lat="47.58166" lon="-2.31759">
        <ele>42.799999237061</ele>
        <time>2020-07-26T10:44:49.000Z</time>
      </trkpt>
      <trkpt lat="47.58165" lon="-2.31762">
        <ele>43.200000762939</ele>
        <time>2020-07-26T10:44:50.000Z</time>
      </trkpt>
      <trkpt lat="47.58161" lon="-2.31769">
        <ele>43.200000762939</ele>
        <time>2020-07-26T10:44:52.000Z</time>
      </trkpt>
      <trkpt lat="47.58151" lon="-2.31774">
        <ele>43.200000762939</ele>
        <time>2020-07-26T10:44:56.000Z</time>
      </trkpt>
      <trkpt lat="47.58135" lon="-2.31781">
        <ele>43.599998474121</ele>
        <time>2020-07-26T10:45:02.000Z</time>
      </trkpt>
      <trkpt lat="47.58132" lon="-2.31782">
        <ele>44.200000762939</ele>
        <time>2020-07-26T10:45:03.000Z</time>
      </trkpt>
      <trkpt lat="47.58129" lon="-2.31783">
        <ele>44.599998474121</ele>
        <time>2020-07-26T10:45:04.000Z</time>
      </trkpt>
      <trkpt lat="47.58126" lon="-2.31784">
        <ele>45</ele>
        <time>2020-07-26T10:45:05.000Z</time>
      </trkpt>
      <trkpt lat="47.58123" lon="-2.31785">
        <ele>45.400001525879</ele>
        <time>2020-07-26T10:45:06.000Z</time>
      </trkpt>
      <trkpt lat="47.58109" lon="-2.31793">
        <ele>45.400001525879</ele>
        <time>2020-07-26T10:45:11.000Z</time>
      </trkpt>
      <trkpt lat="47.5809" lon="-2.31804">
        <ele>46.200000762939</ele>
        <time>2020-07-26T10:45:17.000Z</time>
      </trkpt>
      <trkpt lat="47.58087" lon="-2.31807">
        <ele>46.599998474121</ele>
        <time>2020-07-26T10:45:18.000Z</time>
      </trkpt>
      <trkpt lat="47.58084" lon="-2.3181">
        <ele>47</ele>
        <time>2020-07-26T10:45:19.000Z</time>
      </trkpt>
      <trkpt lat="47.58081" lon="-2.31813">
        <ele>47.400001525879</ele>
        <time>2020-07-26T10:45:20.000Z</time>
      </trkpt>
      <trkpt lat="47.58068" lon="-2.31832">
        <ele>47.400001525879</ele>
        <time>2020-07-26T10:45:25.000Z</time>
      </trkpt>
      <trkpt lat="47.58055" lon="-2.3185">
        <ele>47.400001525879</ele>
        <time>2020-07-26T10:45:30.000Z</time>
      </trkpt>
      <trkpt lat="47.5805" lon="-2.31857">
        <ele>48</ele>
        <time>2020-07-26T10:45:32.000Z</time>
      </trkpt>
      <trkpt lat="47.58049" lon="-2.31861">
        <ele>48.400001525879</ele>
        <time>2020-07-26T10:45:33.000Z</time>
      </trkpt>
      <trkpt lat="47.58046" lon="-2.31865">
        <ele>48.799999237061</ele>
        <time>2020-07-26T10:45:34.000Z</time>
      </trkpt>
      <trkpt lat="47.58044" lon="-2.31868">
        <ele>49.200000762939</ele>
        <time>2020-07-26T10:45:35.000Z</time>
      </trkpt>
      <trkpt lat="47.58042" lon="-2.31871">
        <ele>49.599998474121</ele>
        <time>2020-07-26T10:45:36.000Z</time>
      </trkpt>
      <trkpt lat="47.5803" lon="-2.31886">
        <ele>49.599998474121</ele>
        <time>2020-07-26T10:45:41.000Z</time>
      </trkpt>
      <trkpt lat="47.58023" lon="-2.31895">
        <ele>50</ele>
        <time>2020-07-26T10:45:44.000Z</time>
      </trkpt>
      <trkpt lat="47.5802" lon="-2.31898">
        <ele>50.599998474121</ele>
        <time>2020-07-26T10:45:45.000Z</time>
      </trkpt>
      <trkpt lat="47.58018" lon="-2.31901">
        <ele>51</ele>
        <time>2020-07-26T10:45:46.000Z</time>
      </trkpt>
      <trkpt lat="47.58015" lon="-2.31904">
        <ele>51.400001525879</ele>
        <time>2020-07-26T10:45:47.000Z</time>
      </trkpt>
      <trkpt lat="47.58013" lon="-2.31907">
        <ele>51.799999237061</ele>
        <time>2020-07-26T10:45:48.000Z</time>
      </trkpt>
      <trkpt lat="47.57995" lon="-2.31922">
        <ele>51.799999237061</ele>
        <time>2020-07-26T10:45:55.000Z</time>
      </trkpt>
      <trkpt lat="47.57976" lon="-2.31938">
        <ele>51.799999237061</ele>
        <time>2020-07-26T10:46:01.000Z</time>
      </trkpt>
      <trkpt lat="47.57952" lon="-2.31956">
        <ele>51.799999237061</ele>
        <time>2020-07-26T10:46:08.000Z</time>
      </trkpt>
      <trkpt lat="47.57932" lon="-2.31969">
        <ele>51.799999237061</ele>
        <time>2020-07-26T10:46:14.000Z</time>
      </trkpt>
      <trkpt lat="47.57929" lon="-2.31971">
        <ele>52.200000762939</ele>
        <time>2020-07-26T10:46:15.000Z</time>
      </trkpt>
      <trkpt lat="47.57925" lon="-2.31973">
        <ele>52.599998474121</ele>
        <time>2020-07-26T10:46:16.000Z</time>
      </trkpt>
      <trkpt lat="47.57922" lon="-2.31974">
        <ele>53</ele>
        <time>2020-07-26T10:46:17.000Z</time>
      </trkpt>
      <trkpt lat="47.57919" lon="-2.31976">
        <ele>53.400001525879</ele>
        <time>2020-07-26T10:46:18.000Z</time>
      </trkpt>
      <trkpt lat="47.57915" lon="-2.31977">
        <ele>53.799999237061</ele>
        <time>2020-07-26T10:46:19.000Z</time>
      </trkpt>
      <trkpt lat="47.57908" lon="-2.3198">
        <ele>53.799999237061</ele>
        <time>2020-07-26T10:46:21.000Z</time>
      </trkpt>
      <trkpt lat="47.57883" lon="-2.31991">
        <ele>53.799999237061</ele>
        <time>2020-07-26T10:46:29.000Z</time>
      </trkpt>
      <trkpt lat="47.57877" lon="-2.31995">
        <ele>54.200000762939</ele>
        <time>2020-07-26T10:46:31.000Z</time>
      </trkpt>
      <trkpt lat="47.57874" lon="-2.31997">
        <ele>54.599998474121</ele>
        <time>2020-07-26T10:46:32.000Z</time>
      </trkpt>
      <trkpt lat="47.5787" lon="-2.31999">
        <ele>55</ele>
        <time>2020-07-26T10:46:33.000Z</time>
      </trkpt>
      <trkpt lat="47.57867" lon="-2.32001">
        <ele>55.400001525879</ele>
        <time>2020-07-26T10:46:34.000Z</time>
      </trkpt>
      <trkpt lat="47.57864" lon="-2.32004">
        <ele>55.799999237061</ele>
        <time>2020-07-26T10:46:35.000Z</time>
      </trkpt>
      <trkpt lat="47.57861" lon="-2.32006">
        <ele>55.799999237061</ele>
        <time>2020-07-26T10:46:36.000Z</time>
      </trkpt>
      <trkpt lat="47.57843" lon="-2.32021">
        <ele>55.799999237061</ele>
        <time>2020-07-26T10:46:43.000Z</time>
      </trkpt>
      <trkpt lat="47.57832" lon="-2.3203">
        <ele>55.799999237061</ele>
        <time>2020-07-26T10:46:47.000Z</time>
      </trkpt>
      <trkpt lat="47.57819" lon="-2.32038">
        <ele>55.799999237061</ele>
        <time>2020-07-26T10:46:52.000Z</time>
      </trkpt>
      <trkpt lat="47.57817" lon="-2.3204">
        <ele>56.200000762939</ele>
        <time>2020-07-26T10:46:53.000Z</time>
      </trkpt>
      <trkpt lat="47.57814" lon="-2.32043">
        <ele>56.799999237061</ele>
        <time>2020-07-26T10:46:54.000Z</time>
      </trkpt>
      <trkpt lat="47.57812" lon="-2.32045">
        <ele>57.200000762939</ele>
        <time>2020-07-26T10:46:55.000Z</time>
      </trkpt>
      <trkpt lat="47.57809" lon="-2.32048">
        <ele>58</ele>
        <time>2020-07-26T10:46:56.000Z</time>
      </trkpt>
      <trkpt lat="47.578" lon="-2.32053">
        <ele>58</ele>
        <time>2020-07-26T10:46:59.000Z</time>
      </trkpt>
      <trkpt lat="47.5778" lon="-2.32069">
        <ele>58</ele>
        <time>2020-07-26T10:47:06.000Z</time>
      </trkpt>
      <trkpt lat="47.57754" lon="-2.3209">
        <ele>58</ele>
        <time>2020-07-26T10:47:14.000Z</time>
      </trkpt>
      <trkpt lat="47.57744" lon="-2.32099">
        <ele>58.599998474121</ele>
        <time>2020-07-26T10:47:17.000Z</time>
      </trkpt>
      <trkpt lat="47.57741" lon="-2.32102">
        <ele>59</ele>
        <time>2020-07-26T10:47:18.000Z</time>
      </trkpt>
      <trkpt lat="47.57737" lon="-2.32105">
        <ele>59.400001525879</ele>
        <time>2020-07-26T10:47:19.000Z</time>
      </trkpt>
      <trkpt lat="47.57733" lon="-2.32108">
        <ele>60.200000762939</ele>
        <time>2020-07-26T10:47:20.000Z</time>
      </trkpt>
      <trkpt lat="47.57701" lon="-2.32125">
        <ele>60.200000762939</ele>
        <time>2020-07-26T10:47:27.000Z</time>
      </trkpt>
      <trkpt lat="47.57672" lon="-2.32138">
        <ele>60.200000762939</ele>
        <time>2020-07-26T10:47:34.000Z</time>
      </trkpt>
      <trkpt lat="47.57642" lon="-2.32155">
        <ele>60.200000762939</ele>
        <time>2020-07-26T10:47:41.000Z</time>
      </trkpt>
      <trkpt lat="47.57614" lon="-2.32176">
        <ele>60.200000762939</ele>
        <time>2020-07-26T10:47:48.000Z</time>
      </trkpt>
      <trkpt lat="47.57594" lon="-2.32193">
        <ele>60.200000762939</ele>
        <time>2020-07-26T10:47:53.000Z</time>
      </trkpt>
      <trkpt lat="47.57586" lon="-2.32199">
        <ele>60.200000762939</ele>
        <time>2020-07-26T10:47:55.000Z</time>
      </trkpt>
      <trkpt lat="47.57574" lon="-2.32205">
        <ele>60.799999237061</ele>
        <time>2020-07-26T10:47:58.000Z</time>
      </trkpt>
      <trkpt lat="47.5757" lon="-2.32207">
        <ele>61.200000762939</ele>
        <time>2020-07-26T10:47:59.000Z</time>
      </trkpt>
      <trkpt lat="47.57566" lon="-2.32209">
        <ele>61.599998474121</ele>
        <time>2020-07-26T10:48:00.000Z</time>
      </trkpt>
      <trkpt lat="47.57562" lon="-2.32211">
        <ele>62</ele>
        <time>2020-07-26T10:48:01.000Z</time>
      </trkpt>
      <trkpt lat="47.57558" lon="-2.32213">
        <ele>62.400001525879</ele>
        <time>2020-07-26T10:48:02.000Z</time>
      </trkpt>
      <trkpt lat="47.57554" lon="-2.32215">
        <ele>62.400001525879</ele>
        <time>2020-07-26T10:48:03.000Z</time>
      </trkpt>
      <trkpt lat="47.5753" lon="-2.32226">
        <ele>62.400001525879</ele>
        <time>2020-07-26T10:48:09.000Z</time>
      </trkpt>
      <trkpt lat="47.57514" lon="-2.32236">
        <ele>62.799999237061</ele>
        <time>2020-07-26T10:48:13.000Z</time>
      </trkpt>
      <trkpt lat="47.5751" lon="-2.32238">
        <ele>63.200000762939</ele>
        <time>2020-07-26T10:48:14.000Z</time>
      </trkpt>
      <trkpt lat="47.57506" lon="-2.32241">
        <ele>63.599998474121</ele>
        <time>2020-07-26T10:48:15.000Z</time>
      </trkpt>
      <trkpt lat="47.57502" lon="-2.32244">
        <ele>64.199996948242</ele>
        <time>2020-07-26T10:48:16.000Z</time>
      </trkpt>
      <trkpt lat="47.57498" lon="-2.32247">
        <ele>64.599998474121</ele>
        <time>2020-07-26T10:48:17.000Z</time>
      </trkpt>
      <trkpt lat="47.5749" lon="-2.32261">
        <ele>64.599998474121</ele>
        <time>2020-07-26T10:48:20.000Z</time>
      </trkpt>
      <trkpt lat="47.57488" lon="-2.32274">
        <ele>64.599998474121</ele>
        <time>2020-07-26T10:48:22.000Z</time>
      </trkpt>
      <trkpt lat="47.57488" lon="-2.32281">
        <ele>64.599998474121</ele>
        <time>2020-07-26T10:48:23.000Z</time>
      </trkpt>
      <trkpt lat="47.57488" lon="-2.32287">
        <ele>64.599998474121</ele>
        <time>2020-07-26T10:48:24.000Z</time>
      </trkpt>
      <trkpt lat="47.57496" lon="-2.32329">
        <ele>64.599998474121</ele>
        <time>2020-07-26T10:48:30.000Z</time>
      </trkpt>
      <trkpt lat="47.57504" lon="-2.32365">
        <ele>65</ele>
        <time>2020-07-26T10:48:35.000Z</time>
      </trkpt>
      <trkpt lat="47.57506" lon="-2.32372">
        <ele>65.400001525879</ele>
        <time>2020-07-26T10:48:36.000Z</time>
      </trkpt>
      <trkpt lat="47.57508" lon="-2.32379">
        <ele>65.800003051758</ele>
        <time>2020-07-26T10:48:37.000Z</time>
      </trkpt>
      <trkpt lat="47.5751" lon="-2.32386">
        <ele>66.199996948242</ele>
        <time>2020-07-26T10:48:38.000Z</time>
      </trkpt>
      <trkpt lat="47.57513" lon="-2.32394">
        <ele>66.599998474121</ele>
        <time>2020-07-26T10:48:39.000Z</time>
      </trkpt>
      <trkpt lat="47.57526" lon="-2.32435">
        <ele>66.599998474121</ele>
        <time>2020-07-26T10:48:44.000Z</time>
      </trkpt>
      <trkpt lat="47.57546" lon="-2.32506">
        <ele>66.599998474121</ele>
        <time>2020-07-26T10:48:52.000Z</time>
      </trkpt>
      <trkpt lat="47.5757" lon="-2.32583">
        <ele>66.599998474121</ele>
        <time>2020-07-26T10:49:01.000Z</time>
      </trkpt>
      <trkpt lat="47.57573" lon="-2.32591">
        <ele>66.599998474121</ele>
        <time>2020-07-26T10:49:02.000Z</time>
      </trkpt>
      <trkpt lat="47.57586" lon="-2.32621">
        <ele>66.599998474121</ele>
        <time>2020-07-26T10:49:06.000Z</time>
      </trkpt>
      <trkpt lat="47.57604" lon="-2.32665">
        <ele>66.599998474121</ele>
        <time>2020-07-26T10:49:12.000Z</time>
      </trkpt>
      <trkpt lat="47.57623" lon="-2.32714">
        <ele>66.599998474121</ele>
        <time>2020-07-26T10:49:19.000Z</time>
      </trkpt>
      <trkpt lat="47.57646" lon="-2.3277">
        <ele>66.599998474121</ele>
        <time>2020-07-26T10:49:27.000Z</time>
      </trkpt>
      <trkpt lat="47.5766" lon="-2.32816">
        <ele>66.599998474121</ele>
        <time>2020-07-26T10:49:33.000Z</time>
      </trkpt>
      <trkpt lat="47.57673" lon="-2.3286">
        <ele>66.599998474121</ele>
        <time>2020-07-26T10:49:39.000Z</time>
      </trkpt>
      <trkpt lat="47.57675" lon="-2.32867">
        <ele>66.599998474121</ele>
        <time>2020-07-26T10:49:40.000Z</time>
      </trkpt>
      <trkpt lat="47.57679" lon="-2.32913">
        <ele>66.599998474121</ele>
        <time>2020-07-26T10:49:46.000Z</time>
      </trkpt>
      <trkpt lat="47.5768" lon="-2.32969">
        <ele>66.599998474121</ele>
        <time>2020-07-26T10:49:53.000Z</time>
      </trkpt>
      <trkpt lat="47.5768" lon="-2.32984">
        <ele>67.199996948242</ele>
        <time>2020-07-26T10:49:55.000Z</time>
      </trkpt>
      <trkpt lat="47.5768" lon="-2.32991">
        <ele>67.599998474121</ele>
        <time>2020-07-26T10:49:56.000Z</time>
      </trkpt>
      <trkpt lat="47.5768" lon="-2.32999">
        <ele>68</ele>
        <time>2020-07-26T10:49:57.000Z</time>
      </trkpt>
      <trkpt lat="47.57679" lon="-2.33007">
        <ele>68.400001525879</ele>
        <time>2020-07-26T10:49:58.000Z</time>
      </trkpt>
      <trkpt lat="47.57679" lon="-2.33015">
        <ele>68.800003051758</ele>
        <time>2020-07-26T10:49:59.000Z</time>
      </trkpt>
      <trkpt lat="47.57682" lon="-2.33068">
        <ele>68.800003051758</ele>
        <time>2020-07-26T10:50:06.000Z</time>
      </trkpt>
      <trkpt lat="47.57689" lon="-2.33098">
        <ele>68.800003051758</ele>
        <time>2020-07-26T10:50:10.000Z</time>
      </trkpt>
      <trkpt lat="47.5769" lon="-2.33106">
        <ele>68.800003051758</ele>
        <time>2020-07-26T10:50:11.000Z</time>
      </trkpt>
      <trkpt lat="47.57701" lon="-2.3316">
        <ele>68.800003051758</ele>
        <time>2020-07-26T10:50:18.000Z</time>
      </trkpt>
      <trkpt lat="47.57718" lon="-2.33209">
        <ele>68.800003051758</ele>
        <time>2020-07-26T10:50:25.000Z</time>
      </trkpt>
      <trkpt lat="47.57731" lon="-2.33245">
        <ele>68.800003051758</ele>
        <time>2020-07-26T10:50:31.000Z</time>
      </trkpt>
      <trkpt lat="47.57733" lon="-2.33251">
        <ele>68.400001525879</ele>
        <time>2020-07-26T10:50:32.000Z</time>
      </trkpt>
      <trkpt lat="47.57735" lon="-2.33257">
        <ele>68</ele>
        <time>2020-07-26T10:50:33.000Z</time>
      </trkpt>
      <trkpt lat="47.57738" lon="-2.33263">
        <ele>67.400001525879</ele>
        <time>2020-07-26T10:50:34.000Z</time>
      </trkpt>
      <trkpt lat="47.5774" lon="-2.33269">
        <ele>67</ele>
        <time>2020-07-26T10:50:35.000Z</time>
      </trkpt>
      <trkpt lat="47.57743" lon="-2.33276">
        <ele>66.599998474121</ele>
        <time>2020-07-26T10:50:36.000Z</time>
      </trkpt>
      <trkpt lat="47.57749" lon="-2.33289">
        <ele>66.599998474121</ele>
        <time>2020-07-26T10:50:38.000Z</time>
      </trkpt>
      <trkpt lat="47.57766" lon="-2.33332">
        <ele>66.599998474121</ele>
        <time>2020-07-26T10:50:44.000Z</time>
      </trkpt>
      <trkpt lat="47.57769" lon="-2.33339">
        <ele>66.599998474121</ele>
        <time>2020-07-26T10:50:45.000Z</time>
      </trkpt>
      <trkpt lat="47.57775" lon="-2.33353">
        <ele>66.599998474121</ele>
        <time>2020-07-26T10:50:47.000Z</time>
      </trkpt>
      <trkpt lat="47.57784" lon="-2.33364">
        <ele>66.199996948242</ele>
        <time>2020-07-26T10:50:49.000Z</time>
      </trkpt>
      <trkpt lat="47.57789" lon="-2.33368">
        <ele>65.800003051758</ele>
        <time>2020-07-26T10:50:50.000Z</time>
      </trkpt>
      <trkpt lat="47.57793" lon="-2.33373">
        <ele>65.400001525879</ele>
        <time>2020-07-26T10:50:51.000Z</time>
      </trkpt>
      <trkpt lat="47.57798" lon="-2.33378">
        <ele>65</ele>
        <time>2020-07-26T10:50:52.000Z</time>
      </trkpt>
      <trkpt lat="47.57803" lon="-2.33383">
        <ele>64.599998474121</ele>
        <time>2020-07-26T10:50:53.000Z</time>
      </trkpt>
      <trkpt lat="47.57807" lon="-2.33389">
        <ele>64.599998474121</ele>
        <time>2020-07-26T10:50:54.000Z</time>
      </trkpt>
      <trkpt lat="47.57815" lon="-2.33401">
        <ele>64.599998474121</ele>
        <time>2020-07-26T10:50:56.000Z</time>
      </trkpt>
      <trkpt lat="47.5782" lon="-2.33405">
        <ele>64.599998474121</ele>
        <time>2020-07-26T10:50:57.000Z</time>
      </trkpt>
      <trkpt lat="47.5783" lon="-2.33411">
        <ele>64.199996948242</ele>
        <time>2020-07-26T10:50:59.000Z</time>
      </trkpt>
      <trkpt lat="47.57836" lon="-2.33412">
        <ele>63.599998474121</ele>
        <time>2020-07-26T10:51:00.000Z</time>
      </trkpt>
      <trkpt lat="47.57842" lon="-2.33412">
        <ele>63.200000762939</ele>
        <time>2020-07-26T10:51:01.000Z</time>
      </trkpt>
      <trkpt lat="47.57848" lon="-2.33413">
        <ele>62.799999237061</ele>
        <time>2020-07-26T10:51:02.000Z</time>
      </trkpt>
      <trkpt lat="47.57853" lon="-2.33415">
        <ele>61.799999237061</ele>
        <time>2020-07-26T10:51:03.000Z</time>
      </trkpt>
      <trkpt lat="47.57858" lon="-2.33417">
        <ele>61.400001525879</ele>
        <time>2020-07-26T10:51:04.000Z</time>
      </trkpt>
      <trkpt lat="47.57863" lon="-2.3342">
        <ele>61</ele>
        <time>2020-07-26T10:51:05.000Z</time>
      </trkpt>
      <trkpt lat="47.57868" lon="-2.33423">
        <ele>60.599998474121</ele>
        <time>2020-07-26T10:51:06.000Z</time>
      </trkpt>
      <trkpt lat="47.57874" lon="-2.33426">
        <ele>60</ele>
        <time>2020-07-26T10:51:07.000Z</time>
      </trkpt>
      <trkpt lat="47.57879" lon="-2.3343">
        <ele>59.599998474121</ele>
        <time>2020-07-26T10:51:08.000Z</time>
      </trkpt>
      <trkpt lat="47.57884" lon="-2.33435">
        <ele>59</ele>
        <time>2020-07-26T10:51:09.000Z</time>
      </trkpt>
      <trkpt lat="47.57888" lon="-2.33441">
        <ele>58.400001525879</ele>
        <time>2020-07-26T10:51:10.000Z</time>
      </trkpt>
      <trkpt lat="47.57893" lon="-2.33446">
        <ele>57.799999237061</ele>
        <time>2020-07-26T10:51:11.000Z</time>
      </trkpt>
      <trkpt lat="47.57897" lon="-2.33453">
        <ele>57.400001525879</ele>
        <time>2020-07-26T10:51:12.000Z</time>
      </trkpt>
      <trkpt lat="47.57901" lon="-2.3346">
        <ele>57</ele>
        <time>2020-07-26T10:51:13.000Z</time>
      </trkpt>
      <trkpt lat="47.57905" lon="-2.33467">
        <ele>56.599998474121</ele>
        <time>2020-07-26T10:51:14.000Z</time>
      </trkpt>
      <trkpt lat="47.5791" lon="-2.33475">
        <ele>56.200000762939</ele>
        <time>2020-07-26T10:51:15.000Z</time>
      </trkpt>
      <trkpt lat="47.57914" lon="-2.33482">
        <ele>55.799999237061</ele>
        <time>2020-07-26T10:51:16.000Z</time>
      </trkpt>
      <trkpt lat="47.57921" lon="-2.33493">
        <ele>55.200000762939</ele>
        <time>2020-07-26T10:51:18.000Z</time>
      </trkpt>
      <trkpt lat="47.57922" lon="-2.33497">
        <ele>54.799999237061</ele>
        <time>2020-07-26T10:51:19.000Z</time>
      </trkpt>
      <trkpt lat="47.57923" lon="-2.33499">
        <ele>54.200000762939</ele>
        <time>2020-07-26T10:51:20.000Z</time>
      </trkpt>
      <trkpt lat="47.57924" lon="-2.33502">
        <ele>53.799999237061</ele>
        <time>2020-07-26T10:51:21.000Z</time>
      </trkpt>
      <trkpt lat="47.57924" lon="-2.33506">
        <ele>53.200000762939</ele>
        <time>2020-07-26T10:51:22.000Z</time>
      </trkpt>
      <trkpt lat="47.57927" lon="-2.33523">
        <ele>53.200000762939</ele>
        <time>2020-07-26T10:51:26.000Z</time>
      </trkpt>
      <trkpt lat="47.5793" lon="-2.33559">
        <ele>53.200000762939</ele>
        <time>2020-07-26T10:51:32.000Z</time>
      </trkpt>
      <trkpt lat="47.57936" lon="-2.33585">
        <ele>53.799999237061</ele>
        <time>2020-07-26T10:51:37.000Z</time>
      </trkpt>
      <trkpt lat="47.57938" lon="-2.33588">
        <ele>54.200000762939</ele>
        <time>2020-07-26T10:51:38.000Z</time>
      </trkpt>
      <trkpt lat="47.57939" lon="-2.33592">
        <ele>54.599998474121</ele>
        <time>2020-07-26T10:51:39.000Z</time>
      </trkpt>
      <trkpt lat="47.57941" lon="-2.33597">
        <ele>55</ele>
        <time>2020-07-26T10:51:40.000Z</time>
      </trkpt>
      <trkpt lat="47.57944" lon="-2.33602">
        <ele>55.400001525879</ele>
        <time>2020-07-26T10:51:41.000Z</time>
      </trkpt>
      <trkpt lat="47.57949" lon="-2.33616">
        <ele>55.400001525879</ele>
        <time>2020-07-26T10:51:44.000Z</time>
      </trkpt>
      <trkpt lat="47.57954" lon="-2.33626">
        <ele>55.799999237061</ele>
        <time>2020-07-26T10:51:46.000Z</time>
      </trkpt>
      <trkpt lat="47.57956" lon="-2.33631">
        <ele>56.200000762939</ele>
        <time>2020-07-26T10:51:47.000Z</time>
      </trkpt>
      <trkpt lat="47.57958" lon="-2.33636">
        <ele>56.799999237061</ele>
        <time>2020-07-26T10:51:48.000Z</time>
      </trkpt>
      <trkpt lat="47.57959" lon="-2.33641">
        <ele>57.200000762939</ele>
        <time>2020-07-26T10:51:49.000Z</time>
      </trkpt>
      <trkpt lat="47.57961" lon="-2.33646">
        <ele>57.599998474121</ele>
        <time>2020-07-26T10:51:50.000Z</time>
      </trkpt>
      <trkpt lat="47.57963" lon="-2.33656">
        <ele>58.400001525879</ele>
        <time>2020-07-26T10:51:52.000Z</time>
      </trkpt>
      <trkpt lat="47.57965" lon="-2.3366">
        <ele>59</ele>
        <time>2020-07-26T10:51:53.000Z</time>
      </trkpt>
      <trkpt lat="47.57966" lon="-2.33665">
        <ele>59.400001525879</ele>
        <time>2020-07-26T10:51:54.000Z</time>
      </trkpt>
      <trkpt lat="47.57967" lon="-2.3367">
        <ele>59.799999237061</ele>
        <time>2020-07-26T10:51:55.000Z</time>
      </trkpt>
      <trkpt lat="47.57969" lon="-2.33689">
        <ele>59.799999237061</ele>
        <time>2020-07-26T10:51:59.000Z</time>
      </trkpt>
      <trkpt lat="47.5797" lon="-2.33694">
        <ele>60.200000762939</ele>
        <time>2020-07-26T10:52:00.000Z</time>
      </trkpt>
      <trkpt lat="47.57971" lon="-2.33699">
        <ele>60.599998474121</ele>
        <time>2020-07-26T10:52:01.000Z</time>
      </trkpt>
      <trkpt lat="47.57972" lon="-2.33704">
        <ele>61</ele>
        <time>2020-07-26T10:52:02.000Z</time>
      </trkpt>
      <trkpt lat="47.57974" lon="-2.33708">
        <ele>61.400001525879</ele>
        <time>2020-07-26T10:52:03.000Z</time>
      </trkpt>
      <trkpt lat="47.57975" lon="-2.33713">
        <ele>61.799999237061</ele>
        <time>2020-07-26T10:52:04.000Z</time>
      </trkpt>
      <trkpt lat="47.57976" lon="-2.33724">
        <ele>61.799999237061</ele>
        <time>2020-07-26T10:52:06.000Z</time>
      </trkpt>
      <trkpt lat="47.5798" lon="-2.33762">
        <ele>61.799999237061</ele>
        <time>2020-07-26T10:52:13.000Z</time>
      </trkpt>
      <trkpt lat="47.57983" lon="-2.33785">
        <ele>62.200000762939</ele>
        <time>2020-07-26T10:52:17.000Z</time>
      </trkpt>
      <trkpt lat="47.57983" lon="-2.33791">
        <ele>62.799999237061</ele>
        <time>2020-07-26T10:52:18.000Z</time>
      </trkpt>
      <trkpt lat="47.57984" lon="-2.33798">
        <ele>63.200000762939</ele>
        <time>2020-07-26T10:52:19.000Z</time>
      </trkpt>
      <trkpt lat="47.57985" lon="-2.33805">
        <ele>63.599998474121</ele>
        <time>2020-07-26T10:52:20.000Z</time>
      </trkpt>
      <trkpt lat="47.57985" lon="-2.33811">
        <ele>64</ele>
        <time>2020-07-26T10:52:21.000Z</time>
      </trkpt>
      <trkpt lat="47.57991" lon="-2.33841">
        <ele>64</ele>
        <time>2020-07-26T10:52:27.000Z</time>
      </trkpt>
      <trkpt lat="47.58002" lon="-2.33871">
        <ele>64</ele>
        <time>2020-07-26T10:52:33.000Z</time>
      </trkpt>
      <trkpt lat="47.58017" lon="-2.33906">
        <ele>64</ele>
        <time>2020-07-26T10:52:40.000Z</time>
      </trkpt>
      <trkpt lat="47.58019" lon="-2.3391">
        <ele>64</ele>
        <time>2020-07-26T10:52:41.000Z</time>
      </trkpt>
      <trkpt lat="47.58035" lon="-2.33916">
        <ele>64</ele>
        <time>2020-07-26T10:52:45.000Z</time>
      </trkpt>
      <trkpt lat="47.5804" lon="-2.33917">
        <ele>64</ele>
        <time>2020-07-26T10:52:46.000Z</time>
      </trkpt>
      <trkpt lat="47.58061" lon="-2.33923">
        <ele>64</ele>
        <time>2020-07-26T10:52:50.000Z</time>
      </trkpt>
      <trkpt lat="47.58066" lon="-2.33927">
        <ele>64</ele>
        <time>2020-07-26T10:52:51.000Z</time>
      </trkpt>
      <trkpt lat="47.58078" lon="-2.33942">
        <ele>64</ele>
        <time>2020-07-26T10:52:54.000Z</time>
      </trkpt>
      <trkpt lat="47.58082" lon="-2.33948">
        <ele>64</ele>
        <time>2020-07-26T10:52:55.000Z</time>
      </trkpt>
      <trkpt lat="47.58085" lon="-2.33954">
        <ele>64</ele>
        <time>2020-07-26T10:52:56.000Z</time>
      </trkpt>
      <trkpt lat="47.58094" lon="-2.33972">
        <ele>64</ele>
        <time>2020-07-26T10:52:59.000Z</time>
      </trkpt>
      <trkpt lat="47.58098" lon="-2.33981">
        <ele>64</ele>
        <time>2020-07-26T10:53:01.000Z</time>
      </trkpt>
      <trkpt lat="47.58098" lon="-2.34006">
        <ele>64</ele>
        <time>2020-07-26T10:53:05.000Z</time>
      </trkpt>
      <trkpt lat="47.58097" lon="-2.34013">
        <ele>64</ele>
        <time>2020-07-26T10:53:06.000Z</time>
      </trkpt>
      <trkpt lat="47.58094" lon="-2.34046">
        <ele>64</ele>
        <time>2020-07-26T10:53:11.000Z</time>
      </trkpt>
      <trkpt lat="47.58093" lon="-2.34072">
        <ele>64</ele>
        <time>2020-07-26T10:53:16.000Z</time>
      </trkpt>
      <trkpt lat="47.58093" lon="-2.34103">
        <ele>64</ele>
        <time>2020-07-26T10:53:22.000Z</time>
      </trkpt>
      <trkpt lat="47.5809" lon="-2.34143">
        <ele>64</ele>
        <time>2020-07-26T10:53:29.000Z</time>
      </trkpt>
      <trkpt lat="47.58089" lon="-2.34156">
        <ele>64</ele>
        <time>2020-07-26T10:53:31.000Z</time>
      </trkpt>
      <trkpt lat="47.58087" lon="-2.34188">
        <ele>64</ele>
        <time>2020-07-26T10:53:36.000Z</time>
      </trkpt>
      <trkpt lat="47.58092" lon="-2.34228">
        <ele>64</ele>
        <time>2020-07-26T10:53:42.000Z</time>
      </trkpt>
      <trkpt lat="47.58095" lon="-2.34241">
        <ele>63.599998474121</ele>
        <time>2020-07-26T10:53:44.000Z</time>
      </trkpt>
      <trkpt lat="47.58095" lon="-2.34247">
        <ele>63.200000762939</ele>
        <time>2020-07-26T10:53:45.000Z</time>
      </trkpt>
      <trkpt lat="47.58097" lon="-2.34254">
        <ele>62.799999237061</ele>
        <time>2020-07-26T10:53:46.000Z</time>
      </trkpt>
      <trkpt lat="47.58099" lon="-2.34259">
        <ele>62.400001525879</ele>
        <time>2020-07-26T10:53:47.000Z</time>
      </trkpt>
      <trkpt lat="47.581" lon="-2.34266">
        <ele>62</ele>
        <time>2020-07-26T10:53:48.000Z</time>
      </trkpt>
      <trkpt lat="47.58105" lon="-2.34284">
        <ele>62</ele>
        <time>2020-07-26T10:53:51.000Z</time>
      </trkpt>
      <trkpt lat="47.5811" lon="-2.34308">
        <ele>62</ele>
        <time>2020-07-26T10:53:55.000Z</time>
      </trkpt>
      <trkpt lat="47.58116" lon="-2.34342">
        <ele>62</ele>
        <time>2020-07-26T10:54:01.000Z</time>
      </trkpt>
      <trkpt lat="47.5812" lon="-2.34366">
        <ele>62</ele>
        <time>2020-07-26T10:54:06.000Z</time>
      </trkpt>
      <trkpt lat="47.58122" lon="-2.34383">
        <ele>62</ele>
        <time>2020-07-26T10:54:10.000Z</time>
      </trkpt>
      <trkpt lat="47.58123" lon="-2.34387">
        <ele>62</ele>
        <time>2020-07-26T10:54:11.000Z</time>
      </trkpt>
      <trkpt lat="47.58126" lon="-2.34411">
        <ele>62</ele>
        <time>2020-07-26T10:54:16.000Z</time>
      </trkpt>
      <trkpt lat="47.58133" lon="-2.34451">
        <ele>62</ele>
        <time>2020-07-26T10:54:24.000Z</time>
      </trkpt>
      <trkpt lat="47.58136" lon="-2.34498">
        <ele>62</ele>
        <time>2020-07-26T10:54:32.000Z</time>
      </trkpt>
      <trkpt lat="47.58136" lon="-2.34504">
        <ele>62.400001525879</ele>
        <time>2020-07-26T10:54:33.000Z</time>
      </trkpt>
      <trkpt lat="47.58136" lon="-2.3451">
        <ele>62.799999237061</ele>
        <time>2020-07-26T10:54:34.000Z</time>
      </trkpt>
      <trkpt lat="47.58136" lon="-2.34517">
        <ele>63.200000762939</ele>
        <time>2020-07-26T10:54:35.000Z</time>
      </trkpt>
      <trkpt lat="47.58136" lon="-2.34523">
        <ele>63.599998474121</ele>
        <time>2020-07-26T10:54:36.000Z</time>
      </trkpt>
      <trkpt lat="47.58137" lon="-2.34529">
        <ele>64</ele>
        <time>2020-07-26T10:54:37.000Z</time>
      </trkpt>
      <trkpt lat="47.58137" lon="-2.34548">
        <ele>64</ele>
        <time>2020-07-26T10:54:40.000Z</time>
      </trkpt>
      <trkpt lat="47.58139" lon="-2.34598">
        <ele>64</ele>
        <time>2020-07-26T10:54:47.000Z</time>
      </trkpt>
      <trkpt lat="47.58141" lon="-2.34667">
        <ele>64</ele>
        <time>2020-07-26T10:54:55.000Z</time>
      </trkpt>
      <trkpt lat="47.58144" lon="-2.34732">
        <ele>64</ele>
        <time>2020-07-26T10:55:03.000Z</time>
      </trkpt>
      <trkpt lat="47.58146" lon="-2.34774">
        <ele>64</ele>
        <time>2020-07-26T10:55:09.000Z</time>
      </trkpt>
      <trkpt lat="47.58148" lon="-2.34833">
        <ele>64</ele>
        <time>2020-07-26T10:55:16.000Z</time>
      </trkpt>
      <trkpt lat="47.58149" lon="-2.34893">
        <ele>64</ele>
        <time>2020-07-26T10:55:24.000Z</time>
      </trkpt>
      <trkpt lat="47.5815" lon="-2.34932">
        <ele>64</ele>
        <time>2020-07-26T10:55:31.000Z</time>
      </trkpt>
      <trkpt lat="47.58143" lon="-2.34957">
        <ele>64</ele>
        <time>2020-07-26T10:55:37.000Z</time>
      </trkpt>
      <trkpt lat="47.58137" lon="-2.34974">
        <ele>64</ele>
        <time>2020-07-26T10:55:42.000Z</time>
      </trkpt>
      <trkpt lat="47.58125" lon="-2.34997">
        <ele>64</ele>
        <time>2020-07-26T10:55:48.000Z</time>
      </trkpt>
      <trkpt lat="47.58106" lon="-2.35029">
        <ele>64</ele>
        <time>2020-07-26T10:55:56.000Z</time>
      </trkpt>
      <trkpt lat="47.58094" lon="-2.35049">
        <ele>64.400001525879</ele>
        <time>2020-07-26T10:56:02.000Z</time>
      </trkpt>
      <trkpt lat="47.58092" lon="-2.35052">
        <ele>64.800003051758</ele>
        <time>2020-07-26T10:56:03.000Z</time>
      </trkpt>
      <trkpt lat="47.5809" lon="-2.35055">
        <ele>65.199996948242</ele>
        <time>2020-07-26T10:56:04.000Z</time>
      </trkpt>
      <trkpt lat="47.58089" lon="-2.35058">
        <ele>65.599998474121</ele>
        <time>2020-07-26T10:56:05.000Z</time>
      </trkpt>
      <trkpt lat="47.58087" lon="-2.35061">
        <ele>66</ele>
        <time>2020-07-26T10:56:06.000Z</time>
      </trkpt>
      <trkpt lat="47.5808" lon="-2.35074">
        <ele>66</ele>
        <time>2020-07-26T10:56:10.000Z</time>
      </trkpt>
      <trkpt lat="47.58068" lon="-2.3509">
        <ele>66</ele>
        <time>2020-07-26T10:56:16.000Z</time>
      </trkpt>
      <trkpt lat="47.58055" lon="-2.35102">
        <ele>66</ele>
        <time>2020-07-26T10:56:22.000Z</time>
      </trkpt>
      <trkpt lat="47.58044" lon="-2.35106">
        <ele>66.400001525879</ele>
        <time>2020-07-26T10:56:26.000Z</time>
      </trkpt>
      <trkpt lat="47.58042" lon="-2.35107">
        <ele>67</ele>
        <time>2020-07-26T10:56:27.000Z</time>
      </trkpt>
      <trkpt lat="47.58039" lon="-2.35109">
        <ele>67.400001525879</ele>
        <time>2020-07-26T10:56:28.000Z</time>
      </trkpt>
      <trkpt lat="47.58037" lon="-2.35111">
        <ele>67.800003051758</ele>
        <time>2020-07-26T10:56:29.000Z</time>
      </trkpt>
      <trkpt lat="47.58035" lon="-2.35112">
        <ele>68.199996948242</ele>
        <time>2020-07-26T10:56:30.000Z</time>
      </trkpt>
      <trkpt lat="47.58027" lon="-2.35125">
        <ele>68.199996948242</ele>
        <time>2020-07-26T10:56:36.000Z</time>
      </trkpt>
      <trkpt lat="47.58027" lon="-2.35127">
        <ele>68.599998474121</ele>
        <time>2020-07-26T10:56:37.000Z</time>
      </trkpt>
      <trkpt lat="47.58027" lon="-2.35129">
        <ele>69</ele>
        <time>2020-07-26T10:56:38.000Z</time>
      </trkpt>
      <trkpt lat="47.58028" lon="-2.35132">
        <ele>69.400001525879</ele>
        <time>2020-07-26T10:56:39.000Z</time>
      </trkpt>
      <trkpt lat="47.58028" lon="-2.35135">
        <ele>69.800003051758</ele>
        <time>2020-07-26T10:56:40.000Z</time>
      </trkpt>
      <trkpt lat="47.58028" lon="-2.35139">
        <ele>70.199996948242</ele>
        <time>2020-07-26T10:56:41.000Z</time>
      </trkpt>
      <trkpt lat="47.58029" lon="-2.35141">
        <ele>70.199996948242</ele>
        <time>2020-07-26T10:56:42.000Z</time>
      </trkpt>
      <trkpt lat="47.58029" lon="-2.35147">
        <ele>70.199996948242</ele>
        <time>2020-07-26T10:56:46.000Z</time>
      </trkpt>
    </trkseg>
  </trk>
</gpx>